
Distance (Route):
Temperature : 9.1°C
Humidity : 39.7%
Pressure : 0hPa| Receiver | Frames | First received | Last received |
|---|---|---|---|
| 9A1FER-3 | 431 | 2026-09-03 11:18:01 | 2026-09-03 13:09:44 |
| 9A1FER-15 | 392 | 2026-09-03 11:18:01 | 2026-09-03 13:03:32 |
| 9A1FER-10 | 368 | 2026-09-03 11:17:58 | 2026-09-03 13:13:00 |
| PETON7-10 | 138 | 2026-09-03 12:14:23 | 2026-09-03 13:00:46 |
| OE3JTB-15 | 66 | 2026-09-03 11:59:22 | 2026-09-03 13:02:23 |
| OE8JPQ-2 | 58 | 2026-09-03 12:28:35 | 2026-09-03 12:56:40 |
| PG1ADW-2 | 50 | 2026-09-03 12:39:06 | 2026-09-03 12:57:18 |
| OE5DRO-10 | 49 | 2026-09-03 12:33:14 | 2026-09-03 12:58:26 |
| OM5KV | 47 | 2026-09-03 11:39:56 | 2026-09-03 11:43:04 |
| OE5DXL-15 | 9 | 2026-09-03 12:43:11 | 2026-09-03 12:58:41 |
| Receiver | Date | Latitude | Longitude | Direction | Speed | Altitude | Climb | Temperature | Humidity | Pressure | Voltage | Killtimer | Uptime | BKT | XDATA |
|---|---|---|---|---|---|---|---|---|---|---|---|---|---|---|---|
| 9A1FER-10 | 2026-09-03 13:13:00 | 45.25114 | 16.65656 | 149° | 18km/h | 2437m | -15.3m/s | 9.1°C | 39.7% | 0hPa | 2.7V | 00:00:00 | 02:08:20 | 00:00:00 | |
| 9A1FER-10 | 2026-09-03 13:12:50 | 45.25154 | 16.65629 | 156° | 22km/h | 2594m | -16.2m/s | 7.6°C | 49.3% | 0hPa | 2.5V | 00:00:00 | 02:08:10 | 00:00:00 | |
| 9A1FER-10 | 2026-09-03 13:12:33 | 45.25237 | 16.65550 | 135° | 24km/h | 2860m | -15.3m/s | 5.7°C | 59.5% | 0hPa | 2.5V | 00:00:00 | 02:07:53 | 00:00:00 | |
| 9A1FER-10 | 2026-09-03 13:12:23 | 45.25276 | 16.65489 | 131° | 22km/h | 3015m | -16.0m/s | 4.6°C | 60.9% | 0hPa | 2.5V | 08:13:00 | 02:07:43 | 00:00:00 | |
| 9A1FER-10 | 2026-09-03 13:11:47 | 45.25412 | 16.65263 | 123° | 26km/h | 3591m | -15.2m/s | 0.6°C | 73.6% | 0hPa | 2.6V | 00:00:00 | 02:07:07 | 00:00:00 | |
| 9A1FER-10 | 2026-09-03 13:11:13 | 45.25583 | 16.65047 | 146° | 31km/h | 4081m | -14.7m/s | -2.3°C | 68.1% | 0hPa | 2.6V | 00:00:00 | 02:06:33 | 00:00:00 | |
| 9A1FER-10 | 2026-09-03 13:10:58 | 45.25680 | 16.64955 | 144° | 31km/h | 4300m | -14.3m/s | -2.9°C | 53.8% | 0hPa | 2.6V | 00:00:00 | 02:06:18 | 00:00:00 | |
| 9A1FER-10 | 2026-09-03 13:10:43 | 45.25775 | 16.64860 | 147° | 35km/h | 4518m | -14.5m/s | -4.7°C | 58.4% | 0hPa | 2.6V | 00:00:00 | 02:06:03 | 00:00:00 | |
| 9A1FER-10 | 2026-09-03 13:10:28 | 45.25884 | 16.64763 | 151° | 47km/h | 4733m | -14.7m/s | -6.2°C | 46.4% | 0hPa | 2.6V | 00:00:00 | 02:05:48 | 00:00:00 | |
| 9A1FER-10 | 2026-09-03 13:09:50 | 45.26287 | 16.64603 | 163° | 53km/h | 5293m | -15.0m/s | -7.8°C | 6.8% | 0hPa | 2.6V | 00:00:00 | 02:05:10 | 00:00:00 | |
| 9A1FER-3 | 2026-09-03 13:09:44 | 45.26361 | 16.64568 | 164° | 53km/h | 5383m | -15.2m/s | -8.3°C | 5.1% | 0hPa | 2.5V | 00:00:00 | 02:05:04 | 00:00:00 | |
| 9A1FER-10 | 2026-09-03 13:09:35 | 45.26477 | 16.64511 | 158° | 53km/h | 5519m | -15.2m/s | -9.0°C | 3.4% | 0hPa | 2.5V | 00:00:00 | 02:04:55 | 00:00:00 | |
| 9A1FER-3 | 2026-09-03 13:09:29 | 45.26553 | 16.64468 | 159° | 53km/h | 5611m | -15.4m/s | -9.5°C | 4.2% | 0hPa | 2.5V | 08:16:00 | 02:04:49 | 00:00:00 | |
| 9A1FER-10 | 2026-09-03 13:09:20 | 45.26662 | 16.64397 | 157° | 55km/h | 5749m | -15.8m/s | -10.0°C | 4.8% | 0hPa | 2.5V | 00:00:00 | 02:04:40 | 00:00:00 | |
| 9A1FER-3 | 2026-09-03 13:09:14 | 45.26736 | 16.64349 | 156° | 58km/h | 5840m | -15.1m/s | -10.7°C | 5.8% | 0hPa | 2.5V | 00:00:00 | 02:04:34 | 00:00:00 | |
| 9A1FER-10 | 2026-09-03 13:09:05 | 45.26849 | 16.64257 | 149° | 58km/h | 5979m | -15.5m/s | -11.7°C | 25.0% | 0hPa | 2.5V | 08:16:00 | 02:04:25 | 00:00:00 | |
| 9A1FER-3 | 2026-09-03 13:08:55 | 45.26972 | 16.64137 | 143° | 58km/h | 6136m | -15.9m/s | -13.1°C | 27.0% | 0hPa | 2.5V | 00:00:00 | 02:04:15 | 00:00:00 | |
| 9A1FER-10 | 2026-09-03 13:08:50 | 45.27032 | 16.64073 | 142° | 58km/h | 6215m | -16.0m/s | -13.8°C | 29.9% | 0hPa | 2.5V | 00:00:00 | 02:04:10 | 00:00:00 | |
| 9A1FER-3 | 2026-09-03 13:08:40 | 45.27149 | 16.63944 | 144° | 62km/h | 6372m | -15.9m/s | -15.1°C | 37.0% | 0hPa | 2.5V | 00:00:00 | 02:04:00 | 00:00:00 | |
| 9A1FER-10 | 2026-09-03 13:08:35 | 45.27205 | 16.63881 | 145° | 62km/h | 6451m | -16.0m/s | -15.8°C | 41.9% | 0hPa | 2.6V | 00:00:00 | 02:03:55 | 00:00:00 | |
| 9A1FER-10 | 2026-09-03 13:08:17 | 45.27430 | 16.63656 | 148° | 64km/h | 6737m | -15.9m/s | -17.8°C | 50.8% | 0hPa | 2.6V | 00:00:00 | 02:03:37 | 00:00:00 | |
| 9A1FER-3 | 2026-09-03 13:08:11 | 45.27515 | 16.63581 | 150° | 64km/h | 6833m | -16.2m/s | -18.6°C | 47.6% | 0hPa | 2.5V | 00:00:00 | 02:03:31 | 00:00:00 | |
| 9A1FER-10 | 2026-09-03 13:08:02 | 45.27640 | 16.63475 | 151° | 62km/h | 6978m | -16.2m/s | -19.0°C | 15.1% | 0hPa | 2.5V | 00:00:00 | 02:03:22 | 00:00:00 | |
| 9A1FER-3 | 2026-09-03 13:07:56 | 45.27721 | 16.63401 | 146° | 62km/h | 7075m | -16.7m/s | -19.3°C | 9.7% | 0hPa | 2.5V | 00:00:00 | 02:03:16 | 00:00:00 | |
| 9A1FER-10 | 2026-09-03 13:07:47 | 45.27835 | 16.63285 | 146° | 64km/h | 7222m | -16.1m/s | -19.9°C | 9.3% | 0hPa | 2.5V | 00:00:00 | 02:03:07 | 00:00:00 | |
| 9A1FER-3 | 2026-09-03 13:07:41 | 45.27909 | 16.63204 | 141° | 69km/h | 7319m | -16.3m/s | -20.5°C | 18.5% | 0hPa | 2.5V | 00:00:00 | 02:03:01 | 00:00:00 | |
| 9A1FER-10 | 2026-09-03 13:07:32 | 45.28024 | 16.63073 | 141° | 69km/h | 7467m | -16.6m/s | -21.2°C | 22.5% | 0hPa | 2.6V | 00:00:00 | 02:02:52 | 00:00:00 | |
| 9A1FER-3 | 2026-09-03 13:07:21 | 45.28170 | 16.62896 | 140° | 71km/h | 7649m | -16.7m/s | -22.7°C | 22.7% | 0hPa | 2.5V | 00:00:00 | 02:02:41 | 00:00:00 | |
| 9A1FER-10 | 2026-09-03 13:07:17 | 45.28223 | 16.62830 | 140° | 71km/h | 7716m | -17.0m/s | -23.3°C | 23.8% | 0hPa | 2.5V | 00:00:00 | 02:02:37 | 00:00:00 | |
| 9A1FER-10 | 2026-09-03 13:07:02 | 45.28430 | 16.62590 | 145° | 77km/h | 7967m | -16.7m/s | -25.6°C | 28.5% | 0hPa | 2.5V | 00:00:00 | 02:02:22 | 00:00:00 | |
| 9A1FER-3 | 2026-09-03 13:06:59 | 45.28475 | 16.62543 | 146° | 78km/h | 8017m | -17.1m/s | -26.0°C | 29.6% | 0hPa | 2.5V | 00:00:00 | 02:02:19 | 00:00:00 | |
| 9A1FER-10 | 2026-09-03 13:06:47 | 45.28668 | 16.62355 | 145° | 82km/h | 8214m | -16.2m/s | -27.5°C | 31.0% | 0hPa | 2.5V | 08:18:00 | 02:02:07 | 00:00:00 | |
| 9A1FER-3 | 2026-09-03 13:06:44 | 45.28718 | 16.62308 | 145° | 82km/h | 8261m | -16.0m/s | -27.9°C | 31.8% | 0hPa | 2.6V | 08:19:00 | 02:02:04 | 00:00:00 | |
| 9A1FER-10 | 2026-09-03 13:06:32 | 45.28926 | 16.62116 | 147° | 88km/h | 8457m | -15.9m/s | -29.7°C | 36.8% | 0hPa | 2.5V | 00:00:00 | 02:01:52 | 00:00:00 | |
| 9A1FER-3 | 2026-09-03 13:06:29 | 45.28982 | 16.62067 | 150° | 93km/h | 8505m | -16.3m/s | -30.1°C | 38.8% | 0hPa | 2.5V | 00:00:00 | 02:01:49 | 00:00:00 | |
| 9A1FER-10 | 2026-09-03 13:06:17 | 45.29210 | 16.61876 | 153° | 89km/h | 8698m | -15.4m/s | -31.8°C | 40.4% | 0hPa | 2.5V | 00:00:00 | 02:01:37 | 00:00:00 | |
| 9A1FER-10 | 2026-09-03 13:06:02 | 45.29511 | 16.61639 | 151° | 99km/h | 8935m | -16.4m/s | -33.8°C | 40.1% | 0hPa | 2.5V | 00:00:00 | 02:01:22 | 00:00:00 | |
| 9A1FER-3 | 2026-09-03 13:05:52 | 45.29726 | 16.61470 | 152° | 102km/h | 9102m | -16.9m/s | -35.0°C | 39.8% | 0hPa | 2.5V | 00:00:00 | 02:01:12 | 00:00:00 | |
| 9A1FER-10 | 2026-09-03 13:05:46 | 45.29858 | 16.61367 | 151° | 104km/h | 9200m | -16.4m/s | -35.9°C | 42.9% | 0hPa | 2.5V | 00:00:00 | 02:01:06 | 00:00:00 | |
| 9A1FER-3 | 2026-09-03 13:05:37 | 45.30063 | 16.61206 | 150° | 110km/h | 9356m | -17.5m/s | -37.2°C | 56.1% | 0hPa | 2.5V | 00:00:00 | 02:00:57 | 00:00:00 | |
| 9A1FER-10 | 2026-09-03 13:05:31 | 45.30205 | 16.61095 | 152° | 110km/h | 9462m | -18.0m/s | -38.2°C | 59.4% | 0hPa | 2.5V | 00:00:00 | 02:00:51 | 00:00:00 | |
| 9A1FER-3 | 2026-09-03 13:05:20 | 45.30476 | 16.60894 | 157° | 111km/h | 9649m | -16.1m/s | -39.7°C | 54.9% | 0hPa | 2.5V | 00:00:00 | 02:00:40 | 00:00:00 | |
| 9A1FER-10 | 2026-09-03 13:05:16 | 45.30578 | 16.60827 | 156° | 111km/h | 9715m | -16.8m/s | -40.3°C | 50.8% | 0hPa | 2.5V | 00:00:00 | 02:00:36 | 00:00:00 | |
| 9A1FER-3 | 2026-09-03 13:05:05 | 45.30864 | 16.60656 | 159° | 120km/h | 9909m | -17.9m/s | -42.0°C | 48.9% | 0hPa | 2.6V | 00:00:00 | 02:00:25 | 00:00:00 | |
| 9A1FER-10 | 2026-09-03 13:05:01 | 45.30971 | 16.60594 | 158° | 122km/h | 9982m | -18.4m/s | -42.7°C | 49.5% | 0hPa | 2.6V | 00:00:00 | 02:00:21 | 00:00:00 | |
| 9A1FER-3 | 2026-09-03 13:04:49 | 45.31315 | 16.60406 | 160° | 120km/h | 10210m | -19.3m/s | -44.4°C | 40.3% | 0hPa | 2.6V | 00:00:00 | 02:00:09 | 00:00:00 | |
| 9A1FER-10 | 2026-09-03 13:04:46 | 45.31403 | 16.60359 | 160° | 120km/h | 10268m | -19.2m/s | -44.9°C | 39.3% | 0hPa | 2.5V | 00:00:00 | 02:00:06 | 00:00:00 | |
| 9A1FER-10 | 2026-09-03 13:04:31 | 45.31829 | 16.60112 | 158° | 119km/h | 10561m | -19.5m/s | -47.3°C | 41.4% | 0hPa | 2.5V | 08:21:00 | 01:59:51 | 00:00:00 | |
| 9A1FER-3 | 2026-09-03 13:04:19 | 45.32158 | 16.59911 | 156° | 122km/h | 10801m | -20.3m/s | -49.3°C | 42.4% | 0hPa | 2.5V | 00:00:00 | 01:59:39 | 00:00:00 | |
| 9A1FER-10 | 2026-09-03 13:04:16 | 45.32240 | 16.59860 | 158° | 124km/h | 10862m | -20.2m/s | -49.7°C | 42.1% | 0hPa | 2.5V | 00:00:00 | 01:59:36 | 00:00:00 | |
| 9A1FER-3 | 2026-09-03 13:04:04 | 45.32586 | 16.59653 | 157° | 124km/h | 11110m | -21.0m/s | -51.4°C | 41.6% | 0hPa | 2.5V | 00:00:00 | 01:59:24 | 00:00:00 | |
| 9A1FER-10 | 2026-09-03 13:04:01 | 45.32675 | 16.59601 | 159° | 120km/h | 11173m | -20.9m/s | -52.0°C | 41.5% | 0hPa | 2.5V | 00:00:00 | 01:59:21 | 00:00:00 | |
| 9A1FER-3 | 2026-09-03 13:03:49 | 45.33016 | 16.59395 | 156° | 108km/h | 11424m | -21.2m/s | -53.4°C | 39.9% | 0hPa | 2.5V | 08:21:00 | 01:59:09 | 00:00:00 | |
| 9A1FER-10 | 2026-09-03 13:03:46 | 45.33095 | 16.59344 | 156° | 106km/h | 11487m | -21.1m/s | -54.0°C | 40.7% | 0hPa | 2.6V | 00:00:00 | 01:59:06 | 00:00:00 | |
| 9A1FER-3 | 2026-09-03 13:03:34 | 45.33378 | 16.59125 | 149° | 104km/h | 11746m | -21.6m/s | -56.0°C | 42.3% | 0hPa | 2.5V | 00:00:00 | 01:58:54 | 00:00:00 | |
| 9A1FER-15 | 2026-09-03 13:03:32 | 45.33422 | 16.59086 | 148° | 104km/h | 11790m | -21.8m/s | -56.4°C | 42.9% | 0hPa | 2.5V | 00:00:00 | 01:58:52 | 00:00:00 | |
| 9A1FER-10 | 2026-09-03 13:03:31 | 45.33444 | 16.59066 | 148° | 106km/h | 11812m | -21.6m/s | -56.6°C | 43.2% | 0hPa | 2.5V | 00:00:00 | 01:58:51 | 00:00:00 | |
| 9A1FER-3 | 2026-09-03 13:03:19 | 45.33703 | 16.58806 | 145° | 100km/h | 12074m | -22.3m/s | -58.0°C | 36.8% | 0hPa | 2.5V | 00:00:00 | 01:58:39 | 00:00:00 | |
| 9A1FER-15 | 2026-09-03 13:03:17 | 45.33749 | 16.58761 | 145° | 99km/h | 12119m | -22.3m/s | -57.7°C | 34.5% | 0hPa | 2.5V | 00:00:00 | 01:58:37 | 00:00:00 | |
| 9A1FER-10 | 2026-09-03 13:03:16 | 45.33771 | 16.58740 | 147° | 97km/h | 12141m | -21.7m/s | -57.7°C | 34.1% | 0hPa | 2.5V | 00:00:00 | 01:58:36 | 00:00:00 | |
| 9A1FER-3 | 2026-09-03 13:03:04 | 45.34013 | 16.58495 | 144° | 93km/h | 12406m | -22.9m/s | -59.1°C | 31.3% | 0hPa | 2.5V | 00:00:00 | 01:58:24 | 00:00:00 | |
| 9A1FER-15 | 2026-09-03 13:03:02 | 45.34050 | 16.58457 | 143° | 95km/h | 12452m | -22.8m/s | -59.5°C | 31.0% | 0hPa | 2.6V | 00:00:00 | 01:58:22 | 00:00:00 | |
| 9A1FER-10 | 2026-09-03 13:03:01 | 45.34068 | 16.58438 | 145° | 95km/h | 12474m | -22.5m/s | -59.7°C | 30.8% | 0hPa | 2.6V | 00:00:00 | 01:58:21 | 00:00:00 | |
| 9A1FER-3 | 2026-09-03 13:02:49 | 45.34297 | 16.58198 | 142° | 97km/h | 12746m | -22.8m/s | -60.5°C | 20.4% | 0hPa | 2.5V | 00:00:00 | 01:58:09 | 00:00:00 | |
| 9A1FER-15 | 2026-09-03 13:02:47 | 45.34340 | 16.58152 | 144° | 93km/h | 12792m | -22.8m/s | -60.2°C | 18.5% | 0hPa | 2.5V | 00:00:00 | 01:58:07 | 00:00:00 | |
| 9A1FER-10 | 2026-09-03 13:02:46 | 45.34361 | 16.58128 | 142° | 91km/h | 12815m | -23.0m/s | -59.5°C | 16.8% | 0hPa | 2.5V | 00:00:00 | 01:58:06 | 00:00:00 | |
| 9A1FER-3 | 2026-09-03 13:02:34 | 45.34584 | 16.57882 | 139° | 71km/h | 13092m | -23.6m/s | -57.8°C | 11.6% | 0hPa | 2.5V | 00:00:00 | 01:57:54 | 00:00:00 | |
| 9A1FER-15 | 2026-09-03 13:02:32 | 45.34616 | 16.57843 | 141° | 68km/h | 13140m | -23.0m/s | -58.0°C | 11.7% | 0hPa | 2.5V | 00:00:00 | 01:57:52 | 00:00:00 | |
| 9A1FER-10 | 2026-09-03 13:02:31 | 45.34632 | 16.57824 | 139° | 66km/h | 13163m | -23.2m/s | -57.7°C | 11.3% | 0hPa | 2.5V | 00:00:00 | 01:57:51 | 00:00:00 | |
| OE3JTB-15 | 2026-09-03 13:02:23 | 45.34743 | 16.57699 | 140° | 66km/h | 13351m | -23.9m/s | -57.2°C | 9.0% | 0hPa | 2.5V | 00:00:00 | 00:00:00 | 00:00:00 | |
| 9A1FER-3 | 2026-09-03 13:02:19 | 45.34787 | 16.57643 | 133° | 60km/h | 13446m | -23.7m/s | -57.7°C | 8.9% | 0hPa | 2.6V | 00:00:00 | 01:57:39 | 00:00:00 | |
| 9A1FER-15 | 2026-09-03 13:02:17 | 45.34806 | 16.57613 | 133° | 62km/h | 13493m | -23.7m/s | -57.9°C | 8.9% | 0hPa | 2.5V | 00:00:00 | 01:57:37 | 00:00:00 | |
| 9A1FER-10 | 2026-09-03 13:02:16 | 45.34815 | 16.57597 | 128° | 64km/h | 13517m | -24.0m/s | -58.0°C | 9.0% | 0hPa | 2.5V | 08:23:00 | 01:57:36 | 00:00:00 | |
| 9A1FER-3 | 2026-09-03 13:02:04 | 45.34919 | 16.57376 | 126° | 75km/h | 13808m | -24.4m/s | -58.3°C | 8.3% | 0hPa | 2.6V | 00:00:00 | 01:57:24 | 00:00:00 | |
| 9A1FER-15 | 2026-09-03 13:02:02 | 45.34940 | 16.57332 | 126° | 75km/h | 13857m | -24.9m/s | -58.4°C | 8.2% | 0hPa | 2.6V | 00:00:00 | 01:57:22 | 00:00:00 | |
| 9A1FER-10 | 2026-09-03 13:02:01 | 45.34951 | 16.57310 | 129° | 75km/h | 13882m | -24.4m/s | -58.4°C | 8.0% | 0hPa | 2.6V | 00:00:00 | 01:57:21 | 00:00:00 | |
| OE3JTB-15 | 2026-09-03 13:01:54 | 45.35039 | 16.57163 | 133° | 75km/h | 14056m | -25.1m/s | -57.3°C | 6.9% | 0hPa | 2.6V | 00:00:00 | 00:00:00 | 00:00:00 | |
| 9A1FER-3 | 2026-09-03 13:01:49 | 45.35104 | 16.57066 | 133° | 73km/h | 14184m | -25.6m/s | -56.5°C | 6.2% | 0hPa | 2.6V | 00:00:00 | 01:57:09 | 00:00:00 | |
| 9A1FER-15 | 2026-09-03 13:01:47 | 45.35129 | 16.57030 | 135° | 75km/h | 14234m | -25.5m/s | -56.5°C | 6.1% | 0hPa | 2.6V | 00:00:00 | 01:57:07 | 00:00:00 | |
| 9A1FER-10 | 2026-09-03 13:01:46 | 45.35141 | 16.57012 | 134° | 75km/h | 14260m | -25.8m/s | -56.4°C | 6.0% | 0hPa | 2.6V | 00:00:00 | 01:57:06 | 00:00:00 | |
| 9A1FER-3 | 2026-09-03 13:01:34 | 45.35273 | 16.56756 | 125° | 82km/h | 14572m | -25.9m/s | -57.2°C | 6.1% | 0hPa | 2.6V | 08:24:00 | 01:56:54 | 00:00:00 | |
| 9A1FER-15 | 2026-09-03 13:01:32 | 45.35296 | 16.56707 | 124° | 82km/h | 14625m | -26.4m/s | -57.1°C | 6.0% | 0hPa | 2.5V | 08:24:00 | 01:56:52 | 00:00:00 | |
| 9A1FER-10 | 2026-09-03 13:01:31 | 45.35308 | 16.56682 | 126° | 80km/h | 14651m | -26.0m/s | -57.1°C | 6.0% | 0hPa | 2.5V | 00:00:00 | 01:56:51 | 00:00:00 | |
| OE3JTB-15 | 2026-09-03 13:01:25 | 45.35384 | 16.56534 | 131° | 75km/h | 14811m | -26.8m/s | -56.8°C | 5.8% | 0hPa | 2.5V | 00:00:00 | 01:56:45 | 00:00:00 | |
| 9A1FER-3 | 2026-09-03 13:01:19 | 45.35463 | 16.56403 | 132° | 68km/h | 14974m | -26.9m/s | -56.6°C | 5.6% | 0hPa | 2.5V | 00:00:00 | 01:56:39 | 00:00:00 | |
| 9A1FER-15 | 2026-09-03 13:01:17 | 45.35486 | 16.56363 | 130° | 66km/h | 15028m | -27.3m/s | -56.8°C | 5.7% | 0hPa | 2.5V | 00:00:00 | 01:56:37 | 00:00:00 | |
| 9A1FER-10 | 2026-09-03 13:01:16 | 45.35498 | 16.56343 | 132° | 64km/h | 15055m | -26.9m/s | -56.7°C | 5.6% | 0hPa | 2.5V | 00:00:00 | 01:56:36 | 00:00:00 | |
| 9A1FER-3 | 2026-09-03 13:01:04 | 45.35616 | 16.56113 | 127° | 49km/h | 15385m | -28.0m/s | -55.9°C | 4.9% | 0hPa | 2.5V | 00:00:00 | 01:56:24 | 00:00:00 | |
| 9A1FER-15 | 2026-09-03 13:01:02 | 45.35634 | 16.56081 | 130° | 47km/h | 15441m | -27.6m/s | -55.4°C | 4.7% | 0hPa | 2.5V | 00:00:00 | 01:56:22 | 00:00:00 | |
| 9A1FER-10 | 2026-09-03 13:01:01 | 45.35641 | 16.56066 | 124° | 47km/h | 15469m | -28.0m/s | -55.0°C | 4.5% | 0hPa | 2.5V | 00:00:00 | 01:56:21 | 00:00:00 | |
| OE3JTB-15 | 2026-09-03 13:00:56 | 45.35673 | 16.55992 | 124° | 57km/h | 15612m | -28.2m/s | -55.1°C | 4.5% | 0hPa | 2.5V | 08:24:00 | 00:00:00 | 00:00:00 | |
| 9A1FER-3 | 2026-09-03 13:00:49 | 45.35709 | 16.55891 | 113° | 57km/h | 15812m | -28.4m/s | -56.0°C | 4.8% | 0hPa | 2.5V | 00:00:00 | 01:56:09 | 00:00:00 | |
| 9A1FER-15 | 2026-09-03 13:00:47 | 45.35718 | 16.55858 | 112° | 58km/h | 15869m | -29.1m/s | -55.9°C | 4.7% | 0hPa | 2.6V | 00:00:00 | 01:56:07 | 00:00:00 | |
| PETON7-10 | 2026-09-03 13:00:46 | 45.35722 | 16.55841 | 114° | 47km/h | 15898m | -28.3m/s | -56.2°C | 4.8% | 0hPa | 2.6V | 00:00:00 | 00:00:00 | 00:00:00 | |
| 9A1FER-3 | 2026-09-03 13:00:34 | 45.35827 | 16.55639 | 137° | 46km/h | 16246m | -29.3m/s | -56.5°C | 4.9% | 0hPa | 2.6V | 00:00:00 | 01:55:54 | 00:00:00 | |
| 9A1FER-15 | 2026-09-03 13:00:32 | 45.35851 | 16.55610 | 144° | 42km/h | 16305m | -28.8m/s | -56.6°C | 4.9% | 0hPa | 2.6V | 00:00:00 | 01:55:52 | 00:00:00 | |
| 9A1FER-10 | 2026-09-03 13:00:31 | 45.35863 | 16.55597 | 144° | 40km/h | 16334m | -29.2m/s | -56.7°C | 5.0% | 0hPa | 2.6V | 00:00:00 | 01:55:51 | 00:00:00 | |
| OE3JTB-15 | 2026-09-03 13:00:27 | 45.35907 | 16.55556 | 143° | 37km/h | 16452m | -29.3m/s | -56.0°C | 4.7% | 0hPa | 2.6V | 00:00:00 | 00:00:00 | 00:00:00 | |
| 9A1FER-3 | 2026-09-03 13:00:19 | 45.35953 | 16.55485 | 107° | 38km/h | 16692m | -30.6m/s | -56.5°C | 5.0% | 0hPa | 2.6V | 00:00:00 | 01:55:39 | 00:00:00 | |
| 9A1FER-15 | 2026-09-03 13:00:18 | 45.35959 | 16.55461 | 106° | 38km/h | 16753m | -29.9m/s | -56.4°C | 4.9% | 0hPa | 2.6V | 00:00:00 | 01:55:37 | 00:00:00 | |
| 9A1FER-10 | 2026-09-03 13:00:17 | 45.35961 | 16.55449 | 101° | 38km/h | 16783m | -30.6m/s | -56.5°C | 4.9% | 0hPa | 2.6V | 00:00:00 | 01:55:36 | 00:00:00 | |
| PETON7-10 | 2026-09-03 13:00:13 | 45.35968 | 16.55408 | 107° | 38km/h | 16876m | -30.3m/s | -57.0°C | 5.1% | 0hPa | 2.6V | 00:00:00 | 00:00:00 | 00:00:00 | |
| 9A1FER-3 | 2026-09-03 13:00:04 | 45.36009 | 16.55297 | 125° | 35km/h | 17157m | -31.8m/s | -56.3°C | 4.9% | 0hPa | 2.6V | 00:00:00 | 01:55:24 | 00:00:00 | |
| 9A1FER-15 | 2026-09-03 13:00:02 | 45.36021 | 16.55276 | 132° | 33km/h | 17220m | -31.5m/s | -56.4°C | 5.0% | 0hPa | 2.5V | 00:00:00 | 01:55:22 | 00:00:00 | |
| 9A1FER-10 | 2026-09-03 13:00:01 | 45.36027 | 16.55266 | 130° | 33km/h | 17252m | -31.7m/s | -56.3°C | 4.8% | 0hPa | 2.5V | 08:25:00 | 01:55:21 | 00:00:00 | |
| OE3JTB-15 | 2026-09-03 12:59:58 | 45.36047 | 16.55236 | 131° | 27km/h | 17347m | -31.4m/s | -56.4°C | 5.0% | 0hPa | 2.5V | 00:00:00 | 01:55:18 | 00:00:00 | |
| PETON7-10 | 2026-09-03 12:59:57 | 45.36052 | 16.55226 | 127° | 29km/h | 17379m | -32.1m/s | -56.4°C | 5.0% | 0hPa | 2.5V | 00:00:00 | 01:55:17 | 00:00:00 | |
| 9A1FER-3 | 2026-09-03 12:59:49 | 45.36092 | 16.55151 | 120° | 24km/h | 17635m | -32.3m/s | -56.6°C | 5.1% | 0hPa | 2.5V | 00:00:00 | 01:55:09 | 00:00:00 | |
| 9A1FER-15 | 2026-09-03 12:59:47 | 45.36098 | 16.55137 | 123° | 26km/h | 17700m | -31.9m/s | -56.8°C | 5.2% | 0hPa | 2.5V | 00:00:00 | 01:55:07 | 00:00:00 | |
| 9A1FER-10 | 2026-09-03 12:59:46 | 45.36100 | 16.55131 | 114° | 26km/h | 17732m | -32.5m/s | -56.9°C | 5.3% | 0hPa | 2.5V | 00:00:00 | 01:55:06 | 00:00:00 | |
| PETON7-10 | 2026-09-03 12:59:42 | 45.36109 | 16.55101 | 112° | 26km/h | 17863m | -32.5m/s | -55.8°C | 4.8% | 0hPa | 2.5V | 08:26:00 | 00:00:00 | 00:00:00 | |
| 9A1FER-3 | 2026-09-03 12:59:34 | 45.36137 | 16.55035 | 112° | 24km/h | 18130m | -33.2m/s | -55.0°C | 4.5% | 0hPa | 2.7V | 00:00:00 | 01:54:54 | 00:00:00 | |
| 9A1FER-15 | 2026-09-03 12:59:32 | 45.36140 | 16.55017 | 108° | 22km/h | 18197m | -34.0m/s | -55.3°C | 4.7% | 0hPa | 2.7V | 00:00:00 | 01:54:52 | 00:00:00 | |
| 9A1FER-10 | 2026-09-03 12:59:31 | 45.36142 | 16.55008 | 108° | 22km/h | 18231m | -33.2m/s | -55.2°C | 4.7% | 0hPa | 2.7V | 00:00:00 | 01:54:51 | 00:00:00 | |
| OE3JTB-15 | 2026-09-03 12:59:29 | 45.36145 | 16.54990 | 97° | 20km/h | 18298m | -34.2m/s | -54.6°C | 4.4% | 0hPa | 2.7V | 00:00:00 | 00:00:00 | 00:00:00 | |
| PETON7-10 | 2026-09-03 12:59:27 | 45.36147 | 16.54973 | 105° | 20km/h | 18368m | -34.1m/s | -54.5°C | 4.3% | 0hPa | 2.5V | 00:00:00 | 00:00:00 | 00:00:00 | |
| 9A1FER-3 | 2026-09-03 12:59:19 | 45.36163 | 16.54918 | 127° | 16km/h | 18643m | -34.7m/s | -54.6°C | 4.4% | 0hPa | 2.5V | 08:26:00 | 01:54:39 | 00:00:00 | |
| 9A1FER-10 | 2026-09-03 12:59:18 | 45.36171 | 16.54901 | 114° | 16km/h | 18749m | -35.5m/s | -54.4°C | 4.3% | 0hPa | 2.5V | 00:00:00 | 01:54:36 | 00:00:00 | |
| PETON7-10 | 2026-09-03 12:59:12 | 45.36175 | 16.54879 | 94° | 16km/h | 18891m | -36.1m/s | -54.2°C | 4.2% | 0hPa | 2.6V | 00:00:00 | 01:54:32 | 00:00:00 | |
| 9A1FER-3 | 2026-09-03 12:59:04 | 45.36170 | 16.54836 | 85° | 18km/h | 19180m | -36.7m/s | -55.0°C | 4.5% | 0hPa | 2.6V | 00:00:00 | 01:54:24 | 00:00:00 | |
| 9A1FER-15 | 2026-09-03 12:59:02 | 45.36171 | 16.54823 | 98° | 16km/h | 19253m | -36.4m/s | -54.8°C | 4.4% | 0hPa | 2.6V | 00:00:00 | 01:54:22 | 00:00:00 | |
| 9A1FER-10 | 2026-09-03 12:59:01 | 45.36171 | 16.54818 | 94° | 15km/h | 19290m | -36.7m/s | -54.8°C | 4.5% | 0hPa | 2.6V | 00:00:00 | 01:54:21 | 00:00:00 | |
| OE3JTB-15 | 2026-09-03 12:59:00 | 45.36171 | 16.54812 | 96° | 15km/h | 19326m | -37.3m/s | -54.5°C | 4.4% | 0hPa | 2.6V | 00:00:00 | 00:00:00 | 00:00:00 | |
| PETON7-10 | 2026-09-03 12:58:57 | 45.36176 | 16.54795 | 110° | 16km/h | 19437m | -37.0m/s | -54.4°C | 4.2% | 0hPa | 2.6V | 00:00:00 | 00:00:00 | 00:00:00 | |
| 9A1FER-3 | 2026-09-03 12:58:49 | 45.36195 | 16.54751 | 121° | 11km/h | 19737m | -37.6m/s | -55.4°C | 4.7% | 0hPa | 2.5V | 00:00:00 | 01:54:09 | 00:00:00 | |
| 9A1FER-15 | 2026-09-03 12:58:47 | 45.36199 | 16.54742 | 137° | 11km/h | 19813m | -37.6m/s | -55.2°C | 4.6% | 0hPa | 2.5V | 00:00:00 | 01:54:07 | 00:00:00 | |
| 9A1FER-10 | 2026-09-03 12:58:43 | 45.36204 | 16.54730 | 127° | 13km/h | 19965m | -38.5m/s | -54.8°C | 4.5% | 0hPa | 2.5V | 00:00:00 | 01:54:03 | 00:00:00 | |
| PETON7-10 | 2026-09-03 12:58:42 | 45.36206 | 16.54726 | 127° | 13km/h | 20003m | -38.1m/s | -55.0°C | 4.6% | 0hPa | 2.5V | 00:00:00 | 00:00:00 | 00:00:00 | |
| OE5DXL-15 | 2026-09-03 12:58:41 | 45.36207 | 16.54723 | 114° | 13km/h | 20042m | -38.4m/s | -55.1°C | 4.7% | 0hPa | 2.5V | 00:00:00 | 00:00:00 | 00:00:00 | |
| 9A1FER-3 | 2026-09-03 12:58:34 | 45.36214 | 16.54695 | 119° | 13km/h | 20316m | -39.3m/s | -55.4°C | 5.0% | 0hPa | 2.5V | 00:00:00 | 01:53:54 | 00:00:00 | |
| 9A1FER-15 | 2026-09-03 12:58:32 | 45.36216 | 16.54687 | 112° | 13km/h | 20395m | -39.7m/s | -55.0°C | 4.8% | 0hPa | 2.6V | 00:00:00 | 01:53:52 | 00:00:00 | |
| OE3JTB-15 | 2026-09-03 12:58:31 | 45.36218 | 16.54682 | 126° | 15km/h | 20435m | -39.8m/s | -54.9°C | 4.8% | 0hPa | 2.5V | 00:00:00 | 01:53:51 | 00:00:00 | |
| 9A1FER-10 | 2026-09-03 12:58:28 | 45.36225 | 16.54669 | 120° | 13km/h | 20554m | -40.4m/s | -55.0°C | 4.9% | 0hPa | 2.5V | 00:00:00 | 01:53:48 | 00:00:00 | |
| PETON7-10 | 2026-09-03 12:58:27 | 45.36227 | 16.54664 | 125° | 13km/h | 20595m | -40.9m/s | -54.9°C | 4.9% | 0hPa | 2.5V | 00:00:00 | 01:53:47 | 00:00:00 | |
| OE5DRO-10 | 2026-09-03 12:58:26 | 45.36229 | 16.54660 | 131° | 15km/h | 20636m | -40.6m/s | -54.6°C | 4.7% | 0hPa | 2.5V | 00:00:00 | 00:00:00 | 00:00:00 | |
| 9A1FER-3 | 2026-09-03 12:58:19 | 45.36233 | 16.54632 | 87° | 18km/h | 20922m | -41.9m/s | -53.2°C | 4.1% | 0hPa | 2.5V | 00:00:00 | 01:53:39 | 00:00:00 | |
| 9A1FER-15 | 2026-09-03 12:58:17 | 45.36233 | 16.54622 | 97° | 18km/h | 21005m | -41.2m/s | -53.0°C | 4.0% | 0hPa | 2.5V | 00:00:00 | 01:53:37 | 00:00:00 | |
| 9A1FER-10 | 2026-09-03 12:58:13 | 45.36237 | 16.54602 | 130° | 18km/h | 21173m | -42.1m/s | -52.6°C | 4.0% | 0hPa | 2.5V | 00:00:00 | 01:53:33 | 00:00:00 | |
| PETON7-10 | 2026-09-03 12:58:12 | 45.36239 | 16.54598 | 132° | 18km/h | 21215m | -42.4m/s | -52.6°C | 4.0% | 0hPa | 2.5V | 00:00:00 | 00:00:00 | 00:00:00 | |
| OE5DXL-15 | 2026-09-03 12:58:11 | 45.36242 | 16.54593 | 131° | 16km/h | 21258m | -43.0m/s | -52.6°C | 4.0% | 0hPa | 2.6V | 00:00:00 | 00:00:00 | 00:00:00 | |
| OE5DRO-10 | 2026-09-03 12:58:07 | 45.36259 | 16.54575 | 147° | 18km/h | 21430m | -43.5m/s | -52.9°C | 4.1% | 0hPa | 2.6V | 00:00:00 | 00:00:00 | 00:00:00 | |
| 9A1FER-3 | 2026-09-03 12:58:04 | 45.36274 | 16.54567 | 166° | 16km/h | 21561m | -43.1m/s | -53.1°C | 4.1% | 0hPa | 2.6V | 00:00:00 | 01:53:24 | 00:00:00 | |
| 9A1FER-15 | 2026-09-03 12:58:02 | 45.36283 | 16.54564 | 181° | 15km/h | 21647m | -42.5m/s | -53.5°C | 4.4% | 0hPa | 2.6V | 00:00:00 | 01:53:22 | 00:00:00 | |
| 9A1FER-10 | 2026-09-03 12:57:58 | 45.36299 | 16.54569 | 206° | 13km/h | 21819m | -44.0m/s | -53.4°C | 4.4% | 0hPa | 2.6V | 00:00:00 | 01:53:18 | 00:00:00 | |
| PETON7-10 | 2026-09-03 12:57:57 | 45.36302 | 16.54572 | 214° | 13km/h | 21863m | -43.7m/s | -53.4°C | 4.4% | 0hPa | 2.6V | 00:00:00 | 00:00:00 | 00:00:00 | |
| 9A1FER-3 | 2026-09-03 12:57:49 | 45.36315 | 16.54605 | 266° | 18km/h | 22223m | -45.6m/s | -52.7°C | 4.1% | 0hPa | 2.6V | 00:00:00 | 01:53:09 | 00:00:00 | |
| OE5DRO-10 | 2026-09-03 12:57:48 | 45.36316 | 16.54609 | 257° | 18km/h | 22268m | -46.1m/s | -52.8°C | 4.1% | 0hPa | 2.5V | 00:00:00 | 00:00:00 | 00:00:00 | |
| 9A1FER-15 | 2026-09-03 12:57:47 | 45.36316 | 16.54612 | 252° | 18km/h | 22315m | -45.9m/s | -52.9°C | 4.1% | 0hPa | 2.5V | 00:00:00 | 01:53:07 | 00:00:00 | |
| 9A1FER-10 | 2026-09-03 12:57:43 | 45.36317 | 16.54633 | 269° | 20km/h | 22499m | -46.4m/s | -52.3°C | 4.1% | 0hPa | 2.7V | 08:28:00 | 01:53:03 | 00:00:00 | |
| PETON7-10 | 2026-09-03 12:57:42 | 45.36317 | 16.54639 | 275° | 20km/h | 22545m | -45.6m/s | -52.0°C | 3.9% | 0hPa | 2.7V | 00:00:00 | 01:53:02 | 00:00:00 | |
| OE5DXL-15 | 2026-09-03 12:57:41 | 45.36316 | 16.54645 | 291° | 16km/h | 22591m | -45.8m/s | -52.0°C | 3.9% | 0hPa | 2.7V | 00:00:00 | 00:00:00 | 00:00:00 | |
| 9A1FER-3 | 2026-09-03 12:57:34 | 45.36288 | 16.54681 | 346° | 16km/h | 22914m | -45.9m/s | -52.6°C | 4.2% | 0hPa | 2.7V | 00:00:00 | 01:52:54 | 00:00:00 | |
| 9A1FER-15 | 2026-09-03 12:57:32 | 45.36277 | 16.54684 | 356° | 15km/h | 23005m | -45.7m/s | -52.0°C | 4.0% | 0hPa | 2.7V | 00:00:00 | 01:52:52 | 00:00:00 | |
| OE5DRO-10 | 2026-09-03 12:57:29 | 45.36261 | 16.54680 | 23° | 13km/h | 23142m | -46.5m/s | -52.6°C | 4.2% | 0hPa | 2.7V | 00:00:00 | 00:00:00 | 00:00:00 | |
| 9A1FER-10 | 2026-09-03 12:57:28 | 45.36257 | 16.54677 | 28° | 13km/h | 23189m | -46.4m/s | -52.8°C | 4.3% | 0hPa | 2.7V | 00:00:00 | 01:52:48 | 00:00:00 | |
| PETON7-10 | 2026-09-03 12:57:27 | 45.36254 | 16.54674 | 29° | 13km/h | 23235m | -46.6m/s | -52.7°C | 4.3% | 0hPa | 2.7V | 08:28:00 | 00:00:00 | 00:00:00 | |
| 9A1FER-3 | 2026-09-03 12:57:19 | 45.36235 | 16.54656 | 38° | 13km/h | 23613m | -48.0m/s | -51.9°C | 4.2% | 0hPa | 2.5V | 00:00:00 | 01:52:39 | 00:00:00 | |
| PG1ADW-2 | 2026-09-03 12:57:18 | 45.36232 | 16.54653 | 45° | 11km/h | 23662m | -48.8m/s | -51.8°C | 4.1% | 0hPa | 2.5V | 00:00:00 | 00:00:00 | 00:00:00 | |
| 9A1FER-15 | 2026-09-03 12:57:17 | 45.36230 | 16.54649 | 48° | 13km/h | 23711m | -49.5m/s | -51.6°C | 4.1% | 0hPa | 2.5V | 00:00:00 | 01:52:37 | 00:00:00 | |
| 9A1FER-10 | 2026-09-03 12:57:13 | 45.36224 | 16.54631 | 87° | 11km/h | 23909m | -49.6m/s | -51.0°C | 4.0% | 0hPa | 2.5V | 00:00:00 | 01:52:33 | 00:00:00 | |
| PETON7-10 | 2026-09-03 12:57:12 | 45.36224 | 16.54627 | 94° | 11km/h | 23958m | -49.6m/s | -51.1°C | 4.0% | 0hPa | 2.5V | 00:00:00 | 00:00:00 | 00:00:00 | |
| OE5DXL-15 | 2026-09-03 12:57:11 | 45.36224 | 16.54623 | 98° | 9km/h | 24008m | -50.1m/s | -51.0°C | 4.0% | 0hPa | 2.5V | 00:00:00 | 00:00:00 | 00:00:00 | |
| OE5DRO-10 | 2026-09-03 12:57:10 | 45.36225 | 16.54618 | 107° | 9km/h | 24058m | -50.4m/s | -50.9°C | 4.0% | 0hPa | 2.5V | 00:00:00 | 00:00:00 | 00:00:00 | |
| 9A1FER-3 | 2026-09-03 12:57:04 | 45.36233 | 16.54597 | 133° | 9km/h | 24357m | -50.5m/s | -50.5°C | 3.9% | 0hPa | 2.5V | 08:28:00 | 01:52:24 | 00:00:00 | |
| 9A1FER-15 | 2026-09-03 12:57:02 | 45.36237 | 16.54593 | 154° | 7km/h | 24457m | -50.1m/s | -50.3°C | 3.9% | 0hPa | 2.7V | 08:28:00 | 01:52:22 | 00:00:00 | |
| PG1ADW-2 | 2026-09-03 12:56:58 | 45.36244 | 16.54586 | 149° | 9km/h | 24657m | -50.3m/s | -49.6°C | 3.7% | 0hPa | 2.5V | 00:00:00 | 00:00:00 | 00:00:00 | |
| PETON7-10 | 2026-09-03 12:56:57 | 45.36246 | 16.54584 | 145° | 9km/h | 24708m | -51.7m/s | -49.5°C | 3.7% | 0hPa | 2.5V | 00:00:00 | 01:52:17 | 00:00:00 | |
| 9A1FER-3 | 2026-09-03 12:56:49 | 45.36258 | 16.54580 | 59° | 7km/h | 25146m | -58.4m/s | -48.7°C | 3.6% | 0hPa | 2.5V | 00:00:00 | 01:52:09 | 00:00:00 | |
| OE5DRO-10 | 2026-09-03 12:56:48 | 45.36258 | 16.54580 | 16° | 9km/h | 25205m | -60.1m/s | -48.7°C | 3.6% | 0hPa | 2.5V | 00:00:00 | 00:00:00 | 08:30:00 | |
| 9A1FER-15 | 2026-09-03 12:56:47 | 45.36257 | 16.54580 | 354° | 9km/h | 25265m | -60.3m/s | -48.7°C | 3.6% | 0hPa | 2.5V | 00:00:00 | 01:52:07 | 00:00:00 | |
| 9A1FER-10 | 2026-09-03 12:56:43 | 45.36248 | 16.54577 | 30° | 11km/h | 25509m | -61.4m/s | -48.9°C | 3.7% | 0hPa | 2.5V | 00:00:00 | 01:52:03 | 00:00:00 | |
| PETON7-10 | 2026-09-03 12:56:42 | 45.36245 | 16.54575 | 35° | 11km/h | 25570m | -60.6m/s | -49.0°C | 3.8% | 0hPa | 2.5V | 00:00:00 | 00:00:00 | 00:00:00 | |
| OE5DXL-15 | 2026-09-03 12:56:41 | 45.36243 | 16.54573 | 36° | 16km/h | 25631m | -61.1m/s | -49.0°C | 3.8% | 0hPa | 2.7V | 00:00:00 | 00:00:00 | 00:00:00 | |
| OE8JPQ-2 | 2026-09-03 12:56:40 | 45.36242 | 16.54570 | 54° | 13km/h | 25692m | -61.0m/s | -49.0°C | 3.8% | 0hPa | 2.7V | 00:00:00 | 01:52:00 | 00:00:00 | |
| PG1ADW-2 | 2026-09-03 12:56:38 | 45.36239 | 16.54564 | 49° | 15km/h | 25813m | -60.1m/s | -48.7°C | 3.8% | 0hPa | 2.7V | 00:00:00 | 00:00:00 | 00:00:00 | |
| 9A1FER-3 | 2026-09-03 12:56:34 | 45.36234 | 16.54558 | 14° | 16km/h | 26056m | -61.2m/s | -47.7°C | 3.5% | 0hPa | 2.6V | 00:00:00 | 01:51:54 | 00:00:00 | |
| 9A1FER-15 | 2026-09-03 12:56:32 | 45.36228 | 16.54555 | 44° | 18km/h | 26181m | -63.9m/s | -47.3°C | 3.4% | 0hPa | 2.6V | 00:00:00 | 01:51:52 | 00:00:00 | |
| OE5DRO-10 | 2026-09-03 12:56:29 | 45.36221 | 16.54547 | 45° | 18km/h | 26379m | -66.8m/s | -46.1°C | 3.1% | 0hPa | 2.6V | 00:00:00 | 00:00:00 | 00:00:00 | |
| 9A1FER-10 | 2026-09-03 12:56:28 | 45.36219 | 16.54543 | 52° | 20km/h | 26445m | -66.8m/s | -45.8°C | 3.1% | 0hPa | 2.6V | 00:00:00 | 01:51:48 | 00:00:00 | |
| PETON7-10 | 2026-09-03 12:56:27 | 45.36217 | 16.54540 | 33° | 22km/h | 26512m | -65.8m/s | -45.6°C | 3.0% | 0hPa | 2.6V | 00:00:00 | 00:00:00 | 00:00:00 | |
| OE8JPQ-2 | 2026-09-03 12:56:20 | 45.36194 | 16.54506 | 56° | 22km/h | 26967m | -63.5m/s | -45.4°C | 3.1% | 0hPa | 2.6V | 00:00:00 | 00:00:00 | 00:00:00 | |
| 9A1FER-3 | 2026-09-03 12:56:19 | 45.36191 | 16.54500 | 60° | 22km/h | 27030m | -63.4m/s | -45.5°C | 3.1% | 0hPa | 2.6V | 00:00:00 | 01:51:39 | 00:00:00 | |
| PG1ADW-2 | 2026-09-03 12:56:18 | 45.36188 | 16.54492 | 66° | 20km/h | 27093m | -63.6m/s | -45.5°C | 3.1% | 0hPa | 2.5V | 00:00:00 | 01:51:38 | 00:00:00 | |
| 9A1FER-15 | 2026-09-03 12:56:17 | 45.36186 | 16.54484 | 72° | 20km/h | 27157m | -64.9m/s | -45.6°C | 3.2% | 0hPa | 2.5V | 00:00:00 | 01:51:37 | 00:00:00 | |
| 9A1FER-10 | 2026-09-03 12:56:13 | 45.36183 | 16.54450 | 98° | 18km/h | 27425m | -69.1m/s | -44.8°C | 3.0% | 0hPa | 2.6V | 00:00:00 | 01:51:33 | 00:00:00 | |
| PETON7-10 | 2026-09-03 12:56:12 | 45.36184 | 16.54443 | 103° | 18km/h | 27495m | -69.3m/s | -44.5°C | 2.9% | 0hPa | 2.7V | 00:00:00 | 01:51:32 | 00:00:00 | |
| OE5DXL-15 | 2026-09-03 12:56:11 | 45.36185 | 16.54436 | 108° | 11km/h | 27565m | -70.1m/s | -44.3°C | 2.9% | 0hPa | 2.7V | 00:00:00 | 00:00:00 | 00:00:00 | |
| 9A1FER-3 | 2026-09-03 12:56:04 | 45.36197 | 16.54392 | 111° | 13km/h | 28064m | -70.7m/s | -43.3°C | 2.8% | 0hPa | 2.7V | 00:00:00 | 01:51:24 | 00:00:00 | |
| 9A1FER-15 | 2026-09-03 12:56:02 | 45.36200 | 16.54381 | 116° | 11km/h | 28207m | -71.5m/s | -42.7°C | 2.7% | 0hPa | 2.7V | 00:00:00 | 01:51:22 | 00:00:00 | |
| OE8JPQ-2 | 2026-09-03 12:56:00 | 45.36202 | 16.54370 | 99° | 7km/h | 28349m | -72.2m/s | -42.5°C | 2.6% | 0hPa | 2.7V | 00:00:00 | 00:00:00 | 00:00:00 | |
| PG1ADW-2 | 2026-09-03 12:55:58 | 45.36203 | 16.54360 | 88° | 7km/h | 28493m | -71.5m/s | -42.6°C | 2.7% | 0hPa | 2.7V | 00:00:00 | 00:00:00 | 00:00:00 | |
| PETON7-10 | 2026-09-03 12:55:57 | 45.36203 | 16.54355 | 97° | 7km/h | 28566m | -73.4m/s | -42.7°C | 2.7% | 0hPa | 2.7V | 00:00:00 | 00:00:00 | 00:00:00 | |
| OE3JTB-15 | 2026-09-03 12:55:52 | 45.36205 | 16.54335 | 133° | 11km/h | 28942m | -75.0m/s | -42.4°C | 2.7% | 0hPa | 2.6V | 00:00:00 | 01:51:12 | 00:00:00 | |
| 9A1FER-3 | 2026-09-03 12:55:49 | 45.36208 | 16.54332 | 178° | 4km/h | 29166m | -76.0m/s | -41.2°C | 2.4% | 0hPa | 2.6V | 00:00:00 | 01:51:09 | 00:00:00 | |
| 9A1FER-15 | 2026-09-03 12:55:47 | 45.36209 | 16.54331 | 146° | 5km/h | 29319m | -78.0m/s | -40.5°C | 2.3% | 0hPa | 2.6V | 00:00:00 | 01:51:07 | 00:00:00 | |
| 9A1FER-10 | 2026-09-03 12:55:43 | 45.36214 | 16.54329 | 192° | 7km/h | 29629m | -76.1m/s | -40.3°C | 2.2% | 0hPa | 2.6V | 00:00:00 | 01:51:03 | 00:00:00 | |
| PETON7-10 | 2026-09-03 12:55:42 | 45.36215 | 16.54329 | 214° | 9km/h | 29706m | -77.6m/s | -40.4°C | 2.2% | 0hPa | 2.6V | 00:00:00 | 00:00:00 | 00:00:00 | |
| OE5DXL-15 | 2026-09-03 12:55:41 | 45.36216 | 16.54330 | 212° | 18km/h | 29783m | -76.8m/s | -40.6°C | 2.3% | 0hPa | 2.6V | 00:00:00 | 01:51:01 | 08:30:00 | |
| OE8JPQ-2 | 2026-09-03 12:55:40 | 45.36217 | 16.54331 | 172° | 16km/h | 29860m | -77.2m/s | -40.7°C | 2.3% | 0hPa | 2.7V | 00:00:00 | 01:51:00 | 00:00:00 | |
| PG1ADW-2 | 2026-09-03 12:55:38 | 45.36219 | 16.54330 | 187° | 18km/h | 30014m | -75.9m/s | -40.4°C | 2.2% | 0hPa | 2.7V | 00:00:00 | 00:00:00 | 00:00:00 | |
| OE5DRO-10 | 2026-09-03 12:55:37 | 45.36220 | 16.54330 | 209° | 16km/h | 30090m | -76.6m/s | -40.2°C | 2.2% | 0hPa | 2.7V | 00:00:00 | 00:00:00 | 00:00:00 | |
| 9A1FER-3 | 2026-09-03 12:55:34 | 45.36221 | 16.54334 | 252° | 20km/h | 30316m | -73.6m/s | -39.8°C | 2.1% | 0hPa | 2.6V | 00:00:00 | 01:50:54 | 00:00:00 | |
| 9A1FER-15 | 2026-09-03 12:55:32 | 45.36222 | 16.54339 | 268° | 24km/h | 30461m | -71.5m/s | -39.9°C | 2.1% | 0hPa | 2.7V | 00:00:00 | 01:50:52 | 00:00:00 | |
| PETON7-10 | 2026-09-03 12:55:26 | 45.36214 | 16.54363 | 316° | 27km/h | 30871m | -66.3m/s | -40.9°C | 2.2% | 0hPa | 2.7V | 00:00:00 | 01:50:46 | 00:00:00 | |
| OE3JTB-15 | 2026-09-03 12:55:21 | 45.36180 | 16.54392 | 335° | 16km/h | 31178m | -49.2m/s | -41.5°C | 2.2% | 0hPa | 2.7V | 00:00:00 | 00:00:00 | 08:30:00 | |
| OE8JPQ-2 | 2026-09-03 12:55:20 | 45.36172 | 16.54398 | 335° | 18km/h | 31224m | -43.3m/s | -41.6°C | 2.3% | 0hPa | 2.7V | 00:00:00 | 00:00:00 | 00:00:00 | |
| 9A1FER-3 | 2026-09-03 12:55:19 | 45.36165 | 16.54403 | 332° | 15km/h | 31264m | -36.8m/s | -41.6°C | 2.3% | 0hPa | 2.6V | 00:00:00 | 01:50:39 | 00:00:00 | |
| PG1ADW-2 | 2026-09-03 12:55:18 | 45.36158 | 16.54409 | 328° | 18km/h | 31298m | -30.6m/s | -41.6°C | 2.4% | 0hPa | 2.6V | 00:00:00 | 00:00:00 | 00:00:00 | |
| 9A1FER-15 | 2026-09-03 12:55:17 | 45.36153 | 16.54414 | 317° | 15km/h | 31325m | -23.7m/s | -41.7°C | 2.4% | 0hPa | 2.6V | 00:00:00 | 01:50:37 | 00:00:00 | |
| 9A1FER-10 | 2026-09-03 12:55:13 | 45.36143 | 16.54440 | 276° | 16km/h | 31358m | 6.3m/s | -41.9°C | 2.4% | 0hPa | 2.6V | 00:00:00 | 01:50:33 | 00:00:00 | |
| PETON7-10 | 2026-09-03 12:55:11 | 45.36142 | 16.54452 | 279° | 16km/h | 31345m | 7.7m/s | -41.9°C | 2.4% | 0hPa | 2.6V | 00:00:00 | 00:00:00 | 08:30:00 | |
| 9A1FER-3 | 2026-09-03 12:55:04 | 45.36138 | 16.54462 | 325° | 24km/h | 31302m | 5.8m/s | -42.2°C | 2.6% | 0hPa | 2.7V | 00:00:00 | 01:50:24 | 00:00:00 | |
| 9A1FER-15 | 2026-09-03 12:55:02 | 45.36127 | 16.54469 | 344° | 24km/h | 31288m | 6.8m/s | -42.2°C | 2.6% | 0hPa | 2.7V | 00:00:00 | 01:50:22 | 00:00:00 | |
| OE8JPQ-2 | 2026-09-03 12:54:59 | 45.36106 | 16.54478 | 338° | 22km/h | 31269m | 7.7m/s | -41.8°C | 2.5% | 0hPa | 2.7V | 00:00:00 | 00:00:00 | 00:00:00 | |
| PG1ADW-2 | 2026-09-03 12:54:58 | 45.36100 | 16.54483 | 326° | 22km/h | 31262m | 6.3m/s | -41.7°C | 2.5% | 0hPa | 2.7V | 00:00:00 | 01:50:18 | 00:00:00 | |
| PETON7-10 | 2026-09-03 12:54:56 | 45.36091 | 16.54492 | 320° | 22km/h | 31250m | 6.5m/s | -41.6°C | 2.5% | 0hPa | 2.7V | 00:00:00 | 00:00:00 | 00:00:00 | |
| OE3JTB-15 | 2026-09-03 12:54:51 | 45.36073 | 16.54513 | 307° | 20km/h | 31216m | 7.1m/s | -41.6°C | 2.4% | 0hPa | 2.7V | 00:00:00 | 00:00:00 | 00:00:00 | |
| 9A1FER-3 | 2026-09-03 12:54:49 | 45.36066 | 16.54527 | 310° | 22km/h | 31203m | 7.0m/s | -41.8°C | 2.4% | 0hPa | 2.7V | 00:00:00 | 01:50:09 | 08:30:00 | |
| 9A1FER-15 | 2026-09-03 12:54:47 | 45.36056 | 16.54539 | 324° | 20km/h | 31189m | 5.6m/s | -41.9°C | 2.5% | 0hPa | 2.6V | 00:00:00 | 01:50:07 | 08:30:00 | |
| 9A1FER-10 | 2026-09-03 12:54:43 | 45.36041 | 16.54562 | 297° | 20km/h | 31162m | 6.4m/s | -41.8°C | 2.5% | 0hPa | 2.6V | 00:00:00 | 01:50:03 | 00:00:00 | |
| PETON7-10 | 2026-09-03 12:54:41 | 45.36036 | 16.54573 | 308° | 20km/h | 31149m | 7.2m/s | -41.9°C | 2.5% | 0hPa | 2.7V | 00:00:00 | 01:50:01 | 00:00:00 | |
| OE5DRO-10 | 2026-09-03 12:54:40 | 45.36033 | 16.54578 | 313° | 18km/h | 31142m | 5.3m/s | -41.9°C | 2.5% | 0hPa | 2.7V | 00:00:00 | 00:00:00 | 00:00:00 | |
| PG1ADW-2 | 2026-09-03 12:54:38 | 45.36027 | 16.54590 | 302° | 18km/h | 31130m | 7.9m/s | -41.8°C | 2.5% | 0hPa | 2.6V | 00:00:00 | 00:00:00 | 08:30:00 | |
| 9A1FER-3 | 2026-09-03 12:54:34 | 45.36019 | 16.54618 | 294° | 18km/h | 31102m | 6.1m/s | -41.7°C | 2.5% | 0hPa | 2.7V | 00:00:00 | 01:49:54 | 00:00:00 | |
| 9A1FER-15 | 2026-09-03 12:54:32 | 45.36016 | 16.54630 | 278° | 18km/h | 31091m | 6.9m/s | -41.7°C | 2.5% | 0hPa | 2.7V | 00:00:00 | 01:49:52 | 00:00:00 | |
| OE8JPQ-2 | 2026-09-03 12:54:30 | 45.36016 | 16.54645 | 265° | 20km/h | 31076m | 6.2m/s | -41.5°C | 2.4% | 0hPa | 2.7V | 00:00:00 | 01:49:50 | 00:00:00 | |
| 9A1FER-10 | 2026-09-03 12:54:28 | 45.36016 | 16.54660 | 278° | 18km/h | 31063m | 7.8m/s | -41.6°C | 2.4% | 0hPa | 2.7V | 00:00:00 | 01:49:48 | 00:00:00 | |
| OE3JTB-15 | 2026-09-03 12:54:22 | 45.36012 | 16.54692 | 250° | 22km/h | 31024m | 5.9m/s | -41.7°C | 2.4% | 0hPa | 2.7V | 00:00:00 | 01:49:42 | 00:00:00 | |
| OE5DRO-10 | 2026-09-03 12:54:21 | 45.36013 | 16.54697 | 248° | 20km/h | 31018m | 6.5m/s | -41.6°C | 2.4% | 0hPa | 2.7V | 00:00:00 | 00:00:00 | 00:00:00 | |
| 9A1FER-3 | 2026-09-03 12:54:19 | 45.36016 | 16.54709 | 254° | 20km/h | 31005m | 5.8m/s | -41.7°C | 2.4% | 0hPa | 2.7V | 00:00:00 | 01:49:39 | 00:00:00 | |
| PG1ADW-2 | 2026-09-03 12:54:18 | 45.36018 | 16.54716 | 255° | 22km/h | 30999m | 5.3m/s | -41.8°C | 2.4% | 0hPa | 2.7V | 00:00:00 | 00:00:00 | 00:00:00 | |
| 9A1FER-15 | 2026-09-03 12:54:17 | 45.36019 | 16.54723 | 253° | 20km/h | 30993m | 7.2m/s | -41.9°C | 2.5% | 0hPa | 2.7V | 00:00:00 | 01:49:37 | 00:00:00 | |
| 9A1FER-10 | 2026-09-03 12:54:13 | 45.36028 | 16.54757 | 259° | 22km/h | 30966m | 7.6m/s | -41.9°C | 2.5% | 0hPa | 2.7V | 00:00:00 | 01:49:33 | 00:00:00 | |
| PETON7-10 | 2026-09-03 12:54:11 | 45.36028 | 16.54770 | 276° | 22km/h | 30952m | 5.8m/s | -42.2°C | 2.6% | 0hPa | 2.7V | 00:00:00 | 00:00:00 | 00:00:00 | |
| OE8JPQ-2 | 2026-09-03 12:54:10 | 45.36028 | 16.54775 | 267° | 20km/h | 30946m | 5.9m/s | -42.1°C | 2.6% | 0hPa | 2.7V | 00:00:00 | 00:00:00 | 08:30:00 | |
| 9A1FER-15 | 2026-09-03 12:54:02 | 45.36051 | 16.54822 | 240° | 22km/h | 30894m | 7.7m/s | -42.1°C | 2.6% | 0hPa | 2.6V | 00:00:00 | 01:49:22 | 00:00:00 | |
| PG1ADW-2 | 2026-09-03 12:53:58 | 45.36066 | 16.54858 | 231° | 16km/h | 30869m | 7.0m/s | -42.0°C | 2.6% | 0hPa | 2.7V | 00:00:00 | 00:00:00 | 00:00:00 | |
| PETON7-10 | 2026-09-03 12:53:56 | 45.36070 | 16.54860 | 168° | 20km/h | 30856m | 6.8m/s | -41.8°C | 2.6% | 0hPa | 2.7V | 00:00:00 | 01:49:16 | 00:00:00 | |
| OE3JTB-15 | 2026-09-03 12:53:53 | 45.36082 | 16.54857 | 179° | 16km/h | 30836m | 5.6m/s | -41.7°C | 2.5% | 0hPa | 2.7V | 00:00:00 | 00:00:00 | 00:00:00 | |
| OE8JPQ-2 | 2026-09-03 12:53:50 | 45.36096 | 16.54862 | 215° | 13km/h | 30816m | 6.0m/s | -41.7°C | 2.6% | 0hPa | 2.7V | 00:00:00 | 00:00:00 | 00:00:00 | |
| 9A1FER-3 | 2026-09-03 12:53:49 | 45.36100 | 16.54866 | 225° | 16km/h | 30810m | 6.1m/s | -41.7°C | 2.5% | 0hPa | 2.7V | 00:00:00 | 01:49:09 | 00:00:00 | |
| 9A1FER-15 | 2026-09-03 12:53:47 | 45.36110 | 16.54880 | 224° | 15km/h | 30796m | 7.3m/s | -41.7°C | 2.5% | 0hPa | 2.7V | 00:00:00 | 01:49:07 | 00:00:00 | |
| PETON7-10 | 2026-09-03 12:53:41 | 45.36133 | 16.54908 | 197° | 9km/h | 30758m | 6.2m/s | -41.5°C | 2.5% | 0hPa | 2.7V | 00:00:00 | 00:00:00 | 00:00:00 | |
| PG1ADW-2 | 2026-09-03 12:53:38 | 45.36138 | 16.54909 | 192° | 9km/h | 30738m | 5.7m/s | -41.5°C | 2.4% | 0hPa | 2.7V | 00:00:00 | 01:48:58 | 00:00:00 | |
| 9A1FER-3 | 2026-09-03 12:53:34 | 45.36149 | 16.54911 | 203° | 9km/h | 30712m | 5.9m/s | -41.5°C | 2.4% | 0hPa | 2.7V | 00:00:00 | 01:48:54 | 00:00:00 | |
| 9A1FER-15 | 2026-09-03 12:53:32 | 45.36154 | 16.54917 | 224° | 9km/h | 30698m | 7.3m/s | -41.5°C | 2.5% | 0hPa | 2.7V | 00:00:00 | 01:48:52 | 00:00:00 | |
| 9A1FER-10 | 2026-09-03 12:53:28 | 45.36164 | 16.54929 | 188° | 7km/h | 30672m | 6.0m/s | -41.4°C | 2.5% | 0hPa | 2.7V | 00:00:00 | 01:48:48 | 00:00:00 | |
| OE8JPQ-2 | 2026-09-03 12:53:27 | 45.36165 | 16.54929 | 168° | 7km/h | 30665m | 6.5m/s | -41.4°C | 2.5% | 0hPa | 2.7V | 00:00:00 | 01:48:47 | 00:00:00 | |
| PETON7-10 | 2026-09-03 12:53:26 | 45.36167 | 16.54928 | 166° | 7km/h | 30658m | 7.8m/s | -41.4°C | 2.5% | 0hPa | 2.7V | 00:00:00 | 00:00:00 | 00:00:00 | |
| OE3JTB-15 | 2026-09-03 12:53:24 | 45.36171 | 16.54927 | 164° | 7km/h | 30645m | 5.8m/s | -41.4°C | 2.5% | 0hPa | 2.7V | 00:00:00 | 00:00:00 | 00:00:00 | |
| 9A1FER-3 | 2026-09-03 12:53:19 | 45.36177 | 16.54921 | 181° | 7km/h | 30612m | 7.9m/s | -41.1°C | 2.4% | 0hPa | 2.7V | 00:00:00 | 01:48:39 | 00:00:00 | |
| PG1ADW-2 | 2026-09-03 12:53:18 | 45.36179 | 16.54921 | 189° | 7km/h | 30604m | 6.5m/s | -41.1°C | 2.4% | 0hPa | 2.7V | 00:00:00 | 00:00:00 | 00:00:00 | |
| 9A1FER-15 | 2026-09-03 12:53:17 | 45.36182 | 16.54921 | 186° | 7km/h | 30598m | 5.8m/s | -41.0°C | 2.4% | 0hPa | 2.7V | 00:00:00 | 01:48:37 | 00:00:00 | |
| 9A1FER-10 | 2026-09-03 12:53:13 | 45.36192 | 16.54918 | 149° | 7km/h | 30572m | 6.1m/s | -41.1°C | 2.4% | 0hPa | 2.7V | 00:00:00 | 01:48:33 | 08:30:00 | |
| PETON7-10 | 2026-09-03 12:53:11 | 45.36195 | 16.54917 | 185° | 7km/h | 30559m | 6.5m/s | -41.0°C | 2.4% | 0hPa | 2.7V | 00:00:00 | 01:48:31 | 00:00:00 | |
| OE8JPQ-2 | 2026-09-03 12:53:07 | 45.36196 | 16.54915 | 52° | 7km/h | 30533m | 6.8m/s | -41.0°C | 2.3% | 0hPa | 2.7V | 00:00:00 | 00:00:00 | 00:00:00 | |
| OE5DRO-10 | 2026-09-03 12:53:05 | 45.36194 | 16.54910 | 56° | 5km/h | 30520m | 7.6m/s | -41.1°C | 2.4% | 0hPa | 2.6V | 00:00:00 | 00:00:00 | 00:00:00 | |
| 9A1FER-3 | 2026-09-03 12:53:04 | 45.36193 | 16.54909 | 96° | 7km/h | 30513m | 6.4m/s | -41.1°C | 2.4% | 0hPa | 2.6V | 00:00:00 | 01:48:24 | 00:00:00 | |
| 9A1FER-15 | 2026-09-03 12:53:02 | 45.36195 | 16.54906 | 137° | 7km/h | 30500m | 7.0m/s | -40.9°C | 2.3% | 0hPa | 2.6V | 00:00:00 | 01:48:22 | 00:00:00 | |
| 9A1FER-10 | 2026-09-03 12:52:59 | 45.36201 | 16.54897 | 154° | 5km/h | 30473m | 7.7m/s | -41.1°C | 2.4% | 0hPa | 2.6V | 00:00:00 | 01:48:18 | 00:00:00 | |
| PG1ADW-2 | 2026-09-03 12:52:58 | 45.36201 | 16.54897 | 154° | 5km/h | 30473m | 7.7m/s | -41.1°C | 2.4% | 0hPa | 2.6V | 00:00:00 | 00:00:00 | 00:00:00 | |
| PETON7-10 | 2026-09-03 12:52:56 | 45.36205 | 16.54896 | 190° | 5km/h | 30460m | 5.7m/s | -41.1°C | 2.4% | 0hPa | 2.6V | 00:00:00 | 00:00:00 | 08:30:00 | |
| OE3JTB-15 | 2026-09-03 12:52:55 | 45.36206 | 16.54896 | 183° | 5km/h | 30454m | 6.6m/s | -41.1°C | 2.4% | 0hPa | 2.7V | 00:00:00 | 01:48:15 | 00:00:00 | |
| 9A1FER-3 | 2026-09-03 12:52:49 | 45.36200 | 16.54895 | 315° | 5km/h | 30415m | 4.8m/s | -41.2°C | 2.4% | 0hPa | 2.7V | 00:00:00 | 01:48:09 | 00:00:00 | |
| OE8JPQ-2 | 2026-09-03 12:52:47 | 45.36199 | 16.54896 | 38° | 5km/h | 30403m | 7.8m/s | -41.2°C | 2.4% | 0hPa | 2.7V | 00:00:00 | 00:00:00 | 00:00:00 | |
| OE5DRO-10 | 2026-09-03 12:52:46 | 45.36198 | 16.54895 | 74° | 5km/h | 30395m | 6.4m/s | -41.1°C | 2.3% | 0hPa | 2.7V | 00:00:00 | 00:00:00 | 00:00:00 | |
| 9A1FER-10 | 2026-09-03 12:52:43 | 45.36199 | 16.54889 | 170° | 5km/h | 30378m | 6.8m/s | -41.2°C | 2.4% | 0hPa | 2.6V | 00:00:00 | 01:48:03 | 00:00:00 | |
| PETON7-10 | 2026-09-03 12:52:41 | 45.36200 | 16.54892 | 272° | 5km/h | 30366m | 5.2m/s | -41.0°C | 2.3% | 0hPa | 2.6V | 00:00:00 | 00:00:00 | 00:00:00 | |
| PG1ADW-2 | 2026-09-03 12:52:38 | 45.36197 | 16.54901 | 340° | 5km/h | 30346m | 6.5m/s | -41.1°C | 2.3% | 0hPa | 2.6V | 00:00:00 | 00:00:00 | 00:00:00 | |
| 9A1FER-3 | 2026-09-03 12:52:34 | 45.36194 | 16.54901 | 214° | 5km/h | 30321m | 6.9m/s | -41.3°C | 2.4% | 0hPa | 2.7V | 00:00:00 | 01:47:54 | 08:30:00 | |
| 9A1FER-15 | 2026-09-03 12:52:32 | 45.36197 | 16.54904 | 224° | 7km/h | 30308m | 7.3m/s | -41.2°C | 2.4% | 0hPa | 2.6V | 00:00:00 | 01:47:52 | 08:30:00 | |
| OE5DRO-10 | 2026-09-03 12:52:28 | 45.36201 | 16.54910 | 198° | 11km/h | 30275m | 6.0m/s | -41.2°C | 2.4% | 0hPa | 2.7V | 00:00:00 | 00:00:00 | 00:00:00 | |
| OE8JPQ-2 | 2026-09-03 12:52:27 | 45.36201 | 16.54910 | 198° | 11km/h | 30275m | 6.0m/s | -41.2°C | 2.4% | 0hPa | 2.7V | 00:00:00 | 01:47:47 | 00:00:00 | |
| PETON7-10 | 2026-09-03 12:52:26 | 45.36202 | 16.54910 | 140° | 11km/h | 30268m | 6.8m/s | -41.3°C | 2.4% | 0hPa | 2.7V | 00:00:00 | 01:47:46 | 00:00:00 | |
| 9A1FER-3 | 2026-09-03 12:52:19 | 45.36208 | 16.54899 | 187° | 15km/h | 30222m | 6.5m/s | -41.4°C | 2.4% | 0hPa | 2.7V | 00:00:00 | 01:47:39 | 00:00:00 | |
| PG1ADW-2 | 2026-09-03 12:52:18 | 45.36211 | 16.54899 | 189° | 15km/h | 30215m | 7.3m/s | -41.4°C | 2.4% | 0hPa | 2.7V | 00:00:00 | 01:47:38 | 00:00:00 | |
| 9A1FER-15 | 2026-09-03 12:52:17 | 45.36214 | 16.54900 | 193° | 15km/h | 30209m | 5.8m/s | -41.3°C | 2.3% | 0hPa | 2.7V | 00:00:00 | 01:47:37 | 00:00:00 | |
| 9A1FER-10 | 2026-09-03 12:52:13 | 45.36232 | 16.54903 | 179° | 15km/h | 30184m | 5.3m/s | -41.5°C | 2.4% | 0hPa | 2.7V | 00:00:00 | 01:47:33 | 00:00:00 | |
| PETON7-10 | 2026-09-03 12:52:11 | 45.36238 | 16.54901 | 142° | 13km/h | 30170m | 6.6m/s | -41.5°C | 2.3% | 0hPa | 2.7V | 00:00:00 | 00:00:00 | 00:00:00 | |
| OE5DRO-10 | 2026-09-03 12:52:08 | 45.36244 | 16.54892 | 139° | 13km/h | 30149m | 6.8m/s | -41.7°C | 2.4% | 0hPa | 2.6V | 00:00:00 | 00:00:00 | 00:00:00 | |
| OE8JPQ-2 | 2026-09-03 12:52:07 | 45.36247 | 16.54888 | 148° | 13km/h | 30143m | 5.6m/s | -41.7°C | 2.4% | 0hPa | 2.6V | 00:00:00 | 00:00:00 | 00:00:00 | |
| 9A1FER-3 | 2026-09-03 12:52:04 | 45.36255 | 16.54881 | 144° | 13km/h | 30124m | 6.2m/s | -41.9°C | 2.4% | 0hPa | 2.7V | 00:00:00 | 01:47:24 | 00:00:00 | |
| 9A1FER-15 | 2026-09-03 12:52:02 | 45.36259 | 16.54877 | 157° | 13km/h | 30111m | 6.8m/s | -42.0°C | 2.5% | 0hPa | 2.7V | 00:00:00 | 01:47:22 | 00:00:00 | |
| PG1ADW-2 | 2026-09-03 12:51:58 | 45.36274 | 16.54870 | 157° | 11km/h | 30086m | 7.2m/s | -42.2°C | 2.5% | 0hPa | 2.7V | 00:00:00 | 00:00:00 | 00:00:00 | |
| PETON7-10 | 2026-09-03 12:51:56 | 45.36280 | 16.54866 | 150° | 9km/h | 30073m | 5.1m/s | -42.1°C | 2.5% | 0hPa | 2.7V | 00:00:00 | 00:00:00 | 00:00:00 | |
| OE5DRO-10 | 2026-09-03 12:51:49 | 45.36297 | 16.54849 | 134° | 7km/h | 30029m | 6.2m/s | -42.3°C | 2.5% | 0hPa | 2.7V | 00:00:00 | 00:00:00 | 00:00:00 | |
| 9A1FER-15 | 2026-09-03 12:51:47 | 45.36301 | 16.54846 | 170° | 9km/h | 30015m | 5.9m/s | -42.2°C | 2.5% | 0hPa | 2.6V | 00:00:00 | 01:47:07 | 00:00:00 | |
| OE8JPQ-2 | 2026-09-03 12:51:46 | 45.36304 | 16.54845 | 175° | 7km/h | 30009m | 4.8m/s | -42.3°C | 2.5% | 0hPa | 2.7V | 00:00:00 | 00:00:00 | 00:00:00 | |
| OE5DXL-15 | 2026-09-03 12:51:42 | 45.36311 | 16.54842 | 160° | 5km/h | 29979m | 7.5m/s | -42.5°C | 2.5% | 0hPa | 2.7V | 00:00:00 | 00:00:00 | 00:00:00 | |
| PETON7-10 | 2026-09-03 12:51:41 | 45.36311 | 16.54842 | 160° | 7km/h | 29979m | 7.5m/s | -42.5°C | 2.5% | 0hPa | 2.7V | 00:00:00 | 01:47:01 | 00:00:00 | |
| PG1ADW-2 | 2026-09-03 12:51:38 | 45.36320 | 16.54840 | 166° | 5km/h | 29962m | 5.7m/s | -42.6°C | 2.6% | 0hPa | 2.7V | 00:00:00 | 00:00:00 | 08:30:00 | |
| 9A1FER-3 | 2026-09-03 12:51:34 | 45.36320 | 16.54831 | 63° | 5km/h | 29935m | 6.4m/s | -42.7°C | 2.6% | 0hPa | 2.7V | 00:00:00 | 01:46:54 | 00:00:00 | |
| 9A1FER-15 | 2026-09-03 12:51:32 | 45.36319 | 16.54826 | 78° | 4km/h | 29922m | 5.7m/s | -42.6°C | 2.6% | 0hPa | 2.7V | 00:00:00 | 01:46:52 | 00:00:00 | |
| OE5DRO-10 | 2026-09-03 12:51:30 | 45.36318 | 16.54823 | 23° | 4km/h | 29909m | 7.6m/s | -42.5°C | 2.6% | 0hPa | 2.7V | 00:00:00 | 00:00:00 | 00:00:00 | |
| OE3JTB-15 | 2026-09-03 12:51:27 | 45.36314 | 16.54825 | 285° | 7km/h | 29890m | 7.7m/s | -42.4°C | 2.5% | 0hPa | 2.7V | 00:00:00 | 01:46:47 | 00:00:00 | |
| OE8JPQ-2 | 2026-09-03 12:51:26 | 45.36315 | 16.54827 | 232° | 7km/h | 29882m | 6.9m/s | -42.4°C | 2.5% | 0hPa | 2.7V | 00:00:00 | 01:46:46 | 00:00:00 | |
| 9A1FER-3 | 2026-09-03 12:51:19 | 45.36318 | 16.54829 | 162° | 9km/h | 29837m | 6.0m/s | -42.5°C | 2.6% | 0hPa | 2.7V | 00:00:00 | 01:46:39 | 00:00:00 | |
| PG1ADW-2 | 2026-09-03 12:51:18 | 45.36319 | 16.54829 | 172° | 11km/h | 29830m | 6.1m/s | -42.4°C | 2.6% | 0hPa | 2.7V | 00:00:00 | 00:00:00 | 00:00:00 | |
| 9A1FER-15 | 2026-09-03 12:51:17 | 45.36319 | 16.54829 | 318° | 11km/h | 29824m | 7.4m/s | -42.4°C | 2.5% | 0hPa | 2.7V | 00:00:00 | 01:46:37 | 00:00:00 | |
| PETON7-10 | 2026-09-03 12:51:11 | 45.36326 | 16.54842 | 218° | 13km/h | 29785m | 6.9m/s | -42.2°C | 2.6% | 0hPa | 2.7V | 00:00:00 | 00:00:00 | 00:00:00 | |
| OE8JPQ-2 | 2026-09-03 12:51:06 | 45.36341 | 16.54848 | 169° | 13km/h | 29752m | 5.8m/s | -42.0°C | 2.5% | 0hPa | 2.7V | 00:00:00 | 00:00:00 | 08:30:00 | |
| 9A1FER-3 | 2026-09-03 12:51:04 | 45.36349 | 16.54844 | 153° | 13km/h | 29742m | 6.6m/s | -42.1°C | 2.5% | 0hPa | 2.6V | 00:00:00 | 01:46:24 | 00:00:00 | |
| 9A1FER-15 | 2026-09-03 12:51:02 | 45.36353 | 16.54840 | 160° | 13km/h | 29729m | 5.4m/s | -42.0°C | 2.5% | 0hPa | 2.6V | 00:00:00 | 01:46:22 | 00:00:00 | |
| PG1ADW-2 | 2026-09-03 12:50:58 | 45.36362 | 16.54847 | 207° | 16km/h | 29704m | 5.8m/s | -42.2°C | 2.5% | 0hPa | 2.7V | 00:00:00 | 01:46:18 | 00:00:00 | |
| PETON7-10 | 2026-09-03 12:50:56 | 45.36371 | 16.54851 | 193° | 15km/h | 29692m | 7.1m/s | -42.2°C | 2.6% | 0hPa | 2.7V | 00:00:00 | 01:46:16 | 00:00:00 | |
| OE5DRO-10 | 2026-09-03 12:50:51 | 45.36388 | 16.54848 | 160° | 16km/h | 29659m | 5.9m/s | -41.9°C | 2.5% | 0hPa | 2.7V | 00:00:00 | 00:00:00 | 08:30:00 | |
| 9A1FER-3 | 2026-09-03 12:50:49 | 45.36393 | 16.54843 | 131° | 16km/h | 29645m | 7.4m/s | -41.9°C | 2.5% | 0hPa | 2.7V | 00:00:00 | 01:46:09 | 00:00:00 | |
| 9A1FER-15 | 2026-09-03 12:50:47 | 45.36398 | 16.54836 | 141° | 18km/h | 29634m | 5.0m/s | -41.9°C | 2.5% | 0hPa | 2.7V | 00:00:00 | 01:46:07 | 00:00:00 | |
| OE8JPQ-2 | 2026-09-03 12:50:46 | 45.36401 | 16.54833 | 157° | 16km/h | 29628m | 7.4m/s | -41.9°C | 2.5% | 0hPa | 2.7V | 00:00:00 | 00:00:00 | 00:00:00 | |
| 9A1FER-10 | 2026-09-03 12:50:41 | 45.36424 | 16.54827 | 156° | 16km/h | 29596m | 5.4m/s | -41.9°C | 2.5% | 0hPa | 2.7V | 00:00:00 | 01:46:01 | 00:00:00 | |
| PG1ADW-2 | 2026-09-03 12:50:38 | 45.36435 | 16.54819 | 156° | 13km/h | 29578m | 6.9m/s | -42.0°C | 2.5% | 0hPa | 2.7V | 00:00:00 | 00:00:00 | 00:00:00 | |
| 9A1FER-3 | 2026-09-03 12:50:34 | 45.36451 | 16.54805 | 128° | 13km/h | 29552m | 6.3m/s | -42.1°C | 2.6% | 0hPa | 2.7V | 00:00:00 | 01:45:54 | 00:00:00 | |
| OE5DRO-10 | 2026-09-03 12:50:32 | 45.36456 | 16.54796 | 138° | 11km/h | 29540m | 6.3m/s | -42.1°C | 2.6% | 0hPa | 2.7V | 00:00:00 | 00:00:00 | 00:00:00 | |
| OE3JTB-15 | 2026-09-03 12:50:25 | 45.36477 | 16.54789 | 144° | 7km/h | 29495m | 6.3m/s | -41.9°C | 2.4% | 0hPa | 2.7V | 00:00:00 | 00:00:00 | 00:00:00 | |
| 9A1FER-3 | 2026-09-03 12:50:19 | 45.36487 | 16.54773 | 117° | 9km/h | 29456m | 5.7m/s | -42.0°C | 2.5% | 0hPa | 2.7V | 00:00:00 | 01:45:39 | 08:30:00 | |
| 9A1FER-15 | 2026-09-03 12:50:17 | 45.36490 | 16.54771 | 178° | 11km/h | 29442m | 5.9m/s | -42.1°C | 2.5% | 0hPa | 2.7V | 00:00:00 | 01:45:37 | 08:30:00 | |
| OE5DRO-10 | 2026-09-03 12:50:13 | 45.36495 | 16.54769 | 116° | 9km/h | 29417m | 5.4m/s | -42.2°C | 2.5% | 0hPa | 2.6V | 00:00:00 | 00:00:00 | 00:00:00 | |
| 9A1FER-10 | 2026-09-03 12:50:11 | 45.36497 | 16.54764 | 139° | 9km/h | 29405m | 7.5m/s | -42.2°C | 2.5% | 0hPa | 2.6V | 00:00:00 | 01:45:31 | 00:00:00 | |
| OE8JPQ-2 | 2026-09-03 12:50:06 | 45.36510 | 16.54749 | 115° | 7km/h | 29372m | 5.9m/s | -42.3°C | 2.5% | 0hPa | 2.6V | 00:00:00 | 00:00:00 | 00:00:00 | |
| 9A1FER-3 | 2026-09-03 12:50:04 | 45.36513 | 16.54740 | 127° | 5km/h | 29360m | 7.1m/s | -42.4°C | 2.4% | 0hPa | 2.7V | 00:00:00 | 01:45:24 | 00:00:00 | |
| 9A1FER-15 | 2026-09-03 12:50:02 | 45.36517 | 16.54737 | 181° | 5km/h | 29346m | 6.0m/s | -42.5°C | 2.5% | 0hPa | 2.7V | 00:00:00 | 01:45:22 | 00:00:00 | |
| PG1ADW-2 | 2026-09-03 12:49:58 | 45.36520 | 16.54741 | 254° | 7km/h | 29320m | 6.4m/s | -42.5°C | 2.5% | 0hPa | 2.7V | 00:00:00 | 00:00:00 | 00:00:00 | |
| PETON7-10 | 2026-09-03 12:49:56 | 45.36521 | 16.54743 | 208° | 7km/h | 29306m | 5.4m/s | -42.6°C | 2.5% | 0hPa | 2.7V | 00:00:00 | 00:00:00 | 00:00:00 | |
| OE5DRO-10 | 2026-09-03 12:49:53 | 45.36522 | 16.54742 | 56° | 7km/h | 29286m | 6.1m/s | -42.7°C | 2.5% | 0hPa | 2.6V | 00:00:00 | 00:00:00 | 00:00:00 | |
| 9A1FER-3 | 2026-09-03 12:49:49 | 45.36518 | 16.54741 | 301° | 7km/h | 29262m | 4.8m/s | -43.2°C | 2.6% | 0hPa | 2.6V | 00:00:00 | 01:45:09 | 00:00:00 | |
| 9A1FER-15 | 2026-09-03 12:49:47 | 45.36515 | 16.54747 | 321° | 7km/h | 29250m | 7.3m/s | -43.2°C | 2.6% | 0hPa | 2.6V | 00:00:00 | 01:45:07 | 00:00:00 | |
| OE8JPQ-2 | 2026-09-03 12:49:46 | 45.36513 | 16.54748 | 340° | 9km/h | 29243m | 6.0m/s | -43.1°C | 2.6% | 0hPa | 2.6V | 00:00:00 | 00:00:00 | 00:00:00 | |
| PETON7-10 | 2026-09-03 12:49:41 | 45.36517 | 16.54747 | 171° | 11km/h | 29212m | 6.0m/s | -43.2°C | 2.6% | 0hPa | 2.6V | 00:00:00 | 00:00:00 | 00:00:00 | |
| PG1ADW-2 | 2026-09-03 12:49:38 | 45.36523 | 16.54744 | 162° | 13km/h | 29193m | 5.9m/s | -43.1°C | 2.6% | 0hPa | 2.6V | 00:00:00 | 01:44:58 | 00:00:00 | |
| 9A1FER-3 | 2026-09-03 12:49:34 | 45.36527 | 16.54742 | 52° | 15km/h | 29166m | 7.5m/s | -43.2°C | 2.6% | 0hPa | 2.6V | 00:00:00 | 01:44:54 | 00:00:00 | |
| 9A1FER-10 | 2026-09-03 12:49:26 | 45.36537 | 16.54706 | 117° | 22km/h | 29114m | 6.3m/s | -43.2°C | 2.6% | 0hPa | 2.6V | 00:00:00 | 01:44:46 | 00:00:00 | |
| OE3JTB-15 | 2026-09-03 12:49:23 | 45.36545 | 16.54688 | 125° | 20km/h | 29095m | 5.3m/s | -43.5°C | 2.5% | 0hPa | 2.6V | 00:00:00 | 00:00:00 | 00:00:00 | |
| 9A1FER-3 | 2026-09-03 12:49:19 | 45.36547 | 16.54667 | 83° | 22km/h | 29069m | 6.4m/s | -43.7°C | 2.6% | 0hPa | 2.6V | 00:00:00 | 01:44:39 | 00:00:00 | |
| PG1ADW-2 | 2026-09-03 12:49:18 | 45.36546 | 16.54661 | 92° | 20km/h | 29062m | 6.9m/s | -43.7°C | 2.6% | 0hPa | 2.6V | 00:00:00 | 00:00:00 | 00:00:00 | |
| OE5DRO-10 | 2026-09-03 12:49:15 | 45.36549 | 16.54638 | 99° | 20km/h | 29043m | 7.6m/s | -43.9°C | 2.7% | 0hPa | 2.6V | 00:00:00 | 00:00:00 | 00:00:00 | |
| PETON7-10 | 2026-09-03 12:49:11 | 45.36558 | 16.54596 | 123° | 16km/h | 29017m | 6.8m/s | -44.2°C | 2.7% | 0hPa | 2.6V | 00:00:00 | 00:00:00 | 00:00:00 | |
| OE8JPQ-2 | 2026-09-03 12:49:06 | 45.36574 | 16.54568 | 149° | 18km/h | 28984m | 7.5m/s | -44.4°C | 2.8% | 0hPa | 2.7V | 00:00:00 | 00:00:00 | 00:00:00 | |
| 9A1FER-3 | 2026-09-03 12:49:04 | 45.36578 | 16.54565 | 136° | 16km/h | 28971m | 5.4m/s | -44.3°C | 2.8% | 0hPa | 2.6V | 00:00:00 | 01:44:24 | 00:00:00 | |
| 9A1FER-15 | 2026-09-03 12:49:02 | 45.36579 | 16.54558 | 85° | 18km/h | 28958m | 7.1m/s | -44.4°C | 2.7% | 0hPa | 2.6V | 00:00:00 | 01:44:22 | 00:00:00 | |
| PG1ADW-2 | 2026-09-03 12:48:58 | 45.36579 | 16.54535 | 105° | 26km/h | 28933m | 6.1m/s | -44.7°C | 2.8% | 0hPa | 2.6V | 00:00:00 | 00:00:00 | 00:00:00 | |
| 9A1FER-10 | 2026-09-03 12:48:56 | 45.36580 | 16.54527 | 109° | 26km/h | 28921m | 7.0m/s | -44.7°C | 2.8% | 0hPa | 2.6V | 00:00:00 | 01:44:16 | 00:00:00 | |
| 9A1FER-3 | 2026-09-03 12:48:49 | 45.36586 | 16.54478 | 97° | 33km/h | 28874m | 6.4m/s | -45.2°C | 2.9% | 0hPa | 2.7V | 00:00:00 | 01:44:09 | 00:00:00 | |
| 9A1FER-15 | 2026-09-03 12:48:47 | 45.36585 | 16.54456 | 81° | 33km/h | 28861m | 5.8m/s | -45.1°C | 2.9% | 0hPa | 2.6V | 00:00:00 | 01:44:07 | 00:00:00 | |
| OE8JPQ-2 | 2026-09-03 12:48:46 | 45.36583 | 16.54443 | 80° | 31km/h | 28855m | 6.1m/s | -45.0°C | 2.9% | 0hPa | 2.7V | 00:00:00 | 00:00:00 | 00:00:00 | |
| 9A1FER-10 | 2026-09-03 12:48:41 | 45.36573 | 16.54384 | 71° | 29km/h | 28821m | 5.5m/s | -45.0°C | 2.9% | 0hPa | 2.7V | 00:00:00 | 01:44:01 | 00:00:00 | |
| PG1ADW-2 | 2026-09-03 12:48:38 | 45.36567 | 16.54351 | 80° | 27km/h | 28802m | 6.4m/s | -44.9°C | 2.9% | 0hPa | 2.7V | 00:00:00 | 00:00:00 | 08:30:00 | |
| OE5DRO-10 | 2026-09-03 12:48:36 | 45.36564 | 16.54330 | 79° | 26km/h | 28790m | 7.3m/s | -44.9°C | 2.9% | 0hPa | 2.6V | 00:00:00 | 00:00:00 | 00:00:00 | |
| 9A1FER-3 | 2026-09-03 12:48:34 | 45.36560 | 16.54307 | 78° | 26km/h | 28776m | 5.7m/s | -44.8°C | 2.9% | 0hPa | 2.6V | 00:00:00 | 01:43:54 | 00:00:00 | |
| 9A1FER-15 | 2026-09-03 12:48:32 | 45.36557 | 16.54285 | 81° | 26km/h | 28763m | 6.1m/s | -44.8°C | 2.9% | 0hPa | 2.6V | 00:00:00 | 01:43:52 | 00:00:00 | |
| OE8JPQ-2 | 2026-09-03 12:48:26 | 45.36547 | 16.54230 | 87° | 20km/h | 28725m | 6.8m/s | -44.8°C | 2.8% | 0hPa | 2.6V | 00:00:00 | 01:43:46 | 00:00:00 | |
| OE3JTB-15 | 2026-09-03 12:48:20 | 45.36547 | 16.54178 | 87° | 13km/h | 28688m | 6.8m/s | -44.8°C | 2.9% | 0hPa | 2.6V | 00:00:00 | 01:43:40 | 00:00:00 | |
| 9A1FER-3 | 2026-09-03 12:48:19 | 45.36547 | 16.54170 | 91° | 16km/h | 28681m | 6.5m/s | -44.8°C | 2.9% | 0hPa | 2.6V | 00:00:00 | 01:43:39 | 00:00:00 | |
| PG1ADW-2 | 2026-09-03 12:48:18 | 45.36546 | 16.54163 | 89° | 13km/h | 28675m | 5.8m/s | -44.9°C | 2.9% | 0hPa | 2.6V | 00:00:00 | 01:43:38 | 00:00:00 | |
| 9A1FER-15 | 2026-09-03 12:48:17 | 45.36546 | 16.54156 | 82° | 13km/h | 28669m | 6.4m/s | -44.8°C | 2.9% | 0hPa | 2.6V | 00:00:00 | 01:43:37 | 00:00:00 | |
| PETON7-10 | 2026-09-03 12:48:11 | 45.36538 | 16.54120 | 85° | 11km/h | 28631m | 5.1m/s | -44.7°C | 2.8% | 0hPa | 2.6V | 00:00:00 | 00:00:00 | 00:00:00 | |
| OE8JPQ-2 | 2026-09-03 12:48:06 | 45.36532 | 16.54096 | 60° | 9km/h | 28600m | 6.9m/s | -44.7°C | 2.9% | 0hPa | 2.6V | 00:00:00 | 00:00:00 | 08:30:00 | |
| 9A1FER-3 | 2026-09-03 12:48:04 | 45.36531 | 16.54093 | 60° | 9km/h | 28589m | 5.7m/s | -44.5°C | 2.9% | 0hPa | 2.7V | 00:00:00 | 01:43:24 | 08:30:00 | |
| 9A1FER-15 | 2026-09-03 12:48:02 | 45.36530 | 16.54089 | 75° | 9km/h | 28576m | 6.0m/s | -44.5°C | 2.9% | 0hPa | 2.7V | 00:00:00 | 01:43:22 | 08:30:00 | |
| PG1ADW-2 | 2026-09-03 12:47:58 | 45.36532 | 16.54077 | 138° | 13km/h | 28551m | 6.3m/s | -44.5°C | 2.8% | 0hPa | 2.6V | 00:00:00 | 00:00:00 | 00:00:00 | |
| PETON7-10 | 2026-09-03 12:47:56 | 45.36535 | 16.54071 | 124° | 13km/h | 28538m | 7.2m/s | -44.5°C | 2.8% | 0hPa | 2.6V | 00:00:00 | 01:43:16 | 00:00:00 | |
| OE3JTB-15 | 2026-09-03 12:47:51 | 45.36542 | 16.54058 | 133° | 13km/h | 28507m | 5.5m/s | -44.4°C | 2.8% | 0hPa | 2.6V | 00:00:00 | 00:00:00 | 00:00:00 | |
| 9A1FER-3 | 2026-09-03 12:47:49 | 45.36543 | 16.54052 | 94° | 15km/h | 28493m | 6.5m/s | -44.5°C | 2.8% | 0hPa | 2.7V | 00:00:00 | 01:43:09 | 00:00:00 | |
| 9A1FER-15 | 2026-09-03 12:47:47 | 45.36544 | 16.54042 | 93° | 15km/h | 28481m | 6.3m/s | -44.5°C | 2.8% | 0hPa | 2.7V | 00:00:00 | 01:43:07 | 00:00:00 | |
| OE8JPQ-2 | 2026-09-03 12:47:46 | 45.36544 | 16.54037 | 104° | 15km/h | 28475m | 6.6m/s | -44.5°C | 2.8% | 0hPa | 2.7V | 00:00:00 | 00:00:00 | 00:00:00 | |
| 9A1FER-10 | 2026-09-03 12:47:42 | 45.36553 | 16.54009 | 117° | 15km/h | 28444m | 4.8m/s | -44.4°C | 2.7% | 0hPa | 2.7V | 00:00:00 | 01:43:01 | 00:00:00 | |
| PETON7-10 | 2026-09-03 12:47:41 | 45.36553 | 16.54009 | 117° | 15km/h | 28444m | 4.8m/s | -44.4°C | 2.7% | 0hPa | 2.7V | 00:00:00 | 00:00:00 | 00:00:00 | |
| PG1ADW-2 | 2026-09-03 12:47:38 | 45.36559 | 16.53996 | 129° | 13km/h | 28425m | 5.5m/s | -44.6°C | 2.8% | 0hPa | 2.6V | 00:00:00 | 00:00:00 | 00:00:00 | |
| 9A1FER-3 | 2026-09-03 12:47:34 | 45.36562 | 16.53982 | 111° | 15km/h | 28401m | 6.0m/s | -44.5°C | 2.8% | 0hPa | 2.6V | 00:00:00 | 01:42:54 | 00:00:00 | |
| 9A1FER-15 | 2026-09-03 12:47:32 | 45.36566 | 16.53975 | 137° | 15km/h | 28388m | 5.6m/s | -44.4°C | 2.7% | 0hPa | 2.6V | 00:00:00 | 01:42:52 | 00:00:00 | |
| 9A1FER-10 | 2026-09-03 12:47:26 | 45.36581 | 16.53947 | 141° | 20km/h | 28352m | 5.5m/s | -44.9°C | 2.8% | 0hPa | 2.6V | 00:00:00 | 01:42:46 | 08:30:00 | |
| OE8JPQ-2 | 2026-09-03 12:47:24 | 45.36585 | 16.53941 | 133° | 22km/h | 28340m | 6.9m/s | -44.7°C | 2.8% | 0hPa | 2.7V | 00:00:00 | 01:42:44 | 00:00:00 | |
| 9A1FER-3 | 2026-09-03 12:47:19 | 45.36598 | 16.53928 | 148° | 24km/h | 28310m | 5.6m/s | -44.8°C | 2.8% | 0hPa | 2.7V | 00:00:00 | 01:42:39 | 00:00:00 | |
| PG1ADW-2 | 2026-09-03 12:47:18 | 45.36602 | 16.53924 | 138° | 26km/h | 28304m | 7.1m/s | -44.9°C | 2.8% | 0hPa | 2.6V | 00:00:00 | 00:00:00 | 00:00:00 | |
| 9A1FER-15 | 2026-09-03 12:47:17 | 45.36606 | 16.53918 | 135° | 26km/h | 28297m | 5.7m/s | -44.9°C | 2.8% | 0hPa | 2.6V | 00:00:00 | 01:42:37 | 00:00:00 | |
| OE8JPQ-2 | 2026-09-03 12:47:04 | 45.36657 | 16.53825 | 123° | 27km/h | 28216m | 6.8m/s | -45.3°C | 2.9% | 0hPa | 2.7V | 00:00:00 | 00:00:00 | 00:00:00 | |
| 9A1FER-15 | 2026-09-03 12:47:02 | 45.36665 | 16.53810 | 132° | 26km/h | 28204m | 4.9m/s | -45.4°C | 2.9% | 0hPa | 2.6V | 00:00:00 | 01:42:22 | 00:00:00 | |
| PG1ADW-2 | 2026-09-03 12:46:58 | 45.36682 | 16.53775 | 117° | 24km/h | 28179m | 6.7m/s | -45.9°C | 3.0% | 0hPa | 2.6V | 00:00:00 | 01:42:18 | 00:00:00 | |
| 9A1FER-10 | 2026-09-03 12:46:56 | 45.36687 | 16.53758 | 109° | 26km/h | 28167m | 4.9m/s | -45.8°C | 3.0% | 0hPa | 2.6V | 00:00:00 | 01:42:16 | 00:00:00 | |
| 9A1FER-3 | 2026-09-03 12:46:49 | 45.36686 | 16.53701 | 102° | 22km/h | 28125m | 5.7m/s | -45.7°C | 2.9% | 0hPa | 2.6V | 00:00:00 | 01:42:09 | 00:00:00 | |
| 9A1FER-15 | 2026-09-03 12:46:47 | 45.36690 | 16.53684 | 107° | 22km/h | 28112m | 5.8m/s | -45.9°C | 2.9% | 0hPa | 2.6V | 00:00:00 | 01:42:07 | 00:00:00 | |
| OE8JPQ-2 | 2026-09-03 12:46:44 | 45.36699 | 16.53656 | 125° | 18km/h | 28094m | 6.2m/s | -46.0°C | 2.9% | 0hPa | 2.6V | 00:00:00 | 00:00:00 | 00:00:00 | |
| 9A1FER-10 | 2026-09-03 12:46:41 | 45.36708 | 16.53632 | 109° | 16km/h | 28077m | 6.6m/s | -46.1°C | 3.1% | 0hPa | 2.6V | 00:00:00 | 01:42:01 | 00:00:00 | |
| OE3JTB-15 | 2026-09-03 12:46:38 | 45.36708 | 16.53613 | 67° | 18km/h | 28058m | 6.8m/s | -46.2°C | 3.1% | 0hPa | 2.6V | 00:00:00 | 01:41:58 | 00:00:00 | |
| PG1ADW-2 | 2026-09-03 12:46:37 | 45.36707 | 16.53609 | 42° | 18km/h | 28052m | 5.8m/s | -46.2°C | 3.0% | 0hPa | 2.6V | 00:00:00 | 00:00:00 | 00:00:00 | |
| 9A1FER-3 | 2026-09-03 12:46:34 | 45.36696 | 16.53599 | 30° | 18km/h | 28033m | 4.9m/s | -46.2°C | 3.0% | 0hPa | 2.7V | 00:00:00 | 01:41:54 | 00:00:00 | |
| 9A1FER-15 | 2026-09-03 12:46:32 | 45.36690 | 16.53595 | 41° | 18km/h | 28021m | 5.6m/s | -46.2°C | 3.0% | 0hPa | 2.6V | 00:00:00 | 01:41:52 | 00:00:00 | |
| PETON7-10 | 2026-09-03 12:46:26 | 45.36699 | 16.53562 | 122° | 22km/h | 27985m | 6.9m/s | -46.3°C | 3.0% | 0hPa | 2.6V | 00:00:00 | 01:41:46 | 00:00:00 | |
| OE8JPQ-2 | 2026-09-03 12:46:22 | 45.36710 | 16.53536 | 101° | 22km/h | 27960m | 6.2m/s | -46.4°C | 3.0% | 0hPa | 2.6V | 00:00:00 | 01:41:42 | 00:00:00 | |
| 9A1FER-3 | 2026-09-03 12:46:19 | 45.36711 | 16.53517 | 105° | 22km/h | 27943m | 6.6m/s | -46.4°C | 3.0% | 0hPa | 2.6V | 00:00:00 | 01:41:39 | 00:00:00 | |
| 9A1FER-15 | 2026-09-03 12:46:17 | 45.36715 | 16.53505 | 121° | 24km/h | 27931m | 5.0m/s | -46.4°C | 3.1% | 0hPa | 2.6V | 00:00:00 | 01:41:37 | 00:00:00 | |
| 9A1FER-10 | 2026-09-03 12:46:11 | 45.36730 | 16.53459 | 124° | 24km/h | 27896m | 5.2m/s | -46.4°C | 3.1% | 0hPa | 2.6V | 00:00:00 | 01:41:31 | 00:00:00 | |
| 9A1FER-3 | 2026-09-03 12:46:04 | 45.36744 | 16.53404 | 115° | 22km/h | 27854m | 5.0m/s | -46.4°C | 3.0% | 0hPa | 2.6V | 00:00:00 | 01:41:24 | 00:00:00 | |
| OE8JPQ-2 | 2026-09-03 12:46:02 | 45.36749 | 16.53387 | 106° | 22km/h | 27842m | 6.8m/s | -46.4°C | 3.0% | 0hPa | 2.6V | 00:00:00 | 00:00:00 | 00:00:00 | |
| PG1ADW-2 | 2026-09-03 12:45:57 | 45.36752 | 16.53346 | 94° | 22km/h | 27812m | 5.1m/s | -46.5°C | 3.0% | 0hPa | 2.7V | 00:00:00 | 00:00:00 | 00:00:00 | |
| PETON7-10 | 2026-09-03 12:45:56 | 45.36752 | 16.53340 | 89° | 20km/h | 27807m | 6.2m/s | -46.4°C | 3.1% | 0hPa | 2.7V | 00:00:00 | 00:00:00 | 00:00:00 | |
| 9A1FER-3 | 2026-09-03 12:45:49 | 45.36755 | 16.53285 | 98° | 24km/h | 27761m | 7.0m/s | -46.5°C | 3.0% | 0hPa | 2.7V | 00:00:00 | 01:41:09 | 08:30:00 | |
| 9A1FER-15 | 2026-09-03 12:45:47 | 45.36756 | 16.53268 | 94° | 24km/h | 27750m | 6.1m/s | -46.5°C | 3.0% | 0hPa | 2.7V | 00:00:00 | 01:41:07 | 08:30:00 | |
| OE8JPQ-2 | 2026-09-03 12:45:42 | 45.36759 | 16.53237 | 95° | 24km/h | 27718m | 5.6m/s | -46.6°C | 3.0% | 0hPa | 2.6V | 00:00:00 | 00:00:00 | 00:00:00 | |
| PETON7-10 | 2026-09-03 12:45:41 | 45.36760 | 16.53229 | 100° | 26km/h | 27712m | 5.2m/s | -46.6°C | 3.0% | 0hPa | 2.6V | 00:00:00 | 01:41:01 | 00:00:00 | |
| PG1ADW-2 | 2026-09-03 12:45:37 | 45.36767 | 16.53195 | 106° | 26km/h | 27687m | 7.5m/s | -46.4°C | 3.1% | 0hPa | 2.6V | 00:00:00 | 01:40:57 | 08:30:00 | |
| 9A1FER-3 | 2026-09-03 12:45:34 | 45.36771 | 16.53162 | 100° | 26km/h | 27669m | 7.3m/s | -46.5°C | 3.1% | 0hPa | 2.6V | 00:00:00 | 01:40:54 | 00:00:00 | |
| 9A1FER-15 | 2026-09-03 12:45:33 | 45.36774 | 16.53142 | 101° | 24km/h | 27657m | 5.3m/s | -46.6°C | 3.1% | 0hPa | 2.6V | 00:00:00 | 01:40:52 | 00:00:00 | |
| 9A1FER-10 | 2026-09-03 12:45:26 | 45.36777 | 16.53092 | 105° | 22km/h | 27618m | 5.5m/s | -46.5°C | 3.0% | 0hPa | 2.6V | 00:00:00 | 01:40:46 | 00:00:00 | |
| OE5DRO-10 | 2026-09-03 12:45:25 | 45.36778 | 16.53085 | 104° | 22km/h | 27612m | 5.4m/s | -46.6°C | 3.0% | 0hPa | 2.6V | 00:00:00 | 00:00:00 | 08:30:00 | |
| OE8JPQ-2 | 2026-09-03 12:45:22 | 45.36781 | 16.53060 | 100° | 26km/h | 27593m | 6.6m/s | -46.7°C | 3.1% | 0hPa | 2.7V | 00:00:00 | 01:40:42 | 00:00:00 | |
| 9A1FER-3 | 2026-09-03 12:45:19 | 45.36784 | 16.53031 | 90° | 24km/h | 27574m | 7.2m/s | -46.5°C | 3.1% | 0hPa | 2.7V | 00:00:00 | 01:40:39 | 00:00:00 | |
| PG1ADW-2 | 2026-09-03 12:45:18 | 45.36782 | 16.53012 | 74° | 26km/h | 27561m | 5.3m/s | -46.6°C | 3.1% | 0hPa | 2.7V | 00:00:00 | 00:00:00 | 00:00:00 | |
| OE3JTB-15 | 2026-09-03 12:45:12 | 45.36775 | 16.52979 | 68° | 18km/h | 27529m | 7.0m/s | -46.9°C | 3.1% | 0hPa | 2.7V | 00:00:00 | 00:00:00 | 08:30:00 | |
| PETON7-10 | 2026-09-03 12:45:11 | 45.36773 | 16.52973 | 71° | 27km/h | 27523m | 5.7m/s | -46.9°C | 3.1% | 0hPa | 2.6V | 00:00:00 | 00:00:00 | 00:00:00 | |
| OE5DRO-10 | 2026-09-03 12:45:06 | 45.36771 | 16.52932 | 79° | 29km/h | 27491m | 7.5m/s | -47.3°C | 3.2% | 0hPa | 2.6V | 00:00:00 | 00:00:00 | 00:00:00 | |
| 9A1FER-3 | 2026-09-03 12:45:04 | 45.36766 | 16.52909 | 71° | 27km/h | 27478m | 6.7m/s | -47.2°C | 3.2% | 0hPa | 2.6V | 00:00:00 | 01:40:24 | 00:00:00 | |
| OE8JPQ-2 | 2026-09-03 12:45:02 | 45.36760 | 16.52886 | 70° | 27km/h | 27466m | 4.3m/s | -47.1°C | 3.2% | 0hPa | 2.7V | 00:00:00 | 00:00:00 | 08:30:00 | |
| PG1ADW-2 | 2026-09-03 12:44:57 | 45.36745 | 16.52839 | 77° | 27km/h | 27435m | 7.2m/s | -47.3°C | 3.1% | 0hPa | 2.6V | 00:00:00 | 00:00:00 | 00:00:00 | |
| 9A1FER-10 | 2026-09-03 12:44:56 | 45.36744 | 16.52831 | 83° | 27km/h | 27428m | 5.7m/s | -47.4°C | 3.2% | 0hPa | 2.6V | 00:00:00 | 01:40:16 | 00:00:00 | |
| 9A1FER-3 | 2026-09-03 12:44:49 | 45.36726 | 16.52773 | 57° | 29km/h | 27385m | 5.9m/s | -47.6°C | 3.2% | 0hPa | 2.6V | 00:00:00 | 01:40:09 | 00:00:00 | |
| 9A1FER-15 | 2026-09-03 12:44:47 | 45.36716 | 16.52756 | 47° | 29km/h | 27371m | 5.5m/s | -47.4°C | 3.2% | 0hPa | 2.6V | 00:00:00 | 01:40:07 | 00:00:00 | |
| OE8JPQ-2 | 2026-09-03 12:44:42 | 45.36697 | 16.52717 | 64° | 29km/h | 27341m | 7.1m/s | -47.5°C | 3.2% | 0hPa | 2.6V | 00:00:00 | 00:00:00 | 00:00:00 | |
| 9A1FER-10 | 2026-09-03 12:44:41 | 45.36694 | 16.52708 | 64° | 31km/h | 27334m | 6.2m/s | -47.5°C | 3.2% | 0hPa | 2.6V | 00:00:00 | 01:40:01 | 00:00:00 | |
| PG1ADW-2 | 2026-09-03 12:44:37 | 45.36682 | 16.52668 | 58° | 31km/h | 27310m | 4.7m/s | -47.6°C | 3.2% | 0hPa | 2.6V | 00:00:00 | 00:00:00 | 00:00:00 | |
| 9A1FER-3 | 2026-09-03 12:44:34 | 45.36663 | 16.52643 | 29° | 29km/h | 27291m | 6.4m/s | -47.7°C | 3.3% | 0hPa | 2.6V | 00:00:00 | 01:39:54 | 00:00:00 | |
| 9A1FER-15 | 2026-09-03 12:44:32 | 45.36649 | 16.52633 | 24° | 29km/h | 27277m | 5.4m/s | -47.5°C | 3.2% | 0hPa | 2.6V | 00:00:00 | 01:39:52 | 00:00:00 | |
| OE5DRO-10 | 2026-09-03 12:44:28 | 45.36624 | 16.52615 | 36° | 27km/h | 27253m | 5.1m/s | -47.4°C | 3.3% | 0hPa | 2.6V | 00:00:00 | 00:00:00 | 00:00:00 | |
| PETON7-10 | 2026-09-03 12:44:26 | 45.36614 | 16.52600 | 54° | 29km/h | 27241m | 8.0m/s | -47.4°C | 3.3% | 0hPa | 2.6V | 00:00:00 | 00:00:00 | 00:00:00 | |
| OE8JPQ-2 | 2026-09-03 12:44:22 | 45.36596 | 16.52566 | 40° | 29km/h | 27215m | 5.8m/s | -47.2°C | 3.2% | 0hPa | 2.6V | 00:00:00 | 01:39:42 | 00:00:00 | |
| 9A1FER-3 | 2026-09-03 12:44:19 | 45.36575 | 16.52549 | 24° | 27km/h | 27197m | 6.6m/s | -47.3°C | 3.3% | 0hPa | 2.6V | 00:00:00 | 01:39:39 | 00:00:00 | |
| 9A1FER-15 | 2026-09-03 12:44:17 | 45.36560 | 16.52541 | 21° | 27km/h | 27185m | 7.6m/s | -47.1°C | 3.1% | 0hPa | 2.6V | 00:00:00 | 01:39:37 | 00:00:00 | |
| 9A1FER-10 | 2026-09-03 12:44:11 | 45.36526 | 16.52508 | 53° | 26km/h | 27147m | 6.9m/s | -47.2°C | 3.2% | 0hPa | 2.6V | 00:00:00 | 01:39:31 | 00:00:00 | |
| OE5DRO-10 | 2026-09-03 12:44:08 | 45.36513 | 16.52487 | 47° | 24km/h | 27128m | 6.7m/s | -47.1°C | 3.2% | 0hPa | 2.6V | 00:00:00 | 00:00:00 | 00:00:00 | |
| 9A1FER-3 | 2026-09-03 12:44:04 | 45.36492 | 16.52468 | 20° | 24km/h | 27102m | 6.6m/s | -47.3°C | 3.3% | 0hPa | 2.6V | 00:00:00 | 01:39:24 | 00:00:00 | |
| OE8JPQ-2 | 2026-09-03 12:44:02 | 45.36477 | 16.52462 | 15° | 26km/h | 27089m | 7.2m/s | -47.1°C | 3.2% | 0hPa | 2.6V | 00:00:00 | 00:00:00 | 00:00:00 | |
| PG1ADW-2 | 2026-09-03 12:43:57 | 45.36452 | 16.52447 | 40° | 26km/h | 27059m | 5.7m/s | -47.0°C | 3.1% | 0hPa | 2.6V | 00:00:00 | 00:00:00 | 00:00:00 | |
| PETON7-10 | 2026-09-03 12:43:56 | 45.36448 | 16.52441 | 46° | 26km/h | 27053m | 5.0m/s | -46.9°C | 3.1% | 0hPa | 2.6V | 00:00:00 | 00:00:00 | 08:30:00 | |
| 9A1FER-3 | 2026-09-03 12:43:49 | 45.36423 | 16.52402 | 20° | 26km/h | 27010m | 7.1m/s | -46.9°C | 3.2% | 0hPa | 2.6V | 00:00:00 | 01:39:09 | 00:00:00 | |
| 9A1FER-15 | 2026-09-03 12:43:47 | 45.36410 | 16.52400 | 360° | 24km/h | 26996m | 5.3m/s | -46.9°C | 3.2% | 0hPa | 2.6V | 00:00:00 | 01:39:07 | 00:00:00 | |
| OE8JPQ-2 | 2026-09-03 12:43:42 | 45.36370 | 16.52392 | 15° | 22km/h | 26965m | 6.9m/s | -46.9°C | 3.1% | 0hPa | 2.6V | 00:00:00 | 00:00:00 | 00:00:00 | |
| 9A1FER-10 | 2026-09-03 12:43:41 | 45.36364 | 16.52390 | 20° | 22km/h | 26959m | 5.4m/s | -46.7°C | 3.1% | 0hPa | 2.6V | 00:00:00 | 01:39:01 | 00:00:00 | |
| PG1ADW-2 | 2026-09-03 12:43:37 | 45.36344 | 16.52374 | 35° | 20km/h | 26935m | 6.2m/s | -46.8°C | 3.1% | 0hPa | 2.7V | 00:00:00 | 00:00:00 | 00:00:00 | |
| 9A1FER-3 | 2026-09-03 12:43:34 | 45.36334 | 16.52364 | 36° | 20km/h | 26916m | 5.3m/s | -46.8°C | 3.1% | 0hPa | 2.6V | 00:00:00 | 01:38:54 | 08:30:00 | |
| 9A1FER-15 | 2026-09-03 12:43:32 | 45.36325 | 16.52356 | 29° | 20km/h | 26903m | 5.4m/s | -46.7°C | 3.1% | 0hPa | 2.7V | 00:00:00 | 01:38:52 | 08:30:00 | |
| OE5DRO-10 | 2026-09-03 12:43:30 | 45.36315 | 16.52349 | 22° | 18km/h | 26891m | 7.4m/s | -46.9°C | 3.1% | 0hPa | 2.6V | 00:00:00 | 00:00:00 | 00:00:00 | |
| 9A1FER-10 | 2026-09-03 12:43:26 | 45.36293 | 16.52343 | 6° | 18km/h | 26865m | 5.5m/s | -46.9°C | 3.0% | 0hPa | 2.7V | 00:00:00 | 01:38:46 | 00:00:00 | |
| OE8JPQ-2 | 2026-09-03 12:43:22 | 45.36272 | 16.52347 | 335° | 15km/h | 26841m | 5.9m/s | -47.0°C | 3.1% | 0hPa | 2.7V | 00:00:00 | 01:38:42 | 00:00:00 | |
| 9A1FER-3 | 2026-09-03 12:43:19 | 45.36261 | 16.52353 | 338° | 15km/h | 26822m | 5.9m/s | -47.0°C | 3.2% | 0hPa | 2.7V | 00:00:00 | 01:38:39 | 00:00:00 | |
| PG1ADW-2 | 2026-09-03 12:43:17 | 45.36255 | 16.52356 | 353° | 15km/h | 26810m | 5.2m/s | -47.1°C | 3.2% | 0hPa | 2.7V | 00:00:00 | 00:00:00 | 00:00:00 | |
| OE5DXL-15 | 2026-09-03 12:43:11 | 45.36230 | 16.52349 | 7° | 13km/h | 26774m | 6.7m/s | -47.1°C | 3.1% | 0hPa | 2.7V | 00:00:00 | 00:00:00 | 00:00:00 | |
| 9A1FER-3 | 2026-09-03 12:43:04 | 45.36211 | 16.52357 | 10° | 13km/h | 26729m | 5.8m/s | -47.0°C | 3.1% | 0hPa | 2.7V | 00:00:00 | 01:38:24 | 00:00:00 | |
| 9A1FER-15 | 2026-09-03 12:43:02 | 45.36205 | 16.52354 | 23° | 15km/h | 26716m | 7.1m/s | -46.9°C | 3.1% | 0hPa | 2.7V | 00:00:00 | 01:38:22 | 00:00:00 | |
| OE8JPQ-2 | 2026-09-03 12:43:01 | 45.36202 | 16.52352 | 25° | 13km/h | 26710m | 4.6m/s | -46.9°C | 3.1% | 0hPa | 2.7V | 00:00:00 | 00:00:00 | 00:00:00 | |
| PG1ADW-2 | 2026-09-03 12:42:57 | 45.36190 | 16.52339 | 58° | 13km/h | 26686m | 5.9m/s | -46.8°C | 3.1% | 0hPa | 2.7V | 00:00:00 | 01:38:17 | 00:00:00 | |
| 9A1FER-10 | 2026-09-03 12:42:56 | 45.36188 | 16.52335 | 50° | 13km/h | 26680m | 5.5m/s | -46.9°C | 3.1% | 0hPa | 2.7V | 00:00:00 | 01:38:16 | 08:30:00 | |
| OE5DRO-10 | 2026-09-03 12:42:52 | 45.36174 | 16.52329 | 357° | 11km/h | 26655m | 7.1m/s | -46.8°C | 3.1% | 0hPa | 2.7V | 00:00:00 | 00:00:00 | 00:00:00 | |
| 9A1FER-3 | 2026-09-03 12:42:49 | 45.36165 | 16.52331 | 358° | 11km/h | 26637m | 7.1m/s | -46.8°C | 3.1% | 0hPa | 2.7V | 00:00:00 | 01:38:09 | 00:00:00 | |
| 9A1FER-15 | 2026-09-03 12:42:47 | 45.36159 | 16.52329 | 35° | 11km/h | 26625m | 5.3m/s | -46.8°C | 3.1% | 0hPa | 2.6V | 00:00:00 | 01:38:07 | 00:00:00 | |
| OE8JPQ-2 | 2026-09-03 12:42:41 | 45.36157 | 16.52304 | 66° | 9km/h | 26587m | 5.1m/s | -46.8°C | 3.0% | 0hPa | 2.7V | 00:00:00 | 00:00:00 | 00:00:00 | |
| PG1ADW-2 | 2026-09-03 12:42:37 | 45.36151 | 16.52303 | 326° | 9km/h | 26561m | 7.6m/s | 0°C | 0% | 0hPa | 2.7V | 00:00:00 | 00:00:00 | 08:30:00 | |
| 9A1FER-3 | 2026-09-03 12:42:34 | 45.36143 | 16.52311 | 322° | 7km/h | 26543m | 6.7m/s | -47.2°C | 3.1% | 0hPa | 2.7V | 00:00:00 | 01:37:54 | 00:00:00 | |
| OE5DRO-10 | 2026-09-03 12:42:33 | 45.36142 | 16.52312 | 294° | 9km/h | 26537m | 6.2m/s | -47.2°C | 3.1% | 0hPa | 2.7V | 00:00:00 | 00:00:00 | 08:30:00 | |
| 9A1FER-15 | 2026-09-03 12:42:32 | 45.36142 | 16.52312 | 139° | 7km/h | 26531m | 5.0m/s | -47.2°C | 3.1% | 0hPa | 2.5V | 00:00:00 | 01:37:52 | 00:00:00 | |
| PETON7-10 | 2026-09-03 12:42:26 | 45.36148 | 16.52292 | 129° | 11km/h | 26494m | 5.7m/s | -47.4°C | 3.1% | 0hPa | 2.5V | 00:00:00 | 00:00:00 | 00:00:00 | |
| OE8JPQ-2 | 2026-09-03 12:42:21 | 45.36146 | 16.52286 | 35° | 13km/h | 26463m | 6.3m/s | -47.5°C | 3.2% | 0hPa | 2.5V | 00:00:00 | 01:37:41 | 00:00:00 | |
| 9A1FER-3 | 2026-09-03 12:42:19 | 45.36144 | 16.52282 | 66° | 15km/h | 26451m | 7.4m/s | -47.6°C | 3.2% | 0hPa | 2.5V | 00:00:00 | 01:37:39 | 00:00:00 | |
| PG1ADW-2 | 2026-09-03 12:42:17 | 45.36143 | 16.52272 | 84° | 15km/h | 26438m | 4.8m/s | 0°C | 0% | 0hPa | 2.5V | 00:00:00 | 00:00:00 | 00:00:00 | |
| OE5DRO-10 | 2026-09-03 12:42:14 | 45.36145 | 16.52252 | 111° | 15km/h | 26419m | 5.4m/s | -47.7°C | 3.2% | 0hPa | 2.5V | 00:00:00 | 00:00:00 | 00:00:00 | |
| 9A1FER-10 | 2026-09-03 12:42:11 | 45.36147 | 16.52234 | 79° | 15km/h | 26401m | 5.2m/s | -47.8°C | 3.2% | 0hPa | 2.5V | 00:00:00 | 01:37:31 | 00:00:00 | |
| 9A1FER-3 | 2026-09-03 12:42:04 | 45.36136 | 16.52212 | 54° | 18km/h | 26358m | 7.4m/s | -48.1°C | 3.2% | 0hPa | 2.5V | 00:00:00 | 01:37:24 | 00:00:00 | |
| 9A1FER-15 | 2026-09-03 12:42:02 | 45.36132 | 16.52203 | 64° | 18km/h | 26346m | 6.1m/s | -48.2°C | 3.3% | 0hPa | 2.6V | 00:00:00 | 01:37:22 | 00:00:00 | |
| OE8JPQ-2 | 2026-09-03 12:42:01 | 45.36130 | 16.52197 | 61° | 16km/h | 26339m | 7.2m/s | -48.1°C | 3.2% | 0hPa | 2.7V | 00:00:00 | 00:00:00 | 08:30:00 | |
| PG1ADW-2 | 2026-09-03 12:41:57 | 45.36124 | 16.52175 | 76° | 18km/h | 26315m | 3.7m/s | 0°C | 0% | 0hPa | 2.6V | 00:00:00 | 00:00:00 | 00:00:00 | |
| PETON7-10 | 2026-09-03 12:41:56 | 45.36123 | 16.52170 | 66° | 18km/h | 26310m | 5.5m/s | -48.4°C | 3.3% | 0hPa | 2.6V | 00:00:00 | 01:37:16 | 00:00:00 | |
| OE5DRO-10 | 2026-09-03 12:41:55 | 45.36121 | 16.52165 | 50° | 18km/h | 26304m | 6.8m/s | -48.4°C | 3.3% | 0hPa | 2.6V | 00:00:00 | 00:00:00 | 00:00:00 | |
| 9A1FER-3 | 2026-09-03 12:41:49 | 45.36091 | 16.52148 | 17° | 16km/h | 26265m | 6.3m/s | -48.6°C | 3.4% | 0hPa | 2.6V | 00:00:00 | 01:37:09 | 00:00:00 | |
| 9A1FER-15 | 2026-09-03 12:41:47 | 45.36081 | 16.52143 | 25° | 16km/h | 26253m | 4.8m/s | -48.7°C | 3.3% | 0hPa | 2.6V | 00:00:00 | 01:37:07 | 00:00:00 | |
| OE8JPQ-2 | 2026-09-03 12:41:41 | 45.36064 | 16.52130 | 14° | 13km/h | 26217m | 5.7m/s | -48.9°C | 3.4% | 0hPa | 2.6V | 00:00:00 | 00:00:00 | 00:00:00 | |
| PG1ADW-2 | 2026-09-03 12:41:37 | 45.36047 | 16.52126 | 357° | 11km/h | 26194m | 5.7m/s | 0°C | 0% | 0hPa | 2.6V | 00:00:00 | 01:36:57 | 00:00:00 | |
| OE5DRO-10 | 2026-09-03 12:41:36 | 45.36042 | 16.52127 | 350° | 11km/h | 26187m | 7.1m/s | -49.1°C | 3.4% | 0hPa | 2.6V | 00:00:00 | 00:00:00 | 00:00:00 | |
| 9A1FER-3 | 2026-09-03 12:41:34 | 45.36032 | 16.52132 | 338° | 9km/h | 26176m | 5.3m/s | -49.3°C | 3.4% | 0hPa | 2.6V | 00:00:00 | 01:36:54 | 00:00:00 | |
| 9A1FER-15 | 2026-09-03 12:41:32 | 45.36025 | 16.52136 | 327° | 7km/h | 26163m | 5.9m/s | -49.3°C | 3.4% | 0hPa | 2.6V | 00:00:00 | 01:36:52 | 00:00:00 | |
| PETON7-10 | 2026-09-03 12:41:26 | 45.36017 | 16.52144 | 299° | 9km/h | 26125m | 5.2m/s | -49.2°C | 3.5% | 0hPa | 2.6V | 00:00:00 | 00:00:00 | 00:00:00 | |
| OE8JPQ-2 | 2026-09-03 12:41:21 | 45.36008 | 16.52156 | 312° | 7km/h | 26095m | 5.8m/s | -49.1°C | 3.3% | 0hPa | 2.6V | 00:00:00 | 01:36:41 | 00:00:00 | |
| 9A1FER-3 | 2026-09-03 12:41:19 | 45.36005 | 16.52160 | 332° | 7km/h | 26083m | 7.4m/s | -49.2°C | 3.3% | 0hPa | 2.6V | 00:00:00 | 01:36:39 | 08:30:00 | |
| 9A1FER-15 | 2026-09-03 12:41:17 | 45.36002 | 16.52162 | 350° | 5km/h | 26072m | 4.2m/s | -49.1°C | 3.3% | 0hPa | 2.7V | 00:00:00 | 01:36:37 | 08:30:00 | |
| PG1ADW-2 | 2026-09-03 12:41:14 | 45.36005 | 16.52161 | 169° | 18km/h | 26053m | 5.4m/s | 0°C | 0% | 0hPa | 2.6V | 00:00:00 | 00:00:00 | 00:00:00 | |
| PETON7-10 | 2026-09-03 12:41:11 | 45.36012 | 16.52156 | 119° | 9km/h | 26035m | 5.5m/s | -49.2°C | 3.5% | 0hPa | 2.6V | 00:00:00 | 01:36:31 | 00:00:00 | |
| 9A1FER-3 | 2026-09-03 12:41:04 | 45.36011 | 16.52145 | 69° | 16km/h | 25994m | 4.7m/s | -49.5°C | 3.4% | 0hPa | 2.6V | 00:00:00 | 01:36:24 | 00:00:00 | |
| 9A1FER-15 | 2026-09-03 12:41:02 | 45.36013 | 16.52143 | 169° | 16km/h | 25981m | 6.0m/s | -49.6°C | 3.4% | 0hPa | 2.6V | 00:00:00 | 01:36:22 | 00:00:00 | |
| OE8JPQ-2 | 2026-09-03 12:40:58 | 45.36025 | 16.52134 | 133° | 20km/h | 25957m | 5.3m/s | -49.5°C | 3.6% | 0hPa | 2.6V | 00:00:00 | 00:00:00 | 00:00:00 | |
| 9A1FER-10 | 2026-09-03 12:40:56 | 45.36032 | 16.52122 | 126° | 16km/h | 25944m | 5.3m/s | -49.5°C | 3.5% | 0hPa | 2.7V | 00:00:00 | 01:36:16 | 00:00:00 | |
| 9A1FER-3 | 2026-09-03 12:40:49 | 45.36038 | 16.52075 | 89° | 18km/h | 25903m | 5.2m/s | -49.6°C | 3.5% | 0hPa | 2.7V | 00:00:00 | 01:36:09 | 00:00:00 | |
| 9A1FER-15 | 2026-09-03 12:40:47 | 45.36037 | 16.52071 | 74° | 20km/h | 25890m | 6.5m/s | -49.7°C | 3.4% | 0hPa | 2.7V | 00:00:00 | 01:36:07 | 00:00:00 | |
| PETON7-10 | 2026-09-03 12:40:41 | 45.36043 | 16.52034 | 103° | 24km/h | 25853m | 7.4m/s | -50.1°C | 3.6% | 0hPa | 2.7V | 00:00:00 | 00:00:00 | 00:00:00 | |
| OE5DRO-10 | 2026-09-03 12:40:39 | 45.36045 | 16.52014 | 92° | 22km/h | 25841m | 6.2m/s | -50.2°C | 3.6% | 0hPa | 2.7V | 00:00:00 | 00:00:00 | 00:00:00 | |
| 9A1FER-3 | 2026-09-03 12:40:34 | 45.36039 | 16.51975 | 60° | 22km/h | 25810m | 4.9m/s | -50.3°C | 3.7% | 0hPa | 2.6V | 00:00:00 | 01:35:54 | 00:00:00 | |
| PG1ADW-2 | 2026-09-03 12:40:33 | 45.36037 | 16.51969 | 65° | 18km/h | 25805m | 6.2m/s | 0°C | 0% | 0hPa | 2.7V | 00:00:00 | 00:00:00 | 00:00:00 | |
| 9A1FER-15 | 2026-09-03 12:40:32 | 45.36035 | 16.51962 | 78° | 20km/h | 25798m | 6.5m/s | -50.3°C | 3.7% | 0hPa | 2.7V | 00:00:00 | 01:35:52 | 00:00:00 | |
| PETON7-10 | 2026-09-03 12:40:26 | 45.36028 | 16.51915 | 73° | 18km/h | 25763m | 6.7m/s | -50.3°C | 3.7% | 0hPa | 2.6V | 00:00:00 | 01:35:46 | 00:00:00 | |
| OE5DRO-10 | 2026-09-03 12:40:20 | 45.36008 | 16.51885 | 21° | 22km/h | 25726m | 7.1m/s | -50.1°C | 3.6% | 0hPa | 2.6V | 00:00:00 | 00:00:00 | 00:00:00 | |
| 9A1FER-3 | 2026-09-03 12:40:19 | 45.36003 | 16.51883 | 21° | 20km/h | 25719m | 6.2m/s | -50.1°C | 3.6% | 0hPa | 2.6V | 00:00:00 | 01:35:39 | 00:00:00 | |
| OE8JPQ-2 | 2026-09-03 12:40:17 | 45.35997 | 16.51879 | 28° | 16km/h | 25708m | 6.1m/s | 0°C | 0% | 0hPa | 2.6V | 00:00:00 | 01:35:37 | 00:00:00 | |
| PG1ADW-2 | 2026-09-03 12:40:13 | 45.35984 | 16.51865 | 51° | 18km/h | 25682m | 7.0m/s | 0°C | 0% | 0hPa | 2.6V | 00:00:00 | 00:00:00 | 00:00:00 | |
| 9A1FER-10 | 2026-09-03 12:40:11 | 45.35978 | 16.51856 | 43° | 22km/h | 25671m | 5.9m/s | -50.2°C | 3.7% | 0hPa | 2.6V | 00:00:00 | 01:35:31 | 00:00:00 | |
| 9A1FER-3 | 2026-09-03 12:40:05 | 45.35933 | 16.51848 | 352° | 22km/h | 25627m | 5.1m/s | -49.9°C | 3.5% | 0hPa | 2.6V | 00:00:00 | 01:35:24 | 00:00:00 | |
| 9A1FER-15 | 2026-09-03 12:40:02 | 45.35919 | 16.51852 | 346° | 20km/h | 25615m | 7.0m/s | -50.0°C | 3.5% | 0hPa | 2.6V | 00:00:00 | 01:35:22 | 00:00:00 | |
| OE5DRO-10 | 2026-09-03 12:40:01 | 45.35914 | 16.51854 | 341° | 26km/h | 25609m | 5.3m/s | -50.0°C | 3.6% | 0hPa | 2.6V | 00:00:00 | 00:00:00 | 00:00:00 | |
| PETON7-10 | 2026-09-03 12:39:56 | 45.35899 | 16.51853 | 2° | 22km/h | 25581m | 6.9m/s | -49.8°C | 3.6% | 0hPa | 2.6V | 00:00:00 | 00:00:00 | 00:00:00 | |
| OE3JTB-15 | 2026-09-03 12:39:55 | 45.35895 | 16.51854 | 351° | 20km/h | 25574m | 5.3m/s | -49.7°C | 3.6% | 0hPa | 2.6V | 00:00:00 | 00:00:00 | 00:00:00 | |
| 9A1FER-3 | 2026-09-03 12:39:49 | 45.35856 | 16.51867 | 333° | 16km/h | 25538m | 4.3m/s | -49.8°C | 3.6% | 0hPa | 2.6V | 00:00:00 | 01:35:09 | 00:00:00 | |
| 9A1FER-15 | 2026-09-03 12:39:47 | 45.35843 | 16.51875 | 337° | 15km/h | 25527m | 6.6m/s | -50.0°C | 3.7% | 0hPa | 2.7V | 00:00:00 | 01:35:07 | 00:00:00 | |
| PG1ADW-2 | 2026-09-03 12:39:46 | 45.35838 | 16.51879 | 339° | 13km/h | 25521m | 5.3m/s | 0°C | 0% | 0hPa | 2.7V | 00:00:00 | 01:35:06 | 00:00:00 | |
| OE5DRO-10 | 2026-09-03 12:39:42 | 45.35827 | 16.51892 | 298° | 11km/h | 25497m | 5.2m/s | -49.7°C | 3.5% | 0hPa | 2.7V | 00:00:00 | 00:00:00 | 08:30:00 | |
| PETON7-10 | 2026-09-03 12:39:41 | 45.35825 | 16.51896 | 307° | 11km/h | 25491m | 6.8m/s | -49.8°C | 3.6% | 0hPa | 2.6V | 00:00:00 | 01:35:01 | 00:00:00 | |
| 9A1FER-3 | 2026-09-03 12:39:34 | 45.35809 | 16.51920 | 314° | 9km/h | 25451m | 6.7m/s | -49.6°C | 3.5% | 0hPa | 2.6V | 00:00:00 | 01:34:54 | 00:00:00 | |
| 9A1FER-15 | 2026-09-03 12:39:33 | 45.35805 | 16.51924 | 324° | 9km/h | 25439m | 5.9m/s | -49.6°C | 3.5% | 0hPa | 2.6V | 00:00:00 | 01:34:52 | 00:00:00 | |
| 9A1FER-10 | 2026-09-03 12:39:26 | 45.35793 | 16.51936 | 323° | 7km/h | 25402m | 7.2m/s | -49.7°C | 3.5% | 0hPa | 2.6V | 00:00:00 | 01:34:46 | 00:00:00 | |
| OE8JPQ-2 | 2026-09-03 12:39:23 | 45.35786 | 16.51946 | 322° | 9km/h | 25384m | 7.2m/s | 0°C | 0% | 0hPa | 2.6V | 00:00:00 | 00:00:00 | 00:00:00 | |
| 9A1FER-3 | 2026-09-03 12:39:19 | 45.35781 | 16.51951 | 246° | 7km/h | 25359m | 6.0m/s | -49.8°C | 3.6% | 0hPa | 2.6V | 00:00:00 | 01:34:39 | 00:00:00 | |
| OE5DRO-10 | 2026-09-03 12:39:18 | 45.35782 | 16.51953 | 217° | 11km/h | 25353m | 5.5m/s | -49.8°C | 3.6% | 0hPa | 2.6V | 00:00:00 | 00:00:00 | 00:00:00 | |
| 9A1FER-15 | 2026-09-03 12:39:17 | 45.35783 | 16.51954 | 193° | 7km/h | 25347m | 6.9m/s | -49.8°C | 3.5% | 0hPa | 2.6V | 00:00:00 | 01:34:37 | 00:00:00 | |
| PETON7-10 | 2026-09-03 12:39:11 | 45.35784 | 16.51959 | 323° | 11km/h | 25310m | 6.7m/s | -49.8°C | 3.6% | 0hPa | 2.6V | 00:00:00 | 00:00:00 | 00:00:00 | |
| PG1ADW-2 | 2026-09-03 12:39:06 | 45.35783 | 16.51974 | 224° | 11km/h | 25282m | 5.4m/s | 0°C | 0% | 0hPa | 2.6V | 00:00:00 | 00:00:00 | 00:00:00 | |
| 9A1FER-3 | 2026-09-03 12:39:04 | 45.35788 | 16.51978 | 193° | 11km/h | 25270m | 6.0m/s | -49.7°C | 3.6% | 0hPa | 2.6V | 00:00:00 | 01:34:24 | 08:30:00 | |
| 9A1FER-15 | 2026-09-03 12:39:03 | 45.35793 | 16.51979 | 191° | 11km/h | 25258m | 6.4m/s | -49.6°C | 3.6% | 0hPa | 2.7V | 00:00:00 | 01:34:22 | 08:30:00 | |
| PETON7-10 | 2026-09-03 12:38:56 | 45.35807 | 16.51986 | 204° | 11km/h | 25219m | 6.6m/s | -49.6°C | 3.6% | 0hPa | 2.6V | 00:00:00 | 01:34:16 | 00:00:00 | |
| OE5DRO-10 | 2026-09-03 12:38:54 | 45.35811 | 16.51987 | 174° | 15km/h | 25207m | 6.9m/s | -49.6°C | 3.6% | 0hPa | 2.6V | 00:00:00 | 00:00:00 | 00:00:00 | |
| 9A1FER-3 | 2026-09-03 12:38:49 | 45.35827 | 16.51983 | 190° | 15km/h | 25176m | 5.1m/s | -49.5°C | 3.5% | 0hPa | 2.6V | 00:00:00 | 01:34:09 | 00:00:00 | |
| 9A1FER-15 | 2026-09-03 12:38:47 | 45.35834 | 16.51985 | 200° | 15km/h | 25163m | 6.4m/s | -49.6°C | 3.5% | 0hPa | 2.6V | 00:00:00 | 01:34:07 | 00:00:00 | |
| 9A1FER-10 | 2026-09-03 12:38:41 | 45.35847 | 16.51995 | 158° | 18km/h | 25126m | 6.4m/s | -49.8°C | 3.6% | 0hPa | 2.6V | 00:00:00 | 01:34:01 | 00:00:00 | |
| OE8JPQ-2 | 2026-09-03 12:38:36 | 45.35866 | 16.51988 | 179° | 16km/h | 25096m | 7.0m/s | 0°C | 0% | 0hPa | 2.6V | 00:00:00 | 01:33:56 | 00:00:00 | |
| 9A1FER-3 | 2026-09-03 12:38:34 | 45.35877 | 16.51989 | 188° | 18km/h | 25083m | 5.7m/s | -50.0°C | 3.6% | 0hPa | 2.6V | 00:00:00 | 01:33:54 | 00:00:00 | |
| 9A1FER-15 | 2026-09-03 12:38:32 | 45.35888 | 16.51993 | 198° | 18km/h | 25070m | 5.0m/s | -49.9°C | 3.6% | 0hPa | 2.6V | 00:00:00 | 01:33:52 | 00:00:00 | |
| PETON7-10 | 2026-09-03 12:38:26 | 45.35915 | 16.51993 | 170° | 16km/h | 25033m | 5.8m/s | -49.8°C | 3.6% | 0hPa | 2.6V | 00:00:00 | 00:00:00 | 00:00:00 | |
| OE3JTB-15 | 2026-09-03 12:38:24 | 45.35923 | 16.51990 | 160° | 13km/h | 25019m | 6.5m/s | -49.8°C | 3.6% | 0hPa | 2.6V | 00:00:00 | 01:33:44 | 00:00:00 | |
| 9A1FER-3 | 2026-09-03 12:38:19 | 45.35945 | 16.51985 | 169° | 15km/h | 24989m | 7.3m/s | -49.8°C | 3.6% | 0hPa | 2.6V | 00:00:00 | 01:33:39 | 00:00:00 | |
| 9A1FER-15 | 2026-09-03 12:38:17 | 45.35952 | 16.51982 | 167° | 15km/h | 24976m | 7.5m/s | -49.9°C | 3.6% | 0hPa | 2.7V | 00:00:00 | 01:33:37 | 00:00:00 | |
| OE8JPQ-2 | 2026-09-03 12:38:16 | 45.35956 | 16.51981 | 168° | 15km/h | 24969m | 6.0m/s | 0°C | 0% | 0hPa | 2.6V | 00:00:00 | 00:00:00 | 08:30:00 | |
| 9A1FER-10 | 2026-09-03 12:38:11 | 45.35971 | 16.51967 | 150° | 13km/h | 24937m | 6.2m/s | -49.8°C | 3.5% | 0hPa | 2.6V | 00:00:00 | 01:33:31 | 00:00:00 | |
| 9A1FER-3 | 2026-09-03 12:38:04 | 45.35994 | 16.51943 | 144° | 11km/h | 24895m | 5.2m/s | -50.1°C | 3.6% | 0hPa | 2.6V | 00:00:00 | 01:33:24 | 00:00:00 | |
| 9A1FER-15 | 2026-09-03 12:38:02 | 45.35999 | 16.51935 | 119° | 11km/h | 24881m | 6.2m/s | -50.2°C | 3.7% | 0hPa | 2.6V | 00:00:00 | 01:33:22 | 00:00:00 | |
| PETON7-10 | 2026-09-03 12:37:56 | 45.36001 | 16.51915 | 91° | 11km/h | 24844m | 5.3m/s | -50.4°C | 3.7% | 0hPa | 2.6V | 00:00:00 | 00:00:00 | 00:00:00 | |
| OE8JPQ-2 | 2026-09-03 12:37:55 | 45.36002 | 16.51912 | 109° | 11km/h | 24838m | 6.1m/s | 0°C | 0% | 0hPa | 2.6V | 00:00:00 | 00:00:00 | 00:00:00 | |
| 9A1FER-3 | 2026-09-03 12:37:49 | 45.36015 | 16.51891 | 131° | 9km/h | 24799m | 6.7m/s | -50.2°C | 3.7% | 0hPa | 2.6V | 00:00:00 | 01:33:09 | 00:00:00 | |
| 9A1FER-15 | 2026-09-03 12:37:47 | 45.36019 | 16.51883 | 103° | 9km/h | 24788m | 6.9m/s | -50.0°C | 3.7% | 0hPa | 2.6V | 00:00:00 | 01:33:07 | 00:00:00 | |
| PETON7-10 | 2026-09-03 12:37:41 | 45.36021 | 16.51875 | 203° | 11km/h | 24753m | 6.0m/s | -50.0°C | 3.6% | 0hPa | 2.6V | 00:00:00 | 00:00:00 | 00:00:00 | |
| OE5DRO-10 | 2026-09-03 12:37:37 | 45.36030 | 16.51874 | 170° | 11km/h | 24728m | 6.5m/s | -49.9°C | 3.6% | 0hPa | 2.6V | 00:00:00 | 00:00:00 | 00:00:00 | |
| 9A1FER-3 | 2026-09-03 12:37:34 | 45.36036 | 16.51866 | 112° | 13km/h | 24709m | 6.0m/s | -49.8°C | 3.5% | 0hPa | 2.7V | 00:00:00 | 01:32:54 | 00:00:00 | |
| OE8JPQ-2 | 2026-09-03 12:37:33 | 45.36037 | 16.51861 | 108° | 11km/h | 24704m | 4.7m/s | 0°C | 0% | 0hPa | 2.6V | 00:00:00 | 01:32:53 | 00:00:00 | |
| 9A1FER-15 | 2026-09-03 12:37:32 | 45.36039 | 16.51856 | 113° | 11km/h | 24698m | 6.8m/s | -49.9°C | 3.5% | 0hPa | 2.6V | 00:00:00 | 01:32:52 | 00:00:00 | |
| 9A1FER-10 | 2026-09-03 12:37:26 | 45.36051 | 16.51840 | 152° | 11km/h | 24663m | 5.6m/s | -49.9°C | 3.5% | 0hPa | 2.7V | 00:00:00 | 01:32:46 | 00:00:00 | |
| 9A1FER-3 | 2026-09-03 12:37:19 | 45.36069 | 16.51827 | 133° | 11km/h | 24619m | 4.6m/s | -50.1°C | 3.5% | 0hPa | 2.7V | 00:00:00 | 01:32:39 | 00:00:00 | |
| OE5DRO-10 | 2026-09-03 12:37:18 | 45.36070 | 16.51825 | 100° | 9km/h | 24614m | 5.4m/s | 0°C | 0% | 0hPa | 2.7V | 00:00:00 | 00:00:00 | 00:00:00 | |
| 9A1FER-15 | 2026-09-03 12:37:17 | 45.36070 | 16.51823 | 71° | 11km/h | 24607m | 7.6m/s | -50.3°C | 3.5% | 0hPa | 2.7V | 00:00:00 | 01:32:37 | 00:00:00 | |
| PETON7-10 | 2026-09-03 12:37:11 | 45.36070 | 16.51806 | 158° | 9km/h | 24571m | 7.0m/s | -50.4°C | 3.6% | 0hPa | 2.7V | 00:00:00 | 00:00:00 | 08:30:00 | |
| 9A1FER-3 | 2026-09-03 12:37:04 | 45.36089 | 16.51792 | 104° | 11km/h | 24528m | 5.1m/s | -50.8°C | 3.8% | 0hPa | 2.6V | 00:00:00 | 01:32:24 | 00:00:00 | |
| OE8JPQ-2 | 2026-09-03 12:37:02 | 45.36089 | 16.51786 | 82° | 9km/h | 24517m | 6.3m/s | 0°C | 0% | 0hPa | 2.6V | 00:00:00 | 00:00:00 | 00:00:00 | |
| OE5DRO-10 | 2026-09-03 12:36:57 | 45.36088 | 16.51782 | 170° | 18km/h | 24487m | 6.5m/s | 0°C | 0% | 0hPa | 2.6V | 00:00:00 | 00:00:00 | 00:00:00 | |
| 9A1FER-10 | 2026-09-03 12:36:56 | 45.36091 | 16.51781 | 175° | 13km/h | 24480m | 6.6m/s | -50.7°C | 3.7% | 0hPa | 2.6V | 00:00:00 | 01:32:16 | 00:00:00 | |
| 9A1FER-3 | 2026-09-03 12:36:49 | 45.36115 | 16.51767 | 115° | 13km/h | 24439m | 4.9m/s | -50.7°C | 3.7% | 0hPa | 2.6V | 00:00:00 | 01:32:09 | 08:30:00 | |
| OE3JTB-15 | 2026-09-03 12:36:48 | 45.36115 | 16.51765 | 82° | 9km/h | 24433m | 7.4m/s | -50.8°C | 3.7% | 0hPa | 2.6V | 00:00:00 | 00:00:00 | 00:00:00 | |
| 9A1FER-15 | 2026-09-03 12:36:47 | 45.36114 | 16.51762 | 61° | 13km/h | 24426m | 5.6m/s | -50.9°C | 3.7% | 0hPa | 2.7V | 00:00:00 | 01:32:07 | 08:30:00 | |
| OE8JPQ-2 | 2026-09-03 12:36:42 | 45.36110 | 16.51749 | 116° | 18km/h | 24396m | 6.6m/s | 0°C | 0% | 0hPa | 2.5V | 00:00:00 | 00:00:00 | 00:00:00 | |
| 9A1FER-10 | 2026-09-03 12:36:41 | 45.36112 | 16.51744 | 127° | 13km/h | 24390m | 5.4m/s | -50.9°C | 3.6% | 0hPa | 2.5V | 00:00:00 | 01:32:01 | 00:00:00 | |
| 9A1FER-3 | 2026-09-03 12:36:34 | 45.36134 | 16.51717 | 116° | 16km/h | 24348m | 5.4m/s | -51.0°C | 3.8% | 0hPa | 2.5V | 00:00:00 | 01:31:54 | 00:00:00 | |
| 9A1FER-15 | 2026-09-03 12:36:32 | 45.36135 | 16.51712 | 85° | 18km/h | 24336m | 4.9m/s | -51.3°C | 3.9% | 0hPa | 2.5V | 00:00:00 | 01:31:52 | 00:00:00 | |
| PETON7-10 | 2026-09-03 12:36:26 | 45.36135 | 16.51685 | 110° | 20km/h | 24299m | 5.8m/s | -51.5°C | 3.9% | 0hPa | 2.5V | 00:00:00 | 00:00:00 | 00:00:00 | |
| OE8JPQ-2 | 2026-09-03 12:36:20 | 45.36151 | 16.51635 | 122° | 15km/h | 24262m | 5.3m/s | 0°C | 0% | 0hPa | 2.7V | 00:00:00 | 01:31:40 | 00:00:00 | |
| 9A1FER-3 | 2026-09-03 12:36:19 | 45.36153 | 16.51629 | 116° | 15km/h | 24256m | 7.0m/s | -51.1°C | 3.8% | 0hPa | 2.7V | 00:00:00 | 01:31:39 | 00:00:00 | |
| 9A1FER-15 | 2026-09-03 12:36:17 | 45.36155 | 16.51618 | 93° | 15km/h | 24243m | 5.5m/s | -51.1°C | 3.8% | 0hPa | 2.7V | 00:00:00 | 01:31:37 | 00:00:00 | |
| OE5DRO-10 | 2026-09-03 12:36:16 | 45.36155 | 16.51613 | 82° | 13km/h | 24237m | 7.3m/s | 0°C | 0% | 0hPa | 2.7V | 00:00:00 | 00:00:00 | 08:30:00 | |
| 9A1FER-10 | 2026-09-03 12:36:11 | 45.36151 | 16.51590 | 86° | 15km/h | 24205m | 7.5m/s | -50.9°C | 3.8% | 0hPa | 2.7V | 00:00:00 | 01:31:31 | 08:30:00 | |
| 9A1FER-3 | 2026-09-03 12:36:04 | 45.36149 | 16.51549 | 62° | 11km/h | 24161m | 4.5m/s | -50.6°C | 3.6% | 0hPa | 2.7V | 00:00:00 | 01:31:24 | 00:00:00 | |
| 9A1FER-15 | 2026-09-03 12:36:02 | 45.36145 | 16.51541 | 52° | 11km/h | 24149m | 6.2m/s | -50.6°C | 3.5% | 0hPa | 2.6V | 00:00:00 | 01:31:22 | 00:00:00 | |
| OE8JPQ-2 | 2026-09-03 12:36:00 | 45.36141 | 16.51533 | 54° | 11km/h | 24137m | 7.3m/s | 0°C | 0% | 0hPa | 2.6V | 00:00:00 | 00:00:00 | 00:00:00 | |
| PETON7-10 | 2026-09-03 12:35:56 | 45.36141 | 16.51519 | 116° | 11km/h | 24111m | 5.2m/s | -50.8°C | 3.7% | 0hPa | 2.6V | 00:00:00 | 01:31:16 | 00:00:00 | |
| OE5DRO-10 | 2026-09-03 12:35:55 | 45.36143 | 16.51515 | 125° | 11km/h | 24105m | 6.6m/s | 0°C | 0% | 0hPa | 2.6V | 00:00:00 | 00:00:00 | 00:00:00 | |
| OE3JTB-15 | 2026-09-03 12:35:52 | 45.36147 | 16.51506 | 108° | 20km/h | 24086m | 7.1m/s | -51.2°C | 3.8% | 0hPa | 2.6V | 00:00:00 | 00:00:00 | 00:00:00 | |
| 9A1FER-3 | 2026-09-03 12:35:49 | 45.36145 | 16.51497 | 48° | 13km/h | 24068m | 6.7m/s | -51.5°C | 3.8% | 0hPa | 2.6V | 00:00:00 | 01:31:09 | 00:00:00 | |
| 9A1FER-15 | 2026-09-03 12:35:47 | 45.36142 | 16.51493 | 41° | 13km/h | 24056m | 5.6m/s | -51.5°C | 3.8% | 0hPa | 2.6V | 00:00:00 | 01:31:07 | 00:00:00 | |
| OE8JPQ-2 | 2026-09-03 12:35:40 | 45.36134 | 16.51467 | 73° | 15km/h | 24012m | 6.6m/s | 0°C | 0% | 0hPa | 2.6V | 00:00:00 | 00:00:00 | 00:00:00 | |
| OE5DRO-10 | 2026-09-03 12:35:36 | 45.36126 | 16.51450 | 41° | 13km/h | 23989m | 5.5m/s | 0°C | 0% | 0hPa | 2.6V | 00:00:00 | 00:00:00 | 00:00:00 | |
| 9A1FER-3 | 2026-09-03 12:35:34 | 45.36120 | 16.51443 | 43° | 15km/h | 23977m | 6.7m/s | -51.3°C | 3.8% | 0hPa | 2.6V | 00:00:00 | 01:30:54 | 00:00:00 | |
| 9A1FER-15 | 2026-09-03 12:35:32 | 45.36114 | 16.51433 | 53° | 15km/h | 23966m | 5.9m/s | -51.4°C | 3.9% | 0hPa | 2.6V | 00:00:00 | 01:30:52 | 00:00:00 | |
| 9A1FER-10 | 2026-09-03 12:35:26 | 45.36107 | 16.51407 | 88° | 16km/h | 23930m | 5.9m/s | -51.5°C | 3.8% | 0hPa | 2.6V | 00:00:00 | 01:30:46 | 00:00:00 | |
| OE8JPQ-2 | 2026-09-03 12:35:20 | 45.36097 | 16.51385 | 29° | 24km/h | 23895m | 6.4m/s | 0°C | 0% | 0hPa | 2.6V | 00:00:00 | 01:30:40 | 00:00:00 | |
| 9A1FER-3 | 2026-09-03 12:35:19 | 45.36093 | 16.51382 | 25° | 18km/h | 23889m | 6.0m/s | -51.4°C | 3.9% | 0hPa | 2.6V | 00:00:00 | 01:30:39 | 00:00:00 | |
| 9A1FER-15 | 2026-09-03 12:35:17 | 45.36086 | 16.51377 | 33° | 20km/h | 23878m | 6.4m/s | -51.5°C | 3.9% | 0hPa | 2.7V | 00:00:00 | 01:30:37 | 00:00:00 | |
| PETON7-10 | 2026-09-03 12:35:11 | 45.36063 | 16.51349 | 47° | 24km/h | 23841m | 6.2m/s | -51.4°C | 3.8% | 0hPa | 2.7V | 00:00:00 | 01:30:31 | 00:00:00 | |
| 9A1FER-3 | 2026-09-03 12:35:04 | 45.36041 | 16.51313 | 39° | 24km/h | 23802m | 5.2m/s | -51.4°C | 3.8% | 0hPa | 2.7V | 00:00:00 | 01:30:24 | 00:00:00 | |
| 9A1FER-15 | 2026-09-03 12:35:02 | 45.36029 | 16.51302 | 25° | 26km/h | 23791m | 6.6m/s | -51.4°C | 3.8% | 0hPa | 2.7V | 00:00:00 | 01:30:22 | 00:00:00 | |
| OE5DRO-10 | 2026-09-03 12:34:57 | 45.35996 | 16.51280 | 40° | 22km/h | 23762m | 5.7m/s | 0°C | 0% | 0hPa | 2.7V | 00:00:00 | 00:00:00 | 00:00:00 | |
| 9A1FER-10 | 2026-09-03 12:34:56 | 45.35992 | 16.51275 | 41° | 24km/h | 23755m | 7.0m/s | -51.6°C | 3.9% | 0hPa | 2.7V | 00:00:00 | 01:30:16 | 00:00:00 | |
| OE3JTB-15 | 2026-09-03 12:34:53 | 45.35982 | 16.51262 | 40° | 16km/h | 23737m | 5.5m/s | -51.8°C | 3.9% | 0hPa | 2.7V | 00:00:00 | 01:30:13 | 00:00:00 | |
| 9A1FER-3 | 2026-09-03 12:34:49 | 45.35961 | 16.51249 | 19° | 22km/h | 23712m | 7.3m/s | -52.1°C | 3.9% | 0hPa | 2.7V | 00:00:00 | 01:30:09 | 00:00:00 | |
| 9A1FER-15 | 2026-09-03 12:34:47 | 45.35947 | 16.51242 | 16° | 18km/h | 23700m | 5.9m/s | -52.0°C | 3.9% | 0hPa | 2.7V | 00:00:00 | 01:30:07 | 00:00:00 | |
| 9A1FER-10 | 2026-09-03 12:34:41 | 45.35914 | 16.51228 | 22° | 15km/h | 23665m | 5.8m/s | -52.1°C | 4.0% | 0hPa | 2.7V | 00:00:00 | 01:30:01 | 00:00:00 | |
| 9A1FER-3 | 2026-09-03 12:34:34 | 45.35886 | 16.51223 | 14° | 11km/h | 23624m | 6.3m/s | -52.2°C | 4.0% | 0hPa | 2.7V | 00:00:00 | 01:29:54 | 08:30:00 | |
| 9A1FER-15 | 2026-09-03 12:34:32 | 45.35879 | 16.51221 | 25° | 11km/h | 23613m | 5.5m/s | -52.2°C | 3.9% | 0hPa | 2.6V | 00:00:00 | 01:29:52 | 08:30:00 | |
| PETON7-10 | 2026-09-03 12:34:26 | 45.35864 | 16.51205 | 42° | 9km/h | 23577m | 6.9m/s | -52.2°C | 3.9% | 0hPa | 2.6V | 00:00:00 | 01:29:46 | 00:00:00 | |
| OE3JTB-15 | 2026-09-03 12:34:24 | 45.35858 | 16.51199 | 37° | 13km/h | 23566m | 5.4m/s | -52.4°C | 4.0% | 0hPa | 2.6V | 00:00:00 | 00:00:00 | 00:00:00 | |
| 9A1FER-3 | 2026-09-03 12:34:19 | 45.35847 | 16.51195 | 351° | 5km/h | 23536m | 5.2m/s | -52.4°C | 4.0% | 0hPa | 2.6V | 00:00:00 | 01:29:39 | 00:00:00 | |
| 9A1FER-15 | 2026-09-03 12:34:17 | 45.35844 | 16.51197 | 313° | 7km/h | 23524m | 5.1m/s | -52.4°C | 4.0% | 0hPa | 2.6V | 00:00:00 | 01:29:37 | 00:00:00 | |
| OE5DRO-10 | 2026-09-03 12:34:14 | 45.35839 | 16.51201 | 344° | 7km/h | 23507m | 4.7m/s | 0°C | 0% | 0hPa | 2.6V | 00:00:00 | 00:00:00 | 00:00:00 | |
| 9A1FER-10 | 2026-09-03 12:34:11 | 45.35837 | 16.51202 | 80° | 7km/h | 23489m | 5.1m/s | -52.8°C | 4.1% | 0hPa | 2.6V | 00:00:00 | 01:29:31 | 00:00:00 | |
| 9A1FER-3 | 2026-09-03 12:34:04 | 45.35833 | 16.51211 | 292° | 9km/h | 23450m | 6.7m/s | -52.6°C | 4.2% | 0hPa | 2.6V | 00:00:00 | 01:29:24 | 00:00:00 | |
| 9A1FER-15 | 2026-09-03 12:34:02 | 45.35829 | 16.51217 | 334° | 9km/h | 23438m | 5.4m/s | -52.6°C | 4.1% | 0hPa | 2.6V | 00:00:00 | 01:29:22 | 00:00:00 | |
| PETON7-10 | 2026-09-03 12:33:56 | 45.35816 | 16.51214 | 43° | 11km/h | 23402m | 6.1m/s | -52.5°C | 3.9% | 0hPa | 2.6V | 00:00:00 | 00:00:00 | 00:00:00 | |
| OE5DRO-10 | 2026-09-03 12:33:54 | 45.35812 | 16.51210 | 43° | 18km/h | 23390m | 4.4m/s | 0°C | 0% | 0hPa | 2.6V | 00:00:00 | 00:00:00 | 00:00:00 | |
| 9A1FER-3 | 2026-09-03 12:33:49 | 45.35803 | 16.51206 | 333° | 18km/h | 23361m | 5.0m/s | -52.8°C | 4.1% | 0hPa | 2.6V | 00:00:00 | 01:29:09 | 00:00:00 | |
| 9A1FER-15 | 2026-09-03 12:33:47 | 45.35799 | 16.51208 | 359° | 20km/h | 23349m | 5.8m/s | -53.0°C | 4.3% | 0hPa | 2.7V | 00:00:00 | 01:29:07 | 00:00:00 | |
| 9A1FER-10 | 2026-09-03 12:33:41 | 45.35783 | 16.51185 | 61° | 20km/h | 23316m | 6.7m/s | -53.1°C | 4.1% | 0hPa | 2.7V | 00:00:00 | 01:29:01 | 00:00:00 | |
| 9A1FER-3 | 2026-09-03 12:33:34 | 45.35757 | 16.51144 | 9° | 22km/h | 23275m | 4.8m/s | -52.9°C | 4.2% | 0hPa | 2.7V | 00:00:00 | 01:28:54 | 00:00:00 | |
| OE5DRO-10 | 2026-09-03 12:33:33 | 45.35752 | 16.51143 | 359° | 22km/h | 23269m | 7.0m/s | 0°C | 0% | 0hPa | 2.7V | 00:00:00 | 00:00:00 | 00:00:00 | |
| 9A1FER-15 | 2026-09-03 12:33:32 | 45.35747 | 16.51144 | 350° | 22km/h | 23262m | 5.6m/s | -53.0°C | 4.2% | 0hPa | 2.7V | 00:00:00 | 01:28:52 | 00:00:00 | |
| OE3JTB-15 | 2026-09-03 12:33:30 | 45.35738 | 16.51146 | 356° | 27km/h | 23251m | 6.9m/s | -53.1°C | 4.2% | 0hPa | 2.7V | 00:00:00 | 00:00:00 | 00:00:00 | |
| 9A1FER-10 | 2026-09-03 12:33:26 | 45.35720 | 16.51141 | 25° | 26km/h | 23228m | 4.1m/s | -53.5°C | 4.3% | 0hPa | 2.7V | 00:00:00 | 01:28:46 | 00:00:00 | |
| 9A1FER-3 | 2026-09-03 12:33:19 | 45.35680 | 16.51121 | 1° | 27km/h | 23189m | 6.4m/s | -53.0°C | 4.3% | 0hPa | 2.7V | 00:00:00 | 01:28:39 | 00:00:00 | |
| 9A1FER-15 | 2026-09-03 12:33:17 | 45.35665 | 16.51123 | 349° | 27km/h | 23178m | 4.4m/s | -52.9°C | 4.2% | 0hPa | 2.7V | 00:00:00 | 01:28:37 | 00:00:00 | |
| OE5DRO-10 | 2026-09-03 12:33:14 | 45.35646 | 16.51130 | 349° | 29km/h | 23161m | 5.4m/s | 0°C | 0% | 0hPa | 2.7V | 00:00:00 | 00:00:00 | 08:30:00 | |
| PETON7-10 | 2026-09-03 12:33:11 | 45.35628 | 16.51133 | 359° | 27km/h | 23143m | 5.3m/s | -52.7°C | 4.2% | 0hPa | 2.7V | 00:00:00 | 00:00:00 | 00:00:00 | |
| 9A1FER-3 | 2026-09-03 12:33:04 | 45.35576 | 16.51147 | 341° | 27km/h | 23102m | 6.3m/s | -52.4°C | 4.1% | 0hPa | 2.7V | 00:00:00 | 01:28:24 | 00:00:00 | |
| 9A1FER-15 | 2026-09-03 12:33:02 | 45.35562 | 16.51154 | 344° | 27km/h | 23091m | 5.1m/s | -52.4°C | 4.0% | 0hPa | 2.7V | 00:00:00 | 01:28:22 | 00:00:00 | |
| 9A1FER-10 | 2026-09-03 12:32:56 | 45.35523 | 16.51160 | 354° | 29km/h | 23055m | 7.0m/s | -52.1°C | 3.9% | 0hPa | 2.6V | 00:00:00 | 01:28:16 | 00:00:00 | |
| 9A1FER-3 | 2026-09-03 12:32:49 | 45.35476 | 16.51192 | 333° | 29km/h | 23014m | 4.3m/s | -52.4°C | 4.0% | 0hPa | 2.6V | 00:00:00 | 01:28:09 | 00:00:00 | |
| 9A1FER-15 | 2026-09-03 12:32:47 | 45.35463 | 16.51201 | 335° | 31km/h | 23002m | 6.2m/s | -52.5°C | 4.0% | 0hPa | 2.6V | 00:00:00 | 01:28:07 | 00:00:00 | |
| PETON7-10 | 2026-09-03 12:32:41 | 45.35425 | 16.51223 | 333° | 35km/h | 22967m | 5.9m/s | -52.9°C | 4.3% | 0hPa | 2.6V | 00:00:00 | 00:00:00 | 08:30:00 | |
| 9A1FER-3 | 2026-09-03 12:32:34 | 45.35379 | 16.51273 | 310° | 35km/h | 22926m | 5.9m/s | -52.8°C | 4.1% | 0hPa | 2.7V | 00:00:00 | 01:27:54 | 00:00:00 | |
| 9A1FER-15 | 2026-09-03 12:32:32 | 45.35368 | 16.51291 | 310° | 37km/h | 22913m | 5.7m/s | -52.7°C | 4.2% | 0hPa | 2.7V | 00:00:00 | 01:27:52 | 00:00:00 | |
| PETON7-10 | 2026-09-03 12:32:26 | 45.35332 | 16.51351 | 317° | 35km/h | 22879m | 5.0m/s | -52.5°C | 4.2% | 0hPa | 2.7V | 00:00:00 | 00:00:00 | 00:00:00 | |
| OE3JTB-15 | 2026-09-03 12:32:23 | 45.35314 | 16.51378 | 310° | 33km/h | 22861m | 6.2m/s | -52.5°C | 4.2% | 0hPa | 2.7V | 00:00:00 | 01:27:43 | 00:00:00 | |
| 9A1FER-3 | 2026-09-03 12:32:19 | 45.35298 | 16.51423 | 285° | 33km/h | 22836m | 5.3m/s | -52.2°C | 4.1% | 0hPa | 2.7V | 00:00:00 | 01:27:39 | 08:30:00 | |
| 9A1FER-15 | 2026-09-03 12:32:17 | 45.35293 | 16.51449 | 287° | 33km/h | 22825m | 6.9m/s | -52.2°C | 4.1% | 0hPa | 2.6V | 00:00:00 | 01:27:37 | 08:30:00 | |
| 9A1FER-10 | 2026-09-03 12:32:11 | 45.35271 | 16.51514 | 299° | 31km/h | 22791m | 6.8m/s | -51.8°C | 4.0% | 0hPa | 2.7V | 00:00:00 | 01:27:31 | 00:00:00 | |
| 9A1FER-3 | 2026-09-03 12:32:04 | 45.35249 | 16.51586 | 295° | 31km/h | 22752m | 5.4m/s | -51.7°C | 4.0% | 0hPa | 2.7V | 00:00:00 | 01:27:24 | 00:00:00 | |
| 9A1FER-15 | 2026-09-03 12:32:02 | 45.35240 | 16.51609 | 298° | 31km/h | 22742m | 5.7m/s | -51.6°C | 4.0% | 0hPa | 2.7V | 00:00:00 | 01:27:22 | 00:00:00 | |
| PETON7-10 | 2026-09-03 12:31:56 | 45.35228 | 16.51671 | 280° | 29km/h | 22708m | 6.8m/s | -51.5°C | 3.9% | 0hPa | 2.7V | 00:00:00 | 00:00:00 | 00:00:00 | |
| OE3JTB-15 | 2026-09-03 12:31:53 | 45.35223 | 16.51701 | 289° | 27km/h | 22690m | 6.1m/s | -51.4°C | 3.8% | 0hPa | 2.6V | 00:00:00 | 00:00:00 | 08:30:00 | |
| 9A1FER-3 | 2026-09-03 12:31:49 | 45.35210 | 16.51742 | 297° | 29km/h | 22666m | 5.1m/s | -51.4°C | 3.8% | 0hPa | 2.6V | 00:00:00 | 01:27:09 | 00:00:00 | |
| 9A1FER-15 | 2026-09-03 12:31:47 | 45.35204 | 16.51761 | 290° | 27km/h | 22655m | 5.4m/s | -51.3°C | 3.9% | 0hPa | 2.6V | 00:00:00 | 01:27:07 | 00:00:00 | |
| PETON7-10 | 2026-09-03 12:31:41 | 45.35200 | 16.51819 | 273° | 24km/h | 22621m | 5.3m/s | -51.4°C | 3.9% | 0hPa | 2.6V | 00:00:00 | 00:00:00 | 00:00:00 | |
| 9A1FER-3 | 2026-09-03 12:31:34 | 45.35195 | 16.51891 | 261° | 20km/h | 22581m | 7.0m/s | -51.3°C | 3.8% | 0hPa | 2.6V | 00:00:00 | 01:26:54 | 00:00:00 | |
| PETON7-10 | 2026-09-03 12:31:26 | 45.35208 | 16.51943 | 272° | 24km/h | 22535m | 6.4m/s | -51.2°C | 3.8% | 0hPa | 2.7V | 00:00:00 | 01:26:46 | 00:00:00 | |
| 9A1FER-3 | 2026-09-03 12:31:19 | 45.35215 | 16.51997 | 238° | 20km/h | 22495m | 6.0m/s | -51.3°C | 3.9% | 0hPa | 2.7V | 00:00:00 | 01:26:39 | 00:00:00 | |
| OE3JTB-15 | 2026-09-03 12:31:17 | 45.35223 | 16.52011 | 232° | 18km/h | 22484m | 6.9m/s | -51.3°C | 3.8% | 0hPa | 2.7V | 00:00:00 | 00:00:00 | 00:00:00 | |
| PETON7-10 | 2026-09-03 12:31:11 | 45.35243 | 16.52054 | 238° | 16km/h | 22449m | 5.9m/s | -51.1°C | 3.6% | 0hPa | 2.7V | 00:00:00 | 00:00:00 | 00:00:00 | |
| 9A1FER-3 | 2026-09-03 12:31:04 | 45.35258 | 16.52085 | 221° | 16km/h | 22410m | 4.4m/s | -51.7°C | 3.8% | 0hPa | 2.6V | 00:00:00 | 01:26:24 | 00:00:00 | |
| 9A1FER-15 | 2026-09-03 12:31:02 | 45.35264 | 16.52092 | 222° | 15km/h | 22399m | 5.4m/s | -51.9°C | 3.8% | 0hPa | 2.6V | 00:00:00 | 01:26:22 | 00:00:00 | |
| PETON7-10 | 2026-09-03 12:30:56 | 45.35285 | 16.52114 | 210° | 11km/h | 22366m | 6.0m/s | -52.3°C | 3.8% | 0hPa | 2.6V | 00:00:00 | 00:00:00 | 00:00:00 | |
| 9A1FER-10 | 2026-09-03 12:30:53 | 45.35297 | 16.52125 | 218° | 9km/h | 22348m | 5.5m/s | -52.5°C | 3.9% | 0hPa | 2.6V | 00:00:00 | 01:26:13 | 00:00:00 | |
| 9A1FER-3 | 2026-09-03 12:30:49 | 45.35306 | 16.52131 | 192° | 7km/h | 22324m | 6.8m/s | -52.6°C | 4.0% | 0hPa | 2.6V | 00:00:00 | 01:26:09 | 00:00:00 | |
| OE3JTB-15 | 2026-09-03 12:30:48 | 45.35308 | 16.52131 | 205° | 9km/h | 22319m | 5.0m/s | -52.6°C | 4.0% | 0hPa | 2.6V | 00:00:00 | 01:26:08 | 00:00:00 | |
| 9A1FER-15 | 2026-09-03 12:30:47 | 45.35309 | 16.52132 | 210° | 7km/h | 22314m | 4.3m/s | -52.6°C | 4.0% | 0hPa | 2.6V | 00:00:00 | 01:26:07 | 00:00:00 | |
| PETON7-10 | 2026-09-03 12:30:41 | 45.35318 | 16.52145 | 259° | 9km/h | 22281m | 4.6m/s | -53.0°C | 4.1% | 0hPa | 2.7V | 00:00:00 | 01:26:01 | 00:00:00 | |
| 9A1FER-10 | 2026-09-03 12:30:38 | 45.35321 | 16.52150 | 178° | 9km/h | 22264m | 5.3m/s | -53.2°C | 4.1% | 0hPa | 2.7V | 00:00:00 | 01:25:58 | 00:00:00 | |
| 9A1FER-3 | 2026-09-03 12:30:34 | 45.35326 | 16.52143 | 147° | 9km/h | 22242m | 5.8m/s | -53.2°C | 4.2% | 0hPa | 2.7V | 00:00:00 | 01:25:54 | 00:00:00 | |
| 9A1FER-15 | 2026-09-03 12:30:32 | 45.35331 | 16.52142 | 179° | 9km/h | 22232m | 6.3m/s | -53.1°C | 4.2% | 0hPa | 2.7V | 00:00:00 | 01:25:52 | 00:00:00 | |
| PETON7-10 | 2026-09-03 12:30:26 | 45.35336 | 16.52161 | 254° | 13km/h | 22198m | 5.3m/s | -53.2°C | 4.2% | 0hPa | 2.7V | 00:00:00 | 00:00:00 | 08:30:00 | |
| 9A1FER-10 | 2026-09-03 12:30:23 | 45.35338 | 16.52171 | 245° | 13km/h | 22181m | 6.7m/s | -53.3°C | 4.3% | 0hPa | 2.6V | 00:00:00 | 01:25:43 | 00:00:00 | |
| 9A1FER-3 | 2026-09-03 12:30:19 | 45.35342 | 16.52178 | 230° | 15km/h | 22158m | 5.0m/s | -53.2°C | 4.1% | 0hPa | 2.6V | 00:00:00 | 01:25:39 | 00:00:00 | |
| 9A1FER-15 | 2026-09-03 12:30:18 | 45.35347 | 16.52185 | 219° | 15km/h | 22146m | 5.2m/s | -53.1°C | 4.1% | 0hPa | 2.6V | 00:00:00 | 01:25:37 | 00:00:00 | |
| PETON7-10 | 2026-09-03 12:30:11 | 45.35369 | 16.52213 | 215° | 13km/h | 22112m | 4.8m/s | -53.5°C | 4.2% | 0hPa | 2.6V | 00:00:00 | 00:00:00 | 00:00:00 | |
| 9A1FER-10 | 2026-09-03 12:30:08 | 45.35376 | 16.52220 | 203° | 15km/h | 22095m | 5.7m/s | -53.4°C | 4.2% | 0hPa | 2.6V | 00:00:00 | 01:25:28 | 00:00:00 | |
| 9A1FER-3 | 2026-09-03 12:30:04 | 45.35384 | 16.52223 | 206° | 15km/h | 22072m | 5.1m/s | -53.3°C | 4.1% | 0hPa | 2.6V | 00:00:00 | 01:25:24 | 08:30:00 | |
| 9A1FER-15 | 2026-09-03 12:30:02 | 45.35390 | 16.52226 | 194° | 15km/h | 22061m | 6.8m/s | -53.3°C | 4.1% | 0hPa | 2.7V | 00:00:00 | 01:25:22 | 08:30:00 | |
| PETON7-10 | 2026-09-03 12:29:56 | 45.35417 | 16.52234 | 183° | 13km/h | 22027m | 3.9m/s | -53.7°C | 4.1% | 0hPa | 2.7V | 00:00:00 | 01:25:16 | 00:00:00 | |
| 9A1FER-10 | 2026-09-03 12:29:53 | 45.35427 | 16.52235 | 181° | 15km/h | 22011m | 4.3m/s | -53.6°C | 4.2% | 0hPa | 2.7V | 00:00:00 | 01:25:13 | 00:00:00 | |
| 9A1FER-3 | 2026-09-03 12:29:49 | 45.35438 | 16.52233 | 181° | 15km/h | 21990m | 5.0m/s | -54.2°C | 4.4% | 0hPa | 2.7V | 00:00:00 | 01:25:09 | 00:00:00 | |
| 9A1FER-15 | 2026-09-03 12:29:47 | 45.35444 | 16.52234 | 191° | 15km/h | 21978m | 5.3m/s | -54.5°C | 4.6% | 0hPa | 2.7V | 00:00:00 | 01:25:07 | 00:00:00 | |
| PETON7-10 | 2026-09-03 12:29:41 | 45.35464 | 16.52237 | 196° | 15km/h | 21943m | 6.9m/s | -54.5°C | 4.5% | 0hPa | 2.7V | 00:00:00 | 00:00:00 | 00:00:00 | |
| 9A1FER-3 | 2026-09-03 12:29:34 | 45.35490 | 16.52253 | 198° | 18km/h | 21905m | 4.0m/s | -54.4°C | 4.5% | 0hPa | 2.6V | 00:00:00 | 01:24:54 | 00:00:00 | |
| 9A1FER-15 | 2026-09-03 12:29:32 | 45.35495 | 16.52256 | 215° | 18km/h | 21894m | 6.2m/s | -54.3°C | 4.5% | 0hPa | 2.6V | 00:00:00 | 01:24:52 | 00:00:00 | |
| PETON7-10 | 2026-09-03 12:29:26 | 45.35518 | 16.52266 | 189° | 22km/h | 21861m | 5.7m/s | -54.0°C | 4.4% | 0hPa | 2.6V | 00:00:00 | 00:00:00 | 00:00:00 | |
| 9A1FER-3 | 2026-09-03 12:29:19 | 45.35556 | 16.52264 | 171° | 24km/h | 21822m | 5.6m/s | -53.7°C | 4.2% | 0hPa | 2.6V | 00:00:00 | 01:24:39 | 00:00:00 | |
| 9A1FER-15 | 2026-09-03 12:29:18 | 45.35563 | 16.52262 | 171° | 24km/h | 21810m | 5.1m/s | -53.9°C | 4.3% | 0hPa | 2.6V | 00:00:00 | 01:24:37 | 00:00:00 | |
| 9A1FER-10 | 2026-09-03 12:29:16 | 45.35567 | 16.52262 | 182° | 24km/h | 21804m | 6.7m/s | -53.9°C | 4.3% | 0hPa | 2.6V | 00:00:00 | 01:24:36 | 00:00:00 | |
| PETON7-10 | 2026-09-03 12:29:11 | 45.35599 | 16.52265 | 180° | 26km/h | 21776m | 5.6m/s | -53.9°C | 4.4% | 0hPa | 2.6V | 00:00:00 | 01:24:31 | 00:00:00 | |
| 9A1FER-3 | 2026-09-03 12:29:04 | 45.35638 | 16.52245 | 131° | 27km/h | 21735m | 4.9m/s | -54.1°C | 4.4% | 0hPa | 2.6V | 00:00:00 | 01:24:24 | 00:00:00 | |
| 9A1FER-15 | 2026-09-03 12:29:02 | 45.35645 | 16.52235 | 143° | 29km/h | 21723m | 5.2m/s | -54.1°C | 4.4% | 0hPa | 2.6V | 00:00:00 | 01:24:22 | 00:00:00 | |
| 9A1FER-10 | 2026-09-03 12:29:01 | 45.35650 | 16.52230 | 154° | 29km/h | 21718m | 4.6m/s | -54.0°C | 4.4% | 0hPa | 2.6V | 00:00:00 | 01:24:21 | 08:30:00 | |
| PETON7-10 | 2026-09-03 12:28:56 | 45.35687 | 16.52217 | 164° | 27km/h | 21690m | 4.9m/s | -53.7°C | 4.4% | 0hPa | 2.6V | 00:00:00 | 00:00:00 | 00:00:00 | |
| 9A1FER-3 | 2026-09-03 12:28:49 | 45.35730 | 16.52178 | 132° | 27km/h | 21649m | 6.1m/s | -53.8°C | 4.2% | 0hPa | 2.6V | 00:00:00 | 01:24:09 | 00:00:00 | |
| 9A1FER-15 | 2026-09-03 12:28:47 | 45.35738 | 16.52167 | 143° | 27km/h | 21638m | 5.8m/s | -53.7°C | 4.3% | 0hPa | 2.6V | 00:00:00 | 01:24:07 | 00:00:00 | |
| 9A1FER-10 | 2026-09-03 12:28:46 | 45.35743 | 16.52162 | 147° | 26km/h | 21633m | 4.7m/s | -53.7°C | 4.3% | 0hPa | 2.6V | 00:00:00 | 01:24:06 | 00:00:00 | |
| PETON7-10 | 2026-09-03 12:28:41 | 45.35775 | 16.52142 | 156° | 26km/h | 21605m | 5.0m/s | -53.7°C | 4.4% | 0hPa | 2.6V | 00:00:00 | 00:00:00 | 00:00:00 | |
| OE8JPQ-2 | 2026-09-03 12:28:35 | 45.35813 | 16.52106 | 125° | 22km/h | 21571m | 5.5m/s | 0°C | 0% | 0hPa | 2.6V | 00:00:00 | 00:00:00 | 00:00:00 | |
| 9A1FER-3 | 2026-09-03 12:28:34 | 45.35816 | 16.52099 | 117° | 22km/h | 21566m | 5.5m/s | -53.8°C | 4.3% | 0hPa | 2.6V | 00:00:00 | 01:23:54 | 00:00:00 | |
| 9A1FER-15 | 2026-09-03 12:28:32 | 45.35820 | 16.52087 | 115° | 22km/h | 21554m | 5.0m/s | -53.8°C | 4.3% | 0hPa | 2.6V | 00:00:00 | 01:23:52 | 00:00:00 | |
| PETON7-10 | 2026-09-03 12:28:26 | 45.35841 | 16.52056 | 151° | 20km/h | 21519m | 6.2m/s | -53.5°C | 4.3% | 0hPa | 2.7V | 00:00:00 | 01:23:46 | 00:00:00 | |
| 9A1FER-3 | 2026-09-03 12:28:19 | 45.35873 | 16.52020 | 121° | 20km/h | 21478m | 5.7m/s | -53.4°C | 4.2% | 0hPa | 2.7V | 00:00:00 | 01:23:39 | 00:00:00 | |
| 9A1FER-15 | 2026-09-03 12:28:17 | 45.35878 | 16.52008 | 119° | 18km/h | 21466m | 4.9m/s | -53.5°C | 4.2% | 0hPa | 2.7V | 00:00:00 | 01:23:37 | 00:00:00 | |
| PETON7-10 | 2026-09-03 12:28:10 | 45.35898 | 16.51967 | 129° | 16km/h | 21425m | 4.6m/s | -53.6°C | 4.3% | 0hPa | 2.7V | 00:00:00 | 00:00:00 | 08:30:00 | |
| 9A1FER-3 | 2026-09-03 12:28:04 | 45.35910 | 16.51933 | 87° | 16km/h | 21390m | 5.4m/s | -53.5°C | 4.2% | 0hPa | 2.7V | 00:00:00 | 01:23:24 | 00:00:00 | |
| 9A1FER-15 | 2026-09-03 12:28:02 | 45.35908 | 16.51923 | 64° | 16km/h | 21379m | 4.0m/s | -53.4°C | 4.2% | 0hPa | 2.7V | 00:00:00 | 01:23:22 | 00:00:00 | |
| 9A1FER-3 | 2026-09-03 12:27:49 | 45.35937 | 16.51866 | 127° | 11km/h | 21307m | 5.5m/s | -53.5°C | 4.3% | 0hPa | 2.7V | 00:00:00 | 01:23:09 | 08:30:00 | |
| 9A1FER-10 | 2026-09-03 12:27:47 | 45.35938 | 16.51859 | 84° | 9km/h | 21297m | 6.4m/s | -53.5°C | 4.4% | 0hPa | 2.6V | 00:00:00 | 01:23:07 | 00:00:00 | |
| PETON7-10 | 2026-09-03 12:27:40 | 45.35933 | 16.51830 | 98° | 9km/h | 21259m | 4.5m/s | -53.5°C | 4.2% | 0hPa | 2.6V | 00:00:00 | 01:23:00 | 00:00:00 | |
| 9A1FER-3 | 2026-09-03 12:27:34 | 45.35936 | 16.51812 | 54° | 9km/h | 21227m | 5.1m/s | -53.2°C | 4.2% | 0hPa | 2.6V | 00:00:00 | 01:22:54 | 00:00:00 | |
| 9A1FER-15 | 2026-09-03 12:27:32 | 45.35934 | 16.51810 | 45° | 9km/h | 21216m | 6.1m/s | -53.3°C | 4.2% | 0hPa | 2.6V | 00:00:00 | 01:22:52 | 00:00:00 | |
| PETON7-10 | 2026-09-03 12:27:25 | 45.35923 | 16.51794 | 83° | 11km/h | 21178m | 4.7m/s | -53.4°C | 4.2% | 0hPa | 2.6V | 00:00:00 | 00:00:00 | 00:00:00 | |
| 9A1FER-3 | 2026-09-03 12:27:19 | 45.35923 | 16.51773 | 78° | 11km/h | 21144m | 5.7m/s | -53.2°C | 4.1% | 0hPa | 2.6V | 00:00:00 | 01:22:39 | 00:00:00 | |
| 9A1FER-15 | 2026-09-03 12:27:17 | 45.35921 | 16.51767 | 43° | 11km/h | 21133m | 4.3m/s | -53.2°C | 4.2% | 0hPa | 2.6V | 00:00:00 | 01:22:37 | 00:00:00 | |
| PETON7-10 | 2026-09-03 12:27:10 | 45.35906 | 16.51745 | 47° | 15km/h | 21095m | 6.1m/s | -53.5°C | 4.2% | 0hPa | 2.6V | 00:00:00 | 00:00:00 | 00:00:00 | |
| 9A1FER-3 | 2026-09-03 12:27:04 | 45.35892 | 16.51732 | 45° | 16km/h | 21063m | 5.6m/s | -53.4°C | 4.2% | 0hPa | 2.6V | 00:00:00 | 01:22:24 | 00:00:00 | |
| 9A1FER-15 | 2026-09-03 12:27:02 | 45.35887 | 16.51727 | 35° | 16km/h | 21051m | 6.9m/s | -53.3°C | 4.3% | 0hPa | 2.7V | 00:00:00 | 01:22:22 | 00:00:00 | |
| PETON7-10 | 2026-09-03 12:26:55 | 45.35862 | 16.51705 | 18° | 15km/h | 21013m | 4.9m/s | -53.3°C | 4.3% | 0hPa | 2.6V | 00:00:00 | 01:22:15 | 00:00:00 | |
| 9A1FER-3 | 2026-09-03 12:26:49 | 45.35839 | 16.51691 | 34° | 15km/h | 20980m | 4.3m/s | -53.2°C | 4.1% | 0hPa | 2.6V | 00:00:00 | 01:22:09 | 00:00:00 | |
| 9A1FER-15 | 2026-09-03 12:26:47 | 45.35834 | 16.51683 | 54° | 13km/h | 20968m | 4.8m/s | -53.2°C | 4.0% | 0hPa | 2.6V | 00:00:00 | 01:22:07 | 00:00:00 | |
| PETON7-10 | 2026-09-03 12:26:40 | 45.35823 | 16.51656 | 48° | 13km/h | 20930m | 6.4m/s | -53.2°C | 4.2% | 0hPa | 2.6V | 00:00:00 | 00:00:00 | 00:00:00 | |
| 9A1FER-3 | 2026-09-03 12:26:34 | 45.35803 | 16.51642 | 26° | 9km/h | 20896m | 4.4m/s | -53.4°C | 4.1% | 0hPa | 2.7V | 00:00:00 | 01:21:54 | 00:00:00 | |
| 9A1FER-10 | 2026-09-03 12:26:32 | 45.35799 | 16.51637 | 57° | 7km/h | 20885m | 5.7m/s | -53.5°C | 4.1% | 0hPa | 2.7V | 00:00:00 | 01:21:52 | 00:00:00 | |
| PETON7-10 | 2026-09-03 12:26:25 | 45.35801 | 16.51612 | 120° | 7km/h | 20845m | 6.4m/s | -53.8°C | 4.3% | 0hPa | 2.7V | 00:00:00 | 00:00:00 | 00:00:00 | |
| 9A1FER-3 | 2026-09-03 12:26:19 | 45.35801 | 16.51602 | 69° | 5km/h | 20812m | 5.4m/s | -54.1°C | 4.3% | 0hPa | 2.7V | 00:00:00 | 01:21:39 | 00:00:00 | |
| OE3JTB-15 | 2026-09-03 12:26:18 | 45.35800 | 16.51597 | 90° | 16km/h | 20801m | 6.3m/s | -54.2°C | 4.4% | 0hPa | 2.6V | 00:00:00 | 01:21:37 | 00:00:00 | |
| 9A1FER-15 | 2026-09-03 12:26:17 | 45.35800 | 16.51597 | 90° | 5km/h | 20801m | 6.3m/s | -54.2°C | 4.4% | 0hPa | 2.6V | 00:00:00 | 01:21:37 | 00:00:00 | |
| PETON7-10 | 2026-09-03 12:26:10 | 45.35809 | 16.51582 | 162° | 7km/h | 20762m | 5.6m/s | -54.2°C | 4.4% | 0hPa | 2.6V | 00:00:00 | 01:21:30 | 00:00:00 | |
| 9A1FER-3 | 2026-09-03 12:26:04 | 45.35805 | 16.51578 | 106° | 9km/h | 20729m | 4.7m/s | -54.3°C | 4.2% | 0hPa | 2.6V | 00:00:00 | 01:21:24 | 00:00:00 | |
| 9A1FER-15 | 2026-09-03 12:26:02 | 45.35807 | 16.51576 | 140° | 11km/h | 20718m | 6.7m/s | -54.2°C | 4.3% | 0hPa | 2.6V | 00:00:00 | 01:21:22 | 00:00:00 | |
| PETON7-10 | 2026-09-03 12:25:55 | 45.35826 | 16.51560 | 145° | 18km/h | 20678m | 5.7m/s | -54.0°C | 4.1% | 0hPa | 2.6V | 00:00:00 | 00:00:00 | 08:30:00 | |
| 9A1FER-3 | 2026-09-03 12:25:49 | 45.35834 | 16.51544 | 125° | 24km/h | 20644m | 6.5m/s | -54.7°C | 4.5% | 0hPa | 2.6V | 00:00:00 | 01:21:09 | 00:00:00 | |
| 9A1FER-10 | 2026-09-03 12:25:47 | 45.35841 | 16.51535 | 141° | 24km/h | 20633m | 4.0m/s | -54.7°C | 4.4% | 0hPa | 2.6V | 00:00:00 | 01:21:07 | 00:00:00 | |
| PETON7-10 | 2026-09-03 12:25:40 | 45.35875 | 16.51490 | 131° | 22km/h | 20591m | 5.1m/s | -54.9°C | 4.5% | 0hPa | 2.6V | 00:00:00 | 00:00:00 | 00:00:00 | |
| 9A1FER-3 | 2026-09-03 12:25:34 | 45.35893 | 16.51449 | 120° | 18km/h | 20560m | 4.9m/s | -55.0°C | 4.6% | 0hPa | 2.6V | 00:00:00 | 01:20:54 | 08:30:00 | |
| 9A1FER-15 | 2026-09-03 12:25:32 | 45.35899 | 16.51439 | 133° | 18km/h | 20549m | 4.3m/s | -55.2°C | 4.6% | 0hPa | 2.6V | 00:00:00 | 01:20:52 | 08:30:00 | |
| PETON7-10 | 2026-09-03 12:25:25 | 45.35922 | 16.51399 | 132° | 16km/h | 20509m | 6.7m/s | -55.3°C | 4.6% | 0hPa | 2.7V | 00:00:00 | 01:20:45 | 00:00:00 | |
| OE3JTB-15 | 2026-09-03 12:25:23 | 45.35935 | 16.51377 | 130° | 11km/h | 20488m | 4.4m/s | -55.1°C | 4.6% | 0hPa | 2.7V | 00:00:00 | 00:00:00 | 00:00:00 | |
| 9A1FER-3 | 2026-09-03 12:25:19 | 45.35937 | 16.51371 | 104° | 15km/h | 20477m | 4.8m/s | -55.2°C | 4.6% | 0hPa | 2.6V | 00:00:00 | 01:20:39 | 00:00:00 | |
| 9A1FER-15 | 2026-09-03 12:25:17 | 45.35938 | 16.51365 | 114° | 15km/h | 20467m | 5.8m/s | -55.1°C | 4.5% | 0hPa | 2.6V | 00:00:00 | 01:20:37 | 00:00:00 | |
| PETON7-10 | 2026-09-03 12:25:10 | 45.35947 | 16.51324 | 106° | 9km/h | 20430m | 4.2m/s | -55.0°C | 4.5% | 0hPa | 2.6V | 00:00:00 | 00:00:00 | 00:00:00 | |
| 9A1FER-3 | 2026-09-03 12:25:04 | 45.35952 | 16.51299 | 104° | 7km/h | 20397m | 4.7m/s | -55.0°C | 4.6% | 0hPa | 2.6V | 00:00:00 | 01:20:24 | 00:00:00 | |
| 9A1FER-15 | 2026-09-03 12:25:02 | 45.35954 | 16.51293 | 118° | 7km/h | 20386m | 5.0m/s | -55.1°C | 4.6% | 0hPa | 2.6V | 00:00:00 | 01:20:22 | 00:00:00 | |
| PETON7-10 | 2026-09-03 12:24:54 | 45.35961 | 16.51273 | 179° | 9km/h | 20340m | 6.7m/s | -55.2°C | 4.5% | 0hPa | 2.6V | 00:00:00 | 00:00:00 | 00:00:00 | |
| 9A1FER-3 | 2026-09-03 12:24:49 | 45.35965 | 16.51276 | 48° | 9km/h | 20314m | 5.5m/s | -55.3°C | 4.6% | 0hPa | 2.6V | 00:00:00 | 01:20:09 | 00:00:00 | |
| 9A1FER-15 | 2026-09-03 12:24:47 | 45.35964 | 16.51272 | 86° | 9km/h | 20303m | 5.1m/s | -55.3°C | 4.6% | 0hPa | 2.6V | 00:00:00 | 01:20:07 | 00:00:00 | |
| PETON7-10 | 2026-09-03 12:24:38 | 45.35966 | 16.51234 | 93° | 5km/h | 20254m | 6.3m/s | -55.5°C | 4.6% | 0hPa | 2.7V | 00:00:00 | 01:19:58 | 00:00:00 | |
| 9A1FER-3 | 2026-09-03 12:24:34 | 45.35965 | 16.51230 | 19° | 5km/h | 20230m | 4.5m/s | -55.4°C | 4.6% | 0hPa | 2.7V | 00:00:00 | 01:19:54 | 00:00:00 | |
| 9A1FER-10 | 2026-09-03 12:24:32 | 45.35965 | 16.51229 | 79° | 5km/h | 20220m | 4.5m/s | -55.3°C | 4.6% | 0hPa | 2.7V | 00:00:00 | 01:19:52 | 00:00:00 | |
| PETON7-10 | 2026-09-03 12:24:23 | 45.35966 | 16.51208 | 205° | 11km/h | 20170m | 5.3m/s | -55.7°C | 4.7% | 0hPa | 2.7V | 00:00:00 | 00:00:00 | 00:00:00 | |
| 9A1FER-3 | 2026-09-03 12:24:19 | 45.35968 | 16.51211 | 141° | 13km/h | 20148m | 5.1m/s | -55.6°C | 4.7% | 0hPa | 2.6V | 00:00:00 | 01:19:39 | 00:00:00 | |
| 9A1FER-15 | 2026-09-03 12:24:17 | 45.35971 | 16.51207 | 131° | 13km/h | 20138m | 4.8m/s | -55.5°C | 4.6% | 0hPa | 2.6V | 00:00:00 | 01:19:37 | 00:00:00 | |
| PETON7-10 | 2026-09-03 12:24:08 | 45.35988 | 16.51164 | 123° | 15km/h | 20088m | 6.2m/s | -55.1°C | 4.6% | 0hPa | 2.6V | 00:00:00 | 00:00:00 | 00:00:00 | |
| 9A1FER-3 | 2026-09-03 12:24:04 | 45.35993 | 16.51155 | 147° | 16km/h | 20065m | 5.5m/s | -55.2°C | 4.5% | 0hPa | 2.6V | 00:00:00 | 01:19:24 | 00:00:00 | |
| 9A1FER-15 | 2026-09-03 12:24:02 | 45.35995 | 16.51154 | 147° | 18km/h | 20054m | 3.2m/s | -55.1°C | 4.5% | 0hPa | 2.7V | 00:00:00 | 01:19:22 | 00:00:00 | |
| PETON7-10 | 2026-09-03 12:23:53 | 45.36021 | 16.51099 | 130° | 16km/h | 20006m | 6.0m/s | -55.2°C | 4.7% | 0hPa | 2.7V | 00:00:00 | 01:19:13 | 00:00:00 | |
| 9A1FER-3 | 2026-09-03 12:23:49 | 45.36031 | 16.51083 | 117° | 15km/h | 19985m | 4.5m/s | -55.2°C | 4.6% | 0hPa | 2.7V | 00:00:00 | 01:19:09 | 00:00:00 | |
| 9A1FER-15 | 2026-09-03 12:23:47 | 45.36034 | 16.51074 | 125° | 13km/h | 19974m | 5.8m/s | -55.2°C | 4.5% | 0hPa | 2.7V | 00:00:00 | 01:19:07 | 00:00:00 | |
| OE3JTB-15 | 2026-09-03 12:23:39 | 45.36054 | 16.51031 | 126° | 9km/h | 19932m | 5.4m/s | -54.9°C | 4.4% | 0hPa | 2.7V | 00:00:00 | 00:00:00 | 08:30:00 | |
| PETON7-10 | 2026-09-03 12:23:38 | 45.36055 | 16.51028 | 134° | 9km/h | 19927m | 5.3m/s | -54.8°C | 4.4% | 0hPa | 2.7V | 00:00:00 | 00:00:00 | 08:30:00 | |
| 9A1FER-3 | 2026-09-03 12:23:34 | 45.36062 | 16.51027 | 170° | 9km/h | 19904m | 5.6m/s | -54.9°C | 4.3% | 0hPa | 2.6V | 00:00:00 | 01:18:54 | 00:00:00 | |
| 9A1FER-15 | 2026-09-03 12:23:32 | 45.36066 | 16.51025 | 157° | 9km/h | 19893m | 6.1m/s | -55.3°C | 4.5% | 0hPa | 2.6V | 00:00:00 | 01:18:52 | 00:00:00 | |
| PETON7-10 | 2026-09-03 12:23:23 | 45.36082 | 16.51003 | 121° | 11km/h | 19844m | 4.8m/s | -55.6°C | 4.5% | 0hPa | 2.6V | 00:00:00 | 00:00:00 | 00:00:00 | |
| 9A1FER-3 | 2026-09-03 12:23:19 | 45.36087 | 16.51001 | 169° | 13km/h | 19823m | 5.7m/s | -55.8°C | 4.7% | 0hPa | 2.6V | 00:00:00 | 01:18:39 | 08:30:00 | |
| 9A1FER-10 | 2026-09-03 12:23:17 | 45.36091 | 16.50999 | 162° | 15km/h | 19813m | 5.9m/s | -55.9°C | 4.8% | 0hPa | 2.7V | 00:00:00 | 01:18:37 | 00:00:00 | |
| OE3JTB-15 | 2026-09-03 12:23:10 | 45.36111 | 16.50983 | 144° | 24km/h | 19775m | 6.9m/s | -55.9°C | 4.7% | 0hPa | 2.7V | 00:00:00 | 00:00:00 | 00:00:00 | |
| PETON7-10 | 2026-09-03 12:23:08 | 45.36116 | 16.50977 | 140° | 22km/h | 19764m | 5.7m/s | -55.9°C | 4.6% | 0hPa | 2.7V | 00:00:00 | 01:18:28 | 00:00:00 | |
| 9A1FER-3 | 2026-09-03 12:23:04 | 45.36126 | 16.50963 | 128° | 24km/h | 19743m | 5.0m/s | -56.0°C | 4.7% | 0hPa | 2.7V | 00:00:00 | 01:18:24 | 00:00:00 | |
| 9A1FER-15 | 2026-09-03 12:23:02 | 45.36133 | 16.50952 | 133° | 24km/h | 19732m | 4.5m/s | -55.9°C | 4.8% | 0hPa | 2.7V | 00:00:00 | 01:18:22 | 00:00:00 | |
| PETON7-10 | 2026-09-03 12:22:53 | 45.36163 | 16.50887 | 121° | 24km/h | 19687m | 4.9m/s | -56.0°C | 4.7% | 0hPa | 2.7V | 00:00:00 | 00:00:00 | 00:00:00 | |
| 9A1FER-3 | 2026-09-03 12:22:49 | 45.36176 | 16.50858 | 119° | 24km/h | 19664m | 5.3m/s | -55.9°C | 4.9% | 0hPa | 2.6V | 00:00:00 | 01:18:09 | 00:00:00 | |
| 9A1FER-15 | 2026-09-03 12:22:47 | 45.36182 | 16.50843 | 124° | 24km/h | 19654m | 5.8m/s | -55.9°C | 4.8% | 0hPa | 2.6V | 00:00:00 | 01:18:07 | 00:00:00 | |
| PETON7-10 | 2026-09-03 12:22:38 | 45.36208 | 16.50778 | 113° | 18km/h | 19607m | 5.4m/s | -55.7°C | 4.7% | 0hPa | 2.6V | 00:00:00 | 00:00:00 | 00:00:00 | |
| OE3JTB-15 | 2026-09-03 12:22:37 | 45.36214 | 16.50763 | 120° | 16km/h | 19596m | 4.6m/s | -55.8°C | 4.7% | 0hPa | 2.6V | 00:00:00 | 01:17:56 | 00:00:00 | |
| 9A1FER-3 | 2026-09-03 12:22:34 | 45.36219 | 16.50747 | 115° | 16km/h | 19585m | 5.0m/s | -55.5°C | 4.7% | 0hPa | 2.6V | 00:00:00 | 01:17:54 | 00:00:00 | |
| 9A1FER-10 | 2026-09-03 12:22:32 | 45.36225 | 16.50733 | 124° | 16km/h | 19574m | 4.7m/s | -55.6°C | 4.7% | 0hPa | 2.7V | 00:00:00 | 01:17:52 | 00:00:00 | |
| PETON7-10 | 2026-09-03 12:22:23 | 45.36232 | 16.50687 | 104° | 15km/h | 19525m | 5.0m/s | -55.4°C | 4.7% | 0hPa | 2.7V | 00:00:00 | 01:17:43 | 00:00:00 | |
| 9A1FER-3 | 2026-09-03 12:22:19 | 45.36238 | 16.50662 | 113° | 15km/h | 19505m | 4.5m/s | -55.5°C | 4.6% | 0hPa | 2.7V | 00:00:00 | 01:17:39 | 00:00:00 | |
| 9A1FER-15 | 2026-09-03 12:22:17 | 45.36242 | 16.50652 | 133° | 15km/h | 19495m | 4.6m/s | -55.6°C | 4.6% | 0hPa | 2.7V | 00:00:00 | 01:17:37 | 00:00:00 | |
| PETON7-10 | 2026-09-03 12:22:08 | 45.36257 | 16.50617 | 112° | 13km/h | 19447m | 4.7m/s | -55.6°C | 4.7% | 0hPa | 2.7V | 00:00:00 | 00:00:00 | 00:00:00 | |
| 9A1FER-3 | 2026-09-03 12:22:04 | 45.36260 | 16.50595 | 106° | 15km/h | 19425m | 6.5m/s | -55.6°C | 4.7% | 0hPa | 2.6V | 00:00:00 | 01:17:24 | 00:00:00 | |
| 9A1FER-15 | 2026-09-03 12:22:02 | 45.36262 | 16.50585 | 98° | 15km/h | 19415m | 5.0m/s | -55.8°C | 4.7% | 0hPa | 2.6V | 00:00:00 | 01:17:22 | 00:00:00 | |
| PETON7-10 | 2026-09-03 12:21:53 | 45.36255 | 16.50551 | 101° | 20km/h | 19369m | 5.3m/s | -56.0°C | 4.7% | 0hPa | 2.6V | 00:00:00 | 00:00:00 | 00:00:00 | |
| 9A1FER-3 | 2026-09-03 12:21:49 | 45.36258 | 16.50521 | 99° | 18km/h | 19349m | 4.8m/s | -55.9°C | 4.8% | 0hPa | 2.6V | 00:00:00 | 01:17:09 | 00:00:00 | |
| 9A1FER-15 | 2026-09-03 12:21:47 | 45.36260 | 16.50508 | 102° | 18km/h | 19339m | 4.4m/s | -56.0°C | 4.8% | 0hPa | 2.6V | 00:00:00 | 01:17:07 | 00:00:00 | |
| PETON7-10 | 2026-09-03 12:21:38 | 45.36256 | 16.50446 | 84° | 15km/h | 19290m | 5.5m/s | -56.0°C | 4.8% | 0hPa | 2.7V | 00:00:00 | 01:16:58 | 00:00:00 | |
| 9A1FER-3 | 2026-09-03 12:21:34 | 45.36254 | 16.50422 | 88° | 15km/h | 19268m | 6.7m/s | -56.0°C | 4.8% | 0hPa | 2.7V | 00:00:00 | 01:16:54 | 00:00:00 | |
| 9A1FER-15 | 2026-09-03 12:21:32 | 45.36253 | 16.50414 | 80° | 15km/h | 19258m | 5.0m/s | -56.1°C | 4.9% | 0hPa | 2.7V | 00:00:00 | 01:16:52 | 00:00:00 | |
| PETON7-10 | 2026-09-03 12:21:23 | 45.36238 | 16.50370 | 61° | 16km/h | 19210m | 4.5m/s | -55.9°C | 4.8% | 0hPa | 2.7V | 00:00:00 | 00:00:00 | 08:30:00 | |
| 9A1FER-3 | 2026-09-03 12:21:19 | 45.36229 | 16.50352 | 61° | 15km/h | 19189m | 4.9m/s | -55.9°C | 4.7% | 0hPa | 2.6V | 00:00:00 | 01:16:39 | 00:00:00 | |
| 9A1FER-15 | 2026-09-03 12:21:17 | 45.36225 | 16.50343 | 47° | 15km/h | 19177m | 5.1m/s | -55.9°C | 4.8% | 0hPa | 2.6V | 00:00:00 | 01:16:37 | 00:00:00 | |
| OE3JTB-15 | 2026-09-03 12:21:10 | 45.36203 | 16.50313 | 35° | 13km/h | 19141m | 4.6m/s | -55.7°C | 4.8% | 0hPa | 2.6V | 00:00:00 | 01:16:30 | 00:00:00 | |
| PETON7-10 | 2026-09-03 12:21:08 | 45.36197 | 16.50308 | 32° | 13km/h | 19130m | 4.7m/s | -55.7°C | 4.9% | 0hPa | 2.6V | 00:00:00 | 00:00:00 | 00:00:00 | |
| 9A1FER-3 | 2026-09-03 12:21:04 | 45.36188 | 16.50297 | 52° | 11km/h | 19108m | 5.2m/s | -55.5°C | 4.8% | 0hPa | 2.6V | 00:00:00 | 01:16:24 | 08:30:00 | |
| 9A1FER-3 | 2026-09-03 12:20:49 | 45.36164 | 16.50249 | 71° | 15km/h | 19026m | 5.8m/s | -55.1°C | 4.6% | 0hPa | 2.6V | 00:00:00 | 01:16:09 | 00:00:00 | |
| 9A1FER-15 | 2026-09-03 12:20:47 | 45.36163 | 16.50240 | 80° | 15km/h | 19015m | 7.2m/s | -55.1°C | 4.6% | 0hPa | 2.6V | 00:00:00 | 01:16:07 | 00:00:00 | |
| OE3JTB-15 | 2026-09-03 12:20:41 | 45.36158 | 16.50200 | 83° | 15km/h | 18981m | 4.3m/s | -55.3°C | 4.8% | 0hPa | 2.6V | 00:00:00 | 00:00:00 | 00:00:00 | |
| PETON7-10 | 2026-09-03 12:20:38 | 45.36156 | 16.50184 | 85° | 16km/h | 18966m | 4.1m/s | -55.1°C | 4.7% | 0hPa | 2.7V | 00:00:00 | 00:00:00 | 00:00:00 | |
| 9A1FER-3 | 2026-09-03 12:20:34 | 45.36156 | 16.50168 | 94° | 15km/h | 18944m | 3.8m/s | -55.1°C | 4.6% | 0hPa | 2.7V | 00:00:00 | 01:15:54 | 00:00:00 | |
| 9A1FER-10 | 2026-09-03 12:20:32 | 45.36157 | 16.50158 | 106° | 18km/h | 18932m | 5.2m/s | -55.0°C | 4.5% | 0hPa | 2.7V | 00:00:00 | 01:15:52 | 00:00:00 | |
| PETON7-10 | 2026-09-03 12:20:23 | 45.36168 | 16.50102 | 114° | 16km/h | 18884m | 5.9m/s | -54.5°C | 4.5% | 0hPa | 2.7V | 00:00:00 | 00:00:00 | 00:00:00 | |
| 9A1FER-3 | 2026-09-03 12:20:19 | 45.36171 | 16.50090 | 113° | 16km/h | 18862m | 5.0m/s | -54.3°C | 4.4% | 0hPa | 2.7V | 00:00:00 | 01:15:39 | 00:00:00 | |
| 9A1FER-15 | 2026-09-03 12:20:17 | 45.36175 | 16.50081 | 120° | 16km/h | 18852m | 4.5m/s | -54.3°C | 4.3% | 0hPa | 2.6V | 00:00:00 | 01:15:37 | 00:00:00 | |
| OE3JTB-15 | 2026-09-03 12:20:10 | 45.36190 | 16.50034 | 121° | 20km/h | 18815m | 4.2m/s | -54.3°C | 4.3% | 0hPa | 2.7V | 00:00:00 | 00:00:00 | 00:00:00 | |
| PETON7-10 | 2026-09-03 12:20:09 | 45.36195 | 16.50026 | 139° | 16km/h | 18804m | 5.3m/s | -54.3°C | 4.3% | 0hPa | 2.7V | 00:00:00 | 01:15:28 | 00:00:00 | |
| 9A1FER-3 | 2026-09-03 12:20:04 | 45.36204 | 16.50014 | 129° | 16km/h | 18783m | 4.8m/s | -54.5°C | 4.4% | 0hPa | 2.7V | 00:00:00 | 01:15:24 | 00:00:00 | |
| 9A1FER-15 | 2026-09-03 12:20:02 | 45.36209 | 16.50006 | 132° | 18km/h | 18772m | 4.4m/s | -54.5°C | 4.4% | 0hPa | 2.7V | 00:00:00 | 01:15:22 | 00:00:00 | |
| 9A1FER-10 | 2026-09-03 12:19:54 | 45.36228 | 16.49960 | 111° | 20km/h | 18729m | 6.2m/s | -54.8°C | 4.5% | 0hPa | 2.7V | 00:00:00 | 01:15:14 | 00:00:00 | |
| 9A1FER-3 | 2026-09-03 12:19:49 | 45.36238 | 16.49937 | 133° | 22km/h | 18703m | 5.8m/s | -54.8°C | 4.4% | 0hPa | 2.6V | 00:00:00 | 01:15:09 | 00:00:00 | |
| 9A1FER-15 | 2026-09-03 12:19:47 | 45.36245 | 16.49927 | 136° | 22km/h | 18692m | 5.1m/s | -54.9°C | 4.5% | 0hPa | 2.6V | 00:00:00 | 01:15:07 | 00:00:00 | |
| 9A1FER-10 | 2026-09-03 12:19:39 | 45.36278 | 16.49877 | 133° | 22km/h | 18651m | 5.5m/s | -54.8°C | 4.6% | 0hPa | 2.6V | 00:00:00 | 01:14:59 | 00:00:00 | |
| PETON7-10 | 2026-09-03 12:19:38 | 45.36282 | 16.49872 | 135° | 20km/h | 18646m | 5.2m/s | -54.8°C | 4.5% | 0hPa | 2.6V | 00:00:00 | 00:00:00 | 00:00:00 | |
| OE3JTB-15 | 2026-09-03 12:19:36 | 45.36289 | 16.49861 | 134° | 16km/h | 18635m | 4.5m/s | -54.8°C | 4.5% | 0hPa | 2.6V | 00:00:00 | 01:14:56 | 00:00:00 | |
| 9A1FER-3 | 2026-09-03 12:19:34 | 45.36296 | 16.49850 | 124° | 18km/h | 18624m | 5.1m/s | -54.7°C | 4.5% | 0hPa | 2.6V | 00:00:00 | 01:14:54 | 00:00:00 | |
| 9A1FER-15 | 2026-09-03 12:19:32 | 45.36303 | 16.49835 | 123° | 16km/h | 18612m | 4.2m/s | -54.6°C | 4.5% | 0hPa | 2.7V | 00:00:00 | 01:14:52 | 00:00:00 | |
| 9A1FER-10 | 2026-09-03 12:19:24 | 45.36322 | 16.49786 | 130° | 15km/h | 18571m | 5.2m/s | -54.6°C | 4.4% | 0hPa | 2.7V | 00:00:00 | 01:14:44 | 00:00:00 | |
| PETON7-10 | 2026-09-03 12:19:23 | 45.36324 | 16.49782 | 134° | 13km/h | 18565m | 5.5m/s | -54.7°C | 4.5% | 0hPa | 2.7V | 00:00:00 | 01:14:43 | 00:00:00 | |
| 9A1FER-3 | 2026-09-03 12:19:19 | 45.36333 | 16.49770 | 122° | 13km/h | 18546m | 4.8m/s | -54.6°C | 4.4% | 0hPa | 2.7V | 00:00:00 | 01:14:39 | 00:00:00 | |
| 9A1FER-15 | 2026-09-03 12:19:17 | 45.36336 | 16.49761 | 116° | 13km/h | 18536m | 6.1m/s | -54.7°C | 4.5% | 0hPa | 2.7V | 00:00:00 | 01:14:37 | 00:00:00 | |
| 9A1FER-10 | 2026-09-03 12:19:09 | 45.36349 | 16.49723 | 129° | 22km/h | 18493m | 4.4m/s | -54.7°C | 4.5% | 0hPa | 2.7V | 00:00:00 | 01:14:29 | 08:30:00 | |
| PETON7-10 | 2026-09-03 12:19:08 | 45.36350 | 16.49722 | 118° | 15km/h | 18488m | 5.4m/s | -54.7°C | 4.5% | 0hPa | 2.7V | 00:00:00 | 00:00:00 | 08:30:00 | |
| OE3JTB-15 | 2026-09-03 12:19:07 | 45.36350 | 16.49720 | 106° | 18km/h | 18482m | 5.4m/s | -54.7°C | 4.6% | 0hPa | 2.7V | 00:00:00 | 00:00:00 | 08:30:00 | |
| 9A1FER-3 | 2026-09-03 12:19:04 | 45.36350 | 16.49711 | 88° | 16km/h | 18466m | 4.2m/s | -54.7°C | 4.6% | 0hPa | 2.6V | 00:00:00 | 01:14:24 | 00:00:00 | |
| 9A1FER-15 | 2026-09-03 12:19:02 | 45.36350 | 16.49699 | 98° | 18km/h | 18455m | 4.6m/s | -54.7°C | 4.5% | 0hPa | 2.6V | 00:00:00 | 01:14:22 | 00:00:00 | |
| PETON7-10 | 2026-09-03 12:18:52 | 45.36355 | 16.49644 | 95° | 24km/h | 18403m | 5.3m/s | -54.6°C | 4.5% | 0hPa | 2.6V | 00:00:00 | 00:00:00 | 00:00:00 | |
| 9A1FER-15 | 2026-09-03 12:18:47 | 45.36361 | 16.49603 | 98° | 27km/h | 18376m | 6.9m/s | -54.6°C | 4.4% | 0hPa | 2.6V | 00:00:00 | 01:14:07 | 08:30:00 | |
| OE3JTB-15 | 2026-09-03 12:18:38 | 45.36366 | 16.49521 | 96° | 27km/h | 18326m | 5.1m/s | -54.4°C | 4.4% | 0hPa | 2.6V | 00:00:00 | 00:00:00 | 00:00:00 | |
| PETON7-10 | 2026-09-03 12:18:37 | 45.36367 | 16.49512 | 95° | 27km/h | 18321m | 4.9m/s | -54.6°C | 4.4% | 0hPa | 2.6V | 00:00:00 | 01:13:57 | 00:00:00 | |
| 9A1FER-3 | 2026-09-03 12:18:34 | 45.36368 | 16.49482 | 89° | 27km/h | 18304m | 6.1m/s | -54.9°C | 4.4% | 0hPa | 2.6V | 00:00:00 | 01:13:54 | 00:00:00 | |
| 9A1FER-15 | 2026-09-03 12:18:32 | 45.36367 | 16.49458 | 85° | 27km/h | 18295m | 5.3m/s | -55.0°C | 4.4% | 0hPa | 2.6V | 00:00:00 | 01:13:52 | 00:00:00 | |
| 9A1FER-10 | 2026-09-03 12:18:29 | 45.36364 | 16.49430 | 84° | 27km/h | 18279m | 5.4m/s | -55.0°C | 4.4% | 0hPa | 2.6V | 00:00:00 | 01:13:49 | 00:00:00 | |
| PETON7-10 | 2026-09-03 12:18:22 | 45.36372 | 16.49368 | 116° | 31km/h | 18241m | 5.9m/s | -55.3°C | 4.6% | 0hPa | 2.6V | 00:00:00 | 00:00:00 | 00:00:00 | |
| 9A1FER-3 | 2026-09-03 12:18:19 | 45.36382 | 16.49340 | 116° | 31km/h | 18225m | 5.4m/s | -55.4°C | 4.6% | 0hPa | 2.6V | 00:00:00 | 01:13:39 | 00:00:00 | |
| 9A1FER-15 | 2026-09-03 12:18:17 | 45.36387 | 16.49322 | 108° | 31km/h | 18215m | 5.8m/s | -55.5°C | 4.7% | 0hPa | 2.6V | 00:00:00 | 01:13:37 | 00:00:00 | |
| 9A1FER-10 | 2026-09-03 12:18:14 | 45.36392 | 16.49292 | 106° | 31km/h | 18200m | 4.8m/s | -55.6°C | 4.8% | 0hPa | 2.6V | 00:00:00 | 01:13:34 | 00:00:00 | |
| OE3JTB-15 | 2026-09-03 12:18:09 | 45.36409 | 16.49239 | 124° | 27km/h | 18174m | 4.3m/s | -55.5°C | 4.7% | 0hPa | 2.6V | 00:00:00 | 01:13:29 | 00:00:00 | |
| PETON7-10 | 2026-09-03 12:18:07 | 45.36419 | 16.49218 | 121° | 26km/h | 18164m | 5.0m/s | -55.6°C | 4.7% | 0hPa | 2.6V | 00:00:00 | 00:00:00 | 00:00:00 | |
| 9A1FER-3 | 2026-09-03 12:18:04 | 45.36430 | 16.49187 | 116° | 26km/h | 18148m | 4.5m/s | -55.5°C | 4.7% | 0hPa | 2.6V | 00:00:00 | 01:13:24 | 00:00:00 | |
| 9A1FER-15 | 2026-09-03 12:18:02 | 45.36434 | 16.49169 | 103° | 26km/h | 18138m | 4.5m/s | -55.4°C | 4.6% | 0hPa | 2.7V | 00:00:00 | 01:13:22 | 00:00:00 | |
| 9A1FER-10 | 2026-09-03 12:17:59 | 45.36438 | 16.49147 | 102° | 26km/h | 18123m | 4.9m/s | -55.4°C | 4.6% | 0hPa | 2.6V | 00:00:00 | 01:13:19 | 00:00:00 | |
| PETON7-10 | 2026-09-03 12:17:52 | 45.36461 | 16.49092 | 122° | 29km/h | 18086m | 4.6m/s | -55.4°C | 4.7% | 0hPa | 2.6V | 00:00:00 | 01:13:12 | 00:00:00 | |
| 9A1FER-3 | 2026-09-03 12:17:49 | 45.36473 | 16.49064 | 119° | 29km/h | 18071m | 4.2m/s | -55.6°C | 4.7% | 0hPa | 2.6V | 00:00:00 | 01:13:09 | 00:00:00 | |
| 9A1FER-15 | 2026-09-03 12:17:47 | 45.36478 | 16.49048 | 108° | 31km/h | 18061m | 4.6m/s | -55.7°C | 4.8% | 0hPa | 2.6V | 00:00:00 | 01:13:07 | 00:00:00 | |
| 9A1FER-10 | 2026-09-03 12:17:44 | 45.36486 | 16.49024 | 120° | 33km/h | 18045m | 5.5m/s | -55.8°C | 4.7% | 0hPa | 2.6V | 00:00:00 | 01:13:04 | 00:00:00 | |
| OE3JTB-15 | 2026-09-03 12:17:40 | 45.36504 | 16.48995 | 143° | 33km/h | 18023m | 4.2m/s | -55.7°C | 4.8% | 0hPa | 2.6V | 00:00:00 | 00:00:00 | 00:00:00 | |
| PETON7-10 | 2026-09-03 12:17:37 | 45.36524 | 16.48970 | 133° | 33km/h | 18008m | 4.2m/s | -55.7°C | 4.9% | 0hPa | 2.7V | 00:00:00 | 00:00:00 | 00:00:00 | |
| 9A1FER-3 | 2026-09-03 12:17:34 | 45.36542 | 16.48940 | 125° | 33km/h | 17994m | 4.2m/s | -55.7°C | 4.8% | 0hPa | 2.6V | 00:00:00 | 01:12:54 | 00:00:00 | |
| 9A1FER-15 | 2026-09-03 12:17:32 | 45.36550 | 16.48918 | 114° | 33km/h | 17982m | 5.0m/s | -55.5°C | 4.8% | 0hPa | 2.6V | 00:00:00 | 01:12:52 | 00:00:00 | |
| 9A1FER-10 | 2026-09-03 12:17:29 | 45.36561 | 16.48886 | 122° | 31km/h | 17968m | 3.6m/s | -55.5°C | 4.7% | 0hPa | 2.6V | 00:00:00 | 01:12:49 | 00:00:00 | |
| PETON7-10 | 2026-09-03 12:17:22 | 45.36599 | 16.48829 | 133° | 31km/h | 17934m | 5.0m/s | -55.3°C | 4.6% | 0hPa | 2.6V | 00:00:00 | 00:00:00 | 00:00:00 | |
| 9A1FER-3 | 2026-09-03 12:17:19 | 45.36612 | 16.48798 | 111° | 29km/h | 17920m | 4.5m/s | -55.1°C | 4.5% | 0hPa | 2.6V | 00:00:00 | 01:12:39 | 00:00:00 | |
| 9A1FER-15 | 2026-09-03 12:17:17 | 45.36616 | 16.48777 | 104° | 29km/h | 17910m | 5.8m/s | -55.2°C | 4.5% | 0hPa | 2.7V | 00:00:00 | 01:12:37 | 00:00:00 | |
| 9A1FER-10 | 2026-09-03 12:17:14 | 45.36622 | 16.48746 | 109° | 29km/h | 17896m | 5.4m/s | -55.5°C | 4.5% | 0hPa | 2.6V | 00:00:00 | 01:12:34 | 00:00:00 | |
| OE3JTB-15 | 2026-09-03 12:17:11 | 45.36630 | 16.48722 | 118° | 29km/h | 17882m | 4.9m/s | -55.8°C | 4.7% | 0hPa | 2.7V | 00:00:00 | 00:00:00 | 00:00:00 | |
| PETON7-10 | 2026-09-03 12:17:07 | 45.36643 | 16.48682 | 112° | 27km/h | 17861m | 4.9m/s | -56.3°C | 4.8% | 0hPa | 2.7V | 00:00:00 | 01:12:27 | 00:00:00 | |
| 9A1FER-3 | 2026-09-03 12:17:04 | 45.36652 | 16.48650 | 114° | 27km/h | 17846m | 4.4m/s | -56.3°C | 4.8% | 0hPa | 2.7V | 00:00:00 | 01:12:24 | 00:00:00 | |
| 9A1FER-15 | 2026-09-03 12:17:02 | 45.36658 | 16.48632 | 115° | 29km/h | 17836m | 4.3m/s | -56.3°C | 4.8% | 0hPa | 2.7V | 00:00:00 | 01:12:22 | 00:00:00 | |
| 9A1FER-10 | 2026-09-03 12:16:59 | 45.36666 | 16.48607 | 118° | 27km/h | 17822m | 4.4m/s | -56.4°C | 4.8% | 0hPa | 2.7V | 00:00:00 | 01:12:19 | 00:00:00 | |
| PETON7-10 | 2026-09-03 12:16:52 | 45.36686 | 16.48540 | 115° | 27km/h | 17788m | 5.0m/s | -56.8°C | 4.9% | 0hPa | 2.7V | 00:00:00 | 00:00:00 | 08:30:00 | |
| 9A1FER-3 | 2026-09-03 12:16:49 | 45.36698 | 16.48512 | 129° | 26km/h | 17773m | 4.5m/s | -57.0°C | 5.1% | 0hPa | 2.6V | 00:00:00 | 01:12:09 | 00:00:00 | |
| 9A1FER-15 | 2026-09-03 12:16:47 | 45.36707 | 16.48497 | 135° | 26km/h | 17763m | 5.1m/s | -57.1°C | 5.2% | 0hPa | 2.6V | 00:00:00 | 01:12:07 | 00:00:00 | |
| 9A1FER-10 | 2026-09-03 12:16:44 | 45.36720 | 16.48480 | 134° | 26km/h | 17749m | 4.0m/s | -57.1°C | 5.2% | 0hPa | 2.6V | 00:00:00 | 01:12:04 | 00:00:00 | |
| OE3JTB-15 | 2026-09-03 12:16:42 | 45.36727 | 16.48466 | 121° | 31km/h | 17739m | 3.8m/s | -57.2°C | 5.2% | 0hPa | 2.6V | 00:00:00 | 01:12:02 | 00:00:00 | |
| PETON7-10 | 2026-09-03 12:16:37 | 45.36749 | 16.48430 | 142° | 29km/h | 17714m | 4.6m/s | 0°C | 0% | 0hPa | 2.6V | 00:00:00 | 00:00:00 | 00:00:00 | |
| 9A1FER-3 | 2026-09-03 12:16:34 | 45.36765 | 16.48416 | 154° | 31km/h | 17698m | 5.7m/s | -57.2°C | 5.2% | 0hPa | 2.6V | 00:00:00 | 01:11:54 | 08:30:00 | |
| 9A1FER-15 | 2026-09-03 12:16:32 | 45.36775 | 16.48408 | 150° | 33km/h | 17689m | 4.0m/s | -57.1°C | 5.3% | 0hPa | 2.7V | 00:00:00 | 01:11:52 | 08:30:00 | |
| 9A1FER-10 | 2026-09-03 12:16:29 | 45.36793 | 16.48391 | 143° | 35km/h | 17674m | 4.5m/s | -57.0°C | 5.3% | 0hPa | 2.6V | 00:00:00 | 01:11:49 | 08:30:00 | |
| PETON7-10 | 2026-09-03 12:16:22 | 45.36839 | 16.48334 | 133° | 38km/h | 17636m | 5.4m/s | 0°C | 0% | 0hPa | 2.7V | 00:00:00 | 01:11:42 | 00:00:00 | |
| 9A1FER-3 | 2026-09-03 12:16:19 | 45.36856 | 16.48310 | 139° | 40km/h | 17620m | 4.3m/s | -56.9°C | 5.1% | 0hPa | 2.7V | 00:00:00 | 01:11:39 | 00:00:00 | |
| 9A1FER-15 | 2026-09-03 12:16:17 | 45.36869 | 16.48292 | 133° | 42km/h | 17610m | 5.3m/s | -56.8°C | 5.2% | 0hPa | 2.7V | 00:00:00 | 01:11:37 | 00:00:00 | |
| 9A1FER-10 | 2026-09-03 12:16:14 | 45.36891 | 16.48261 | 139° | 44km/h | 17594m | 4.0m/s | -56.7°C | 5.0% | 0hPa | 2.7V | 00:00:00 | 01:11:34 | 00:00:00 | |
| OE3JTB-15 | 2026-09-03 12:16:13 | 45.36899 | 16.48251 | 138° | 47km/h | 17589m | 5.6m/s | -56.7°C | 5.0% | 0hPa | 2.7V | 00:00:00 | 00:00:00 | 00:00:00 | |
| PETON7-10 | 2026-09-03 12:16:07 | 45.36945 | 16.48190 | 136° | 49km/h | 17556m | 4.4m/s | 0°C | 0% | 0hPa | 2.7V | 00:00:00 | 00:00:00 | 00:00:00 | |
| 9A1FER-3 | 2026-09-03 12:16:04 | 45.36968 | 16.48159 | 138° | 51km/h | 17541m | 4.5m/s | -57.1°C | 5.2% | 0hPa | 2.7V | 00:00:00 | 01:11:24 | 00:00:00 | |
| 9A1FER-15 | 2026-09-03 12:16:02 | 45.36984 | 16.48135 | 130° | 53km/h | 17531m | 5.7m/s | -57.1°C | 5.2% | 0hPa | 2.7V | 00:00:00 | 00:00:00 | 00:00:00 | |
| 9A1FER-10 | 2026-09-03 12:15:59 | 45.37007 | 16.48093 | 126° | 53km/h | 17515m | 4.2m/s | -57.0°C | 5.1% | 0hPa | 2.7V | 00:00:00 | 01:11:19 | 00:00:00 | |
| PETON7-10 | 2026-09-03 12:15:52 | 45.37058 | 16.47979 | 121° | 51km/h | 17478m | 4.4m/s | 0°C | 0% | 0hPa | 2.7V | 00:00:00 | 00:00:00 | 00:00:00 | |
| 9A1FER-3 | 2026-09-03 12:15:49 | 45.37080 | 16.47931 | 126° | 49km/h | 17462m | 4.6m/s | -56.9°C | 5.3% | 0hPa | 2.7V | 00:00:00 | 01:11:09 | 00:00:00 | |
| 9A1FER-15 | 2026-09-03 12:15:47 | 45.37094 | 16.47901 | 123° | 47km/h | 17451m | 4.5m/s | -56.8°C | 5.3% | 0hPa | 2.7V | 00:00:00 | 01:11:07 | 00:00:00 | |
| 9A1FER-10 | 2026-09-03 12:15:44 | 45.37116 | 16.47855 | 125° | 46km/h | 17436m | 5.7m/s | -56.9°C | 5.2% | 0hPa | 2.6V | 00:00:00 | 01:11:04 | 00:00:00 | |
| PETON7-10 | 2026-09-03 12:15:37 | 45.37168 | 16.47755 | 130° | 42km/h | 17399m | 6.1m/s | 0°C | 0% | 0hPa | 2.7V | 00:00:00 | 01:10:57 | 00:00:00 | |
| 9A1FER-3 | 2026-09-03 12:15:34 | 45.37187 | 16.47718 | 125° | 42km/h | 17383m | 4.5m/s | -56.7°C | 5.0% | 0hPa | 2.7V | 00:00:00 | 01:10:54 | 00:00:00 | |
| 9A1FER-15 | 2026-09-03 12:15:32 | 45.37200 | 16.47693 | 124° | 40km/h | 17373m | 4.2m/s | -56.7°C | 5.1% | 0hPa | 2.7V | 00:00:00 | 01:10:52 | 00:00:00 | |
| 9A1FER-10 | 2026-09-03 12:15:29 | 45.37217 | 16.47653 | 123° | 40km/h | 17358m | 5.0m/s | -56.7°C | 5.2% | 0hPa | 2.7V | 00:00:00 | 01:10:49 | 00:00:00 | |
| PETON7-10 | 2026-09-03 12:15:20 | 45.37279 | 16.47556 | 125° | 37km/h | 17312m | 5.3m/s | 0°C | 0% | 0hPa | 2.7V | 00:00:00 | 00:00:00 | 00:00:00 | |
| 9A1FER-3 | 2026-09-03 12:15:19 | 45.37284 | 16.47545 | 120° | 37km/h | 17307m | 4.5m/s | -56.3°C | 4.8% | 0hPa | 2.7V | 00:00:00 | 01:10:39 | 00:00:00 | |
| 9A1FER-15 | 2026-09-03 12:15:17 | 45.37292 | 16.47521 | 116° | 37km/h | 17296m | 4.9m/s | -56.4°C | 4.9% | 0hPa | 2.7V | 00:00:00 | 01:10:37 | 00:00:00 | |
| 9A1FER-10 | 2026-09-03 12:15:14 | 45.37306 | 16.47485 | 123° | 37km/h | 17281m | 4.8m/s | -56.4°C | 5.1% | 0hPa | 2.7V | 00:00:00 | 01:10:34 | 00:00:00 | |
| 9A1FER-3 | 2026-09-03 12:15:04 | 45.37368 | 16.47392 | 124° | 37km/h | 17231m | 4.4m/s | -56.3°C | 5.0% | 0hPa | 2.7V | 00:00:00 | 01:10:24 | 00:00:00 | |
| 9A1FER-10 | 2026-09-03 12:14:59 | 45.37395 | 16.47338 | 130° | 40km/h | 17205m | 6.1m/s | -56.4°C | 5.0% | 0hPa | 2.7V | 00:00:00 | 01:10:19 | 00:00:00 | |
| PETON7-10 | 2026-09-03 12:14:58 | 45.37401 | 16.47329 | 133° | 40km/h | 17200m | 4.2m/s | 0°C | 0% | 0hPa | 2.7V | 00:00:00 | 00:00:00 | 00:00:00 | |
| 9A1FER-3 | 2026-09-03 12:14:49 | 45.37451 | 16.47229 | 120° | 42km/h | 17154m | 5.2m/s | -56.4°C | 5.0% | 0hPa | 2.7V | 00:00:00 | 01:10:09 | 00:00:00 | |
| 9A1FER-15 | 2026-09-03 12:14:47 | 45.37463 | 16.47201 | 123° | 42km/h | 17143m | 3.7m/s | -56.4°C | 5.1% | 0hPa | 2.7V | 00:00:00 | 01:10:07 | 00:00:00 | |
| OE3JTB-15 | 2026-09-03 12:14:45 | 45.37475 | 16.47174 | 121° | 40km/h | 17133m | 4.5m/s | -56.2°C | 5.0% | 0hPa | 2.7V | 00:00:00 | 00:00:00 | 08:30:00 | |
| 9A1FER-10 | 2026-09-03 12:14:44 | 45.37480 | 16.47160 | 120° | 40km/h | 17129m | 3.9m/s | -56.3°C | 5.0% | 0hPa | 2.7V | 00:00:00 | 01:10:04 | 00:00:00 | |
| PETON7-10 | 2026-09-03 12:14:41 | 45.37499 | 16.47119 | 126° | 42km/h | 17115m | 4.1m/s | 0°C | 0% | 0hPa | 2.7V | 00:00:00 | 01:10:01 | 00:00:00 | |
| 9A1FER-3 | 2026-09-03 12:14:34 | 45.37538 | 16.47036 | 121° | 38km/h | 17080m | 6.1m/s | -56.6°C | 5.0% | 0hPa | 2.7V | 00:00:00 | 01:09:54 | 00:00:00 | |
| 9A1FER-15 | 2026-09-03 12:14:32 | 45.37549 | 16.47012 | 121° | 38km/h | 17069m | 5.2m/s | -56.5°C | 5.0% | 0hPa | 2.7V | 00:00:00 | 01:09:52 | 00:00:00 | |
| 9A1FER-10 | 2026-09-03 12:14:29 | 45.37564 | 16.46975 | 125° | 38km/h | 17055m | 5.6m/s | -56.4°C | 5.0% | 0hPa | 2.7V | 00:00:00 | 01:09:49 | 00:00:00 | |
| PETON7-10 | 2026-09-03 12:14:23 | 45.37601 | 16.46908 | 134° | 35km/h | 17026m | 4.2m/s | 0°C | 0% | 0hPa | 2.7V | 00:00:00 | 00:00:00 | 08:30:00 | |
| 9A1FER-3 | 2026-09-03 12:14:19 | 45.37626 | 16.46873 | 136° | 42km/h | 17007m | 5.4m/s | -56.4°C | 5.1% | 0hPa | 2.7V | 00:00:00 | 01:09:39 | 08:30:00 | |
| 9A1FER-15 | 2026-09-03 12:14:17 | 45.37640 | 16.46852 | 131° | 42km/h | 16998m | 4.6m/s | -56.4°C | 5.1% | 0hPa | 2.6V | 00:00:00 | 01:09:37 | 08:30:00 | |
| OE3JTB-15 | 2026-09-03 12:14:16 | 45.37646 | 16.46841 | 128° | 42km/h | 16993m | 5.3m/s | -56.4°C | 5.1% | 0hPa | 2.7V | 00:00:00 | 00:00:00 | 00:00:00 | |
| 9A1FER-10 | 2026-09-03 12:14:14 | 45.37659 | 16.46817 | 126° | 42km/h | 16983m | 5.6m/s | -56.4°C | 5.0% | 0hPa | 2.7V | 00:00:00 | 01:09:34 | 08:30:00 | |
| 9A1FER-3 | 2026-09-03 12:14:04 | 45.37721 | 16.46694 | 123° | 44km/h | 16932m | 4.4m/s | -56.6°C | 4.9% | 0hPa | 2.6V | 00:00:00 | 01:09:24 | 00:00:00 | |
| 9A1FER-15 | 2026-09-03 12:14:02 | 45.37732 | 16.46668 | 118° | 42km/h | 16922m | 5.0m/s | -56.6°C | 5.0% | 0hPa | 2.6V | 00:00:00 | 01:09:22 | 00:00:00 | |
| 9A1FER-10 | 2026-09-03 12:13:59 | 45.37747 | 16.46625 | 114° | 44km/h | 16906m | 4.8m/s | -56.7°C | 5.0% | 0hPa | 2.6V | 00:00:00 | 01:09:19 | 00:00:00 | |
| 9A1FER-3 | 2026-09-03 12:13:49 | 45.37780 | 16.46479 | 104° | 44km/h | 16855m | 5.8m/s | -56.9°C | 5.3% | 0hPa | 2.6V | 00:00:00 | 01:09:09 | 00:00:00 | |
| 9A1FER-15 | 2026-09-03 12:13:47 | 45.37785 | 16.46451 | 104° | 44km/h | 16845m | 5.5m/s | -56.9°C | 5.3% | 0hPa | 2.6V | 00:00:00 | 01:09:07 | 00:00:00 | |
| 9A1FER-10 | 2026-09-03 12:13:44 | 45.37793 | 16.46401 | 101° | 42km/h | 16831m | 5.7m/s | -57.0°C | 5.3% | 0hPa | 2.6V | 00:00:00 | 01:09:04 | 00:00:00 | |
| 9A1FER-3 | 2026-09-03 12:13:34 | 45.37812 | 16.46243 | 106° | 37km/h | 16783m | 4.0m/s | -56.7°C | 5.1% | 0hPa | 2.6V | 00:00:00 | 01:08:54 | 00:00:00 | |
| 9A1FER-15 | 2026-09-03 12:13:32 | 45.37818 | 16.46217 | 110° | 35km/h | 16771m | 6.0m/s | -56.6°C | 5.0% | 0hPa | 2.6V | 00:00:00 | 01:08:52 | 00:00:00 | |
| 9A1FER-10 | 2026-09-03 12:13:29 | 45.37827 | 16.46180 | 113° | 33km/h | 16755m | 5.2m/s | -56.5°C | 5.1% | 0hPa | 2.6V | 00:00:00 | 01:08:49 | 00:00:00 | |
| 9A1FER-3 | 2026-09-03 12:13:19 | 45.37865 | 16.46066 | 122° | 29km/h | 16700m | 5.9m/s | -56.2°C | 5.0% | 0hPa | 2.7V | 00:00:00 | 01:08:39 | 00:00:00 | |
| OE3JTB-15 | 2026-09-03 12:13:18 | 45.37869 | 16.46058 | 121° | 27km/h | 16695m | 4.6m/s | -56.2°C | 5.0% | 0hPa | 2.7V | 00:00:00 | 00:00:00 | 00:00:00 | |
| 9A1FER-15 | 2026-09-03 12:13:17 | 45.37872 | 16.46049 | 119° | 29km/h | 16690m | 5.8m/s | -56.1°C | 5.0% | 0hPa | 2.7V | 00:00:00 | 01:08:37 | 00:00:00 | |
| 9A1FER-10 | 2026-09-03 12:13:14 | 45.37884 | 16.46021 | 123° | 29km/h | 16675m | 3.6m/s | -56.0°C | 4.9% | 0hPa | 2.7V | 00:00:00 | 01:08:34 | 00:00:00 | |
| 9A1FER-3 | 2026-09-03 12:13:04 | 45.37925 | 16.45930 | 134° | 26km/h | 16625m | 4.6m/s | -55.9°C | 4.8% | 0hPa | 2.7V | 00:00:00 | 01:08:24 | 00:00:00 | |
| 9A1FER-15 | 2026-09-03 12:13:02 | 45.37934 | 16.45915 | 127° | 26km/h | 16615m | 4.4m/s | -55.8°C | 4.8% | 0hPa | 2.7V | 00:00:00 | 01:08:22 | 00:00:00 | |
| 9A1FER-10 | 2026-09-03 12:12:59 | 45.37947 | 16.45891 | 126° | 27km/h | 16599m | 5.7m/s | -55.9°C | 4.8% | 0hPa | 2.7V | 00:00:00 | 01:08:19 | 00:00:00 | |
| 9A1FER-3 | 2026-09-03 12:12:49 | 45.37992 | 16.45828 | 141° | 33km/h | 16552m | 4.7m/s | -55.8°C | 5.0% | 0hPa | 2.7V | 00:00:00 | 01:08:09 | 00:00:00 | |
| 9A1FER-15 | 2026-09-03 12:12:47 | 45.38003 | 16.45814 | 131° | 33km/h | 16541m | 4.3m/s | -55.8°C | 5.0% | 0hPa | 2.6V | 00:00:00 | 01:08:07 | 00:00:00 | |
| 9A1FER-10 | 2026-09-03 12:12:44 | 45.38020 | 16.45786 | 135° | 37km/h | 16527m | 4.5m/s | -55.8°C | 4.9% | 0hPa | 2.6V | 00:00:00 | 01:08:04 | 00:00:00 | |
| 9A1FER-3 | 2026-09-03 12:12:34 | 45.38090 | 16.45727 | 150° | 46km/h | 16473m | 6.2m/s | -55.5°C | 5.0% | 0hPa | 2.6V | 00:00:00 | 01:07:54 | 00:00:00 | |
| 9A1FER-15 | 2026-09-03 12:12:32 | 45.38106 | 16.45711 | 143° | 47km/h | 16463m | 4.6m/s | -55.4°C | 4.9% | 0hPa | 2.6V | 00:00:00 | 01:07:52 | 00:00:00 | |
| 9A1FER-10 | 2026-09-03 12:12:30 | 45.38135 | 16.45680 | 145° | 47km/h | 16446m | 6.3m/s | -55.5°C | 4.9% | 0hPa | 2.6V | 00:00:00 | 01:07:49 | 00:00:00 | |
| OE3JTB-15 | 2026-09-03 12:12:20 | 45.38228 | 16.45613 | 159° | 60km/h | 16394m | 6.7m/s | -55.1°C | 4.7% | 0hPa | 2.6V | 00:00:00 | 01:07:40 | 00:00:00 | |
| 9A1FER-3 | 2026-09-03 12:12:19 | 45.38240 | 16.45606 | 161° | 55km/h | 16388m | 6.7m/s | -55.1°C | 4.7% | 0hPa | 2.6V | 00:00:00 | 01:07:39 | 00:00:00 | |
| 9A1FER-15 | 2026-09-03 12:12:17 | 45.38265 | 16.45592 | 156° | 55km/h | 16377m | 5.2m/s | -55.0°C | 4.7% | 0hPa | 2.6V | 00:00:00 | 01:07:37 | 00:00:00 | |
| 9A1FER-10 | 2026-09-03 12:12:14 | 45.38295 | 16.45564 | 140° | 58km/h | 16360m | 5.2m/s | -55.1°C | 4.7% | 0hPa | 2.6V | 00:00:00 | 01:07:34 | 00:00:00 | |
| 9A1FER-3 | 2026-09-03 12:12:04 | 45.38410 | 16.45443 | 150° | 69km/h | 16303m | 5.9m/s | -55.7°C | 4.8% | 0hPa | 2.6V | 00:00:00 | 01:07:24 | 08:30:00 | |
| 9A1FER-15 | 2026-09-03 12:12:02 | 45.38434 | 16.45423 | 151° | 73km/h | 16292m | 4.5m/s | -55.8°C | 4.9% | 0hPa | 2.6V | 00:00:00 | 01:07:22 | 08:30:00 | |
| 9A1FER-10 | 2026-09-03 12:11:59 | 45.38478 | 16.45385 | 148° | 73km/h | 16274m | 5.2m/s | -56.2°C | 5.0% | 0hPa | 2.6V | 00:00:00 | 01:07:19 | 08:30:00 | |
| OE3JTB-15 | 2026-09-03 12:11:51 | 45.38597 | 16.45254 | 137° | 69km/h | 16232m | 4.8m/s | -56.1°C | 4.9% | 0hPa | 2.6V | 00:00:00 | 00:00:00 | 00:00:00 | |
| 9A1FER-3 | 2026-09-03 12:11:49 | 45.38623 | 16.45219 | 137° | 73km/h | 16221m | 4.9m/s | -56.1°C | 5.0% | 0hPa | 2.7V | 00:00:00 | 01:07:09 | 00:00:00 | |
| 9A1FER-15 | 2026-09-03 12:11:47 | 45.38650 | 16.45184 | 139° | 71km/h | 16211m | 4.8m/s | -56.1°C | 5.0% | 0hPa | 2.7V | 00:00:00 | 01:07:07 | 00:00:00 | |
| 9A1FER-10 | 2026-09-03 12:11:44 | 45.38692 | 16.45131 | 138° | 71km/h | 16198m | 4.5m/s | -56.1°C | 5.0% | 0hPa | 2.7V | 00:00:00 | 01:07:04 | 00:00:00 | |
| 9A1FER-3 | 2026-09-03 12:11:34 | 45.38819 | 16.44949 | 137° | 66km/h | 16150m | 3.9m/s | -56.2°C | 5.1% | 0hPa | 2.7V | 00:00:00 | 01:06:54 | 00:00:00 | |
| 9A1FER-15 | 2026-09-03 12:11:32 | 45.38843 | 16.44916 | 136° | 66km/h | 16141m | 4.4m/s | -56.2°C | 5.1% | 0hPa | 2.7V | 00:00:00 | 01:06:52 | 00:00:00 | |
| 9A1FER-10 | 2026-09-03 12:11:29 | 45.38880 | 16.44862 | 135° | 66km/h | 16128m | 3.3m/s | -56.3°C | 5.1% | 0hPa | 2.7V | 00:00:00 | 01:06:49 | 00:00:00 | |
| OE3JTB-15 | 2026-09-03 12:11:22 | 45.38960 | 16.44745 | 134° | 62km/h | 16095m | 5.6m/s | -56.3°C | 5.0% | 0hPa | 2.7V | 00:00:00 | 00:00:00 | 00:00:00 | |
| 9A1FER-3 | 2026-09-03 12:11:19 | 45.38992 | 16.44694 | 131° | 62km/h | 16081m | 4.3m/s | -56.2°C | 5.0% | 0hPa | 2.7V | 00:00:00 | 01:06:39 | 00:00:00 | |
| 9A1FER-15 | 2026-09-03 12:11:17 | 45.39015 | 16.44657 | 132° | 62km/h | 16072m | 4.9m/s | -56.2°C | 5.1% | 0hPa | 2.6V | 00:00:00 | 01:06:37 | 00:00:00 | |
| 9A1FER-10 | 2026-09-03 12:11:14 | 45.39047 | 16.44602 | 127° | 62km/h | 16059m | 5.0m/s | -56.3°C | 5.1% | 0hPa | 2.6V | 00:00:00 | 01:06:34 | 00:00:00 | |
| 9A1FER-3 | 2026-09-03 12:11:04 | 45.39130 | 16.44422 | 124° | 57km/h | 16011m | 3.6m/s | -56.6°C | 5.3% | 0hPa | 2.6V | 00:00:00 | 01:06:24 | 00:00:00 | |
| 9A1FER-15 | 2026-09-03 12:11:02 | 45.39149 | 16.44385 | 127° | 55km/h | 16002m | 5.3m/s | -56.6°C | 5.4% | 0hPa | 2.6V | 00:00:00 | 01:06:22 | 00:00:00 | |
| 9A1FER-10 | 2026-09-03 12:10:59 | 45.39178 | 16.44329 | 127° | 53km/h | 15988m | 5.7m/s | -56.5°C | 5.3% | 0hPa | 2.6V | 00:00:00 | 01:06:19 | 00:00:00 | |
| OE3JTB-15 | 2026-09-03 12:10:53 | 45.39222 | 16.44224 | 113° | 51km/h | 15954m | 6.5m/s | -56.2°C | 5.1% | 0hPa | 2.6V | 00:00:00 | 01:06:13 | 00:00:00 | |
| 9A1FER-3 | 2026-09-03 12:10:49 | 45.39236 | 16.44159 | 109° | 53km/h | 15929m | 6.2m/s | -56.1°C | 5.1% | 0hPa | 2.6V | 00:00:00 | 01:06:09 | 00:00:00 | |
| 9A1FER-15 | 2026-09-03 12:10:47 | 45.39246 | 16.44125 | 115° | 55km/h | 15917m | 6.3m/s | -56.1°C | 5.1% | 0hPa | 2.6V | 00:00:00 | 01:06:07 | 00:00:00 | |
| 9A1FER-10 | 2026-09-03 12:10:44 | 45.39264 | 16.44075 | 120° | 55km/h | 15899m | 6.2m/s | -56.2°C | 5.2% | 0hPa | 2.6V | 00:00:00 | 01:06:04 | 00:00:00 | |
| 9A1FER-3 | 2026-09-03 12:10:34 | 45.39306 | 16.43892 | 97° | 49km/h | 15840m | 3.8m/s | -56.6°C | 5.3% | 0hPa | 2.6V | 00:00:00 | 01:05:54 | 00:00:00 | |
| 9A1FER-15 | 2026-09-03 12:10:32 | 45.39308 | 16.43851 | 96° | 47km/h | 15831m | 4.3m/s | -56.5°C | 5.2% | 0hPa | 2.6V | 00:00:00 | 01:05:52 | 00:00:00 | |
| 9A1FER-10 | 2026-09-03 12:10:29 | 45.39315 | 16.43796 | 103° | 46km/h | 15815m | 6.4m/s | -56.6°C | 5.3% | 0hPa | 2.6V | 00:00:00 | 01:05:49 | 00:00:00 | |
| OE3JTB-15 | 2026-09-03 12:10:24 | 45.39331 | 16.43716 | 105° | 46km/h | 15788m | 4.4m/s | -56.7°C | 5.5% | 0hPa | 2.7V | 00:00:00 | 00:00:00 | 08:30:00 | |
| 9A1FER-3 | 2026-09-03 12:10:19 | 45.39341 | 16.43631 | 95° | 46km/h | 15765m | 4.9m/s | -56.6°C | 5.5% | 0hPa | 2.6V | 00:00:00 | 01:05:39 | 00:00:00 | |
| 9A1FER-15 | 2026-09-03 12:10:17 | 45.39343 | 16.43598 | 96° | 46km/h | 15755m | 5.3m/s | -56.7°C | 5.6% | 0hPa | 2.6V | 00:00:00 | 01:05:37 | 00:00:00 | |
| 9A1FER-10 | 2026-09-03 12:10:14 | 45.39350 | 16.43552 | 105° | 46km/h | 15740m | 5.6m/s | -56.4°C | 5.6% | 0hPa | 2.6V | 00:00:00 | 01:05:34 | 00:00:00 | |
| 9A1FER-3 | 2026-09-03 12:10:04 | 45.39381 | 16.43396 | 106° | 47km/h | 15688m | 4.9m/s | -56.1°C | 5.4% | 0hPa | 2.6V | 00:00:00 | 01:05:24 | 00:00:00 | |
| 9A1FER-15 | 2026-09-03 12:10:02 | 45.39389 | 16.43364 | 113° | 46km/h | 15679m | 3.8m/s | -56.0°C | 5.3% | 0hPa | 2.6V | 00:00:00 | 01:05:22 | 00:00:00 | |
| 9A1FER-10 | 2026-09-03 12:09:59 | 45.39401 | 16.43319 | 108° | 47km/h | 15663m | 5.5m/s | -55.9°C | 5.4% | 0hPa | 2.6V | 00:00:00 | 01:05:19 | 00:00:00 | |
| OE3JTB-15 | 2026-09-03 12:09:55 | 45.39417 | 16.43256 | 111° | 53km/h | 15643m | 6.0m/s | -55.8°C | 5.3% | 0hPa | 2.6V | 00:00:00 | 00:00:00 | 00:00:00 | |
| 9A1FER-3 | 2026-09-03 12:09:49 | 45.39445 | 16.43163 | 113° | 53km/h | 15611m | 5.0m/s | -56.2°C | 5.4% | 0hPa | 2.6V | 00:00:00 | 01:05:09 | 08:30:00 | |
| 9A1FER-15 | 2026-09-03 12:09:48 | 45.39454 | 16.43134 | 115° | 53km/h | 15600m | 4.8m/s | -56.2°C | 5.4% | 0hPa | 2.6V | 00:00:00 | 01:05:07 | 08:30:00 | |
| 9A1FER-10 | 2026-09-03 12:09:44 | 45.39469 | 16.43085 | 115° | 55km/h | 15585m | 5.3m/s | -56.3°C | 5.5% | 0hPa | 2.7V | 00:00:00 | 01:05:04 | 08:30:00 | |
| 9A1FER-3 | 2026-09-03 12:09:34 | 45.39540 | 16.42914 | 120° | 57km/h | 15534m | 3.5m/s | -56.3°C | 5.4% | 0hPa | 2.7V | 00:00:00 | 01:04:54 | 00:00:00 | |
| 9A1FER-15 | 2026-09-03 12:09:32 | 45.39554 | 16.42881 | 124° | 57km/h | 15524m | 5.2m/s | -56.3°C | 5.6% | 0hPa | 2.7V | 00:00:00 | 01:04:52 | 00:00:00 | |
| 9A1FER-10 | 2026-09-03 12:09:29 | 45.39578 | 16.42832 | 126° | 58km/h | 15510m | 4.6m/s | -56.2°C | 5.6% | 0hPa | 2.7V | 00:00:00 | 01:04:49 | 00:00:00 | |
| OE3JTB-15 | 2026-09-03 12:09:25 | 45.39612 | 16.42769 | 129° | 66km/h | 15491m | 5.9m/s | -56.4°C | 5.6% | 0hPa | 2.7V | 00:00:00 | 01:04:45 | 00:00:00 | |
| 9A1FER-3 | 2026-09-03 12:09:19 | 45.39669 | 16.42673 | 129° | 66km/h | 15460m | 5.5m/s | -56.8°C | 5.7% | 0hPa | 2.7V | 00:00:00 | 01:04:39 | 00:00:00 | |
| 9A1FER-15 | 2026-09-03 12:09:17 | 45.39687 | 16.42638 | 129° | 68km/h | 15450m | 5.6m/s | -56.8°C | 5.7% | 0hPa | 2.7V | 00:00:00 | 01:04:37 | 00:00:00 | |
| 9A1FER-10 | 2026-09-03 12:09:14 | 45.39718 | 16.42583 | 128° | 68km/h | 15434m | 4.8m/s | -57.0°C | 5.8% | 0hPa | 2.7V | 00:00:00 | 01:04:34 | 00:00:00 | |
| 9A1FER-3 | 2026-09-03 12:09:04 | 45.39816 | 16.42381 | 123° | 66km/h | 15384m | 5.9m/s | -57.1°C | 6.0% | 0hPa | 2.7V | 00:00:00 | 01:04:24 | 00:00:00 | |
| 9A1FER-15 | 2026-09-03 12:09:02 | 45.39834 | 16.42341 | 121° | 64km/h | 15374m | 6.0m/s | -57.3°C | 6.2% | 0hPa | 2.6V | 00:00:00 | 01:04:22 | 00:00:00 | |
| 9A1FER-10 | 2026-09-03 12:08:59 | 45.39860 | 16.42279 | 122° | 64km/h | 15358m | 4.9m/s | -57.5°C | 6.4% | 0hPa | 2.7V | 00:00:00 | 01:04:19 | 00:00:00 | |
| OE3JTB-15 | 2026-09-03 12:08:56 | 45.39885 | 16.42216 | 119° | 64km/h | 15343m | 5.0m/s | 0°C | 0% | 0hPa | 2.7V | 00:00:00 | 00:00:00 | 00:00:00 | |
| 9A1FER-3 | 2026-09-03 12:08:49 | 45.39934 | 16.42074 | 118° | 62km/h | 15308m | 4.4m/s | -57.3°C | 6.2% | 0hPa | 2.7V | 00:00:00 | 01:04:09 | 00:00:00 | |
| 9A1FER-15 | 2026-09-03 12:08:47 | 45.39948 | 16.42033 | 118° | 62km/h | 15298m | 4.1m/s | -57.2°C | 6.2% | 0hPa | 2.7V | 00:00:00 | 01:04:07 | 00:00:00 | |
| 9A1FER-10 | 2026-09-03 12:08:44 | 45.39973 | 16.41974 | 124° | 62km/h | 15283m | 4.4m/s | -57.2°C | 6.2% | 0hPa | 2.7V | 00:00:00 | 01:04:04 | 00:00:00 | |
| 9A1FER-3 | 2026-09-03 12:08:34 | 45.40062 | 16.41791 | 129° | 66km/h | 15230m | 5.2m/s | -57.5°C | 6.5% | 0hPa | 2.7V | 00:00:00 | 01:03:54 | 00:00:00 | |
| 9A1FER-15 | 2026-09-03 12:08:32 | 45.40081 | 16.41758 | 127° | 68km/h | 15219m | 5.2m/s | -57.5°C | 6.6% | 0hPa | 2.7V | 00:00:00 | 01:03:52 | 00:00:00 | |
| 9A1FER-10 | 2026-09-03 12:08:29 | 45.40110 | 16.41703 | 129° | 68km/h | 15204m | 4.0m/s | -57.5°C | 6.8% | 0hPa | 2.7V | 00:00:00 | 01:03:49 | 00:00:00 | |
| OE3JTB-15 | 2026-09-03 12:08:27 | 45.40142 | 16.41642 | 126° | 69km/h | 15188m | 6.0m/s | 0°C | 0% | 0hPa | 2.7V | 00:00:00 | 00:00:00 | 00:00:00 | |
| 9A1FER-3 | 2026-09-03 12:08:19 | 45.40212 | 16.41504 | 127° | 69km/h | 15152m | 4.4m/s | -57.5°C | 6.7% | 0hPa | 2.7V | 00:00:00 | 01:03:39 | 00:00:00 | |
| 9A1FER-15 | 2026-09-03 12:08:17 | 45.40233 | 16.41468 | 132° | 69km/h | 15143m | 4.2m/s | -57.4°C | 6.8% | 0hPa | 2.7V | 00:00:00 | 01:03:37 | 00:00:00 | |
| 9A1FER-10 | 2026-09-03 12:08:14 | 45.40268 | 16.41411 | 130° | 71km/h | 15129m | 4.4m/s | -57.4°C | 6.8% | 0hPa | 2.7V | 00:00:00 | 01:03:34 | 00:00:00 | |
| 9A1FER-3 | 2026-09-03 12:08:04 | 45.40382 | 16.41220 | 132° | 71km/h | 15080m | 5.8m/s | -57.4°C | 6.8% | 0hPa | 2.6V | 00:00:00 | 01:03:24 | 00:00:00 | |
| 9A1FER-15 | 2026-09-03 12:08:02 | 45.40405 | 16.41182 | 131° | 73km/h | 15071m | 4.6m/s | -57.3°C | 6.8% | 0hPa | 2.6V | 00:00:00 | 01:03:22 | 00:00:00 | |
| 9A1FER-10 | 2026-09-03 12:07:59 | 45.40440 | 16.41120 | 129° | 73km/h | 15056m | 4.8m/s | -57.2°C | 6.9% | 0hPa | 2.6V | 00:00:00 | 01:03:19 | 00:00:00 | |
| OE3JTB-15 | 2026-09-03 12:07:58 | 45.40451 | 16.41099 | 128° | 78km/h | 15052m | 3.8m/s | 0°C | 0% | 0hPa | 2.6V | 00:00:00 | 01:03:18 | 00:00:00 | |
| 9A1FER-3 | 2026-09-03 12:07:49 | 45.40549 | 16.40914 | 127° | 78km/h | 15010m | 4.5m/s | -57.1°C | 6.6% | 0hPa | 2.6V | 00:00:00 | 01:03:09 | 00:00:00 | |
| 9A1FER-15 | 2026-09-03 12:07:47 | 45.40572 | 16.40870 | 127° | 80km/h | 15000m | 5.0m/s | -57.2°C | 6.6% | 0hPa | 2.6V | 00:00:00 | 01:03:07 | 00:00:00 | |
| 9A1FER-10 | 2026-09-03 12:07:44 | 45.40607 | 16.40804 | 128° | 82km/h | 14985m | 4.2m/s | -57.3°C | 6.9% | 0hPa | 2.6V | 00:00:00 | 01:03:04 | 00:00:00 | |
| 9A1FER-3 | 2026-09-03 12:07:34 | 45.40716 | 16.40558 | 122° | 80km/h | 14938m | 5.3m/s | -57.4°C | 7.0% | 0hPa | 2.6V | 00:00:00 | 01:02:54 | 08:30:00 | |
| 9A1FER-15 | 2026-09-03 12:07:32 | 45.40739 | 16.40507 | 125° | 78km/h | 14929m | 3.4m/s | -57.3°C | 6.9% | 0hPa | 2.7V | 00:00:00 | 01:02:52 | 08:30:00 | |
| 9A1FER-10 | 2026-09-03 12:07:29 | 45.40774 | 16.40434 | 124° | 78km/h | 14915m | 5.0m/s | -57.5°C | 7.0% | 0hPa | 2.7V | 00:00:00 | 01:02:49 | 08:30:00 | |
| 9A1FER-3 | 2026-09-03 12:07:19 | 45.40878 | 16.40195 | 123° | 77km/h | 14866m | 4.0m/s | -57.3°C | 6.8% | 0hPa | 2.7V | 00:00:00 | 01:02:39 | 00:00:00 | |
| 9A1FER-15 | 2026-09-03 12:07:17 | 45.40899 | 16.40147 | 123° | 77km/h | 14856m | 4.4m/s | -57.2°C | 6.7% | 0hPa | 2.7V | 00:00:00 | 01:02:37 | 00:00:00 | |
| 9A1FER-10 | 2026-09-03 12:07:14 | 45.40932 | 16.40079 | 126° | 78km/h | 14841m | 6.0m/s | -57.2°C | 6.8% | 0hPa | 2.7V | 00:00:00 | 01:02:34 | 00:00:00 | |
| 9A1FER-3 | 2026-09-03 12:07:04 | 45.41043 | 16.39850 | 123° | 78km/h | 14792m | 5.6m/s | -57.5°C | 7.4% | 0hPa | 2.7V | 00:00:00 | 01:02:24 | 00:00:00 | |
| 9A1FER-15 | 2026-09-03 12:07:02 | 45.41064 | 16.39802 | 124° | 78km/h | 14782m | 4.9m/s | -57.4°C | 7.3% | 0hPa | 2.7V | 00:00:00 | 01:02:22 | 00:00:00 | |
| 9A1FER-10 | 2026-09-03 12:06:59 | 45.41100 | 16.39732 | 127° | 77km/h | 14768m | 5.6m/s | -57.5°C | 7.1% | 0hPa | 2.7V | 00:00:00 | 01:02:19 | 00:00:00 | |
| 9A1FER-3 | 2026-09-03 12:06:49 | 45.41212 | 16.39503 | 122° | 75km/h | 14721m | 5.0m/s | -57.2°C | 7.1% | 0hPa | 2.7V | 00:00:00 | 01:02:09 | 00:00:00 | |
| 9A1FER-15 | 2026-09-03 12:06:47 | 45.41232 | 16.39457 | 123° | 75km/h | 14711m | 5.7m/s | -57.2°C | 7.1% | 0hPa | 2.7V | 00:00:00 | 01:02:07 | 00:00:00 | |
| 9A1FER-10 | 2026-09-03 12:06:44 | 45.41263 | 16.39389 | 124° | 73km/h | 14696m | 4.4m/s | -57.2°C | 7.1% | 0hPa | 2.7V | 00:00:00 | 01:02:04 | 00:00:00 | |
| 9A1FER-3 | 2026-09-03 12:06:34 | 45.41362 | 16.39161 | 120° | 71km/h | 14650m | 3.2m/s | -57.5°C | 7.5% | 0hPa | 2.7V | 00:00:00 | 01:01:54 | 00:00:00 | |
| 9A1FER-15 | 2026-09-03 12:06:32 | 45.41380 | 16.39118 | 124° | 71km/h | 14640m | 3.9m/s | -57.6°C | 7.5% | 0hPa | 2.7V | 00:00:00 | 01:01:52 | 00:00:00 | |
| 9A1FER-10 | 2026-09-03 12:06:29 | 45.41410 | 16.39058 | 126° | 71km/h | 14624m | 6.0m/s | -57.7°C | 7.4% | 0hPa | 2.7V | 00:00:00 | 01:01:49 | 00:00:00 | |
| 9A1FER-3 | 2026-09-03 12:06:19 | 45.41499 | 16.38832 | 119° | 69km/h | 14576m | 5.5m/s | -58.0°C | 7.8% | 0hPa | 2.7V | 00:00:00 | 01:01:39 | 00:00:00 | |
| 9A1FER-15 | 2026-09-03 12:06:17 | 45.41516 | 16.38791 | 122° | 69km/h | 14566m | 5.6m/s | -57.9°C | 8.0% | 0hPa | 2.7V | 00:00:00 | 01:01:37 | 00:00:00 | |
| 9A1FER-10 | 2026-09-03 12:06:14 | 45.41543 | 16.38729 | 123° | 69km/h | 14551m | 4.6m/s | -57.9°C | 8.0% | 0hPa | 2.7V | 00:00:00 | 01:01:34 | 00:00:00 | |
| 9A1FER-3 | 2026-09-03 12:06:04 | 45.41630 | 16.38506 | 118° | 64km/h | 14504m | 5.5m/s | -58.0°C | 7.7% | 0hPa | 2.7V | 00:00:00 | 01:01:24 | 00:00:00 | |
| 9A1FER-15 | 2026-09-03 12:06:02 | 45.41647 | 16.38463 | 122° | 64km/h | 14495m | 4.3m/s | -57.9°C | 7.7% | 0hPa | 2.7V | 00:00:00 | 01:01:22 | 00:00:00 | |
| 9A1FER-10 | 2026-09-03 12:05:59 | 45.41675 | 16.38406 | 128° | 64km/h | 14480m | 6.1m/s | -57.8°C | 7.8% | 0hPa | 2.7V | 00:00:00 | 01:01:19 | 00:00:00 | |
| 9A1FER-15 | 2026-09-03 12:05:47 | 45.41787 | 16.38184 | 124° | 62km/h | 14421m | 4.2m/s | -57.3°C | 7.6% | 0hPa | 2.7V | 00:00:00 | 01:01:07 | 00:00:00 | |
| 9A1FER-10 | 2026-09-03 12:05:44 | 45.41815 | 16.38129 | 129° | 64km/h | 14407m | 4.0m/s | -57.2°C | 7.7% | 0hPa | 2.7V | 00:00:00 | 01:01:04 | 00:00:00 | |
| 9A1FER-3 | 2026-09-03 12:05:34 | 45.41919 | 16.37958 | 131° | 64km/h | 14359m | 3.8m/s | -56.9°C | 7.6% | 0hPa | 2.7V | 00:00:00 | 01:00:54 | 00:00:00 | |
| 9A1FER-15 | 2026-09-03 12:05:32 | 45.41940 | 16.37922 | 130° | 64km/h | 14349m | 4.3m/s | -56.9°C | 7.8% | 0hPa | 2.7V | 00:00:00 | 01:00:52 | 00:00:00 | |
| 9A1FER-10 | 2026-09-03 12:05:29 | 45.41972 | 16.37869 | 131° | 64km/h | 14335m | 4.8m/s | -56.9°C | 7.8% | 0hPa | 2.7V | 00:00:00 | 01:00:49 | 00:00:00 | |
| 9A1FER-3 | 2026-09-03 12:05:19 | 45.42083 | 16.37706 | 137° | 68km/h | 14287m | 5.6m/s | -56.9°C | 8.1% | 0hPa | 2.7V | 00:00:00 | 01:00:39 | 08:30:00 | |
| 9A1FER-15 | 2026-09-03 12:05:17 | 45.42107 | 16.37672 | 136° | 68km/h | 14278m | 5.0m/s | -56.9°C | 8.1% | 0hPa | 2.7V | 00:00:00 | 01:00:37 | 08:30:00 | |
| 9A1FER-10 | 2026-09-03 12:05:14 | 45.42144 | 16.37622 | 137° | 68km/h | 14264m | 4.6m/s | -56.8°C | 8.2% | 0hPa | 2.7V | 00:00:00 | 01:00:34 | 08:30:00 | |
| 9A1FER-3 | 2026-09-03 12:05:04 | 45.42272 | 16.37463 | 140° | 66km/h | 14218m | 5.4m/s | -56.8°C | 8.6% | 0hPa | 2.7V | 00:00:00 | 01:00:24 | 00:00:00 | |
| 9A1FER-15 | 2026-09-03 12:05:02 | 45.42299 | 16.37430 | 140° | 66km/h | 14209m | 5.0m/s | -56.8°C | 8.8% | 0hPa | 2.7V | 00:00:00 | 01:00:22 | 00:00:00 | |
| 9A1FER-10 | 2026-09-03 12:04:59 | 45.42338 | 16.37383 | 140° | 66km/h | 14195m | 4.5m/s | -56.8°C | 9.0% | 0hPa | 2.7V | 00:00:00 | 01:00:19 | 00:00:00 | |
| 9A1FER-3 | 2026-09-03 12:04:49 | 45.42459 | 16.37232 | 140° | 71km/h | 14150m | 3.8m/s | -56.9°C | 9.1% | 0hPa | 2.7V | 00:00:00 | 01:00:09 | 00:00:00 | |
| 9A1FER-15 | 2026-09-03 12:04:47 | 45.42485 | 16.37200 | 140° | 71km/h | 14142m | 3.5m/s | -57.0°C | 9.0% | 0hPa | 2.7V | 00:00:00 | 01:00:07 | 00:00:00 | |
| 9A1FER-10 | 2026-09-03 12:04:44 | 45.42525 | 16.37151 | 139° | 71km/h | 14127m | 5.3m/s | -57.0°C | 9.4% | 0hPa | 2.7V | 00:00:00 | 01:00:04 | 00:00:00 | |
| 9A1FER-3 | 2026-09-03 12:04:34 | 45.42648 | 16.36960 | 134° | 75km/h | 14082m | 4.3m/s | -57.5°C | 10.3% | 0hPa | 2.7V | 00:00:00 | 00:59:54 | 00:00:00 | |
| 9A1FER-15 | 2026-09-03 12:04:32 | 45.42674 | 16.36922 | 134° | 75km/h | 14073m | 3.3m/s | -57.6°C | 10.2% | 0hPa | 2.7V | 00:00:00 | 00:59:52 | 00:00:00 | |
| 9A1FER-10 | 2026-09-03 12:04:29 | 45.42710 | 16.36864 | 129° | 77km/h | 14061m | 2.9m/s | -58.0°C | 10.4% | 0hPa | 2.7V | 00:00:00 | 00:59:49 | 00:00:00 | |
| 9A1FER-3 | 2026-09-03 12:04:19 | 45.42841 | 16.36666 | 136° | 77km/h | 14019m | 4.8m/s | -58.1°C | 10.8% | 0hPa | 2.7V | 00:00:00 | 00:59:39 | 00:00:00 | |
| 9A1FER-15 | 2026-09-03 12:04:17 | 45.42869 | 16.36627 | 135° | 75km/h | 14010m | 4.5m/s | -58.3°C | 11.0% | 0hPa | 2.7V | 00:00:00 | 00:59:37 | 00:00:00 | |
| 9A1FER-10 | 2026-09-03 12:04:14 | 45.42910 | 16.36571 | 139° | 75km/h | 13996m | 4.7m/s | -58.4°C | 11.1% | 0hPa | 2.7V | 00:00:00 | 00:59:34 | 00:00:00 | |
| 9A1FER-3 | 2026-09-03 12:04:03 | 45.43063 | 16.36367 | 134° | 78km/h | 13949m | 3.5m/s | -58.8°C | 11.7% | 0hPa | 2.7V | 00:00:00 | 00:59:23 | 00:00:00 | |
| 9A1FER-15 | 2026-09-03 12:04:02 | 45.43076 | 16.36347 | 133° | 78km/h | 13945m | 5.1m/s | -58.8°C | 11.8% | 0hPa | 2.7V | 00:00:00 | 00:59:22 | 00:00:00 | |
| 9A1FER-10 | 2026-09-03 12:03:59 | 45.43114 | 16.36285 | 131° | 78km/h | 13931m | 4.2m/s | -58.9°C | 11.7% | 0hPa | 2.7V | 00:00:00 | 00:59:19 | 00:00:00 | |
| 9A1FER-3 | 2026-09-03 12:03:48 | 45.43255 | 16.36046 | 129° | 77km/h | 13882m | 4.0m/s | -58.7°C | 11.6% | 0hPa | 2.7V | 00:00:00 | 00:59:08 | 00:00:00 | |
| 9A1FER-15 | 2026-09-03 12:03:47 | 45.43267 | 16.36024 | 129° | 77km/h | 13878m | 4.4m/s | -58.7°C | 11.6% | 0hPa | 2.7V | 00:00:00 | 00:59:07 | 00:00:00 | |
| 9A1FER-10 | 2026-09-03 12:03:44 | 45.43302 | 16.35957 | 126° | 75km/h | 13864m | 4.2m/s | -58.7°C | 11.6% | 0hPa | 2.7V | 00:00:00 | 00:59:04 | 00:00:00 | |
| 9A1FER-3 | 2026-09-03 12:03:33 | 45.43428 | 16.35712 | 128° | 71km/h | 13815m | 5.4m/s | -58.9°C | 11.9% | 0hPa | 2.7V | 00:00:00 | 00:58:53 | 00:00:00 | |
| 9A1FER-15 | 2026-09-03 12:03:32 | 45.43439 | 16.35691 | 127° | 69km/h | 13810m | 3.8m/s | -58.9°C | 11.9% | 0hPa | 2.7V | 00:00:00 | 00:58:52 | 00:00:00 | |
| 9A1FER-10 | 2026-09-03 12:03:29 | 45.43471 | 16.35631 | 127° | 69km/h | 13798m | 3.3m/s | -58.8°C | 12.1% | 0hPa | 2.7V | 00:00:00 | 00:58:49 | 00:00:00 | |
| 9A1FER-3 | 2026-09-03 12:03:18 | 45.43592 | 16.35415 | 129° | 66km/h | 13750m | 3.3m/s | -58.7°C | 12.5% | 0hPa | 2.7V | 00:00:00 | 00:58:38 | 00:00:00 | |
| 9A1FER-15 | 2026-09-03 12:03:17 | 45.43602 | 16.35397 | 130° | 66km/h | 13745m | 5.3m/s | -58.7°C | 12.5% | 0hPa | 2.7V | 00:00:00 | 00:58:37 | 00:00:00 | |
| 9A1FER-10 | 2026-09-03 12:03:14 | 45.43634 | 16.35343 | 130° | 66km/h | 13732m | 4.2m/s | -58.8°C | 12.9% | 0hPa | 2.7V | 00:00:00 | 00:58:34 | 00:00:00 | |
| 9A1FER-3 | 2026-09-03 12:03:03 | 45.43759 | 16.35153 | 135° | 58km/h | 13683m | 4.2m/s | -59.0°C | 13.6% | 0hPa | 2.7V | 00:00:00 | 00:58:23 | 08:30:00 | |
| 9A1FER-15 | 2026-09-03 12:03:02 | 45.43771 | 16.35136 | 134° | 57km/h | 13678m | 5.4m/s | -59.1°C | 13.7% | 0hPa | 2.7V | 00:00:00 | 00:58:22 | 08:30:00 | |
| 9A1FER-10 | 2026-09-03 12:02:59 | 45.43803 | 16.35086 | 131° | 57km/h | 13664m | 3.8m/s | -59.2°C | 13.5% | 0hPa | 2.7V | 00:00:00 | 00:58:19 | 08:30:00 | |
| 9A1FER-3 | 2026-09-03 12:02:48 | 45.43901 | 16.34918 | 133° | 60km/h | 13615m | 5.0m/s | -58.9°C | 13.3% | 0hPa | 2.7V | 00:00:00 | 00:58:08 | 00:00:00 | |
| 9A1FER-15 | 2026-09-03 12:02:47 | 45.43911 | 16.34903 | 136° | 60km/h | 13609m | 5.3m/s | -58.7°C | 13.4% | 0hPa | 2.7V | 00:00:00 | 00:58:07 | 00:00:00 | |
| 9A1FER-10 | 2026-09-03 12:02:44 | 45.43947 | 16.34856 | 138° | 60km/h | 13596m | 3.2m/s | -58.6°C | 13.3% | 0hPa | 2.7V | 00:00:00 | 00:58:04 | 00:00:00 | |
| 9A1FER-3 | 2026-09-03 12:02:33 | 45.44069 | 16.34693 | 136° | 62km/h | 13536m | 2.9m/s | -58.2°C | 13.5% | 0hPa | 2.7V | 00:00:00 | 00:57:53 | 00:00:00 | |
| 9A1FER-15 | 2026-09-03 12:02:32 | 45.44080 | 16.34679 | 138° | 62km/h | 13531m | 6.0m/s | -58.1°C | 13.5% | 0hPa | 2.7V | 00:00:00 | 00:57:52 | 00:00:00 | |
| 9A1FER-10 | 2026-09-03 12:02:29 | 45.44116 | 16.34640 | 146° | 64km/h | 13516m | 6.1m/s | -58.0°C | 13.6% | 0hPa | 2.7V | 00:00:00 | 00:57:49 | 00:00:00 | |
| 9A1FER-3 | 2026-09-03 12:02:18 | 45.44249 | 16.34480 | 144° | 69km/h | 13451m | 4.0m/s | -57.8°C | 13.9% | 0hPa | 2.7V | 00:00:00 | 00:57:38 | 00:00:00 | |
| 9A1FER-15 | 2026-09-03 12:02:17 | 45.44262 | 16.34465 | 143° | 69km/h | 13446m | 5.3m/s | -57.7°C | 13.8% | 0hPa | 2.7V | 00:00:00 | 00:57:37 | 00:00:00 | |
| 9A1FER-10 | 2026-09-03 12:02:14 | 45.44303 | 16.34420 | 142° | 69km/h | 13431m | 4.7m/s | -57.7°C | 13.9% | 0hPa | 2.7V | 00:00:00 | 00:57:34 | 00:00:00 | |
| 9A1FER-3 | 2026-09-03 12:02:03 | 45.44455 | 16.34251 | 143° | 75km/h | 13380m | 5.0m/s | -57.6°C | 15.0% | 0hPa | 2.7V | 00:00:00 | 00:57:23 | 00:00:00 | |
| 9A1FER-15 | 2026-09-03 12:02:02 | 45.44470 | 16.34235 | 143° | 75km/h | 13376m | 4.1m/s | -57.5°C | 15.0% | 0hPa | 2.7V | 00:00:00 | 00:57:22 | 00:00:00 | |
| 9A1FER-10 | 2026-09-03 12:01:59 | 45.44513 | 16.34186 | 140° | 75km/h | 13362m | 4.3m/s | -57.5°C | 15.0% | 0hPa | 2.7V | 00:00:00 | 00:57:19 | 00:00:00 | |
| 9A1FER-3 | 2026-09-03 12:01:48 | 45.44680 | 16.34007 | 147° | 78km/h | 13311m | 4.9m/s | -57.8°C | 17.6% | 0hPa | 2.7V | 00:00:00 | 00:57:08 | 00:00:00 | |
| 9A1FER-15 | 2026-09-03 12:01:47 | 45.44695 | 16.33992 | 147° | 78km/h | 13305m | 5.6m/s | -57.8°C | 17.5% | 0hPa | 2.7V | 00:00:00 | 00:57:07 | 00:00:00 | |
| 9A1FER-10 | 2026-09-03 12:01:44 | 45.44742 | 16.33949 | 149° | 80km/h | 13291m | 4.7m/s | -58.0°C | 17.8% | 0hPa | 2.7V | 00:00:00 | 00:57:04 | 00:00:00 | |
| 9A1FER-3 | 2026-09-03 12:01:33 | 45.44933 | 16.33784 | 146° | 84km/h | 13240m | 4.5m/s | -58.4°C | 20.7% | 0hPa | 2.7V | 00:00:00 | 00:56:53 | 00:00:00 | |
| 9A1FER-15 | 2026-09-03 12:01:32 | 45.44949 | 16.33767 | 145° | 84km/h | 13235m | 4.5m/s | -58.4°C | 21.1% | 0hPa | 2.7V | 00:00:00 | 00:56:52 | 00:00:00 | |
| 9A1FER-10 | 2026-09-03 12:01:29 | 45.44996 | 16.33714 | 140° | 84km/h | 13223m | 2.8m/s | -58.4°C | 21.4% | 0hPa | 2.7V | 00:00:00 | 00:56:49 | 00:00:00 | |
| 9A1FER-3 | 2026-09-03 12:01:18 | 45.45189 | 16.33518 | 146° | 80km/h | 13173m | 5.3m/s | -58.2°C | 22.1% | 0hPa | 2.7V | 00:00:00 | 00:56:38 | 00:00:00 | |
| 9A1FER-15 | 2026-09-03 12:01:17 | 45.45206 | 16.33501 | 147° | 80km/h | 13168m | 4.1m/s | -58.2°C | 22.0% | 0hPa | 2.7V | 00:00:00 | 00:56:37 | 00:00:00 | |
| 9A1FER-10 | 2026-09-03 12:01:14 | 45.45257 | 16.33450 | 144° | 78km/h | 13154m | 5.7m/s | -58.1°C | 22.1% | 0hPa | 2.7V | 00:00:00 | 00:56:34 | 00:00:00 | |
| 9A1FER-3 | 2026-09-03 12:01:03 | 45.45434 | 16.33262 | 144° | 78km/h | 13102m | 4.7m/s | -57.8°C | 22.0% | 0hPa | 2.7V | 00:00:00 | 00:56:23 | 00:00:00 | |
| 9A1FER-15 | 2026-09-03 12:01:02 | 45.45450 | 16.33245 | 143° | 78km/h | 13097m | 4.3m/s | -57.8°C | 22.1% | 0hPa | 2.7V | 00:00:00 | 00:56:22 | 00:00:00 | |
| 9A1FER-10 | 2026-09-03 12:00:59 | 45.45497 | 16.33194 | 144° | 80km/h | 13084m | 3.9m/s | -57.6°C | 21.7% | 0hPa | 2.7V | 00:00:00 | 00:56:19 | 00:00:00 | |
| 9A1FER-3 | 2026-09-03 12:00:48 | 45.45673 | 16.33003 | 143° | 82km/h | 13035m | 5.2m/s | -57.8°C | 22.7% | 0hPa | 2.7V | 00:00:00 | 00:56:08 | 08:30:00 | |
| 9A1FER-15 | 2026-09-03 12:00:47 | 45.45690 | 16.32986 | 143° | 82km/h | 13031m | 3.5m/s | -57.8°C | 22.4% | 0hPa | 2.7V | 00:00:00 | 00:56:07 | 08:30:00 | |
| 9A1FER-10 | 2026-09-03 12:00:44 | 45.45740 | 16.32933 | 145° | 82km/h | 13017m | 3.6m/s | -57.9°C | 22.0% | 0hPa | 2.7V | 00:00:00 | 00:56:04 | 08:30:00 | |
| 9A1FER-3 | 2026-09-03 12:00:33 | 45.45915 | 16.32726 | 139° | 86km/h | 12969m | 3.6m/s | -57.7°C | 20.8% | 0hPa | 2.7V | 00:00:00 | 00:55:53 | 00:00:00 | |
| 9A1FER-15 | 2026-09-03 12:00:32 | 45.45931 | 16.32706 | 140° | 86km/h | 12964m | 5.3m/s | -57.7°C | 20.9% | 0hPa | 2.7V | 00:00:00 | 00:55:52 | 00:00:00 | |
| 9A1FER-10 | 2026-09-03 12:00:29 | 45.45981 | 16.32647 | 140° | 86km/h | 12951m | 4.6m/s | -57.6°C | 21.0% | 0hPa | 2.7V | 00:00:00 | 00:55:49 | 00:00:00 | |
| OE3JTB-15 | 2026-09-03 12:00:20 | 45.46129 | 16.32464 | 139° | 89km/h | 12911m | 4.5m/s | 0°C | 0% | 0hPa | 2.7V | 00:00:00 | 00:00:00 | 00:00:00 | |
| 9A1FER-3 | 2026-09-03 12:00:18 | 45.46161 | 16.32423 | 140° | 89km/h | 12902m | 4.2m/s | -57.7°C | 20.3% | 0hPa | 2.7V | 00:00:00 | 00:55:38 | 00:00:00 | |
| 9A1FER-15 | 2026-09-03 12:00:17 | 45.46177 | 16.32403 | 139° | 89km/h | 12898m | 4.8m/s | -57.7°C | 20.3% | 0hPa | 2.7V | 00:00:00 | 00:55:37 | 00:00:00 | |
| 9A1FER-10 | 2026-09-03 12:00:14 | 45.46226 | 16.32341 | 139° | 91km/h | 12885m | 4.8m/s | -57.6°C | 20.6% | 0hPa | 2.7V | 00:00:00 | 00:55:34 | 00:00:00 | |
| 9A1FER-15 | 2026-09-03 12:00:02 | 45.46436 | 16.32086 | 142° | 91km/h | 12831m | 5.2m/s | -57.1°C | 22.5% | 0hPa | 2.7V | 00:00:00 | 00:55:22 | 00:00:00 | |
| 9A1FER-10 | 2026-09-03 11:59:59 | 45.46490 | 16.32025 | 141° | 89km/h | 12817m | 4.8m/s | -57.0°C | 22.8% | 0hPa | 2.7V | 00:00:00 | 00:55:19 | 00:00:00 | |
| OE3JTB-15 | 2026-09-03 11:59:51 | 45.46634 | 16.31858 | 144° | 91km/h | 12784m | 3.9m/s | 0°C | 0% | 0hPa | 2.7V | 00:00:00 | 00:55:11 | 00:00:00 | |
| 9A1FER-3 | 2026-09-03 11:59:48 | 45.46688 | 16.31801 | 146° | 88km/h | 12768m | 6.7m/s | -56.7°C | 25.6% | 0hPa | 2.7V | 00:00:00 | 00:55:08 | 00:00:00 | |
| 9A1FER-15 | 2026-09-03 11:59:47 | 45.46706 | 16.31784 | 146° | 88km/h | 12763m | 3.8m/s | -56.6°C | 25.9% | 0hPa | 2.7V | 00:00:00 | 00:55:07 | 00:00:00 | |
| 9A1FER-10 | 2026-09-03 11:59:44 | 45.46757 | 16.31729 | 141° | 89km/h | 12750m | 3.5m/s | -56.6°C | 27.2% | 0hPa | 2.7V | 00:00:00 | 00:55:04 | 00:00:00 | |
| 9A1FER-3 | 2026-09-03 11:59:33 | 45.46955 | 16.31517 | 148° | 99km/h | 12696m | 5.4m/s | -57.1°C | 34.1% | 0hPa | 2.7V | 00:00:00 | 00:54:53 | 00:00:00 | |
| 9A1FER-15 | 2026-09-03 11:59:32 | 45.46975 | 16.31499 | 148° | 100km/h | 12691m | 4.5m/s | -57.3°C | 35.5% | 0hPa | 2.7V | 00:00:00 | 00:54:52 | 00:00:00 | |
| 9A1FER-10 | 2026-09-03 11:59:29 | 45.47034 | 16.31446 | 150° | 102km/h | 12678m | 3.3m/s | -57.5°C | 37.4% | 0hPa | 2.7V | 00:00:00 | 00:54:49 | 00:00:00 | |
| OE3JTB-15 | 2026-09-03 11:59:22 | 45.47183 | 16.31318 | 149° | 108km/h | 12639m | 4.1m/s | 0°C | 0% | 0hPa | 2.7V | 00:00:00 | 00:00:00 | 00:00:00 | |
| 9A1FER-3 | 2026-09-03 11:59:18 | 45.47277 | 16.31238 | 148° | 108km/h | 12618m | 5.3m/s | -58.9°C | 48.3% | 0hPa | 2.7V | 00:00:00 | 00:54:38 | 00:00:00 | |
| 9A1FER-15 | 2026-09-03 11:59:17 | 45.47300 | 16.31216 | 147° | 108km/h | 12614m | 3.4m/s | -59.0°C | 48.5% | 0hPa | 2.7V | 00:00:00 | 00:54:37 | 00:00:00 | |
| 9A1FER-10 | 2026-09-03 11:59:14 | 45.47368 | 16.31152 | 147° | 108km/h | 12600m | 5.5m/s | -59.0°C | 48.3% | 0hPa | 2.7V | 00:00:00 | 00:54:34 | 00:00:00 | |
| 9A1FER-3 | 2026-09-03 11:59:03 | 45.47614 | 16.30905 | 142° | 113km/h | 12552m | 4.0m/s | -59.7°C | 54.9% | 0hPa | 2.7V | 00:00:00 | 00:54:23 | 00:00:00 | |
| 9A1FER-15 | 2026-09-03 11:59:02 | 45.47636 | 16.30882 | 143° | 113km/h | 12548m | 4.3m/s | -59.7°C | 55.7% | 0hPa | 2.7V | 00:00:00 | 00:54:22 | 00:00:00 | |
| 9A1FER-10 | 2026-09-03 11:58:59 | 45.47700 | 16.30809 | 142° | 115km/h | 12535m | 4.4m/s | -60.0°C | 57.4% | 0hPa | 2.7V | 00:00:00 | 00:54:19 | 00:00:00 | |
| 9A1FER-3 | 2026-09-03 11:58:48 | 45.47952 | 16.30530 | 141° | 113km/h | 12488m | 4.1m/s | -60.3°C | 58.6% | 0hPa | 2.7V | 00:00:00 | 00:54:08 | 00:00:00 | |
| 9A1FER-15 | 2026-09-03 11:58:47 | 45.47974 | 16.30503 | 140° | 113km/h | 12483m | 5.2m/s | -60.3°C | 58.6% | 0hPa | 2.7V | 00:00:00 | 00:54:07 | 00:00:00 | |
| 9A1FER-10 | 2026-09-03 11:58:44 | 45.48041 | 16.30421 | 140° | 113km/h | 12470m | 4.1m/s | -60.3°C | 60.3% | 0hPa | 2.7V | 00:00:00 | 00:54:04 | 00:00:00 | |
| 9A1FER-3 | 2026-09-03 11:58:33 | 45.48284 | 16.30143 | 141° | 111km/h | 12422m | 4.4m/s | -60.2°C | 61.2% | 0hPa | 2.7V | 00:00:00 | 00:53:53 | 08:30:00 | |
| 9A1FER-15 | 2026-09-03 11:58:32 | 45.48307 | 16.30116 | 140° | 111km/h | 12418m | 3.7m/s | -60.1°C | 61.3% | 0hPa | 2.7V | 00:00:00 | 00:53:52 | 08:30:00 | |
| 9A1FER-10 | 2026-09-03 11:58:29 | 45.48375 | 16.30036 | 140° | 110km/h | 12406m | 4.2m/s | -60.0°C | 60.9% | 0hPa | 2.7V | 00:00:00 | 00:53:49 | 08:30:00 | |
| 9A1FER-3 | 2026-09-03 11:58:18 | 45.48603 | 16.29750 | 138° | 110km/h | 12357m | 4.8m/s | -59.8°C | 57.9% | 0hPa | 2.7V | 00:00:00 | 00:53:38 | 00:00:00 | |
| 9A1FER-15 | 2026-09-03 11:58:17 | 45.48624 | 16.29724 | 139° | 110km/h | 12352m | 5.5m/s | -59.7°C | 58.6% | 0hPa | 2.7V | 00:00:00 | 00:53:37 | 00:00:00 | |
| 9A1FER-10 | 2026-09-03 11:58:14 | 45.48686 | 16.29647 | 139° | 108km/h | 12340m | 2.8m/s | -59.7°C | 58.6% | 0hPa | 2.7V | 00:00:00 | 00:53:34 | 00:00:00 | |
| 9A1FER-3 | 2026-09-03 11:58:03 | 45.48911 | 16.29356 | 136° | 106km/h | 12293m | 4.1m/s | -59.3°C | 58.4% | 0hPa | 2.7V | 00:00:00 | 00:53:23 | 00:00:00 | |
| 9A1FER-15 | 2026-09-03 11:58:02 | 45.48930 | 16.29329 | 136° | 106km/h | 12288m | 5.0m/s | -59.3°C | 58.1% | 0hPa | 2.7V | 00:00:00 | 00:53:22 | 00:00:00 | |
| 9A1FER-10 | 2026-09-03 11:57:59 | 45.48989 | 16.29250 | 137° | 106km/h | 12275m | 4.2m/s | -59.3°C | 56.5% | 0hPa | 2.7V | 00:00:00 | 00:53:19 | 00:00:00 | |
| 9A1FER-3 | 2026-09-03 11:57:48 | 45.49201 | 16.28962 | 135° | 104km/h | 12223m | 5.7m/s | -58.9°C | 56.2% | 0hPa | 2.7V | 00:00:00 | 00:53:08 | 00:00:00 | |
| 9A1FER-15 | 2026-09-03 11:57:47 | 45.49220 | 16.28935 | 135° | 104km/h | 12219m | 3.7m/s | -58.8°C | 55.9% | 0hPa | 2.7V | 00:00:00 | 00:53:07 | 00:00:00 | |
| 9A1FER-10 | 2026-09-03 11:57:44 | 45.49276 | 16.28853 | 135° | 102km/h | 12205m | 3.9m/s | -58.8°C | 55.1% | 0hPa | 2.7V | 00:00:00 | 00:53:04 | 00:00:00 | |
| 9A1FER-15 | 2026-09-03 11:57:32 | 45.49503 | 16.28546 | 137° | 102km/h | 12148m | 4.3m/s | -58.4°C | 54.6% | 0hPa | 2.7V | 00:00:00 | 00:52:52 | 00:00:00 | |
| 9A1FER-10 | 2026-09-03 11:57:29 | 45.49558 | 16.28470 | 137° | 102km/h | 12134m | 4.9m/s | -58.3°C | 53.3% | 0hPa | 2.7V | 00:00:00 | 00:52:49 | 00:00:00 | |
| 9A1FER-3 | 2026-09-03 11:57:18 | 45.49762 | 16.28186 | 135° | 99km/h | 12082m | 4.2m/s | -58.0°C | 49.1% | 0hPa | 2.7V | 00:00:00 | 00:52:38 | 00:00:00 | |
| 9A1FER-15 | 2026-09-03 11:57:17 | 45.49779 | 16.28161 | 136° | 99km/h | 12078m | 4.6m/s | -57.9°C | 48.9% | 0hPa | 2.7V | 00:00:00 | 00:52:37 | 00:00:00 | |
| 9A1FER-10 | 2026-09-03 11:57:14 | 45.49835 | 16.28089 | 140° | 97km/h | 12065m | 5.6m/s | -57.8°C | 48.9% | 0hPa | 2.7V | 00:00:00 | 00:52:34 | 00:00:00 | |
| 9A1FER-3 | 2026-09-03 11:57:03 | 45.50041 | 16.27835 | 141° | 95km/h | 12013m | 3.9m/s | -57.5°C | 47.7% | 0hPa | 2.7V | 00:00:00 | 00:52:23 | 00:00:00 | |
| 9A1FER-15 | 2026-09-03 11:57:02 | 45.50060 | 16.27814 | 141° | 95km/h | 12008m | 5.7m/s | -57.5°C | 48.0% | 0hPa | 2.7V | 00:00:00 | 00:52:22 | 00:00:00 | |
| 9A1FER-10 | 2026-09-03 11:56:59 | 45.50116 | 16.27749 | 142° | 95km/h | 11994m | 4.9m/s | -57.3°C | 46.4% | 0hPa | 2.7V | 00:00:00 | 00:52:19 | 00:00:00 | |
| 9A1FER-3 | 2026-09-03 11:56:48 | 45.50318 | 16.27505 | 143° | 93km/h | 11942m | 4.2m/s | -56.8°C | 46.8% | 0hPa | 2.7V | 00:00:00 | 00:52:08 | 00:00:00 | |
| 9A1FER-15 | 2026-09-03 11:56:47 | 45.50337 | 16.27485 | 142° | 93km/h | 11937m | 5.4m/s | -56.8°C | 46.2% | 0hPa | 2.7V | 00:00:00 | 00:52:07 | 00:00:00 | |
| 9A1FER-10 | 2026-09-03 11:56:44 | 45.50392 | 16.27420 | 142° | 93km/h | 11923m | 5.1m/s | -56.6°C | 43.4% | 0hPa | 2.7V | 00:00:00 | 00:52:04 | 00:00:00 | |
| 9A1FER-3 | 2026-09-03 11:56:33 | 45.50597 | 16.27191 | 142° | 95km/h | 11868m | 4.6m/s | -56.1°C | 42.4% | 0hPa | 2.7V | 00:00:00 | 00:51:53 | 00:00:00 | |
| 9A1FER-15 | 2026-09-03 11:56:32 | 45.50616 | 16.27171 | 143° | 95km/h | 11862m | 6.3m/s | -56.1°C | 43.0% | 0hPa | 2.7V | 00:00:00 | 00:51:52 | 00:00:00 | |
| 9A1FER-10 | 2026-09-03 11:56:29 | 45.50673 | 16.27110 | 143° | 95km/h | 11848m | 5.7m/s | -56.0°C | 41.8% | 0hPa | 2.7V | 00:00:00 | 00:51:49 | 00:00:00 | |
| 9A1FER-3 | 2026-09-03 11:56:18 | 45.50881 | 16.26881 | 143° | 95km/h | 11797m | 5.3m/s | -55.4°C | 40.0% | 0hPa | 2.7V | 00:00:00 | 00:51:38 | 08:30:00 | |
| 9A1FER-15 | 2026-09-03 11:56:17 | 45.50901 | 16.26860 | 142° | 95km/h | 11792m | 4.0m/s | -55.4°C | 39.3% | 0hPa | 2.7V | 00:00:00 | 00:51:37 | 08:30:00 | |
| 9A1FER-10 | 2026-09-03 11:56:14 | 45.50955 | 16.26793 | 138° | 95km/h | 11778m | 4.3m/s | -55.4°C | 38.6% | 0hPa | 2.7V | 00:00:00 | 00:51:34 | 08:30:00 | |
| 9A1FER-3 | 2026-09-03 11:56:03 | 45.51166 | 16.26573 | 145° | 97km/h | 11728m | 5.0m/s | -54.8°C | 38.3% | 0hPa | 2.7V | 00:00:00 | 00:51:23 | 00:00:00 | |
| 9A1FER-15 | 2026-09-03 11:56:02 | 45.51186 | 16.26552 | 144° | 97km/h | 11723m | 4.0m/s | -54.8°C | 38.2% | 0hPa | 2.7V | 00:00:00 | 00:51:22 | 00:00:00 | |
| 9A1FER-10 | 2026-09-03 11:55:59 | 45.51243 | 16.26489 | 142° | 97km/h | 11709m | 5.9m/s | -54.7°C | 38.3% | 0hPa | 2.7V | 00:00:00 | 00:51:19 | 00:00:00 | |
| 9A1FER-3 | 2026-09-03 11:55:48 | 45.51460 | 16.26262 | 143° | 97km/h | 11656m | 3.9m/s | -54.3°C | 39.5% | 0hPa | 2.7V | 00:00:00 | 00:51:08 | 00:00:00 | |
| 9A1FER-15 | 2026-09-03 11:55:47 | 45.51480 | 16.26240 | 142° | 97km/h | 11651m | 4.3m/s | -54.3°C | 39.5% | 0hPa | 2.7V | 00:00:00 | 00:51:07 | 00:00:00 | |
| 9A1FER-10 | 2026-09-03 11:55:44 | 45.51541 | 16.26175 | 146° | 97km/h | 11637m | 5.5m/s | -54.2°C | 39.4% | 0hPa | 2.7V | 00:00:00 | 00:51:04 | 00:00:00 | |
| 9A1FER-3 | 2026-09-03 11:55:33 | 45.51759 | 16.25959 | 145° | 104km/h | 11582m | 4.9m/s | -54.1°C | 41.3% | 0hPa | 2.7V | 00:00:00 | 00:50:53 | 00:00:00 | |
| 9A1FER-15 | 2026-09-03 11:55:32 | 45.51780 | 16.25937 | 144° | 106km/h | 11577m | 6.2m/s | -54.1°C | 41.9% | 0hPa | 2.7V | 00:00:00 | 00:50:52 | 00:00:00 | |
| 9A1FER-10 | 2026-09-03 11:55:29 | 45.51841 | 16.25875 | 148° | 108km/h | 11563m | 4.2m/s | -53.9°C | 43.0% | 0hPa | 2.7V | 00:00:00 | 00:50:49 | 00:00:00 | |
| 9A1FER-3 | 2026-09-03 11:55:18 | 45.52084 | 16.25629 | 146° | 111km/h | 11510m | 7.4m/s | -54.2°C | 45.7% | 0hPa | 2.7V | 00:00:00 | 00:50:38 | 00:00:00 | |
| 9A1FER-15 | 2026-09-03 11:55:17 | 45.52107 | 16.25606 | 147° | 111km/h | 11503m | 5.5m/s | -54.2°C | 46.3% | 0hPa | 2.7V | 00:00:00 | 00:50:37 | 00:00:00 | |
| 9A1FER-10 | 2026-09-03 11:55:14 | 45.52178 | 16.25540 | 146° | 111km/h | 11488m | 3.8m/s | -54.2°C | 47.7% | 0hPa | 2.7V | 00:00:00 | 00:50:34 | 00:00:00 | |
| 9A1FER-3 | 2026-09-03 11:55:03 | 45.52433 | 16.25295 | 147° | 108km/h | 11440m | 3.9m/s | -54.0°C | 52.9% | 0hPa | 2.7V | 00:00:00 | 00:50:23 | 00:00:00 | |
| 9A1FER-15 | 2026-09-03 11:55:02 | 45.52456 | 16.25273 | 147° | 108km/h | 11435m | 5.0m/s | -54.0°C | 52.8% | 0hPa | 2.7V | 00:00:00 | 00:50:22 | 00:00:00 | |
| 9A1FER-10 | 2026-09-03 11:54:59 | 45.52525 | 16.25207 | 146° | 106km/h | 11421m | 3.8m/s | -53.9°C | 53.0% | 0hPa | 2.7V | 00:00:00 | 00:50:19 | 00:00:00 | |
| 9A1FER-3 | 2026-09-03 11:54:48 | 45.52775 | 16.24975 | 148° | 104km/h | 11374m | 3.8m/s | -53.5°C | 49.8% | 0hPa | 2.7V | 00:00:00 | 00:50:08 | 00:00:00 | |
| 9A1FER-15 | 2026-09-03 11:54:47 | 45.52798 | 16.24954 | 148° | 104km/h | 11369m | 5.6m/s | -53.5°C | 49.7% | 0hPa | 2.9V | 00:00:00 | 00:50:07 | 00:00:00 | |
| 9A1FER-10 | 2026-09-03 11:54:44 | 45.52864 | 16.24892 | 146° | 104km/h | 11354m | 3.9m/s | -53.4°C | 50.5% | 0hPa | 2.7V | 00:00:00 | 00:50:04 | 00:00:00 | |
| 9A1FER-3 | 2026-09-03 11:54:33 | 45.53105 | 16.24670 | 148° | 102km/h | 11305m | 5.5m/s | -53.1°C | 51.4% | 0hPa | 2.9V | 00:00:00 | 00:49:53 | 00:00:00 | |
| 9A1FER-15 | 2026-09-03 11:54:32 | 45.53127 | 16.24650 | 149° | 102km/h | 11300m | 4.5m/s | -53.1°C | 51.6% | 0hPa | 2.9V | 00:00:00 | 00:49:52 | 00:00:00 | |
| 9A1FER-10 | 2026-09-03 11:54:29 | 45.53194 | 16.24589 | 147° | 100km/h | 11287m | 3.3m/s | -53.0°C | 51.7% | 0hPa | 2.9V | 00:00:00 | 00:49:49 | 00:00:00 | |
| 9A1FER-3 | 2026-09-03 11:54:18 | 45.53430 | 16.24372 | 148° | 99km/h | 11239m | 4.5m/s | -52.8°C | 52.5% | 0hPa | 2.9V | 00:00:00 | 00:49:38 | 00:00:00 | |
| 9A1FER-15 | 2026-09-03 11:54:17 | 45.53452 | 16.24352 | 147° | 97km/h | 11235m | 3.1m/s | -52.8°C | 52.3% | 0hPa | 2.9V | 00:00:00 | 00:49:37 | 00:00:00 | |
| 9A1FER-10 | 2026-09-03 11:54:14 | 45.53516 | 16.24295 | 150° | 97km/h | 11223m | 3.8m/s | -52.7°C | 51.3% | 0hPa | 2.9V | 00:00:00 | 00:49:34 | 00:00:00 | |
| 9A1FER-3 | 2026-09-03 11:54:03 | 45.53745 | 16.24095 | 150° | 97km/h | 11173m | 3.8m/s | -52.2°C | 49.1% | 0hPa | 2.9V | 00:00:00 | 00:49:23 | 08:30:00 | |
| 9A1FER-15 | 2026-09-03 11:54:02 | 45.53767 | 16.24077 | 150° | 97km/h | 11169m | 4.0m/s | -52.2°C | 48.9% | 0hPa | 2.9V | 00:00:00 | 00:49:22 | 08:30:00 | |
| 9A1FER-10 | 2026-09-03 11:53:59 | 45.53830 | 16.24023 | 149° | 97km/h | 11156m | 4.5m/s | -52.1°C | 47.4% | 0hPa | 2.9V | 00:00:00 | 00:49:19 | 08:30:00 | |
| 9A1FER-3 | 2026-09-03 11:53:48 | 45.54060 | 16.23828 | 151° | 97km/h | 11109m | 5.1m/s | -51.7°C | 48.7% | 0hPa | 2.7V | 00:00:00 | 00:49:08 | 00:00:00 | |
| 9A1FER-15 | 2026-09-03 11:53:47 | 45.54081 | 16.23812 | 152° | 95km/h | 11105m | 3.5m/s | -51.7°C | 48.0% | 0hPa | 2.7V | 00:00:00 | 00:49:07 | 00:00:00 | |
| 9A1FER-10 | 2026-09-03 11:53:44 | 45.54144 | 16.23764 | 153° | 97km/h | 11092m | 5.1m/s | -51.6°C | 46.3% | 0hPa | 2.7V | 00:00:00 | 00:49:04 | 00:00:00 | |
| 9A1FER-3 | 2026-09-03 11:53:33 | 45.54380 | 16.23584 | 149° | 99km/h | 11041m | 2.6m/s | -51.1°C | 44.6% | 0hPa | 2.7V | 00:00:00 | 00:48:53 | 00:00:00 | |
| 9A1FER-15 | 2026-09-03 11:53:32 | 45.54401 | 16.23567 | 150° | 99km/h | 11037m | 4.9m/s | -51.0°C | 44.0% | 0hPa | 2.7V | 00:00:00 | 00:48:52 | 00:00:00 | |
| 9A1FER-10 | 2026-09-03 11:53:29 | 45.54466 | 16.23516 | 153° | 99km/h | 11022m | 5.1m/s | -51.0°C | 44.1% | 0hPa | 2.7V | 00:00:00 | 00:48:49 | 00:00:00 | |
| 9A1FER-3 | 2026-09-03 11:53:18 | 45.54711 | 16.23341 | 155° | 99km/h | 10974m | 4.0m/s | -50.6°C | 42.8% | 0hPa | 2.7V | 00:00:00 | 00:48:38 | 00:00:00 | |
| 9A1FER-15 | 2026-09-03 11:53:17 | 45.54734 | 16.23325 | 156° | 99km/h | 10970m | 4.6m/s | -50.5°C | 42.9% | 0hPa | 2.9V | 00:00:00 | 00:48:37 | 00:00:00 | |
| 9A1FER-10 | 2026-09-03 11:53:14 | 45.54805 | 16.23282 | 158° | 99km/h | 10957m | 4.3m/s | -50.4°C | 43.1% | 0hPa | 2.7V | 00:00:00 | 00:48:34 | 00:00:00 | |
| 9A1FER-3 | 2026-09-03 11:53:03 | 45.55052 | 16.23118 | 156° | 100km/h | 10909m | 4.6m/s | -50.0°C | 42.2% | 0hPa | 2.9V | 00:00:00 | 00:48:23 | 00:00:00 | |
| 9A1FER-15 | 2026-09-03 11:53:02 | 45.55075 | 16.23103 | 156° | 100km/h | 10905m | 4.5m/s | -50.0°C | 41.5% | 0hPa | 2.9V | 00:00:00 | 00:48:22 | 00:00:00 | |
| 9A1FER-10 | 2026-09-03 11:52:59 | 45.55142 | 16.23059 | 157° | 102km/h | 10891m | 5.0m/s | -50.0°C | 40.0% | 0hPa | 2.9V | 00:00:00 | 00:48:19 | 00:00:00 | |
| 9A1FER-3 | 2026-09-03 11:52:48 | 45.55406 | 16.22906 | 160° | 104km/h | 10841m | 4.9m/s | -49.6°C | 40.0% | 0hPa | 2.9V | 00:00:00 | 00:48:08 | 00:00:00 | |
| 9A1FER-15 | 2026-09-03 11:52:47 | 45.55430 | 16.22893 | 159° | 104km/h | 10837m | 4.3m/s | -49.5°C | 40.2% | 0hPa | 2.9V | 00:00:00 | 00:48:07 | 00:00:00 | |
| 9A1FER-10 | 2026-09-03 11:52:44 | 45.55503 | 16.22852 | 158° | 104km/h | 10823m | 4.8m/s | -49.4°C | 39.6% | 0hPa | 2.9V | 00:00:00 | 00:48:04 | 00:00:00 | |
| 9A1FER-3 | 2026-09-03 11:52:33 | 45.55774 | 16.22710 | 161° | 106km/h | 10776m | 3.2m/s | -49.2°C | 39.0% | 0hPa | 2.9V | 00:00:00 | 00:47:53 | 00:00:00 | |
| 9A1FER-15 | 2026-09-03 11:52:32 | 45.55799 | 16.22697 | 161° | 106km/h | 10772m | 4.4m/s | -49.2°C | 38.9% | 0hPa | 2.9V | 00:00:00 | 00:47:52 | 00:00:00 | |
| 9A1FER-10 | 2026-09-03 11:52:29 | 45.55873 | 16.22660 | 160° | 108km/h | 10759m | 3.4m/s | -49.0°C | 38.9% | 0hPa | 2.7V | 00:00:00 | 00:47:49 | 00:00:00 | |
| 9A1FER-3 | 2026-09-03 11:52:18 | 45.56151 | 16.22513 | 160° | 108km/h | 10713m | 5.3m/s | -48.6°C | 37.8% | 0hPa | 2.9V | 00:00:00 | 00:47:38 | 00:00:00 | |
| 9A1FER-15 | 2026-09-03 11:52:17 | 45.56177 | 16.22499 | 159° | 108km/h | 10708m | 3.9m/s | -48.6°C | 37.8% | 0hPa | 2.9V | 00:00:00 | 00:47:37 | 00:00:00 | |
| 9A1FER-10 | 2026-09-03 11:52:14 | 45.56255 | 16.22457 | 159° | 108km/h | 10695m | 5.0m/s | -48.5°C | 37.3% | 0hPa | 2.9V | 00:00:00 | 00:47:34 | 00:00:00 | |
| 9A1FER-3 | 2026-09-03 11:52:03 | 45.56533 | 16.22307 | 160° | 110km/h | 10648m | 4.2m/s | -48.1°C | 38.8% | 0hPa | 2.9V | 00:00:00 | 00:47:23 | 00:00:00 | |
| 9A1FER-15 | 2026-09-03 11:52:02 | 45.56559 | 16.22293 | 159° | 108km/h | 10644m | 3.8m/s | -48.1°C | 38.8% | 0hPa | 2.9V | 00:00:00 | 00:47:22 | 00:00:00 | |
| 9A1FER-10 | 2026-09-03 11:51:59 | 45.56636 | 16.22248 | 158° | 108km/h | 10631m | 4.7m/s | -48.0°C | 37.6% | 0hPa | 2.9V | 00:00:00 | 00:47:19 | 00:00:00 | |
| 9A1FER-3 | 2026-09-03 11:51:48 | 45.56914 | 16.22084 | 158° | 110km/h | 10583m | 3.4m/s | -47.6°C | 37.6% | 0hPa | 2.9V | 00:00:00 | 00:47:08 | 08:30:00 | |
| 9A1FER-15 | 2026-09-03 11:51:47 | 45.56939 | 16.22069 | 158° | 111km/h | 10579m | 4.2m/s | -47.5°C | 37.5% | 0hPa | 2.9V | 00:00:00 | 00:47:07 | 08:30:00 | |
| 9A1FER-10 | 2026-09-03 11:51:44 | 45.57017 | 16.22025 | 159° | 111km/h | 10567m | 5.1m/s | -47.4°C | 37.4% | 0hPa | 2.7V | 00:00:00 | 00:47:04 | 08:30:00 | |
| 9A1FER-3 | 2026-09-03 11:51:33 | 45.57303 | 16.21862 | 160° | 113km/h | 10518m | 3.8m/s | -47.0°C | 35.6% | 0hPa | 2.7V | 00:00:00 | 00:46:53 | 00:00:00 | |
| 9A1FER-15 | 2026-09-03 11:51:32 | 45.57330 | 16.21848 | 160° | 113km/h | 10515m | 3.7m/s | -46.9°C | 35.9% | 0hPa | 2.7V | 00:00:00 | 00:46:52 | 00:00:00 | |
| 9A1FER-10 | 2026-09-03 11:51:29 | 45.57409 | 16.21806 | 160° | 113km/h | 10502m | 4.5m/s | -46.8°C | 35.5% | 0hPa | 2.7V | 00:00:00 | 00:46:49 | 00:00:00 | |
| 9A1FER-3 | 2026-09-03 11:51:18 | 45.57704 | 16.21645 | 160° | 111km/h | 10458m | 5.3m/s | -46.5°C | 34.2% | 0hPa | 2.7V | 00:00:00 | 00:46:38 | 00:00:00 | |
| 9A1FER-15 | 2026-09-03 11:51:17 | 45.57731 | 16.21631 | 159° | 111km/h | 10453m | 3.4m/s | -46.5°C | 34.7% | 0hPa | 2.7V | 00:00:00 | 00:46:37 | 00:00:00 | |
| 9A1FER-10 | 2026-09-03 11:51:14 | 45.57809 | 16.21586 | 158° | 111km/h | 10442m | 4.7m/s | -46.3°C | 36.2% | 0hPa | 2.7V | 00:00:00 | 00:46:34 | 00:00:00 | |
| 9A1FER-3 | 2026-09-03 11:51:03 | 45.58098 | 16.21426 | 160° | 111km/h | 10396m | 3.8m/s | -46.0°C | 34.3% | 0hPa | 2.7V | 00:00:00 | 00:46:23 | 00:00:00 | |
| 9A1FER-15 | 2026-09-03 11:51:02 | 45.58125 | 16.21412 | 159° | 111km/h | 10392m | 3.6m/s | -46.0°C | 34.0% | 0hPa | 2.9V | 00:00:00 | 00:46:22 | 00:00:00 | |
| 9A1FER-10 | 2026-09-03 11:50:59 | 45.58200 | 16.21367 | 158° | 110km/h | 10380m | 4.6m/s | -45.9°C | 34.2% | 0hPa | 2.9V | 00:00:00 | 00:46:19 | 00:00:00 | |
| 9A1FER-3 | 2026-09-03 11:50:48 | 45.58488 | 16.21202 | 161° | 108km/h | 10335m | 4.0m/s | -45.4°C | 32.7% | 0hPa | 2.9V | 00:00:00 | 00:46:08 | 00:00:00 | |
| 9A1FER-15 | 2026-09-03 11:50:47 | 45.58514 | 16.21188 | 160° | 108km/h | 10331m | 5.3m/s | -45.4°C | 32.1% | 0hPa | 2.9V | 00:00:00 | 00:46:07 | 00:00:00 | |
| 9A1FER-10 | 2026-09-03 11:50:44 | 45.58590 | 16.21147 | 159° | 108km/h | 10317m | 3.1m/s | -45.3°C | 32.1% | 0hPa | 2.9V | 00:00:00 | 00:46:04 | 00:00:00 | |
| 9A1FER-3 | 2026-09-03 11:50:33 | 45.58867 | 16.20986 | 159° | 108km/h | 10272m | 4.9m/s | -44.9°C | 32.3% | 0hPa | 2.9V | 00:00:00 | 00:45:53 | 00:00:00 | |
| 9A1FER-15 | 2026-09-03 11:50:32 | 45.58892 | 16.20972 | 159° | 108km/h | 10268m | 3.7m/s | -44.8°C | 32.2% | 0hPa | 2.9V | 00:00:00 | 00:45:52 | 00:00:00 | |
| 9A1FER-10 | 2026-09-03 11:50:29 | 45.58968 | 16.20928 | 158° | 106km/h | 10255m | 3.6m/s | -44.7°C | 31.5% | 0hPa | 2.9V | 00:00:00 | 00:45:49 | 00:00:00 | |
| 9A1FER-3 | 2026-09-03 11:50:18 | 45.59243 | 16.20769 | 158° | 106km/h | 10210m | 4.4m/s | -44.4°C | 29.1% | 0hPa | 2.9V | 00:00:00 | 00:45:38 | 00:00:00 | |
| 9A1FER-15 | 2026-09-03 11:50:17 | 45.59269 | 16.20754 | 157° | 106km/h | 10205m | 5.2m/s | -44.3°C | 29.1% | 0hPa | 2.9V | 00:00:00 | 00:45:37 | 00:00:00 | |
| 9A1FER-10 | 2026-09-03 11:50:14 | 45.59341 | 16.20706 | 154° | 106km/h | 10192m | 3.3m/s | -44.2°C | 28.0% | 0hPa | 2.9V | 00:00:00 | 00:45:34 | 00:00:00 | |
| 9A1FER-3 | 2026-09-03 11:50:03 | 45.59612 | 16.20544 | 157° | 106km/h | 10145m | 4.5m/s | -43.8°C | 25.6% | 0hPa | 2.9V | 00:00:00 | 00:45:23 | 00:00:00 | |
| 9A1FER-15 | 2026-09-03 11:50:02 | 45.59637 | 16.20528 | 157° | 106km/h | 10141m | 3.5m/s | -43.7°C | 25.5% | 0hPa | 2.9V | 00:00:00 | 00:45:22 | 00:00:00 | |
| 9A1FER-10 | 2026-09-03 11:49:59 | 45.59712 | 16.20477 | 154° | 104km/h | 10129m | 3.0m/s | -43.6°C | 25.1% | 0hPa | 2.9V | 00:00:00 | 00:45:19 | 00:00:00 | |
| 9A1FER-3 | 2026-09-03 11:49:48 | 45.59975 | 16.20306 | 155° | 104km/h | 10080m | 3.4m/s | -43.2°C | 24.6% | 0hPa | 2.9V | 00:00:00 | 00:45:08 | 00:00:00 | |
| 9A1FER-15 | 2026-09-03 11:49:47 | 45.59999 | 16.20290 | 155° | 104km/h | 10077m | 3.3m/s | -43.2°C | 24.5% | 0hPa | 2.9V | 00:00:00 | 00:45:07 | 00:00:00 | |
| 9A1FER-10 | 2026-09-03 11:49:44 | 45.60071 | 16.20243 | 155° | 104km/h | 10063m | 4.9m/s | -43.1°C | 24.3% | 0hPa | 2.9V | 00:00:00 | 00:45:04 | 00:00:00 | |
| 9A1FER-3 | 2026-09-03 11:49:33 | 45.60330 | 16.20063 | 155° | 102km/h | 10017m | 3.9m/s | -42.7°C | 25.2% | 0hPa | 2.9V | 00:00:00 | 00:44:53 | 08:30:00 | |
| 9A1FER-15 | 2026-09-03 11:49:32 | 45.60355 | 16.20047 | 155° | 102km/h | 10013m | 3.5m/s | -42.7°C | 25.1% | 0hPa | 2.7V | 00:00:00 | 00:44:52 | 08:30:00 | |
| 9A1FER-10 | 2026-09-03 11:49:29 | 45.60427 | 16.19996 | 154° | 102km/h | 10002m | 3.6m/s | -42.6°C | 25.0% | 0hPa | 2.9V | 00:00:00 | 00:44:49 | 08:30:00 | |
| 9A1FER-3 | 2026-09-03 11:49:18 | 45.60677 | 16.19810 | 155° | 102km/h | 9958m | 2.8m/s | -42.3°C | 26.4% | 0hPa | 2.9V | 00:00:00 | 00:44:38 | 00:00:00 | |
| 9A1FER-15 | 2026-09-03 11:49:17 | 45.60701 | 16.19794 | 155° | 102km/h | 9954m | 3.9m/s | -42.3°C | 26.1% | 0hPa | 2.9V | 00:00:00 | 00:44:37 | 00:00:00 | |
| 9A1FER-10 | 2026-09-03 11:49:14 | 45.60771 | 16.19745 | 154° | 102km/h | 9942m | 4.0m/s | -42.3°C | 26.2% | 0hPa | 2.9V | 00:00:00 | 00:44:34 | 00:00:00 | |
| 9A1FER-3 | 2026-09-03 11:49:03 | 45.61029 | 16.19569 | 155° | 106km/h | 9898m | 3.9m/s | -41.9°C | 29.7% | 0hPa | 2.9V | 00:00:00 | 00:44:23 | 00:00:00 | |
| 9A1FER-15 | 2026-09-03 11:49:02 | 45.61052 | 16.19552 | 154° | 106km/h | 9894m | 4.2m/s | -41.8°C | 29.6% | 0hPa | 2.9V | 00:00:00 | 00:44:22 | 00:00:00 | |
| 9A1FER-10 | 2026-09-03 11:48:59 | 45.61122 | 16.19502 | 155° | 106km/h | 9883m | 3.6m/s | -41.7°C | 29.7% | 0hPa | 2.9V | 00:00:00 | 00:44:19 | 00:00:00 | |
| 9A1FER-3 | 2026-09-03 11:48:48 | 45.61389 | 16.19324 | 155° | 108km/h | 9841m | 3.7m/s | -41.3°C | 28.1% | 0hPa | 2.9V | 00:00:00 | 00:44:08 | 00:00:00 | |
| 9A1FER-15 | 2026-09-03 11:48:47 | 45.61414 | 16.19308 | 156° | 108km/h | 9837m | 4.0m/s | -41.3°C | 28.0% | 0hPa | 2.9V | 00:00:00 | 00:44:07 | 00:00:00 | |
| 9A1FER-10 | 2026-09-03 11:48:44 | 45.61487 | 16.19258 | 156° | 108km/h | 9825m | 5.0m/s | -41.2°C | 27.5% | 0hPa | 2.9V | 00:00:00 | 00:44:04 | 00:00:00 | |
| 9A1FER-3 | 2026-09-03 11:48:33 | 45.61757 | 16.19080 | 155° | 106km/h | 9780m | 4.4m/s | -40.8°C | 28.2% | 0hPa | 2.9V | 00:00:00 | 00:43:53 | 00:00:00 | |
| 9A1FER-15 | 2026-09-03 11:48:32 | 45.61782 | 16.19063 | 155° | 106km/h | 9777m | 2.9m/s | -40.7°C | 28.5% | 0hPa | 2.9V | 00:00:00 | 00:43:52 | 00:00:00 | |
| 9A1FER-10 | 2026-09-03 11:48:29 | 45.61856 | 16.19015 | 156° | 106km/h | 9765m | 3.9m/s | -40.6°C | 28.7% | 0hPa | 2.9V | 00:00:00 | 00:43:49 | 00:00:00 | |
| 9A1FER-3 | 2026-09-03 11:48:18 | 45.62124 | 16.18840 | 155° | 108km/h | 9721m | 3.5m/s | -40.3°C | 28.9% | 0hPa | 2.9V | 00:00:00 | 00:43:38 | 00:00:00 | |
| 9A1FER-15 | 2026-09-03 11:48:17 | 45.62148 | 16.18824 | 155° | 108km/h | 9717m | 5.0m/s | -40.3°C | 28.7% | 0hPa | 2.9V | 00:00:00 | 00:43:37 | 00:00:00 | |
| 9A1FER-10 | 2026-09-03 11:48:14 | 45.62223 | 16.18775 | 156° | 108km/h | 9704m | 3.2m/s | -40.1°C | 28.5% | 0hPa | 2.9V | 00:00:00 | 00:43:34 | 00:00:00 | |
| 9A1FER-3 | 2026-09-03 11:48:03 | 45.62492 | 16.18592 | 156° | 108km/h | 9659m | 3.7m/s | -39.7°C | 27.6% | 0hPa | 2.9V | 00:00:00 | 00:43:23 | 00:00:00 | |
| 9A1FER-15 | 2026-09-03 11:48:02 | 45.62517 | 16.18575 | 157° | 108km/h | 9655m | 3.8m/s | -39.7°C | 27.6% | 0hPa | 2.9V | 00:00:00 | 00:43:22 | 00:00:00 | |
| 9A1FER-10 | 2026-09-03 11:47:59 | 45.62593 | 16.18532 | 160° | 108km/h | 9642m | 4.8m/s | -39.6°C | 27.5% | 0hPa | 2.9V | 00:00:00 | 00:43:19 | 00:00:00 | |
| 9A1FER-3 | 2026-09-03 11:47:48 | 45.62866 | 16.18359 | 156° | 108km/h | 9601m | 3.7m/s | -39.2°C | 27.0% | 0hPa | 2.9V | 00:00:00 | 00:43:08 | 00:00:00 | |
| 9A1FER-15 | 2026-09-03 11:47:47 | 45.62891 | 16.18343 | 158° | 108km/h | 9597m | 4.2m/s | -39.2°C | 27.0% | 0hPa | 2.9V | 00:00:00 | 00:43:07 | 00:00:00 | |
| 9A1FER-10 | 2026-09-03 11:47:44 | 45.62966 | 16.18299 | 158° | 108km/h | 9586m | 2.1m/s | -39.0°C | 27.1% | 0hPa | 2.9V | 00:00:00 | 00:43:04 | 00:00:00 | |
| 9A1FER-3 | 2026-09-03 11:47:33 | 45.63237 | 16.18124 | 156° | 111km/h | 9545m | 3.4m/s | -38.8°C | 30.8% | 0hPa | 2.9V | 00:00:00 | 00:42:53 | 00:00:00 | |
| 9A1FER-15 | 2026-09-03 11:47:32 | 45.63263 | 16.18108 | 156° | 111km/h | 9541m | 4.2m/s | -38.8°C | 31.0% | 0hPa | 2.9V | 00:00:00 | 00:42:52 | 00:00:00 | |
| 9A1FER-10 | 2026-09-03 11:47:29 | 45.63339 | 16.18060 | 158° | 111km/h | 9530m | 3.6m/s | -38.7°C | 30.8% | 0hPa | 2.9V | 00:00:00 | 00:42:49 | 00:00:00 | |
| 9A1FER-3 | 2026-09-03 11:47:18 | 45.63622 | 16.17881 | 156° | 111km/h | 9489m | 4.0m/s | -38.3°C | 27.8% | 0hPa | 2.9V | 00:00:00 | 00:42:38 | 08:30:00 | |
| 9A1FER-15 | 2026-09-03 11:47:17 | 45.63648 | 16.17865 | 157° | 111km/h | 9485m | 4.1m/s | -38.3°C | 27.1% | 0hPa | 2.9V | 00:00:00 | 00:42:37 | 08:30:00 | |
| 9A1FER-10 | 2026-09-03 11:47:14 | 45.63726 | 16.17816 | 156° | 111km/h | 9473m | 3.2m/s | -38.2°C | 25.5% | 0hPa | 2.7V | 00:00:00 | 00:42:34 | 08:30:00 | |
| 9A1FER-3 | 2026-09-03 11:47:03 | 45.64010 | 16.17633 | 159° | 111km/h | 9431m | 2.5m/s | -37.8°C | 25.4% | 0hPa | 2.9V | 00:00:00 | 00:42:23 | 00:00:00 | |
| 9A1FER-15 | 2026-09-03 11:47:02 | 45.64036 | 16.17619 | 160° | 111km/h | 9427m | 4.5m/s | -37.8°C | 25.3% | 0hPa | 2.9V | 00:00:00 | 00:42:22 | 00:00:00 | |
| 9A1FER-10 | 2026-09-03 11:46:59 | 45.64114 | 16.17574 | 158° | 111km/h | 9416m | 3.6m/s | -37.7°C | 25.7% | 0hPa | 2.9V | 00:00:00 | 00:42:19 | 00:00:00 | |
| 9A1FER-3 | 2026-09-03 11:46:48 | 45.64399 | 16.17389 | 156° | 106km/h | 9374m | 3.5m/s | -37.4°C | 25.0% | 0hPa | 2.9V | 00:00:00 | 00:42:08 | 00:00:00 | |
| 9A1FER-15 | 2026-09-03 11:46:47 | 45.64425 | 16.17373 | 158° | 106km/h | 9370m | 4.2m/s | -37.3°C | 25.0% | 0hPa | 2.9V | 00:00:00 | 00:42:07 | 00:00:00 | |
| 9A1FER-10 | 2026-09-03 11:46:44 | 45.64498 | 16.17331 | 159° | 106km/h | 9359m | 4.4m/s | -37.2°C | 24.5% | 0hPa | 2.9V | 00:00:00 | 00:42:04 | 00:00:00 | |
| 9A1FER-3 | 2026-09-03 11:46:33 | 45.64771 | 16.17166 | 157° | 106km/h | 9316m | 4.6m/s | -36.8°C | 24.0% | 0hPa | 2.9V | 00:00:00 | 00:41:53 | 00:00:00 | |
| 9A1FER-15 | 2026-09-03 11:46:32 | 45.64795 | 16.17151 | 157° | 106km/h | 9311m | 3.9m/s | -36.8°C | 23.9% | 0hPa | 2.9V | 00:00:00 | 00:41:52 | 00:00:00 | |
| 9A1FER-10 | 2026-09-03 11:46:29 | 45.64868 | 16.17107 | 158° | 106km/h | 9300m | 3.5m/s | -36.6°C | 23.9% | 0hPa | 2.7V | 00:00:00 | 00:41:49 | 00:00:00 | |
| 9A1FER-3 | 2026-09-03 11:46:18 | 45.65140 | 16.16941 | 158° | 104km/h | 9254m | 4.3m/s | -36.3°C | 22.3% | 0hPa | 2.9V | 00:00:00 | 00:41:38 | 00:00:00 | |
| 9A1FER-15 | 2026-09-03 11:46:17 | 45.65165 | 16.16927 | 159° | 104km/h | 9250m | 2.8m/s | -36.3°C | 22.2% | 0hPa | 2.9V | 00:00:00 | 00:41:37 | 00:00:00 | |
| 9A1FER-10 | 2026-09-03 11:46:14 | 45.65237 | 16.16885 | 157° | 104km/h | 9239m | 3.8m/s | -36.2°C | 21.9% | 0hPa | 2.9V | 00:00:00 | 00:41:34 | 00:00:00 | |
| 9A1FER-3 | 2026-09-03 11:46:03 | 45.65500 | 16.16713 | 158° | 104km/h | 9194m | 4.2m/s | -35.9°C | 22.5% | 0hPa | 2.9V | 00:00:00 | 00:41:23 | 00:00:00 | |
| 9A1FER-15 | 2026-09-03 11:46:02 | 45.65525 | 16.16698 | 158° | 104km/h | 9191m | 2.9m/s | -35.8°C | 23.1% | 0hPa | 2.9V | 00:00:00 | 00:41:22 | 00:00:00 | |
| 9A1FER-3 | 2026-09-03 11:45:48 | 45.65862 | 16.16497 | 159° | 104km/h | 9134m | 3.6m/s | -35.4°C | 26.2% | 0hPa | 2.9V | 00:00:00 | 00:41:08 | 00:00:00 | |
| 9A1FER-15 | 2026-09-03 11:45:47 | 45.65887 | 16.16483 | 160° | 102km/h | 9130m | 3.9m/s | -35.4°C | 26.5% | 0hPa | 2.9V | 00:00:00 | 00:41:07 | 00:00:00 | |
| 9A1FER-10 | 2026-09-03 11:45:44 | 45.65960 | 16.16442 | 159° | 102km/h | 9120m | 3.7m/s | -35.3°C | 28.1% | 0hPa | 2.9V | 00:00:00 | 00:41:04 | 00:00:00 | |
| 9A1FER-3 | 2026-09-03 11:45:33 | 45.66225 | 16.16286 | 156° | 102km/h | 9073m | 5.1m/s | -34.9°C | 29.0% | 0hPa | 2.9V | 00:00:00 | 00:40:53 | 00:00:00 | |
| 9A1FER-10 | 2026-09-03 11:45:29 | 45.66317 | 16.16229 | 157° | 102km/h | 9057m | 4.6m/s | -34.8°C | 29.6% | 0hPa | 2.9V | 00:00:00 | 00:40:49 | 00:00:00 | |
| 9A1FER-3 | 2026-09-03 11:45:18 | 45.66580 | 16.16069 | 157° | 100km/h | 9013m | 4.5m/s | -34.5°C | 31.7% | 0hPa | 2.9V | 00:00:00 | 00:40:38 | 00:00:00 | |
| 9A1FER-10 | 2026-09-03 11:45:14 | 45.66673 | 16.16012 | 158° | 100km/h | 8996m | 4.0m/s | -34.3°C | 32.3% | 0hPa | 2.9V | 00:00:00 | 00:40:34 | 00:00:00 | |
| 9A1FER-15 | 2026-09-03 11:45:02 | 45.66957 | 16.15843 | 158° | 97km/h | 8948m | 2.7m/s | -33.9°C | 32.7% | 0hPa | 2.9V | 00:00:00 | 00:40:22 | 08:30:00 | |
| 9A1FER-10 | 2026-09-03 11:44:59 | 45.67026 | 16.15799 | 156° | 97km/h | 8937m | 4.3m/s | -33.8°C | 32.1% | 0hPa | 2.9V | 00:00:00 | 00:40:19 | 08:30:00 | |
| 9A1FER-3 | 2026-09-03 11:44:48 | 45.67273 | 16.15646 | 155° | 97km/h | 8891m | 3.6m/s | -33.3°C | 31.7% | 0hPa | 2.7V | 00:00:00 | 00:40:08 | 00:00:00 | |
| 9A1FER-15 | 2026-09-03 11:44:47 | 45.67296 | 16.15631 | 155° | 97km/h | 8887m | 4.7m/s | -33.3°C | 31.6% | 0hPa | 2.7V | 00:00:00 | 00:40:07 | 00:00:00 | |
| 9A1FER-10 | 2026-09-03 11:44:44 | 45.67364 | 16.15588 | 157° | 99km/h | 8873m | 5.6m/s | -33.2°C | 31.1% | 0hPa | 2.7V | 00:00:00 | 00:40:04 | 00:00:00 | |
| 9A1FER-3 | 2026-09-03 11:44:33 | 45.67614 | 16.15438 | 159° | 97km/h | 8822m | 5.5m/s | -32.9°C | 35.0% | 0hPa | 2.7V | 00:00:00 | 00:39:53 | 00:00:00 | |
| 9A1FER-15 | 2026-09-03 11:44:32 | 45.67638 | 16.15425 | 159° | 97km/h | 8817m | 6.0m/s | -32.9°C | 35.3% | 0hPa | 2.7V | 00:00:00 | 00:39:52 | 00:00:00 | |
| 9A1FER-10 | 2026-09-03 11:44:29 | 45.67708 | 16.15388 | 161° | 93km/h | 8803m | 3.7m/s | -32.7°C | 35.8% | 0hPa | 2.7V | 00:00:00 | 00:39:49 | 00:00:00 | |
| 9A1FER-3 | 2026-09-03 11:44:18 | 45.67949 | 16.15232 | 160° | 91km/h | 8748m | 4.4m/s | -32.3°C | 34.5% | 0hPa | 2.7V | 00:00:00 | 00:39:38 | 00:00:00 | |
| 9A1FER-10 | 2026-09-03 11:44:14 | 45.68032 | 16.15186 | 159° | 93km/h | 8722m | 7.2m/s | -32.0°C | 33.6% | 0hPa | 2.9V | 00:00:00 | 00:39:34 | 00:00:00 | |
| 9A1FER-3 | 2026-09-03 11:44:03 | 45.68266 | 16.15027 | 153° | 89km/h | 8668m | 4.3m/s | -31.5°C | 30.4% | 0hPa | 2.9V | 00:00:00 | 00:39:23 | 00:00:00 | |
| 9A1FER-15 | 2026-09-03 11:44:02 | 45.68288 | 16.15011 | 154° | 89km/h | 8662m | 7.7m/s | -31.4°C | 30.3% | 0hPa | 2.9V | 00:00:00 | 00:39:22 | 00:00:00 | |
| 9A1FER-10 | 2026-09-03 11:43:59 | 45.68350 | 16.14968 | 156° | 88km/h | 8640m | 6.0m/s | -31.3°C | 29.2% | 0hPa | 2.9V | 00:00:00 | 00:39:19 | 00:00:00 | |
| 9A1FER-3 | 2026-09-03 11:43:48 | 45.68571 | 16.14817 | 155° | 86km/h | 8577m | 4.2m/s | -30.7°C | 27.3% | 0hPa | 2.9V | 00:00:00 | 00:39:08 | 00:00:00 | |
| 9A1FER-15 | 2026-09-03 11:43:47 | 45.68590 | 16.14804 | 154° | 86km/h | 8572m | 5.4m/s | -30.7°C | 27.1% | 0hPa | 2.9V | 00:00:00 | 00:39:07 | 00:00:00 | |
| 9A1FER-10 | 2026-09-03 11:43:44 | 45.68647 | 16.14764 | 153° | 88km/h | 8557m | 7.7m/s | -30.5°C | 27.0% | 0hPa | 2.9V | 00:00:00 | 00:39:04 | 00:00:00 | |
| 9A1FER-3 | 2026-09-03 11:43:33 | 45.68864 | 16.14610 | 151° | 88km/h | 8493m | 4.8m/s | -30.0°C | 30.6% | 0hPa | 2.9V | 00:00:00 | 00:38:53 | 00:00:00 | |
| 9A1FER-15 | 2026-09-03 11:43:32 | 45.68883 | 16.14595 | 152° | 88km/h | 8488m | 4.3m/s | -30.0°C | 29.9% | 0hPa | 2.9V | 00:00:00 | 00:38:52 | 00:00:00 | |
| 9A1FER-10 | 2026-09-03 11:43:29 | 45.68942 | 16.14551 | 154° | 88km/h | 8469m | 7.7m/s | -29.8°C | 28.4% | 0hPa | 2.7V | 00:00:00 | 00:38:49 | 00:00:00 | |
| 9A1FER-3 | 2026-09-03 11:43:18 | 45.69165 | 16.14400 | 150° | 84km/h | 8408m | 4.7m/s | -29.2°C | 26.7% | 0hPa | 2.9V | 00:00:00 | 00:38:38 | 00:00:00 | |
| 9A1FER-15 | 2026-09-03 11:43:17 | 45.69182 | 16.14385 | 150° | 84km/h | 8403m | 4.3m/s | -29.1°C | 26.6% | 0hPa | 2.9V | 00:00:00 | 00:38:37 | 00:00:00 | |
| 9A1FER-10 | 2026-09-03 11:43:14 | 45.69236 | 16.14342 | 155° | 86km/h | 8388m | 6.8m/s | -29.0°C | 26.4% | 0hPa | 2.9V | 00:00:00 | 00:38:34 | 00:00:00 | |
| OM5KV | 2026-09-03 11:43:04 | 45.69407 | 16.14222 | 153° | 86km/h | 8331m | 5.8m/s | -28.5°C | 21.9% | 0hPa | 2.9V | 00:00:00 | 00:00:00 | 00:00:00 | |
| 9A1FER-3 | 2026-09-03 11:43:03 | 45.69446 | 16.14194 | 156° | 86km/h | 8322m | 3.8m/s | -28.4°C | 24.5% | 0hPa | 2.9V | 00:00:00 | 00:38:23 | 00:00:00 | |
| 9A1FER-15 | 2026-09-03 11:43:02 | 45.69467 | 16.14182 | 157° | 86km/h | 8318m | 3.8m/s | -28.3°C | 24.1% | 0hPa | 2.9V | 00:00:00 | 00:38:22 | 00:00:00 | |
| OM5KV | 2026-09-03 11:43:00 | 45.69487 | 16.14169 | 156° | 88km/h | 8313m | 5.2m/s | -28.3°C | 21.2% | 0hPa | 2.9V | 00:00:00 | 00:00:00 | 00:00:00 | |
| 9A1FER-10 | 2026-09-03 11:42:59 | 45.69526 | 16.14140 | 153° | 84km/h | 8305m | 5.6m/s | -28.3°C | 25.6% | 0hPa | 2.9V | 00:00:00 | 00:38:19 | 00:00:00 | |
| OM5KV | 2026-09-03 11:42:53 | 45.69624 | 16.14071 | 153° | 86km/h | 8273m | 5.8m/s | -28.2°C | 26.5% | 0hPa | 2.9V | 00:00:00 | 00:00:00 | 00:00:00 | |
| OM5KV | 2026-09-03 11:42:52 | 45.69643 | 16.14056 | 154° | 89km/h | 8269m | 4.0m/s | -28.2°C | 26.3% | 0hPa | 2.9V | 00:00:00 | 00:00:00 | 00:00:00 | |
| OM5KV | 2026-09-03 11:42:48 | 45.69721 | 16.14002 | 152° | 80km/h | 8248m | 5.1m/s | -28.0°C | 26.1% | 0hPa | 2.9V | 00:00:00 | 00:00:00 | 00:00:00 | |
| 9A1FER-15 | 2026-09-03 11:42:47 | 45.69756 | 16.13974 | 152° | 80km/h | 8239m | 3.8m/s | -27.9°C | 29.3% | 0hPa | 2.9V | 00:00:00 | 00:38:07 | 08:30:00 | |
| 9A1FER-10 | 2026-09-03 11:42:44 | 45.69808 | 16.13937 | 155° | 78km/h | 8224m | 3.1m/s | -27.7°C | 29.0% | 0hPa | 2.9V | 00:00:00 | 00:38:04 | 08:30:00 | |
| OM5KV | 2026-09-03 11:42:43 | 45.69827 | 16.13925 | 156° | 78km/h | 8220m | 5.0m/s | -27.8°C | 25.5% | 0hPa | 2.7V | 00:00:00 | 00:00:00 | 00:00:00 | |
| OM5KV | 2026-09-03 11:42:37 | 45.69919 | 16.13863 | 154° | 82km/h | 8198m | 5.6m/s | -27.5°C | 25.2% | 0hPa | 2.7V | 00:00:00 | 00:00:00 | 00:00:00 | |
| OM5KV | 2026-09-03 11:42:36 | 45.69937 | 16.13849 | 152° | 78km/h | 8193m | 3.8m/s | -27.5°C | 25.1% | 0hPa | 2.7V | 00:00:00 | 00:00:00 | 00:00:00 | |
| 9A1FER-3 | 2026-09-03 11:42:33 | 45.70009 | 16.13793 | 153° | 78km/h | 8172m | 5.9m/s | -27.3°C | 27.8% | 0hPa | 2.7V | 00:00:00 | 00:37:53 | 00:00:00 | |
| 9A1FER-15 | 2026-09-03 11:42:32 | 45.70027 | 16.13781 | 156° | 78km/h | 8166m | 6.3m/s | -27.3°C | 28.1% | 0hPa | 2.7V | 00:00:00 | 00:37:52 | 00:00:00 | |
| OM5KV | 2026-09-03 11:42:31 | 45.70027 | 16.13781 | 156° | 77km/h | 8166m | 6.4m/s | -27.3°C | 25.1% | 0hPa | 2.7V | 00:00:00 | 00:00:00 | 00:00:00 | |
| OM5KV | 2026-09-03 11:42:30 | 45.70044 | 16.13770 | 156° | 73km/h | 8160m | 4.1m/s | -27.3°C | 25.3% | 0hPa | 2.7V | 00:00:00 | 00:00:00 | 00:00:00 | |
| 9A1FER-10 | 2026-09-03 11:42:29 | 45.70078 | 16.13747 | 154° | 77km/h | 8152m | 4.5m/s | -27.2°C | 28.3% | 0hPa | 2.7V | 00:00:00 | 00:37:49 | 00:00:00 | |
| OM5KV | 2026-09-03 11:42:26 | 45.70114 | 16.13722 | 154° | 84km/h | 8145m | 2.6m/s | -27.1°C | 25.3% | 0hPa | 2.7V | 00:00:00 | 00:00:00 | 00:00:00 | |
| OM5KV | 2026-09-03 11:42:25 | 45.70133 | 16.13708 | 155° | 86km/h | 8142m | 3.2m/s | -27.1°C | 25.1% | 0hPa | 2.7V | 00:00:00 | 00:00:00 | 00:00:00 | |
| OM5KV | 2026-09-03 11:42:21 | 45.70226 | 16.13645 | 157° | 75km/h | 8114m | 5.0m/s | -26.9°C | 24.4% | 0hPa | 2.7V | 00:00:00 | 00:00:00 | 00:00:00 | |
| OM5KV | 2026-09-03 11:42:20 | 45.70243 | 16.13634 | 156° | 77km/h | 8108m | 6.1m/s | -26.9°C | 24.1% | 0hPa | 2.7V | 00:00:00 | 00:00:00 | 00:00:00 | |
| 9A1FER-3 | 2026-09-03 11:42:18 | 45.70277 | 16.13610 | 153° | 71km/h | 8096m | 6.0m/s | -26.7°C | 26.7% | 0hPa | 2.7V | 00:00:00 | 00:37:38 | 00:00:00 | |
| 9A1FER-15 | 2026-09-03 11:42:17 | 45.70294 | 16.13597 | 153° | 71km/h | 8090m | 5.1m/s | -26.7°C | 26.3% | 0hPa | 2.7V | 00:00:00 | 00:37:37 | 00:00:00 | |
| 9A1FER-10 | 2026-09-03 11:42:14 | 45.70341 | 16.13561 | 152° | 71km/h | 8076m | 4.9m/s | -26.6°C | 25.9% | 0hPa | 2.7V | 00:00:00 | 00:37:34 | 00:00:00 | |
| OM5KV | 2026-09-03 11:42:12 | 45.70373 | 16.13538 | 153° | 71km/h | 8067m | 2.6m/s | -26.5°C | 22.9% | 0hPa | 2.7V | 00:00:00 | 00:00:00 | 00:00:00 | |
| OM5KV | 2026-09-03 11:42:09 | 45.70405 | 16.13514 | 154° | 73km/h | 8060m | 2.5m/s | -26.5°C | 22.8% | 0hPa | 2.7V | 00:00:00 | 00:00:00 | 00:00:00 | |
| OM5KV | 2026-09-03 11:42:06 | 45.70468 | 16.13464 | 152° | 69km/h | 8045m | 3.9m/s | -26.3°C | 22.0% | 0hPa | 2.7V | 00:00:00 | 00:00:00 | 00:00:00 | |
| 9A1FER-3 | 2026-09-03 11:42:03 | 45.70517 | 16.13427 | 154° | 69km/h | 8032m | 2.9m/s | -26.2°C | 23.7% | 0hPa | 2.7V | 00:00:00 | 00:37:23 | 00:00:00 | |
| 9A1FER-15 | 2026-09-03 11:42:02 | 45.70534 | 16.13415 | 155° | 69km/h | 8028m | 4.3m/s | -26.2°C | 23.3% | 0hPa | 2.9V | 00:00:00 | 00:37:22 | 00:00:00 | |
| OM5KV | 2026-09-03 11:42:00 | 45.70551 | 16.13404 | 156° | 73km/h | 8025m | 3.2m/s | -26.2°C | 20.4% | 0hPa | 2.9V | 00:00:00 | 00:00:00 | 00:00:00 | |
| 9A1FER-10 | 2026-09-03 11:41:59 | 45.70583 | 16.13381 | 152° | 68km/h | 8017m | 3.7m/s | -26.1°C | 22.0% | 0hPa | 2.9V | 00:00:00 | 00:37:19 | 00:00:00 | |
| OM5KV | 2026-09-03 11:41:55 | 45.70642 | 16.13335 | 152° | 66km/h | 8001m | 5.1m/s | -26.0°C | 0% | 0hPa | 2.7V | 00:00:00 | 00:00:00 | 00:00:00 | |
| OM5KV | 2026-09-03 11:41:52 | 45.70673 | 16.13311 | 153° | 69km/h | 7992m | 4.7m/s | -26.0°C | 18.6% | 0hPa | 2.7V | 00:00:00 | 00:00:00 | 00:00:00 | |
| OM5KV | 2026-09-03 11:41:49 | 45.70719 | 16.13277 | 153° | 69km/h | 7980m | 2.7m/s | -25.9°C | 0% | 0hPa | 2.7V | 00:00:00 | 00:00:00 | 00:00:00 | |
| 9A1FER-3 | 2026-09-03 11:41:48 | 45.70767 | 16.13254 | 154° | 64km/h | 7972m | 3.8m/s | -25.7°C | 21.3% | 0hPa | 2.7V | 00:00:00 | 00:37:08 | 00:00:00 | |
| 9A1FER-15 | 2026-09-03 11:41:47 | 45.70765 | 16.13243 | 152° | 64km/h | 7968m | 3.9m/s | -25.7°C | 21.3% | 0hPa | 2.7V | 00:00:00 | 00:37:07 | 00:00:00 | |
| 9A1FER-10 | 2026-09-03 11:41:44 | 45.70808 | 16.13209 | 153° | 64km/h | 7957m | 4.8m/s | -25.7°C | 21.2% | 0hPa | 2.7V | 00:00:00 | 00:37:04 | 00:00:00 | |
| OM5KV | 2026-09-03 11:41:43 | 45.70808 | 16.13209 | 154° | 66km/h | 7957m | 4.9m/s | -25.7°C | 18.9% | 0hPa | 2.7V | 00:00:00 | 00:00:00 | 00:00:00 | |
| OM5KV | 2026-09-03 11:41:42 | 45.70837 | 16.13189 | 155° | 64km/h | 7949m | 4.1m/s | -25.7°C | 18.7% | 0hPa | 2.7V | 00:00:00 | 00:00:00 | 00:00:00 | |
| OM5KV | 2026-09-03 11:41:38 | 45.70881 | 16.13158 | 154° | 66km/h | 7937m | 4.2m/s | -25.6°C | 18.4% | 0hPa | 2.7V | 00:00:00 | 00:00:00 | 00:00:00 | |
| OM5KV | 2026-09-03 11:41:36 | 45.70923 | 16.13124 | 151° | 66km/h | 7925m | 3.0m/s | -25.4°C | 0% | 0hPa | 2.7V | 00:00:00 | 00:00:00 | 00:00:00 | |
| 9A1FER-3 | 2026-09-03 11:41:33 | 45.70966 | 16.13088 | 149° | 64km/h | 7914m | 4.4m/s | -25.3°C | 20.2% | 0hPa | 2.7V | 00:00:00 | 00:36:53 | 00:00:00 | |
| 9A1FER-15 | 2026-09-03 11:41:32 | 45.70980 | 16.13076 | 148° | 62km/h | 7910m | 3.8m/s | -25.3°C | 20.1% | 0hPa | 2.7V | 00:00:00 | 00:36:52 | 00:00:00 | |
| OM5KV | 2026-09-03 11:41:30 | 45.70994 | 16.13064 | 149° | 66km/h | 7906m | 3.8m/s | -25.3°C | 17.9% | 0hPa | 2.7V | 00:00:00 | 00:00:00 | 00:00:00 | |
| 9A1FER-10 | 2026-09-03 11:41:29 | 45.71021 | 16.13039 | 148° | 62km/h | 7898m | 3.7m/s | -25.1°C | 20.1% | 0hPa | 2.7V | 00:00:00 | 00:36:49 | 00:00:00 | |
| OM5KV | 2026-09-03 11:41:25 | 45.71062 | 16.13006 | 152° | 60km/h | 7886m | 4.3m/s | -25.1°C | 17.7% | 0hPa | 2.7V | 00:00:00 | 00:00:00 | 00:00:00 | |
| OM5KV | 2026-09-03 11:41:24 | 45.71075 | 16.12995 | 150° | 60km/h | 7882m | 3.5m/s | -25.0°C | 0% | 0hPa | 2.7V | 00:00:00 | 00:00:00 | 00:00:00 | |
| OM5KV | 2026-09-03 11:41:20 | 45.71131 | 16.12946 | 148° | 64km/h | 7866m | 4.8m/s | -24.9°C | 18.1% | 0hPa | 2.7V | 00:00:00 | 00:00:00 | 00:00:00 | |
| OM5KV | 2026-09-03 11:41:19 | 45.71157 | 16.12921 | 145° | 58km/h | 7857m | 4.9m/s | -24.8°C | 0% | 0hPa | 2.7V | 00:00:00 | 00:00:00 | 00:00:00 | |
| 9A1FER-3 | 2026-09-03 11:41:18 | 45.71169 | 16.12908 | 144° | 62km/h | 7853m | 2.9m/s | -24.7°C | 20.3% | 0hPa | 2.7V | 00:00:00 | 00:36:38 | 00:00:00 | |
| 9A1FER-15 | 2026-09-03 11:41:17 | 45.71181 | 16.12896 | 146° | 62km/h | 7849m | 5.3m/s | -24.7°C | 20.3% | 0hPa | 2.9V | 00:00:00 | 00:36:37 | 00:00:00 | |
| 9A1FER-10 | 2026-09-03 11:41:14 | 45.71219 | 16.12863 | 152° | 64km/h | 7838m | 4.8m/s | -24.6°C | 20.9% | 0hPa | 2.9V | 00:00:00 | 00:36:34 | 00:00:00 | |
| OM5KV | 2026-09-03 11:41:12 | 45.71233 | 16.12852 | 151° | 62km/h | 7834m | 3.8m/s | 0°C | 0% | 0hPa | 2.9V | 00:00:00 | 00:00:00 | 00:00:00 | |
| OM5KV | 2026-09-03 11:41:08 | 45.71288 | 16.12801 | 147° | 66km/h | 7817m | 3.7m/s | -24.5°C | 0% | 0hPa | 2.9V | 00:00:00 | 00:00:00 | 00:00:00 | |
| OM5KV | 2026-09-03 11:41:07 | 45.71301 | 16.12788 | 146° | 62km/h | 7813m | 4.6m/s | 0°C | 0% | 0hPa | 2.9V | 00:00:00 | 00:00:00 | 00:00:00 | |
| OM5KV | 2026-09-03 11:41:04 | 45.71340 | 16.12751 | 147° | 60km/h | 7802m | 3.0m/s | -24.3°C | 19.2% | 0hPa | 2.9V | 00:00:00 | 00:00:00 | 00:00:00 | |
| 9A1FER-3 | 2026-09-03 11:41:03 | 45.71366 | 16.12726 | 147° | 64km/h | 7794m | 2.9m/s | -24.2°C | 21.7% | 0hPa | 2.9V | 00:00:00 | 00:36:23 | 00:00:00 | |
| 9A1FER-15 | 2026-09-03 11:41:02 | 45.71380 | 16.12714 | 149° | 66km/h | 7791m | 4.3m/s | -24.2°C | 21.6% | 0hPa | 2.9V | 00:00:00 | 00:36:22 | 00:00:00 | |
| OM5KV | 2026-09-03 11:41:00 | 45.71394 | 16.12702 | 152° | 64km/h | 7786m | 3.8m/s | -24.2°C | 0% | 0hPa | 2.9V | 00:00:00 | 00:00:00 | 00:00:00 | |
| 9A1FER-10 | 2026-09-03 11:40:59 | 45.71423 | 16.12678 | 148° | 66km/h | 7779m | 3.9m/s | -24.1°C | 21.7% | 0hPa | 2.9V | 00:00:00 | 00:36:19 | 00:00:00 | |
| OM5KV | 2026-09-03 11:40:56 | 45.71451 | 16.12653 | 150° | 66km/h | 7771m | 5.0m/s | 0°C | 0% | 0hPa | 2.9V | 00:00:00 | 00:00:00 | 00:00:00 | |
| 9A1FER-3 | 2026-09-03 11:40:48 | 45.71572 | 16.12534 | 149° | 66km/h | 7733m | 3.2m/s | -23.6°C | 22.0% | 0hPa | 2.9V | 00:00:00 | 00:36:08 | 00:00:00 | |
| 9A1FER-10 | 2026-09-03 11:40:44 | 45.71630 | 16.12482 | 149° | 66km/h | 7717m | 4.5m/s | -23.5°C | 22.3% | 0hPa | 2.9V | 00:00:00 | 00:36:04 | 00:00:00 | |
| OM5KV | 2026-09-03 11:40:43 | 45.71645 | 16.12469 | 148° | 68km/h | 7713m | 3.0m/s | -23.5°C | 0% | 0hPa | 2.9V | 00:00:00 | 00:00:00 | 00:00:00 | |
| OM5KV | 2026-09-03 11:40:42 | 45.71645 | 16.12469 | 148° | 68km/h | 7713m | 3.0m/s | -23.5°C | 0% | 0hPa | 2.9V | 00:00:00 | 00:00:00 | 00:00:00 | |
| OM5KV | 2026-09-03 11:40:39 | 45.71701 | 16.12415 | 148° | 66km/h | 7697m | 3.6m/s | 0°C | 0% | 0hPa | 2.9V | 00:00:00 | 00:00:00 | 00:00:00 | |
| OM5KV | 2026-09-03 11:40:37 | 45.71714 | 16.12402 | 148° | 64km/h | 7692m | 5.0m/s | -23.3°C | 0% | 0hPa | 2.9V | 00:00:00 | 00:00:00 | 00:00:00 | |
| OM5KV | 2026-09-03 11:40:36 | 45.71728 | 16.12389 | 148° | 64km/h | 7687m | 4.6m/s | -23.3°C | 0% | 0hPa | 2.9V | 00:00:00 | 00:00:00 | 00:00:00 | |
| 9A1FER-3 | 2026-09-03 11:40:33 | 45.71783 | 16.12338 | 147° | 68km/h | 7670m | 3.7m/s | -23.1°C | 23.0% | 0hPa | 2.9V | 00:00:00 | 00:35:53 | 08:30:00 | |
| 9A1FER-15 | 2026-09-03 11:40:32 | 45.71797 | 16.12326 | 147° | 68km/h | 7666m | 4.1m/s | -23.0°C | 23.0% | 0hPa | 2.9V | 00:00:00 | 00:35:52 | 08:30:00 | |
| OM5KV | 2026-09-03 11:40:31 | 45.71797 | 16.12326 | 148° | 66km/h | 7666m | 4.1m/s | -23.1°C | 0% | 0hPa | 2.9V | 00:00:00 | 00:00:00 | 00:00:00 | |
| OM5KV | 2026-09-03 11:40:30 | 45.71810 | 16.12313 | 147° | 64km/h | 7663m | 3.0m/s | -23.1°C | 0% | 0hPa | 2.9V | 00:00:00 | 00:00:00 | 00:00:00 | |
| 9A1FER-10 | 2026-09-03 11:40:29 | 45.71837 | 16.12285 | 143° | 68km/h | 7654m | 3.3m/s | -22.9°C | 23.0% | 0hPa | 2.9V | 00:00:00 | 00:35:49 | 08:30:00 | |
| OM5KV | 2026-09-03 11:40:24 | 45.71892 | 16.12226 | 146° | 71km/h | 7637m | 3.5m/s | 0°C | 0% | 0hPa | 2.9V | 00:00:00 | 00:00:00 | 00:00:00 | |
| 9A1FER-3 | 2026-09-03 11:40:18 | 45.71994 | 16.12134 | 152° | 69km/h | 7611m | 2.8m/s | -22.6°C | 23.7% | 0hPa | 2.9V | 00:00:00 | 00:35:38 | 00:00:00 | |
| 9A1FER-15 | 2026-09-03 11:40:17 | 45.72008 | 16.12122 | 151° | 69km/h | 7607m | 4.7m/s | -22.6°C | 23.9% | 0hPa | 2.9V | 00:00:00 | 00:35:37 | 00:00:00 | |
| OM5KV | 2026-09-03 11:40:15 | 45.72038 | 16.12097 | 148° | 68km/h | 7600m | 3.6m/s | 0°C | 0% | 0hPa | 2.9V | 00:00:00 | 00:00:00 | 00:00:00 | |
| 9A1FER-10 | 2026-09-03 11:40:14 | 45.72051 | 16.12083 | 145° | 69km/h | 7596m | 5.0m/s | -22.5°C | 24.7% | 0hPa | 2.9V | 00:00:00 | 00:35:34 | 00:00:00 | |
| OM5KV | 2026-09-03 11:40:08 | 45.72140 | 16.12000 | 152° | 71km/h | 7571m | 5.5m/s | 0°C | 0% | 0hPa | 2.9V | 00:00:00 | 00:00:00 | 00:00:00 | |
| 9A1FER-3 | 2026-09-03 11:40:03 | 45.72218 | 16.11940 | 150° | 69km/h | 7550m | 3.3m/s | -22.2°C | 24.9% | 0hPa | 2.9V | 00:00:00 | 00:35:23 | 00:00:00 | |
| 9A1FER-15 | 2026-09-03 11:40:02 | 45.72233 | 16.11927 | 149° | 69km/h | 7546m | 5.2m/s | -22.2°C | 24.6% | 0hPa | 2.9V | 00:00:00 | 00:35:22 | 00:00:00 | |
| 9A1FER-10 | 2026-09-03 11:39:59 | 45.72277 | 16.11887 | 148° | 69km/h | 7534m | 2.2m/s | -22.1°C | 24.2% | 0hPa | 2.9V | 00:00:00 | 00:35:19 | 00:00:00 | |
| OM5KV | 2026-09-03 11:39:56 | 45.72307 | 16.11861 | 150° | 68km/h | 7527m | 4.6m/s | 0°C | 0% | 0hPa | 2.9V | 00:00:00 | 00:00:00 | 00:00:00 | |
| 9A1FER-3 | 2026-09-03 11:39:48 | 45.72445 | 16.11752 | 150° | 71km/h | 7492m | 4.7m/s | -21.7°C | 22.3% | 0hPa | 2.9V | 00:00:00 | 00:35:08 | 00:00:00 | |
| 9A1FER-15 | 2026-09-03 11:39:47 | 45.72459 | 16.11740 | 151° | 71km/h | 7488m | 3.5m/s | -21.7°C | 22.2% | 0hPa | 2.9V | 00:00:00 | 00:35:07 | 00:00:00 | |
| 9A1FER-10 | 2026-09-03 11:39:44 | 45.72506 | 16.11700 | 150° | 69km/h | 7476m | 4.4m/s | -21.6°C | 22.1% | 0hPa | 2.9V | 00:00:00 | 00:35:04 | 00:00:00 | |
| 9A1FER-3 | 2026-09-03 11:39:33 | 45.72675 | 16.11558 | 148° | 71km/h | 7431m | 2.7m/s | -21.2°C | 23.0% | 0hPa | 2.9V | 00:00:00 | 00:34:53 | 00:00:00 | |
| 9A1FER-15 | 2026-09-03 11:39:32 | 45.72689 | 16.11545 | 148° | 71km/h | 7427m | 5.5m/s | -21.2°C | 22.6% | 0hPa | 2.9V | 00:00:00 | 00:34:52 | 00:00:00 | |
| 9A1FER-10 | 2026-09-03 11:39:29 | 45.72734 | 16.11503 | 146° | 71km/h | 7414m | 4.1m/s | -21.1°C | 21.0% | 0hPa | 2.9V | 00:00:00 | 00:34:49 | 00:00:00 | |
| 9A1FER-15 | 2026-09-03 11:39:18 | 45.72921 | 16.11352 | 151° | 68km/h | 7368m | 3.1m/s | -20.9°C | 13.8% | 0hPa | 2.9V | 00:00:00 | 00:34:37 | 00:00:00 | |
| 9A1FER-10 | 2026-09-03 11:39:14 | 45.72968 | 16.11316 | 153° | 68km/h | 7355m | 5.6m/s | -20.9°C | 13.0% | 0hPa | 2.9V | 00:00:00 | 00:34:34 | 00:00:00 | |
| 9A1FER-3 | 2026-09-03 11:39:03 | 45.73129 | 16.11179 | 151° | 66km/h | 7309m | 4.0m/s | -20.5°C | 10.8% | 0hPa | 2.9V | 00:00:00 | 00:34:23 | 00:00:00 | |
| 9A1FER-15 | 2026-09-03 11:39:02 | 45.73144 | 16.11167 | 151° | 66km/h | 7305m | 2.8m/s | -20.5°C | 10.7% | 0hPa | 2.9V | 00:00:00 | 00:34:22 | 00:00:00 | |
| 9A1FER-10 | 2026-09-03 11:38:59 | 45.73189 | 16.11132 | 152° | 66km/h | 7294m | 3.5m/s | -20.4°C | 10.1% | 0hPa | 2.9V | 00:00:00 | 00:34:19 | 00:00:00 | |
| 9A1FER-3 | 2026-09-03 11:38:48 | 45.73347 | 16.11007 | 150° | 66km/h | 7248m | 5.0m/s | -20.2°C | 8.7% | 0hPa | 2.9V | 00:00:00 | 00:34:08 | 00:00:00 | |
| 9A1FER-15 | 2026-09-03 11:38:47 | 45.73361 | 16.10995 | 150° | 64km/h | 7244m | 3.5m/s | -20.1°C | 8.6% | 0hPa | 2.9V | 00:00:00 | 00:34:07 | 00:00:00 | |
| 9A1FER-10 | 2026-09-03 11:38:44 | 45.73404 | 16.10959 | 150° | 64km/h | 7230m | 5.8m/s | -20.1°C | 8.8% | 0hPa | 2.9V | 00:00:00 | 00:34:04 | 00:00:00 | |
| 9A1FER-3 | 2026-09-03 11:38:34 | 45.73566 | 16.10847 | 156° | 66km/h | 7184m | 4.3m/s | -19.9°C | 9.1% | 0hPa | 2.9V | 00:00:00 | 00:33:53 | 00:00:00 | |
| 9A1FER-15 | 2026-09-03 11:38:32 | 45.73580 | 16.10837 | 155° | 66km/h | 7180m | 3.1m/s | -19.9°C | 9.2% | 0hPa | 2.9V | 00:00:00 | 00:33:52 | 00:00:00 | |
| 9A1FER-10 | 2026-09-03 11:38:29 | 45.73621 | 16.10805 | 150° | 66km/h | 7168m | 4.3m/s | -19.9°C | 9.6% | 0hPa | 2.9V | 00:00:00 | 00:33:49 | 00:00:00 | |
| 9A1FER-3 | 2026-09-03 11:38:18 | 45.73784 | 16.10680 | 151° | 68km/h | 7121m | 5.3m/s | -19.8°C | 10.6% | 0hPa | 2.9V | 00:00:00 | 00:33:38 | 08:30:00 | |
| 9A1FER-15 | 2026-09-03 11:38:17 | 45.73798 | 16.10668 | 150° | 68km/h | 7117m | 3.1m/s | -19.7°C | 10.8% | 0hPa | 2.9V | 00:00:00 | 00:33:37 | 08:30:00 | |
| 9A1FER-10 | 2026-09-03 11:38:14 | 45.73841 | 16.10635 | 155° | 69km/h | 7107m | 2.9m/s | -19.7°C | 12.6% | 0hPa | 2.9V | 00:00:00 | 00:33:34 | 08:30:00 | |
| 9A1FER-3 | 2026-09-03 11:38:03 | 45.74012 | 16.10508 | 152° | 68km/h | 7063m | 4.7m/s | -19.7°C | 19.4% | 0hPa | 2.9V | 00:00:00 | 00:33:23 | 00:00:00 | |
| 9A1FER-15 | 2026-09-03 11:38:02 | 45.74027 | 16.10496 | 151° | 68km/h | 7059m | 3.7m/s | -19.7°C | 20.6% | 0hPa | 2.9V | 00:00:00 | 00:33:22 | 00:00:00 | |
| 9A1FER-10 | 2026-09-03 11:37:59 | 45.74072 | 16.10462 | 152° | 68km/h | 7045m | 5.2m/s | -19.7°C | 21.7% | 0hPa | 2.9V | 00:00:00 | 00:33:19 | 00:00:00 | |
| 9A1FER-3 | 2026-09-03 11:37:48 | 45.74237 | 16.10332 | 150° | 68km/h | 6999m | 5.3m/s | -19.5°C | 28.5% | 0hPa | 2.9V | 00:00:00 | 00:33:08 | 00:00:00 | |
| 9A1FER-15 | 2026-09-03 11:37:47 | 45.74252 | 16.10319 | 151° | 66km/h | 6995m | 3.6m/s | -19.5°C | 28.8% | 0hPa | 2.9V | 00:00:00 | 00:33:07 | 00:00:00 | |
| 9A1FER-10 | 2026-09-03 11:37:44 | 45.74299 | 16.10280 | 151° | 66km/h | 6981m | 5.3m/s | -19.5°C | 32.6% | 0hPa | 2.9V | 00:00:00 | 00:33:04 | 00:00:00 | |
| 9A1FER-3 | 2026-09-03 11:37:33 | 45.74456 | 16.10150 | 149° | 68km/h | 6934m | 4.9m/s | -19.3°C | 55.0% | 0hPa | 2.9V | 00:00:00 | 00:32:53 | 00:00:00 | |
| 9A1FER-15 | 2026-09-03 11:37:32 | 45.74470 | 16.10138 | 151° | 69km/h | 6930m | 4.3m/s | -19.3°C | 55.5% | 0hPa | 2.9V | 00:00:00 | 00:32:52 | 00:00:00 | |
| 9A1FER-10 | 2026-09-03 11:37:29 | 45.74514 | 16.10101 | 150° | 69km/h | 6917m | 5.7m/s | -19.2°C | 56.2% | 0hPa | 3.0V | 00:00:00 | 00:32:49 | 00:00:00 | |
| 9A1FER-3 | 2026-09-03 11:37:18 | 45.74676 | 16.09952 | 151° | 68km/h | 6864m | 5.9m/s | -18.8°C | 54.9% | 0hPa | 2.9V | 00:00:00 | 00:32:38 | 00:00:00 | |
| 9A1FER-15 | 2026-09-03 11:37:17 | 45.74691 | 16.09939 | 150° | 68km/h | 6859m | 4.2m/s | -18.7°C | 55.1% | 0hPa | 2.9V | 00:00:00 | 00:32:37 | 00:00:00 | |
| 9A1FER-10 | 2026-09-03 11:37:14 | 45.74737 | 16.09897 | 146° | 68km/h | 6844m | 5.4m/s | -18.7°C | 55.2% | 0hPa | 2.9V | 00:00:00 | 00:32:34 | 00:00:00 | |
| 9A1FER-3 | 2026-09-03 11:37:03 | 45.74892 | 16.09757 | 150° | 66km/h | 6793m | 4.0m/s | -18.2°C | 53.0% | 0hPa | 2.9V | 00:00:00 | 00:32:23 | 00:00:00 | |
| 9A1FER-15 | 2026-09-03 11:37:02 | 45.74908 | 16.09744 | 150° | 66km/h | 6788m | 6.9m/s | -18.2°C | 52.6% | 0hPa | 2.9V | 00:00:00 | 00:32:22 | 00:00:00 | |
| 9A1FER-10 | 2026-09-03 11:37:00 | 45.74951 | 16.09705 | 146° | 64km/h | 6771m | 5.4m/s | -18.1°C | 52.9% | 0hPa | 2.9V | 00:00:00 | 00:32:19 | 00:00:00 | |
| 9A1FER-3 | 2026-09-03 11:36:48 | 45.75104 | 16.09575 | 148° | 62km/h | 6710m | 7.4m/s | -17.8°C | 53.3% | 0hPa | 2.9V | 00:00:00 | 00:32:08 | 00:00:00 | |
| 9A1FER-15 | 2026-09-03 11:36:47 | 45.75118 | 16.09562 | 149° | 62km/h | 6703m | 7.0m/s | -17.8°C | 52.8% | 0hPa | 2.9V | 00:00:00 | 00:32:07 | 00:00:00 | |
| 9A1FER-10 | 2026-09-03 11:36:44 | 45.75162 | 16.09524 | 149° | 60km/h | 6680m | 5.6m/s | -17.7°C | 51.8% | 0hPa | 2.9V | 00:00:00 | 00:32:04 | 00:00:00 | |
| 9A1FER-3 | 2026-09-03 11:36:33 | 45.75302 | 16.09389 | 152° | 55km/h | 6618m | 5.1m/s | -17.3°C | 41.2% | 0hPa | 3.0V | 00:00:00 | 00:31:53 | 00:00:00 | |
| 9A1FER-15 | 2026-09-03 11:36:32 | 45.75315 | 16.09378 | 150° | 53km/h | 6614m | 2.7m/s | -17.2°C | 41.0% | 0hPa | 3.0V | 00:00:00 | 00:31:52 | 00:00:00 | |
| 9A1FER-10 | 2026-09-03 11:36:29 | 45.75350 | 16.09349 | 148° | 53km/h | 6597m | 4.8m/s | -17.1°C | 38.9% | 0hPa | 3.0V | 00:00:00 | 00:31:49 | 00:00:00 | |
| 9A1FER-3 | 2026-09-03 11:36:18 | 45.75467 | 16.09216 | 145° | 53km/h | 6535m | 6.5m/s | -16.7°C | 27.6% | 0hPa | 3.0V | 00:00:00 | 00:31:38 | 00:00:00 | |
| 9A1FER-15 | 2026-09-03 11:36:17 | 45.75477 | 16.09205 | 143° | 53km/h | 6529m | 4.2m/s | -16.6°C | 28.1% | 0hPa | 3.0V | 00:00:00 | 00:31:37 | 00:00:00 | |
| 9A1FER-10 | 2026-09-03 11:36:14 | 45.75507 | 16.09174 | 145° | 55km/h | 6511m | 5.4m/s | -16.5°C | 27.6% | 0hPa | 3.0V | 00:00:00 | 00:31:34 | 00:00:00 | |
| 9A1FER-3 | 2026-09-03 11:36:03 | 45.75629 | 16.09042 | 149° | 55km/h | 6448m | 4.9m/s | -15.9°C | 27.9% | 0hPa | 3.0V | 00:00:00 | 00:31:23 | 08:30:00 | |
| 9A1FER-15 | 2026-09-03 11:36:02 | 45.75640 | 16.09032 | 149° | 55km/h | 6443m | 4.1m/s | -15.8°C | 28.0% | 0hPa | 3.0V | 00:00:00 | 00:31:22 | 08:30:00 | |
| 9A1FER-10 | 2026-09-03 11:35:59 | 45.75676 | 16.08998 | 141° | 55km/h | 6430m | 4.5m/s | -15.6°C | 27.8% | 0hPa | 2.9V | 00:00:00 | 00:31:19 | 08:30:00 | |
| 9A1FER-3 | 2026-09-03 11:35:48 | 45.75791 | 16.08858 | 142° | 53km/h | 6369m | 3.8m/s | -15.0°C | 28.3% | 0hPa | 3.0V | 00:00:00 | 00:31:08 | 00:00:00 | |
| 9A1FER-15 | 2026-09-03 11:35:47 | 45.75802 | 16.08847 | 143° | 53km/h | 6365m | 4.8m/s | -15.0°C | 27.9% | 0hPa | 3.0V | 00:00:00 | 00:31:07 | 00:00:00 | |
| 9A1FER-10 | 2026-09-03 11:35:44 | 45.75836 | 16.08813 | 147° | 53km/h | 6348m | 6.2m/s | -14.9°C | 25.8% | 0hPa | 3.0V | 00:00:00 | 00:31:04 | 00:00:00 | |
| 9A1FER-3 | 2026-09-03 11:35:33 | 45.75945 | 16.08676 | 143° | 55km/h | 6283m | 6.0m/s | -14.3°C | 27.6% | 0hPa | 3.0V | 00:00:00 | 00:30:53 | 00:00:00 | |
| 9A1FER-15 | 2026-09-03 11:35:32 | 45.75955 | 16.08665 | 145° | 55km/h | 6277m | 5.8m/s | -14.2°C | 26.6% | 0hPa | 3.0V | 00:00:00 | 00:30:52 | 00:00:00 | |
| 9A1FER-10 | 2026-09-03 11:35:29 | 45.75990 | 16.08632 | 148° | 55km/h | 6261m | 4.4m/s | -14.0°C | 22.5% | 0hPa | 3.0V | 00:00:00 | 00:30:49 | 00:00:00 | |
| 9A1FER-3 | 2026-09-03 11:35:18 | 45.76113 | 16.08508 | 142° | 53km/h | 6211m | 8.2m/s | -13.5°C | 24.3% | 0hPa | 3.0V | 00:00:00 | 00:30:38 | 00:00:00 | |
| 9A1FER-15 | 2026-09-03 11:35:17 | 45.76124 | 16.08496 | 143° | 53km/h | 6203m | 8.2m/s | -13.4°C | 24.9% | 0hPa | 3.0V | 00:00:00 | 00:30:37 | 00:00:00 | |
| 9A1FER-10 | 2026-09-03 11:35:14 | 45.76161 | 16.08461 | 152° | 51km/h | 6182m | 7.6m/s | -13.3°C | 26.0% | 0hPa | 2.9V | 00:00:00 | 00:30:34 | 00:00:00 | |
| 9A1FER-3 | 2026-09-03 11:35:03 | 45.76281 | 16.08356 | 154° | 57km/h | 6120m | 7.3m/s | -12.7°C | 22.9% | 0hPa | 3.0V | 00:00:00 | 00:30:23 | 00:00:00 | |
| 9A1FER-15 | 2026-09-03 11:35:02 | 45.76292 | 16.08348 | 155° | 57km/h | 6114m | 6.4m/s | -12.7°C | 24.4% | 0hPa | 3.0V | 00:00:00 | 00:30:22 | 00:00:00 | |
| 9A1FER-10 | 2026-09-03 11:34:59 | 45.76328 | 16.08321 | 148° | 57km/h | 6098m | 7.9m/s | -12.5°C | 24.2% | 0hPa | 3.0V | 00:00:00 | 00:30:19 | 00:00:00 | |
| 9A1FER-3 | 2026-09-03 11:34:48 | 45.76462 | 16.08196 | 156° | 55km/h | 6020m | 6.1m/s | -12.1°C | 24.6% | 0hPa | 3.0V | 00:00:00 | 00:30:08 | 00:00:00 | |
| 9A1FER-15 | 2026-09-03 11:34:47 | 45.76474 | 16.08188 | 157° | 55km/h | 6015m | 5.0m/s | -12.0°C | 25.0% | 0hPa | 3.0V | 00:00:00 | 00:30:07 | 00:00:00 | |
| 9A1FER-10 | 2026-09-03 11:34:44 | 45.76510 | 16.08162 | 150° | 57km/h | 5995m | 7.1m/s | -11.8°C | 25.9% | 0hPa | 3.0V | 00:00:00 | 00:30:04 | 00:00:00 | |
| 9A1FER-3 | 2026-09-03 11:34:33 | 45.76650 | 16.08071 | 155° | 58km/h | 5922m | 6.8m/s | -11.2°C | 12.8% | 0hPa | 3.0V | 00:00:00 | 00:29:53 | 00:00:00 | |
| 9A1FER-15 | 2026-09-03 11:34:32 | 45.76664 | 16.08061 | 152° | 58km/h | 5915m | 6.3m/s | -11.2°C | 11.5% | 0hPa | 3.0V | 00:00:00 | 00:29:52 | 00:00:00 | |
| 9A1FER-10 | 2026-09-03 11:34:29 | 45.76702 | 16.08031 | 152° | 58km/h | 5894m | 6.4m/s | -11.1°C | 5.5% | 0hPa | 3.0V | 00:00:00 | 00:29:49 | 00:00:00 | |
| 9A1FER-3 | 2026-09-03 11:34:18 | 45.76845 | 16.07921 | 152° | 55km/h | 5824m | 5.9m/s | -10.7°C | 4.8% | 0hPa | 3.0V | 00:00:00 | 00:29:38 | 00:00:00 | |
| 9A1FER-15 | 2026-09-03 11:34:17 | 45.76858 | 16.07910 | 153° | 55km/h | 5818m | 4.6m/s | -10.7°C | 4.7% | 0hPa | 3.0V | 00:00:00 | 00:29:37 | 00:00:00 | |
| 9A1FER-10 | 2026-09-03 11:34:14 | 45.76898 | 16.07883 | 157° | 53km/h | 5803m | 5.4m/s | -10.5°C | 4.6% | 0hPa | 3.0V | 00:00:00 | 00:29:34 | 00:00:00 | |
| 9A1FER-3 | 2026-09-03 11:34:03 | 45.77032 | 16.07797 | 151° | 51km/h | 5745m | 4.9m/s | -10.2°C | 4.4% | 0hPa | 3.0V | 00:00:00 | 00:29:23 | 00:00:00 | |
| 9A1FER-15 | 2026-09-03 11:34:02 | 45.77045 | 16.07786 | 148° | 49km/h | 5741m | 3.1m/s | -10.2°C | 4.4% | 0hPa | 3.0V | 00:00:00 | 00:29:22 | 00:00:00 | |
| 9A1FER-10 | 2026-09-03 11:33:59 | 45.77079 | 16.07755 | 152° | 49km/h | 5727m | 4.3m/s | -10.1°C | 4.4% | 0hPa | 3.0V | 00:00:00 | 00:29:19 | 00:00:00 | |
| 9A1FER-3 | 2026-09-03 11:33:48 | 45.77202 | 16.07677 | 160° | 53km/h | 5672m | 6.1m/s | -9.7°C | 4.4% | 0hPa | 3.0V | 00:00:00 | 00:29:08 | 08:30:00 | |
| 9A1FER-10 | 2026-09-03 11:33:44 | 45.77253 | 16.07649 | 156° | 55km/h | 5646m | 6.7m/s | -9.7°C | 4.5% | 0hPa | 3.0V | 00:00:00 | 00:29:04 | 08:30:00 | |
| 9A1FER-3 | 2026-09-03 11:33:33 | 45.77382 | 16.07553 | 157° | 55km/h | 5577m | 4.7m/s | -9.4°C | 4.8% | 0hPa | 3.0V | 00:00:00 | 00:28:53 | 00:00:00 | |
| 9A1FER-15 | 2026-09-03 11:33:32 | 45.77396 | 16.07545 | 156° | 55km/h | 5573m | 3.5m/s | -9.3°C | 4.8% | 0hPa | 3.0V | 00:00:00 | 00:28:52 | 00:00:00 | |
| 9A1FER-10 | 2026-09-03 11:33:29 | 45.77435 | 16.07516 | 151° | 55km/h | 5559m | 4.5m/s | -9.4°C | 5.1% | 0hPa | 3.0V | 00:00:00 | 00:28:49 | 00:00:00 | |
| 9A1FER-3 | 2026-09-03 11:33:18 | 45.77569 | 16.07420 | 154° | 58km/h | 5498m | 4.4m/s | -9.0°C | 5.1% | 0hPa | 3.0V | 00:00:00 | 00:28:38 | 00:00:00 | |
| 9A1FER-15 | 2026-09-03 11:33:17 | 45.77582 | 16.07410 | 152° | 58km/h | 5494m | 4.6m/s | -8.9°C | 5.2% | 0hPa | 3.0V | 00:00:00 | 00:28:37 | 00:00:00 | |
| 9A1FER-10 | 2026-09-03 11:33:14 | 45.77622 | 16.07379 | 154° | 57km/h | 5477m | 3.9m/s | -8.8°C | 5.6% | 0hPa | 3.0V | 00:00:00 | 00:28:34 | 00:00:00 | |
| 9A1FER-3 | 2026-09-03 11:33:03 | 45.77772 | 16.07292 | 155° | 53km/h | 5424m | 7.1m/s | -8.9°C | 6.5% | 0hPa | 3.0V | 00:00:00 | 00:28:23 | 00:00:00 | |
| 9A1FER-15 | 2026-09-03 11:33:02 | 45.77784 | 16.07283 | 152° | 53km/h | 5418m | 6.3m/s | -8.9°C | 6.7% | 0hPa | 3.0V | 00:00:00 | 00:28:22 | 00:00:00 | |
| 9A1FER-10 | 2026-09-03 11:32:59 | 45.77819 | 16.07253 | 150° | 51km/h | 5399m | 5.4m/s | -8.9°C | 7.7% | 0hPa | 3.0V | 00:00:00 | 00:28:19 | 00:00:00 | |
| 9A1FER-3 | 2026-09-03 11:32:48 | 45.77953 | 16.07173 | 158° | 51km/h | 5335m | 6.1m/s | -8.4°C | 5.4% | 0hPa | 3.0V | 00:00:00 | 00:28:08 | 00:00:00 | |
| 9A1FER-15 | 2026-09-03 11:32:47 | 45.77965 | 16.07166 | 159° | 49km/h | 5329m | 5.5m/s | -8.3°C | 5.1% | 0hPa | 3.0V | 00:00:00 | 00:28:07 | 00:00:00 | |
| 9A1FER-10 | 2026-09-03 11:32:44 | 45.77999 | 16.07149 | 164° | 49km/h | 5313m | 5.1m/s | -8.2°C | 5.0% | 0hPa | 3.0V | 00:00:00 | 00:28:04 | 00:00:00 | |
| 9A1FER-3 | 2026-09-03 11:32:33 | 45.78132 | 16.07078 | 161° | 47km/h | 5243m | 7.2m/s | -7.7°C | 6.1% | 0hPa | 3.0V | 00:00:00 | 00:27:53 | 00:00:00 | |
| 9A1FER-15 | 2026-09-03 11:32:32 | 45.78143 | 16.07073 | 162° | 47km/h | 5238m | 4.1m/s | -7.6°C | 6.0% | 0hPa | 3.0V | 00:00:00 | 00:27:52 | 00:00:00 | |
| 9A1FER-10 | 2026-09-03 11:32:29 | 45.78177 | 16.07056 | 163° | 46km/h | 5222m | 4.7m/s | -7.5°C | 5.9% | 0hPa | 3.0V | 00:00:00 | 00:27:49 | 00:00:00 | |
| 9A1FER-3 | 2026-09-03 11:32:18 | 45.78300 | 16.06992 | 159° | 44km/h | 5162m | 6.9m/s | -7.3°C | 6.2% | 0hPa | 3.0V | 00:00:00 | 00:27:38 | 00:00:00 | |
| 9A1FER-15 | 2026-09-03 11:32:17 | 45.78309 | 16.06986 | 156° | 44km/h | 5156m | 5.3m/s | -7.2°C | 5.9% | 0hPa | 3.0V | 00:00:00 | 00:27:37 | 00:00:00 | |
| 9A1FER-10 | 2026-09-03 11:32:14 | 45.78342 | 16.06967 | 160° | 42km/h | 5139m | 5.6m/s | -7.2°C | 5.7% | 0hPa | 3.0V | 00:00:00 | 00:27:34 | 00:00:00 | |
| 9A1FER-3 | 2026-09-03 11:32:03 | 45.78456 | 16.06918 | 176° | 40km/h | 5076m | 6.4m/s | -7.0°C | 7.9% | 0hPa | 3.0V | 00:00:00 | 00:27:23 | 00:00:00 | |
| 9A1FER-15 | 2026-09-03 11:32:02 | 45.78466 | 16.06917 | 178° | 40km/h | 5069m | 6.2m/s | -7.0°C | 8.6% | 0hPa | 3.0V | 00:00:00 | 00:27:22 | 00:00:00 | |
| 9A1FER-10 | 2026-09-03 11:31:59 | 45.78495 | 16.06915 | 177° | 38km/h | 5054m | 5.6m/s | -7.0°C | 11.3% | 0hPa | 3.0V | 00:00:00 | 00:27:19 | 00:00:00 | |
| 9A1FER-3 | 2026-09-03 11:31:48 | 45.78605 | 16.06888 | 164° | 38km/h | 4987m | 5.9m/s | -7.5°C | 25.3% | 0hPa | 3.0V | 00:00:00 | 00:27:08 | 00:00:00 | |
| 9A1FER-15 | 2026-09-03 11:31:47 | 45.78612 | 16.06883 | 156° | 38km/h | 4981m | 6.5m/s | -7.6°C | 26.7% | 0hPa | 3.0V | 00:00:00 | 00:27:07 | 00:00:00 | |
| 9A1FER-10 | 2026-09-03 11:31:44 | 45.78638 | 16.06868 | 159° | 38km/h | 4961m | 6.4m/s | -7.6°C | 31.4% | 0hPa | 3.0V | 00:00:00 | 00:27:04 | 00:00:00 | |
| 9A1FER-3 | 2026-09-03 11:31:33 | 45.78738 | 16.06812 | 151° | 37km/h | 4905m | 6.4m/s | -7.7°C | 47.5% | 0hPa | 3.0V | 00:00:00 | 00:26:53 | 08:30:00 | |
| 9A1FER-15 | 2026-09-03 11:31:32 | 45.78748 | 16.06805 | 156° | 37km/h | 4898m | 6.6m/s | -7.7°C | 49.0% | 0hPa | 3.0V | 00:00:00 | 00:26:52 | 08:30:00 | |
| 9A1FER-10 | 2026-09-03 11:31:29 | 45.78773 | 16.06789 | 155° | 37km/h | 4879m | 6.0m/s | -7.7°C | 52.6% | 0hPa | 3.0V | 00:00:00 | 00:26:49 | 08:30:00 | |
| 9A1FER-3 | 2026-09-03 11:31:18 | 45.78860 | 16.06710 | 147° | 33km/h | 4816m | 5.7m/s | -7.2°C | 56.3% | 0hPa | 3.0V | 00:00:00 | 00:26:38 | 00:00:00 | |
| 9A1FER-15 | 2026-09-03 11:31:17 | 45.78867 | 16.06703 | 145° | 35km/h | 4810m | 4.7m/s | -7.2°C | 56.8% | 0hPa | 3.0V | 00:00:00 | 00:26:37 | 00:00:00 | |
| 9A1FER-10 | 2026-09-03 11:31:14 | 45.78886 | 16.06684 | 150° | 35km/h | 4795m | 4.1m/s | -7.1°C | 57.7% | 0hPa | 3.0V | 00:00:00 | 00:26:34 | 00:00:00 | |
| 9A1FER-3 | 2026-09-03 11:31:03 | 45.78967 | 16.06607 | 147° | 37km/h | 4738m | 7.6m/s | -6.7°C | 63.9% | 0hPa | 3.0V | 00:00:00 | 00:26:23 | 00:00:00 | |
| 9A1FER-15 | 2026-09-03 11:31:02 | 45.78975 | 16.06598 | 143° | 38km/h | 4731m | 6.0m/s | -6.7°C | 64.0% | 0hPa | 3.0V | 00:00:00 | 00:26:22 | 00:00:00 | |
| 9A1FER-10 | 2026-09-03 11:30:59 | 45.78997 | 16.06571 | 135° | 38km/h | 4716m | 6.5m/s | -6.5°C | 62.8% | 0hPa | 3.0V | 00:00:00 | 00:26:19 | 00:00:00 | |
| 9A1FER-3 | 2026-09-03 11:30:48 | 45.79080 | 16.06492 | 159° | 35km/h | 4663m | 4.7m/s | -6.0°C | 61.9% | 0hPa | 3.0V | 00:00:00 | 00:26:08 | 00:00:00 | |
| 9A1FER-15 | 2026-09-03 11:30:47 | 45.79090 | 16.06485 | 148° | 33km/h | 4659m | 4.9m/s | -6.0°C | 62.1% | 0hPa | 3.0V | 00:00:00 | 00:26:07 | 00:00:00 | |
| 9A1FER-10 | 2026-09-03 11:30:44 | 45.79113 | 16.06455 | 126° | 33km/h | 4641m | 6.6m/s | -5.8°C | 60.8% | 0hPa | 3.0V | 00:00:00 | 00:26:04 | 00:00:00 | |
| 9A1FER-3 | 2026-09-03 11:30:33 | 45.79184 | 16.06396 | 141° | 33km/h | 4578m | 5.4m/s | -5.2°C | 59.3% | 0hPa | 3.0V | 00:00:00 | 00:25:53 | 00:00:00 | |
| 9A1FER-15 | 2026-09-03 11:30:32 | 45.79192 | 16.06387 | 137° | 31km/h | 4572m | 6.4m/s | -5.2°C | 59.0% | 0hPa | 3.0V | 00:00:00 | 00:25:52 | 00:00:00 | |
| 9A1FER-10 | 2026-09-03 11:30:29 | 45.79211 | 16.06354 | 128° | 27km/h | 4558m | 4.2m/s | -5.0°C | 59.2% | 0hPa | 3.0V | 00:00:00 | 00:25:49 | 00:00:00 | |
| 9A1FER-3 | 2026-09-03 11:30:18 | 45.79277 | 16.06286 | 137° | 26km/h | 4491m | 3.9m/s | -4.4°C | 56.8% | 0hPa | 3.0V | 00:00:00 | 00:25:38 | 00:00:00 | |
| 9A1FER-15 | 2026-09-03 11:30:17 | 45.79281 | 16.06280 | 129° | 24km/h | 4486m | 5.5m/s | -4.3°C | 57.6% | 0hPa | 3.0V | 00:00:00 | 00:25:37 | 00:00:00 | |
| 9A1FER-10 | 2026-09-03 11:30:14 | 45.79292 | 16.06260 | 133° | 26km/h | 4474m | 3.9m/s | -4.2°C | 59.2% | 0hPa | 3.0V | 00:00:00 | 00:25:34 | 00:00:00 | |
| 9A1FER-3 | 2026-09-03 11:30:03 | 45.79343 | 16.06194 | 142° | 31km/h | 4398m | 6.4m/s | -3.7°C | 59.5% | 0hPa | 3.0V | 00:00:00 | 00:25:23 | 00:00:00 | |
| 9A1FER-10 | 2026-09-03 11:29:59 | 45.79368 | 16.06170 | 142° | 35km/h | 4377m | 6.9m/s | -3.5°C | 59.0% | 0hPa | 3.0V | 00:00:00 | 00:25:19 | 00:00:00 | |
| 9A1FER-3 | 2026-09-03 11:29:48 | 45.79437 | 16.06090 | 130° | 37km/h | 4319m | 3.6m/s | -3.0°C | 58.4% | 0hPa | 3.0V | 00:00:00 | 00:25:08 | 00:00:00 | |
| 9A1FER-15 | 2026-09-03 11:29:47 | 45.79443 | 16.06080 | 131° | 35km/h | 4315m | 4.7m/s | -3.0°C | 58.0% | 0hPa | 3.0V | 00:00:00 | 00:25:07 | 00:00:00 | |
| 9A1FER-10 | 2026-09-03 11:29:44 | 45.79461 | 16.06045 | 133° | 35km/h | 4302m | 3.3m/s | -2.9°C | 58.0% | 0hPa | 3.0V | 00:00:00 | 00:25:04 | 00:00:00 | |
| 9A1FER-3 | 2026-09-03 11:29:33 | 45.79529 | 16.05951 | 129° | 33km/h | 4236m | 8.1m/s | -2.3°C | 56.6% | 0hPa | 3.0V | 00:00:00 | 00:24:53 | 00:00:00 | |
| 9A1FER-15 | 2026-09-03 11:29:32 | 45.79534 | 16.05942 | 129° | 33km/h | 4228m | 8.8m/s | -2.3°C | 56.3% | 0hPa | 3.0V | 00:00:00 | 00:24:52 | 00:00:00 | |
| 9A1FER-10 | 2026-09-03 11:29:29 | 45.79553 | 16.05918 | 149° | 35km/h | 4207m | 7.8m/s | -2.0°C | 55.5% | 0hPa | 3.0V | 00:00:00 | 00:24:49 | 00:00:00 | |
| 9A1FER-15 | 2026-09-03 11:29:17 | 45.79635 | 16.05829 | 141° | 38km/h | 4131m | 5.4m/s | -1.5°C | 54.3% | 0hPa | 3.0V | 00:00:00 | 00:24:37 | 08:30:00 | |
| 9A1FER-10 | 2026-09-03 11:29:14 | 45.79656 | 16.05800 | 133° | 37km/h | 4112m | 4.8m/s | -1.3°C | 53.4% | 0hPa | 3.0V | 00:00:00 | 00:24:34 | 08:30:00 | |
| 9A1FER-3 | 2026-09-03 11:29:03 | 45.79738 | 16.05713 | 145° | 35km/h | 4053m | 5.5m/s | -0.8°C | 47.6% | 0hPa | 3.0V | 00:00:00 | 00:24:23 | 00:00:00 | |
| 9A1FER-10 | 2026-09-03 11:28:59 | 45.79767 | 16.05684 | 150° | 33km/h | 4032m | 5.4m/s | -0.6°C | 46.3% | 0hPa | 3.0V | 00:00:00 | 00:24:19 | 00:00:00 | |
| 9A1FER-3 | 2026-09-03 11:28:48 | 45.79848 | 16.05618 | 153° | 33km/h | 3979m | 2.4m/s | -0.3°C | 45.8% | 0hPa | 3.0V | 00:00:00 | 00:24:08 | 00:00:00 | |
| 9A1FER-15 | 2026-09-03 11:28:47 | 45.79855 | 16.05612 | 148° | 33km/h | 3975m | 4.7m/s | -0.3°C | 45.9% | 0hPa | 3.0V | 00:00:00 | 00:24:07 | 00:00:00 | |
| 9A1FER-10 | 2026-09-03 11:28:44 | 45.79873 | 16.05590 | 136° | 35km/h | 3963m | 2.4m/s | -0.5°C | 52.9% | 0hPa | 3.0V | 00:00:00 | 00:24:04 | 00:00:00 | |
| 9A1FER-3 | 2026-09-03 11:28:33 | 45.79946 | 16.05504 | 140° | 37km/h | 3912m | 6.7m/s | -0.8°C | 62.9% | 0hPa | 3.0V | 00:00:00 | 00:23:53 | 00:00:00 | |
| 9A1FER-15 | 2026-09-03 11:28:32 | 45.79953 | 16.05494 | 132° | 37km/h | 3907m | 4.4m/s | -0.7°C | 62.7% | 0hPa | 3.0V | 00:00:00 | 00:23:52 | 00:00:00 | |
| 9A1FER-10 | 2026-09-03 11:28:29 | 45.79973 | 16.05462 | 135° | 37km/h | 3894m | 5.2m/s | -0.7°C | 64.4% | 0hPa | 3.0V | 00:00:00 | 00:23:49 | 00:00:00 | |
| 9A1FER-3 | 2026-09-03 11:28:18 | 45.80042 | 16.05370 | 130° | 33km/h | 3846m | 4.8m/s | -0.7°C | 69.8% | 0hPa | 3.0V | 00:00:00 | 00:23:38 | 00:00:00 | |
| 9A1FER-15 | 2026-09-03 11:28:17 | 45.80050 | 16.05358 | 137° | 33km/h | 3840m | 5.2m/s | -0.8°C | 71.0% | 0hPa | 3.0V | 00:00:00 | 00:23:37 | 00:00:00 | |
| 9A1FER-10 | 2026-09-03 11:28:14 | 45.80072 | 16.05333 | 140° | 33km/h | 3826m | 7.3m/s | -0.7°C | 72.4% | 0hPa | 3.0V | 00:00:00 | 00:23:34 | 00:00:00 | |
| 9A1FER-3 | 2026-09-03 11:28:03 | 45.80102 | 16.05223 | 117° | 40km/h | 3764m | 4.0m/s | -0.1°C | 70.2% | 0hPa | 3.0V | 00:00:00 | 00:23:23 | 00:00:00 | |
| 9A1FER-15 | 2026-09-03 11:28:02 | 45.80106 | 16.05211 | 115° | 40km/h | 3759m | 5.5m/s | -0.1°C | 69.6% | 0hPa | 3.0V | 00:00:00 | 00:23:22 | 00:00:00 | |
| 9A1FER-10 | 2026-09-03 11:27:59 | 45.80119 | 16.05169 | 116° | 38km/h | 3746m | 2.2m/s | -0.0°C | 69.0% | 0hPa | 3.0V | 00:00:00 | 00:23:19 | 00:00:00 | |
| 9A1FER-3 | 2026-09-03 11:27:48 | 45.80144 | 16.05017 | 99° | 35km/h | 3699m | 5.1m/s | 0.3°C | 66.5% | 0hPa | 3.0V | 00:00:00 | 00:23:08 | 00:00:00 | |
| 9A1FER-15 | 2026-09-03 11:27:47 | 45.80145 | 16.05003 | 98° | 35km/h | 3694m | 3.4m/s | 0.4°C | 66.5% | 0hPa | 3.0V | 00:00:00 | 00:23:07 | 00:00:00 | |
| 9A1FER-10 | 2026-09-03 11:27:44 | 45.80151 | 16.04967 | 111° | 35km/h | 3684m | 4.5m/s | 0.4°C | 66.7% | 0hPa | 3.0V | 00:00:00 | 00:23:04 | 00:00:00 | |
| 9A1FER-3 | 2026-09-03 11:27:33 | 45.80192 | 16.04840 | 120° | 35km/h | 3637m | 2.9m/s | 0.5°C | 67.6% | 0hPa | 3.0V | 00:00:00 | 00:22:53 | 00:00:00 | |
| 9A1FER-15 | 2026-09-03 11:27:32 | 45.80197 | 16.04828 | 119° | 35km/h | 3634m | 2.4m/s | 0.5°C | 68.1% | 0hPa | 3.0V | 00:00:00 | 00:22:52 | 00:00:00 | |
| 9A1FER-10 | 2026-09-03 11:27:29 | 45.80206 | 16.04793 | 95° | 35km/h | 3623m | 4.5m/s | 0.4°C | 69.7% | 0hPa | 3.0V | 00:00:00 | 00:22:49 | 00:00:00 | |
| 9A1FER-3 | 2026-09-03 11:27:18 | 45.80250 | 16.04678 | 141° | 27km/h | 3571m | 3.0m/s | 0.7°C | 71.2% | 0hPa | 3.0V | 00:00:00 | 00:22:38 | 00:00:00 | |
| 9A1FER-15 | 2026-09-03 11:27:17 | 45.80257 | 16.04669 | 138° | 27km/h | 3568m | 3.9m/s | 0.6°C | 74.3% | 0hPa | 3.0V | 00:00:00 | 00:22:37 | 00:00:00 | |
| 9A1FER-10 | 2026-09-03 11:27:14 | 45.80270 | 16.04641 | 105° | 26km/h | 3555m | 3.9m/s | 0.6°C | 76.5% | 0hPa | 3.0V | 00:00:00 | 00:22:34 | 00:00:00 | |
| 9A1FER-3 | 2026-09-03 11:27:03 | 45.80301 | 16.04554 | 128° | 29km/h | 3512m | 3.9m/s | 0.7°C | 77.8% | 0hPa | 3.0V | 00:00:00 | 00:22:23 | 08:30:00 | |
| 9A1FER-15 | 2026-09-03 11:27:02 | 45.80306 | 16.04543 | 117° | 29km/h | 3507m | 5.0m/s | 0.8°C | 77.6% | 0hPa | 3.0V | 00:00:00 | 00:22:22 | 08:30:00 | |
| 9A1FER-10 | 2026-09-03 11:26:59 | 45.80313 | 16.04520 | 118° | 31km/h | 3492m | 6.6m/s | 0.9°C | 76.3% | 0hPa | 3.0V | 00:00:00 | 00:22:19 | 08:30:00 | |
| 9A1FER-3 | 2026-09-03 11:26:48 | 45.80356 | 16.04421 | 141° | 37km/h | 3434m | 3.6m/s | 0.8°C | 79.5% | 0hPa | 3.0V | 00:00:00 | 00:22:08 | 00:00:00 | |
| 9A1FER-15 | 2026-09-03 11:26:47 | 45.80363 | 16.04414 | 148° | 37km/h | 3430m | 3.5m/s | 0.9°C | 79.2% | 0hPa | 3.0V | 00:00:00 | 00:22:07 | 00:00:00 | |
| 9A1FER-10 | 2026-09-03 11:26:44 | 45.80387 | 16.04394 | 148° | 37km/h | 3417m | 5.7m/s | 0.9°C | 78.7% | 0hPa | 3.0V | 00:00:00 | 00:22:04 | 00:00:00 | |
| 9A1FER-3 | 2026-09-03 11:26:33 | 45.80471 | 16.04315 | 149° | 40km/h | 3369m | 6.6m/s | 1.1°C | 74.3% | 0hPa | 3.0V | 00:00:00 | 00:21:53 | 00:00:00 | |
| 9A1FER-15 | 2026-09-03 11:26:32 | 45.80478 | 16.04308 | 150° | 40km/h | 3364m | 3.3m/s | 1.1°C | 72.0% | 0hPa | 3.0V | 00:00:00 | 00:21:52 | 00:00:00 | |
| 9A1FER-10 | 2026-09-03 11:26:29 | 45.80503 | 16.04288 | 149° | 38km/h | 3353m | 4.8m/s | 1.2°C | 71.2% | 0hPa | 3.0V | 00:00:00 | 00:21:49 | 00:00:00 | |
| 9A1FER-3 | 2026-09-03 11:26:18 | 45.80598 | 16.04203 | 150° | 37km/h | 3298m | 4.4m/s | 1.5°C | 76.7% | 0hPa | 3.0V | 00:00:00 | 00:21:38 | 00:00:00 | |
| 9A1FER-15 | 2026-09-03 11:26:17 | 45.80605 | 16.04197 | 148° | 37km/h | 3294m | 4.3m/s | 1.6°C | 76.7% | 0hPa | 3.0V | 00:00:00 | 00:21:37 | 00:00:00 | |
| 9A1FER-10 | 2026-09-03 11:26:14 | 45.80627 | 16.04170 | 138° | 38km/h | 3280m | 5.1m/s | 1.7°C | 76.2% | 0hPa | 3.0V | 00:00:00 | 00:21:34 | 00:00:00 | |
| 9A1FER-3 | 2026-09-03 11:26:03 | 45.80705 | 16.04073 | 141° | 40km/h | 3241m | 3.1m/s | 2.0°C | 75.7% | 0hPa | 3.0V | 00:00:00 | 00:21:23 | 00:00:00 | |
| 9A1FER-15 | 2026-09-03 11:26:02 | 45.80713 | 16.04064 | 147° | 40km/h | 3235m | 7.1m/s | 2.0°C | 75.1% | 0hPa | 3.0V | 00:00:00 | 00:21:22 | 00:00:00 | |
| 9A1FER-10 | 2026-09-03 11:25:59 | 45.80736 | 16.04041 | 142° | 38km/h | 3215m | 6.2m/s | 2.2°C | 74.2% | 0hPa | 3.0V | 00:00:00 | 00:21:19 | 00:00:00 | |
| 9A1FER-3 | 2026-09-03 11:25:48 | 45.80820 | 16.03933 | 128° | 38km/h | 3168m | 3.0m/s | 2.6°C | 71.0% | 0hPa | 3.0V | 00:00:00 | 00:21:08 | 00:00:00 | |
| 9A1FER-15 | 2026-09-03 11:25:47 | 45.80824 | 16.03925 | 129° | 38km/h | 3164m | 4.2m/s | 2.6°C | 70.3% | 0hPa | 3.0V | 00:00:00 | 00:21:07 | 00:00:00 | |
| 9A1FER-10 | 2026-09-03 11:25:44 | 45.80844 | 16.03902 | 147° | 40km/h | 3154m | 4.7m/s | 2.6°C | 69.5% | 0hPa | 3.0V | 00:00:00 | 00:21:04 | 00:00:00 | |
| 9A1FER-3 | 2026-09-03 11:25:33 | 45.80934 | 16.03809 | 153° | 42km/h | 3100m | 3.2m/s | 3.0°C | 70.4% | 0hPa | 3.0V | 00:00:00 | 00:20:53 | 00:00:00 | |
| 9A1FER-15 | 2026-09-03 11:25:32 | 45.80942 | 16.03803 | 144° | 42km/h | 3096m | 4.1m/s | 3.0°C | 70.2% | 0hPa | 3.0V | 00:00:00 | 00:20:52 | 00:00:00 | |
| 9A1FER-10 | 2026-09-03 11:25:29 | 45.80967 | 16.03770 | 134° | 40km/h | 3084m | 5.3m/s | 3.1°C | 69.4% | 0hPa | 3.0V | 00:00:00 | 00:20:49 | 00:00:00 | |
| 9A1FER-3 | 2026-09-03 11:25:18 | 45.81062 | 16.03680 | 158° | 38km/h | 3030m | 7.5m/s | 3.5°C | 67.3% | 0hPa | 3.0V | 00:00:00 | 00:20:38 | 00:00:00 | |
| 9A1FER-15 | 2026-09-03 11:25:17 | 45.81071 | 16.03674 | 156° | 38km/h | 3024m | 6.0m/s | 3.6°C | 67.5% | 0hPa | 3.0V | 00:00:00 | 00:20:37 | 00:00:00 | |
| 9A1FER-10 | 2026-09-03 11:25:14 | 45.81091 | 16.03653 | 130° | 42km/h | 3010m | 3.8m/s | 3.7°C | 67.2% | 0hPa | 3.0V | 00:00:00 | 00:20:34 | 00:00:00 | |
| 9A1FER-3 | 2026-09-03 11:25:03 | 45.81181 | 16.03560 | 151° | 42km/h | 2958m | 4.7m/s | 4.1°C | 67.9% | 0hPa | 3.0V | 00:00:00 | 00:20:23 | 00:00:00 | |
| 9A1FER-15 | 2026-09-03 11:25:02 | 45.81191 | 16.03551 | 152° | 42km/h | 2955m | 2.5m/s | 4.1°C | 68.1% | 0hPa | 3.0V | 00:00:00 | 00:20:22 | 00:00:00 | |
| 9A1FER-10 | 2026-09-03 11:24:59 | 45.81225 | 16.03529 | 159° | 40km/h | 2946m | 3.0m/s | 4.2°C | 68.8% | 0hPa | 3.0V | 00:00:00 | 00:20:19 | 00:00:00 | |
| 9A1FER-3 | 2026-09-03 11:24:48 | 45.81320 | 16.03452 | 149° | 33km/h | 2891m | 2.7m/s | 4.5°C | 67.3% | 0hPa | 3.0V | 00:00:00 | 00:20:08 | 08:30:00 | |
| 9A1FER-15 | 2026-09-03 11:24:47 | 45.81330 | 16.03442 | 146° | 33km/h | 2888m | 4.0m/s | 4.4°C | 67.2% | 0hPa | 3.0V | 00:00:00 | 00:20:07 | 08:30:00 | |
| 9A1FER-10 | 2026-09-03 11:24:44 | 45.81356 | 16.03418 | 151° | 29km/h | 2876m | 4.4m/s | 4.5°C | 66.6% | 0hPa | 3.0V | 00:00:00 | 00:20:04 | 08:30:00 | |
| 9A1FER-3 | 2026-09-03 11:24:33 | 45.81422 | 16.03351 | 142° | 29km/h | 2827m | 6.8m/s | 5.0°C | 66.3% | 0hPa | 3.0V | 00:00:00 | 00:19:53 | 00:00:00 | |
| 9A1FER-15 | 2026-09-03 11:24:32 | 45.81430 | 16.03343 | 146° | 29km/h | 2820m | 6.9m/s | 5.0°C | 67.0% | 0hPa | 3.0V | 00:00:00 | 00:19:52 | 00:00:00 | |
| 9A1FER-10 | 2026-09-03 11:24:29 | 45.81446 | 16.03330 | 151° | 33km/h | 2805m | 5.5m/s | 4.9°C | 70.3% | 0hPa | 3.0V | 00:00:00 | 00:19:49 | 00:00:00 | |
| 9A1FER-3 | 2026-09-03 11:24:18 | 45.81514 | 16.03258 | 151° | 38km/h | 2751m | 5.9m/s | 4.5°C | 72.7% | 0hPa | 3.0V | 00:00:00 | 00:19:38 | 00:00:00 | |
| 9A1FER-15 | 2026-09-03 11:24:17 | 45.81523 | 16.03250 | 145° | 38km/h | 2745m | 4.5m/s | 4.3°C | 74.0% | 0hPa | 3.0V | 00:00:00 | 00:19:37 | 00:00:00 | |
| 9A1FER-10 | 2026-09-03 11:24:14 | 45.81551 | 16.03224 | 157° | 33km/h | 2732m | 2.9m/s | 4.3°C | 0% | 0hPa | 3.0V | 00:00:00 | 00:19:34 | 00:00:00 | |
| 9A1FER-3 | 2026-09-03 11:24:03 | 45.81639 | 16.03155 | 133° | 27km/h | 2691m | 5.8m/s | 5.0°C | 0% | 0hPa | 3.0V | 00:00:00 | 00:19:23 | 00:00:00 | |
| 9A1FER-15 | 2026-09-03 11:24:02 | 45.81644 | 16.03148 | 141° | 27km/h | 2686m | 5.3m/s | 5.1°C | 0% | 0hPa | 3.0V | 00:00:00 | 00:19:22 | 00:00:00 | |
| 9A1FER-10 | 2026-09-03 11:23:59 | 45.81660 | 16.03142 | 176° | 29km/h | 2668m | 4.4m/s | 5.3°C | 0% | 0hPa | 3.0V | 00:00:00 | 00:19:19 | 00:00:00 | |
| 9A1FER-3 | 2026-09-03 11:23:48 | 45.81733 | 16.03093 | 140° | 24km/h | 2612m | 6.5m/s | 5.9°C | 0% | 0hPa | 3.0V | 00:00:00 | 00:19:08 | 00:00:00 | |
| 9A1FER-15 | 2026-09-03 11:23:47 | 45.81738 | 16.03088 | 143° | 26km/h | 2606m | 5.6m/s | 5.8°C | 99.4% | 0hPa | 3.0V | 00:00:00 | 00:19:07 | 00:00:00 | |
| 9A1FER-10 | 2026-09-03 11:23:44 | 45.81758 | 16.03074 | 171° | 27km/h | 2591m | 2.6m/s | 5.9°C | 89.9% | 0hPa | 3.0V | 00:00:00 | 00:19:04 | 00:00:00 | |
| 9A1FER-3 | 2026-09-03 11:23:33 | 45.81819 | 16.03060 | 173° | 33km/h | 2533m | 3.7m/s | 6.7°C | 77.7% | 0hPa | 3.0V | 00:00:00 | 00:18:53 | 00:00:00 | |
| 9A1FER-15 | 2026-09-03 11:23:32 | 45.81829 | 16.03059 | 179° | 33km/h | 2527m | 6.3m/s | 6.7°C | 79.0% | 0hPa | 3.0V | 00:00:00 | 00:18:52 | 00:00:00 | |
| 9A1FER-10 | 2026-09-03 11:23:29 | 45.81855 | 16.03061 | 187° | 31km/h | 2507m | 3.9m/s | 6.5°C | 91.6% | 0hPa | 3.0V | 00:00:00 | 00:18:49 | 00:00:00 | |
| 9A1FER-3 | 2026-09-03 11:23:18 | 45.81943 | 16.03026 | 150° | 20km/h | 2459m | 6.1m/s | 6.7°C | 96.1% | 0hPa | 3.0V | 00:00:00 | 00:18:38 | 00:00:00 | |
| 9A1FER-15 | 2026-09-03 11:23:17 | 45.81949 | 16.03019 | 141° | 18km/h | 2453m | 5.9m/s | 6.7°C | 99.0% | 0hPa | 3.0V | 00:00:00 | 00:18:37 | 00:00:00 | |
| 9A1FER-10 | 2026-09-03 11:23:14 | 45.81964 | 16.03004 | 149° | 16km/h | 2434m | 7.0m/s | 6.9°C | 0% | 0hPa | 3.0V | 00:00:00 | 00:18:34 | 00:00:00 | |
| 9A1FER-3 | 2026-09-03 11:23:03 | 45.82001 | 16.02969 | 132° | 13km/h | 2358m | 7.3m/s | 7.5°C | 97.0% | 0hPa | 3.0V | 00:00:00 | 00:18:23 | 00:00:00 | |
| 9A1FER-15 | 2026-09-03 11:23:02 | 45.82003 | 16.02968 | 156° | 13km/h | 2351m | 7.9m/s | 7.6°C | 96.5% | 0hPa | 3.0V | 00:00:00 | 00:18:22 | 00:00:00 | |
| 9A1FER-10 | 2026-09-03 11:22:59 | 45.82014 | 16.02966 | 168° | 11km/h | 2328m | 6.1m/s | 7.8°C | 94.6% | 0hPa | 3.0V | 00:00:00 | 00:18:19 | 00:00:00 | |
| 9A1FER-15 | 2026-09-03 11:22:47 | 45.82036 | 16.02935 | 66° | 9km/h | 2250m | 3.9m/s | 8.6°C | 91.4% | 0hPa | 3.0V | 00:00:00 | 00:18:07 | 00:00:00 | |
| 9A1FER-10 | 2026-09-03 11:22:44 | 45.82038 | 16.02932 | 177° | 13km/h | 2235m | 6.2m/s | 8.7°C | 91.9% | 0hPa | 3.0V | 00:00:00 | 00:18:04 | 00:00:00 | |
| 9A1FER-3 | 2026-09-03 11:22:33 | 45.82057 | 16.02926 | 118° | 16km/h | 2173m | 6.6m/s | 9.4°C | 84.7% | 0hPa | 3.0V | 00:00:00 | 00:17:53 | 08:30:00 | |
| 9A1FER-15 | 2026-09-03 11:22:32 | 45.82060 | 16.02920 | 131° | 15km/h | 2167m | 4.8m/s | 9.5°C | 84.1% | 0hPa | 3.0V | 00:00:00 | 00:17:52 | 08:30:00 | |
| 9A1FER-10 | 2026-09-03 11:22:29 | 45.82075 | 16.02910 | 175° | 13km/h | 2151m | 5.7m/s | 9.7°C | 82.1% | 0hPa | 3.0V | 00:00:00 | 00:17:49 | 08:30:00 | |
| 9A1FER-3 | 2026-09-03 11:22:18 | 45.82110 | 16.02900 | 214° | 11km/h | 2075m | 7.9m/s | 10.2°C | 84.0% | 0hPa | 3.0V | 00:00:00 | 00:17:38 | 00:00:00 | |
| 9A1FER-15 | 2026-09-03 11:22:17 | 45.82111 | 16.02901 | 266° | 11km/h | 2067m | 7.2m/s | 10.3°C | 82.9% | 0hPa | 3.0V | 00:00:00 | 00:17:37 | 00:00:00 | |
| 9A1FER-10 | 2026-09-03 11:22:14 | 45.82108 | 16.02902 | 77° | 13km/h | 2045m | 5.8m/s | 10.6°C | 81.1% | 0hPa | 3.0V | 00:00:00 | 00:17:34 | 00:00:00 | |
| 9A1FER-3 | 2026-09-03 11:22:03 | 45.82132 | 16.02886 | 93° | 11km/h | 1982m | 5.3m/s | 11.0°C | 81.2% | 0hPa | 3.0V | 00:00:00 | 00:17:23 | 00:00:00 | |
| 9A1FER-15 | 2026-09-03 11:22:02 | 45.82132 | 16.02883 | 100° | 13km/h | 1976m | 5.9m/s | 11.1°C | 83.6% | 0hPa | 3.0V | 00:00:00 | 00:17:22 | 00:00:00 | |
| 9A1FER-10 | 2026-09-03 11:21:59 | 45.82139 | 16.02870 | 152° | 11km/h | 1958m | 5.3m/s | 11.4°C | 78.6% | 0hPa | 3.0V | 00:00:00 | 00:17:19 | 00:00:00 | |
| 9A1FER-3 | 2026-09-03 11:21:48 | 45.82160 | 16.02848 | 174° | 9km/h | 1898m | 4.6m/s | 11.8°C | 80.8% | 0hPa | 3.0V | 00:00:00 | 00:17:08 | 00:00:00 | |
| 9A1FER-15 | 2026-09-03 11:21:47 | 45.82164 | 16.02848 | 191° | 7km/h | 1893m | 4.0m/s | 11.8°C | 79.4% | 0hPa | 3.0V | 00:00:00 | 00:17:07 | 00:00:00 | |
| 9A1FER-10 | 2026-09-03 11:21:44 | 45.82166 | 16.02852 | 304° | 7km/h | 1881m | 5.8m/s | 11.9°C | 79.7% | 0hPa | 3.0V | 00:00:00 | 00:17:04 | 00:00:00 | |
| 9A1FER-3 | 2026-09-03 11:21:33 | 45.82175 | 16.02866 | 345° | 16km/h | 1820m | 5.9m/s | 12.5°C | 78.7% | 0hPa | 3.0V | 00:00:00 | 00:16:53 | 00:00:00 | |
| 9A1FER-15 | 2026-09-03 11:21:32 | 45.82173 | 16.02866 | 43° | 18km/h | 1814m | 5.5m/s | 12.5°C | 78.5% | 0hPa | 3.0V | 00:00:00 | 00:16:52 | 00:00:00 | |
| 9A1FER-10 | 2026-09-03 11:21:29 | 45.82172 | 16.02856 | 94° | 20km/h | 1801m | 4.0m/s | 12.7°C | 78.4% | 0hPa | 3.0V | 00:00:00 | 00:16:49 | 00:00:00 | |
| 9A1FER-3 | 2026-09-03 11:21:18 | 45.82212 | 16.02841 | 211° | 22km/h | 1736m | 8.4m/s | 13.3°C | 76.6% | 0hPa | 3.0V | 00:00:00 | 00:16:38 | 00:00:00 | |
| 9A1FER-15 | 2026-09-03 11:21:17 | 45.82217 | 16.02845 | 207° | 22km/h | 1729m | 7.4m/s | 13.4°C | 77.6% | 0hPa | 3.0V | 00:00:00 | 00:16:37 | 00:00:00 | |
| 9A1FER-10 | 2026-09-03 11:21:14 | 45.82231 | 16.02850 | 186° | 22km/h | 1704m | 9.7m/s | 13.6°C | 75.7% | 0hPa | 3.0V | 00:00:00 | 00:16:34 | 00:00:00 | |
| 9A1FER-3 | 2026-09-03 11:21:03 | 45.82243 | 16.02919 | 278° | 24km/h | 1629m | 7.5m/s | 14.3°C | 73.7% | 0hPa | 3.0V | 00:00:00 | 00:16:23 | 00:00:00 | |
| 9A1FER-15 | 2026-09-03 11:21:02 | 45.82243 | 16.02927 | 271° | 24km/h | 1622m | 6.2m/s | 14.4°C | 74.1% | 0hPa | 3.0V | 00:00:00 | 00:16:22 | 00:00:00 | |
| 9A1FER-10 | 2026-09-03 11:20:59 | 45.82244 | 16.02953 | 261° | 24km/h | 1604m | 7.1m/s | 14.6°C | 73.4% | 0hPa | 3.0V | 00:00:00 | 00:16:19 | 00:00:00 | |
| 9A1FER-3 | 2026-09-03 11:20:48 | 45.82282 | 16.03028 | 245° | 13km/h | 1531m | 8.1m/s | 15.4°C | 69.9% | 0hPa | 3.0V | 00:00:00 | 00:16:08 | 00:00:00 | |
| 9A1FER-15 | 2026-09-03 11:20:47 | 45.82284 | 16.03036 | 248° | 11km/h | 1524m | 5.9m/s | 15.4°C | 69.8% | 0hPa | 3.0V | 00:00:00 | 00:16:07 | 00:00:00 | |
| 9A1FER-10 | 2026-09-03 11:20:44 | 45.82290 | 16.03059 | 240° | 7km/h | 1499m | 6.9m/s | 15.7°C | 68.3% | 0hPa | 3.0V | 00:00:00 | 00:16:04 | 00:00:00 | |
| 9A1FER-3 | 2026-09-03 11:20:33 | 45.82303 | 16.03069 | 17° | 9km/h | 1394m | 8.9m/s | 16.7°C | 64.6% | 0hPa | 3.0V | 00:00:00 | 00:15:53 | 00:00:00 | |
| 9A1FER-15 | 2026-09-03 11:20:32 | 45.82302 | 16.03069 | 53° | 9km/h | 1386m | 7.3m/s | 16.8°C | 64.7% | 0hPa | 3.0V | 00:00:00 | 00:15:52 | 00:00:00 | |
| 9A1FER-10 | 2026-09-03 11:20:29 | 45.82304 | 16.03062 | 116° | 9km/h | 1358m | 6.8m/s | 17.1°C | 63.3% | 0hPa | 3.0V | 00:00:00 | 00:15:49 | 00:00:00 | |
| 9A1FER-3 | 2026-09-03 11:20:18 | 45.82306 | 16.03028 | 201° | 13km/h | 1265m | 8.2m/s | 18.0°C | 61.3% | 0hPa | 3.0V | 00:00:00 | 00:15:38 | 08:30:00 | |
| 9A1FER-15 | 2026-09-03 11:20:17 | 45.82307 | 16.03030 | 260° | 13km/h | 1258m | 7.5m/s | 18.1°C | 61.4% | 0hPa | 3.0V | 00:00:00 | 00:15:37 | 08:30:00 | |
| 9A1FER-10 | 2026-09-03 11:20:14 | 45.82301 | 16.03038 | 347° | 13km/h | 1232m | 10.2m/s | 18.3°C | 61.7% | 0hPa | 3.0V | 00:00:00 | 00:15:34 | 08:30:00 | |
| 9A1FER-3 | 2026-09-03 11:20:03 | 45.82277 | 16.03061 | 1° | 11km/h | 1146m | 7.6m/s | 19.1°C | 59.0% | 0hPa | 3.0V | 00:00:00 | 00:15:23 | 00:00:00 | |
| 9A1FER-15 | 2026-09-03 11:20:02 | 45.82274 | 16.03060 | 13° | 11km/h | 1139m | 6.3m/s | 19.2°C | 57.4% | 0hPa | 3.0V | 00:00:00 | 00:15:22 | 00:00:00 | |
| 9A1FER-10 | 2026-09-03 11:19:59 | 45.82274 | 16.03063 | 240° | 13km/h | 1116m | 7.4m/s | 19.4°C | 57.7% | 0hPa | 3.0V | 00:00:00 | 00:15:19 | 00:00:00 | |
| 9A1FER-3 | 2026-09-03 11:19:48 | 45.82264 | 16.03101 | 249° | 9km/h | 1027m | 6.4m/s | 0°C | 0% | 0hPa | 3.0V | 00:00:00 | 00:15:08 | 00:00:00 | |
| 9A1FER-15 | 2026-09-03 11:19:47 | 45.82264 | 16.03104 | 276° | 7km/h | 1020m | 7.9m/s | 20.2°C | 56.0% | 0hPa | 3.0V | 00:00:00 | 00:15:07 | 00:00:00 | |
| 9A1FER-10 | 2026-09-03 11:19:44 | 45.82260 | 16.03116 | 312° | 7km/h | 994m | 11.4m/s | 20.5°C | 55.9% | 0hPa | 3.0V | 00:00:00 | 00:15:04 | 00:00:00 | |
| 9A1FER-3 | 2026-09-03 11:19:33 | 45.82265 | 16.03130 | 36° | 13km/h | 896m | 8.4m/s | 0°C | 0% | 0hPa | 3.0V | 00:00:00 | 00:14:53 | 00:00:00 | |
| 9A1FER-15 | 2026-09-03 11:19:32 | 45.82263 | 16.03129 | 30° | 13km/h | 888m | 7.1m/s | 21.6°C | 49.4% | 0hPa | 3.0V | 00:00:00 | 00:14:52 | 00:00:00 | |
| 9A1FER-10 | 2026-09-03 11:19:29 | 45.82256 | 16.03134 | 290° | 15km/h | 860m | 9.2m/s | 21.9°C | 49.0% | 0hPa | 3.0V | 00:00:00 | 00:14:49 | 00:00:00 | |
| 9A1FER-3 | 2026-09-03 11:19:18 | 45.82256 | 16.03180 | 317° | 15km/h | 768m | 9.1m/s | 0°C | 0% | 0hPa | 0V | 00:00:00 | 00:14:38 | 00:00:00 | |
| 9A1FER-15 | 2026-09-03 11:19:17 | 45.82251 | 16.03183 | 345° | 13km/h | 760m | 7.2m/s | 22.8°C | 49.9% | 0hPa | 0V | 00:00:00 | 00:14:37 | 00:00:00 | |
| 9A1FER-10 | 2026-09-03 11:19:14 | 45.82240 | 16.03182 | 42° | 11km/h | 738m | 6.8m/s | 0°C | 0% | 0hPa | 0V | 00:00:00 | 00:14:34 | 00:00:00 | |
| 9A1FER-3 | 2026-09-03 11:19:03 | 45.82238 | 16.03198 | 213° | 13km/h | 660m | 6.1m/s | 0°C | 0% | 0hPa | 0V | 00:00:00 | 00:14:23 | 00:00:00 | |
| 9A1FER-15 | 2026-09-03 11:19:01 | 45.82241 | 16.03206 | 256° | 15km/h | 647m | 8.1m/s | 23.9°C | 47.0% | 0hPa | 0V | 00:00:00 | 00:14:21 | 00:00:00 | |
| 9A1FER-10 | 2026-09-03 11:18:59 | 45.82240 | 16.03219 | 310° | 13km/h | 633m | 6.0m/s | 0°C | 0% | 0hPa | 0V | 00:00:00 | 00:14:19 | 00:00:00 | |
| 9A1FER-15 | 2026-09-03 11:18:46 | 45.82209 | 16.03250 | 270° | 16km/h | 536m | 10.3m/s | 0°C | 0% | 0hPa | 0V | 00:00:00 | 00:14:06 | 00:00:00 | |
| 9A1FER-3 | 2026-09-03 11:18:46 | 45.82209 | 16.03250 | 270° | 16km/h | 536m | 10.3m/s | 0°C | 0% | 0hPa | 0V | 00:00:00 | 00:14:06 | 00:00:00 | |
| 9A1FER-10 | 2026-09-03 11:18:43 | 45.82207 | 16.03257 | 308° | 18km/h | 509m | 10.3m/s | 0°C | 0% | 0hPa | 0V | 00:00:00 | 00:14:03 | 00:00:00 | |
| 9A1FER-3 | 2026-09-03 11:18:31 | 45.82188 | 16.03318 | 260° | 15km/h | 427m | 7.8m/s | 0°C | 0% | 0hPa | 0V | 00:00:00 | 00:13:51 | 00:00:00 | |
| 9A1FER-15 | 2026-09-03 11:18:31 | 45.82188 | 16.03318 | 260° | 15km/h | 427m | 7.8m/s | 0°C | 0% | 0hPa | 0V | 00:00:00 | 00:13:51 | 00:00:00 | |
| 9A1FER-10 | 2026-09-03 11:18:28 | 45.82181 | 16.03333 | 351° | 15km/h | 405m | 8.2m/s | 0°C | 0% | 0hPa | 0V | 00:00:00 | 00:13:48 | 00:00:00 | |
| 9A1FER-15 | 2026-09-03 11:18:16 | 45.82172 | 16.03345 | 301° | 16km/h | 332m | 7.4m/s | 0°C | 0% | 0hPa | 0V | 00:00:00 | 00:13:36 | 00:00:00 | |
| 9A1FER-3 | 2026-09-03 11:18:16 | 45.82172 | 16.03345 | 301° | 20km/h | 332m | 7.4m/s | 0°C | 0% | 0hPa | 0V | 00:00:00 | 00:13:36 | 00:00:00 | |
| 9A1FER-10 | 2026-09-03 11:18:13 | 45.82158 | 16.03355 | 10° | 18km/h | 311m | 8.2m/s | 0°C | 0% | 0hPa | 0V | 00:00:00 | 00:13:33 | 00:00:00 | |
| 9A1FER-3 | 2026-09-03 11:18:01 | 45.82114 | 16.03352 | 337° | 20km/h | 240m | 4.8m/s | 0°C | 0% | 0hPa | 0V | 00:00:00 | 00:13:21 | 00:00:00 | |
| 9A1FER-15 | 2026-09-03 11:18:01 | 45.82114 | 16.03352 | 337° | 20km/h | 240m | 4.8m/s | 0°C | 0% | 0hPa | 0V | 00:00:00 | 00:13:21 | 00:00:00 | |
| 9A1FER-10 | 2026-09-03 11:17:58 | 45.82112 | 16.03369 | 209° | 9km/h | 225m | 5.0m/s | 0°C | 0% | 0hPa | 0V | 00:00:00 | 00:13:18 | 00:00:00 |